<?xml version="1.0" encoding="UTF-8" standalone="no" ?>
<gpx xmlns="http://www.topografix.com/GPX/1/1" xmlns:xsi="http://www.w3.org/2001/XMLSchema-instance" xsi:schemaLocation="http://www.topografix.com/GPX/1/1 http://www.topografix.com/GPX/1/1/gpx.xsd" version="1.1" creator="VisuGPX - https://www.visugpx.com">
  <metadata>
    <name>saint mande sur bredoire</name>
  </metadata>
  <trk>
    <name><![CDATA[2014-08-31-01 - saint mande sur bredoire]]></name>
    <extensions>
      <line xmlns="http://www.topografix.com/GPX/gpx_style/0/2">
        <width>3</width>
      </line>
    </extensions>
    <trkseg>
      <trkpt lat="46.02799" lon="-0.29677">
        <ele>74.4</ele>
        <time>2014-08-31T06:25:33.000Z</time>
      </trkpt>
      <trkpt lat="46.02799" lon="-0.29673">
        <ele>70</ele>
        <time>2014-08-31T06:25:34.000Z</time>
      </trkpt>
      <trkpt lat="46.02805" lon="-0.29662">
        <ele>65</ele>
        <time>2014-08-31T06:25:38.000Z</time>
      </trkpt>
      <trkpt lat="46.02814" lon="-0.29644">
        <ele>53</ele>
        <time>2014-08-31T06:25:46.000Z</time>
      </trkpt>
      <trkpt lat="46.02823" lon="-0.29629">
        <ele>42</ele>
        <time>2014-08-31T06:25:54.000Z</time>
      </trkpt>
      <trkpt lat="46.02876" lon="-0.29617">
        <ele>101.6</ele>
        <time>2014-08-31T06:25:57.000Z</time>
      </trkpt>
      <trkpt lat="46.02884" lon="-0.2961">
        <ele>103.7</ele>
        <time>2014-08-31T06:26:00.000Z</time>
      </trkpt>
      <trkpt lat="46.02893" lon="-0.29604">
        <ele>105.3</ele>
        <time>2014-08-31T06:26:03.000Z</time>
      </trkpt>
      <trkpt lat="46.02901" lon="-0.29597">
        <ele>106.8</ele>
        <time>2014-08-31T06:26:06.000Z</time>
      </trkpt>
      <trkpt lat="46.02909" lon="-0.2959">
        <ele>107.9</ele>
        <time>2014-08-31T06:26:09.000Z</time>
      </trkpt>
      <trkpt lat="46.02917" lon="-0.29583">
        <ele>108.9</ele>
        <time>2014-08-31T06:26:12.000Z</time>
      </trkpt>
      <trkpt lat="46.02925" lon="-0.29576">
        <ele>109.4</ele>
        <time>2014-08-31T06:26:15.000Z</time>
      </trkpt>
      <trkpt lat="46.02934" lon="-0.29568">
        <ele>109.9</ele>
        <time>2014-08-31T06:26:18.000Z</time>
      </trkpt>
      <trkpt lat="46.02943" lon="-0.29559">
        <ele>110.4</ele>
        <time>2014-08-31T06:26:21.000Z</time>
      </trkpt>
      <trkpt lat="46.02952" lon="-0.29549">
        <ele>111</ele>
        <time>2014-08-31T06:26:24.000Z</time>
      </trkpt>
      <trkpt lat="46.0296" lon="-0.29539">
        <ele>111.1</ele>
        <time>2014-08-31T06:26:27.000Z</time>
      </trkpt>
      <trkpt lat="46.02968" lon="-0.29528">
        <ele>111.3</ele>
        <time>2014-08-31T06:26:30.000Z</time>
      </trkpt>
      <trkpt lat="46.02977" lon="-0.29518">
        <ele>111.6</ele>
        <time>2014-08-31T06:26:33.000Z</time>
      </trkpt>
      <trkpt lat="46.02986" lon="-0.29508">
        <ele>111.9</ele>
        <time>2014-08-31T06:26:36.000Z</time>
      </trkpt>
      <trkpt lat="46.02995" lon="-0.29499">
        <ele>112.4</ele>
        <time>2014-08-31T06:26:39.000Z</time>
      </trkpt>
      <trkpt lat="46.03004" lon="-0.2949">
        <ele>112.5</ele>
        <time>2014-08-31T06:26:42.000Z</time>
      </trkpt>
      <trkpt lat="46.03013" lon="-0.29483">
        <ele>112.9</ele>
        <time>2014-08-31T06:26:45.000Z</time>
      </trkpt>
      <trkpt lat="46.03023" lon="-0.29477">
        <ele>113.3</ele>
        <time>2014-08-31T06:26:48.000Z</time>
      </trkpt>
      <trkpt lat="46.03033" lon="-0.29473">
        <ele>113.7</ele>
        <time>2014-08-31T06:26:51.000Z</time>
      </trkpt>
      <trkpt lat="46.03044" lon="-0.29469">
        <ele>114.4</ele>
        <time>2014-08-31T06:26:54.000Z</time>
      </trkpt>
      <trkpt lat="46.03055" lon="-0.29466">
        <ele>114.9</ele>
        <time>2014-08-31T06:26:57.000Z</time>
      </trkpt>
      <trkpt lat="46.03066" lon="-0.29462">
        <ele>115.4</ele>
        <time>2014-08-31T06:27:00.000Z</time>
      </trkpt>
      <trkpt lat="46.03077" lon="-0.29458">
        <ele>115.8</ele>
        <time>2014-08-31T06:27:03.000Z</time>
      </trkpt>
      <trkpt lat="46.03088" lon="-0.29454">
        <ele>116.4</ele>
        <time>2014-08-31T06:27:06.000Z</time>
      </trkpt>
      <trkpt lat="46.03097" lon="-0.29449">
        <ele>117.2</ele>
        <time>2014-08-31T06:27:09.000Z</time>
      </trkpt>
      <trkpt lat="46.03105" lon="-0.29437">
        <ele>117.8</ele>
        <time>2014-08-31T06:27:12.000Z</time>
      </trkpt>
      <trkpt lat="46.03111" lon="-0.29425">
        <ele>118.6</ele>
        <time>2014-08-31T06:27:15.000Z</time>
      </trkpt>
      <trkpt lat="46.03116" lon="-0.2941">
        <ele>119.5</ele>
        <time>2014-08-31T06:27:18.000Z</time>
      </trkpt>
      <trkpt lat="46.03123" lon="-0.29399">
        <ele>120.2</ele>
        <time>2014-08-31T06:27:20.000Z</time>
      </trkpt>
      <trkpt lat="46.0313" lon="-0.29388">
        <ele>120.7</ele>
        <time>2014-08-31T06:27:22.000Z</time>
      </trkpt>
      <trkpt lat="46.03141" lon="-0.29377">
        <ele>121.2</ele>
        <time>2014-08-31T06:27:25.000Z</time>
      </trkpt>
      <trkpt lat="46.03149" lon="-0.29368">
        <ele>121.8</ele>
        <time>2014-08-31T06:27:27.000Z</time>
      </trkpt>
      <trkpt lat="46.03157" lon="-0.29359">
        <ele>122.3</ele>
        <time>2014-08-31T06:27:29.000Z</time>
      </trkpt>
      <trkpt lat="46.03168" lon="-0.29349">
        <ele>123.3</ele>
        <time>2014-08-31T06:27:32.000Z</time>
      </trkpt>
      <trkpt lat="46.03175" lon="-0.29341">
        <ele>124.3</ele>
        <time>2014-08-31T06:27:34.000Z</time>
      </trkpt>
      <trkpt lat="46.03183" lon="-0.29334">
        <ele>125</ele>
        <time>2014-08-31T06:27:36.000Z</time>
      </trkpt>
      <trkpt lat="46.03191" lon="-0.29328">
        <ele>125.8</ele>
        <time>2014-08-31T06:27:38.000Z</time>
      </trkpt>
      <trkpt lat="46.03199" lon="-0.29318">
        <ele>127</ele>
        <time>2014-08-31T06:27:41.000Z</time>
      </trkpt>
      <trkpt lat="46.03199" lon="-0.29285">
        <ele>128.8</ele>
        <time>2014-08-31T06:27:47.000Z</time>
      </trkpt>
      <trkpt lat="46.03196" lon="-0.29271">
        <ele>129.4</ele>
        <time>2014-08-31T06:27:49.000Z</time>
      </trkpt>
      <trkpt lat="46.03188" lon="-0.29258">
        <ele>130.5</ele>
        <time>2014-08-31T06:27:52.000Z</time>
      </trkpt>
      <trkpt lat="46.03176" lon="-0.29249">
        <ele>131.7</ele>
        <time>2014-08-31T06:27:55.000Z</time>
      </trkpt>
      <trkpt lat="46.03169" lon="-0.29234">
        <ele>132.5</ele>
        <time>2014-08-31T06:27:57.000Z</time>
      </trkpt>
      <trkpt lat="46.03162" lon="-0.29223">
        <ele>133.6</ele>
        <time>2014-08-31T06:28:00.000Z</time>
      </trkpt>
      <trkpt lat="46.03157" lon="-0.29208">
        <ele>134.3</ele>
        <time>2014-08-31T06:28:03.000Z</time>
      </trkpt>
      <trkpt lat="46.03152" lon="-0.29196">
        <ele>134.7</ele>
        <time>2014-08-31T06:28:05.000Z</time>
      </trkpt>
      <trkpt lat="46.03146" lon="-0.29178">
        <ele>135.6</ele>
        <time>2014-08-31T06:28:08.000Z</time>
      </trkpt>
      <trkpt lat="46.03138" lon="-0.29165">
        <ele>135.9</ele>
        <time>2014-08-31T06:28:10.000Z</time>
      </trkpt>
      <trkpt lat="46.03128" lon="-0.29155">
        <ele>137.1</ele>
        <time>2014-08-31T06:28:13.000Z</time>
      </trkpt>
      <trkpt lat="46.03125" lon="-0.29136">
        <ele>137.8</ele>
        <time>2014-08-31T06:28:17.000Z</time>
      </trkpt>
      <trkpt lat="46.03117" lon="-0.29121">
        <ele>138.3</ele>
        <time>2014-08-31T06:28:20.000Z</time>
      </trkpt>
      <trkpt lat="46.03111" lon="-0.2911">
        <ele>140.1</ele>
        <time>2014-08-31T06:28:23.000Z</time>
      </trkpt>
      <trkpt lat="46.03113" lon="-0.29093">
        <ele>142.4</ele>
        <time>2014-08-31T06:28:27.000Z</time>
      </trkpt>
      <trkpt lat="46.03121" lon="-0.29078">
        <ele>142.9</ele>
        <time>2014-08-31T06:28:30.000Z</time>
      </trkpt>
      <trkpt lat="46.03127" lon="-0.29068">
        <ele>141.2</ele>
        <time>2014-08-31T06:28:32.000Z</time>
      </trkpt>
      <trkpt lat="46.03136" lon="-0.29056">
        <ele>140.9</ele>
        <time>2014-08-31T06:28:34.000Z</time>
      </trkpt>
      <trkpt lat="46.03145" lon="-0.29044">
        <ele>140.8</ele>
        <time>2014-08-31T06:28:36.000Z</time>
      </trkpt>
      <trkpt lat="46.03155" lon="-0.29031">
        <ele>140.5</ele>
        <time>2014-08-31T06:28:38.000Z</time>
      </trkpt>
      <trkpt lat="46.03163" lon="-0.29018">
        <ele>140.2</ele>
        <time>2014-08-31T06:28:40.000Z</time>
      </trkpt>
      <trkpt lat="46.0317" lon="-0.29007">
        <ele>140.4</ele>
        <time>2014-08-31T06:28:42.000Z</time>
      </trkpt>
      <trkpt lat="46.0317" lon="-0.28983">
        <ele>145.3</ele>
        <time>2014-08-31T06:28:51.000Z</time>
      </trkpt>
      <trkpt lat="46.03161" lon="-0.28975">
        <ele>146.9</ele>
        <time>2014-08-31T06:28:54.000Z</time>
      </trkpt>
      <trkpt lat="46.03154" lon="-0.28964">
        <ele>148.8</ele>
        <time>2014-08-31T06:28:57.000Z</time>
      </trkpt>
      <trkpt lat="46.03145" lon="-0.2895">
        <ele>148.9</ele>
        <time>2014-08-31T06:29:00.000Z</time>
      </trkpt>
      <trkpt lat="46.03131" lon="-0.28945">
        <ele>147.9</ele>
        <time>2014-08-31T06:29:02.000Z</time>
      </trkpt>
      <trkpt lat="46.03121" lon="-0.28941">
        <ele>147.7</ele>
        <time>2014-08-31T06:29:03.000Z</time>
      </trkpt>
      <trkpt lat="46.03107" lon="-0.28934">
        <ele>147.4</ele>
        <time>2014-08-31T06:29:05.000Z</time>
      </trkpt>
      <trkpt lat="46.03098" lon="-0.2893">
        <ele>147.2</ele>
        <time>2014-08-31T06:29:06.000Z</time>
      </trkpt>
      <trkpt lat="46.03084" lon="-0.28923">
        <ele>146.5</ele>
        <time>2014-08-31T06:29:08.000Z</time>
      </trkpt>
      <trkpt lat="46.03074" lon="-0.28919">
        <ele>146.3</ele>
        <time>2014-08-31T06:29:09.000Z</time>
      </trkpt>
      <trkpt lat="46.03064" lon="-0.28915">
        <ele>145.5</ele>
        <time>2014-08-31T06:29:10.000Z</time>
      </trkpt>
      <trkpt lat="46.03048" lon="-0.28908">
        <ele>145.4</ele>
        <time>2014-08-31T06:29:12.000Z</time>
      </trkpt>
      <trkpt lat="46.03034" lon="-0.28903">
        <ele>145.7</ele>
        <time>2014-08-31T06:29:14.000Z</time>
      </trkpt>
      <trkpt lat="46.03018" lon="-0.28898">
        <ele>145.7</ele>
        <time>2014-08-31T06:29:16.000Z</time>
      </trkpt>
      <trkpt lat="46.03007" lon="-0.28892">
        <ele>135.2</ele>
        <time>2014-08-31T06:29:20.000Z</time>
      </trkpt>
      <trkpt lat="46.02991" lon="-0.28892">
        <ele>133.3</ele>
        <time>2014-08-31T06:29:22.000Z</time>
      </trkpt>
      <trkpt lat="46.02976" lon="-0.28892">
        <ele>131.8</ele>
        <time>2014-08-31T06:29:24.000Z</time>
      </trkpt>
      <trkpt lat="46.0296" lon="-0.28892">
        <ele>130.7</ele>
        <time>2014-08-31T06:29:26.000Z</time>
      </trkpt>
      <trkpt lat="46.02944" lon="-0.28894">
        <ele>129.7</ele>
        <time>2014-08-31T06:29:28.000Z</time>
      </trkpt>
      <trkpt lat="46.02929" lon="-0.28896">
        <ele>128.7</ele>
        <time>2014-08-31T06:29:30.000Z</time>
      </trkpt>
      <trkpt lat="46.02915" lon="-0.28895">
        <ele>127</ele>
        <time>2014-08-31T06:29:32.000Z</time>
      </trkpt>
      <trkpt lat="46.02904" lon="-0.28897">
        <ele>125.6</ele>
        <time>2014-08-31T06:29:34.000Z</time>
      </trkpt>
      <trkpt lat="46.02893" lon="-0.28899">
        <ele>125.3</ele>
        <time>2014-08-31T06:29:36.000Z</time>
      </trkpt>
      <trkpt lat="46.02881" lon="-0.28901">
        <ele>124.8</ele>
        <time>2014-08-31T06:29:39.000Z</time>
      </trkpt>
      <trkpt lat="46.02863" lon="-0.28899">
        <ele>119.7</ele>
        <time>2014-08-31T06:29:42.000Z</time>
      </trkpt>
      <trkpt lat="46.02851" lon="-0.28896">
        <ele>116.1</ele>
        <time>2014-08-31T06:29:44.000Z</time>
      </trkpt>
      <trkpt lat="46.02852" lon="-0.2889">
        <ele>99.8</ele>
        <time>2014-08-31T06:32:19.000Z</time>
      </trkpt>
      <trkpt lat="46.02874" lon="-0.28887">
        <ele>95.2</ele>
        <time>2014-08-31T06:32:25.000Z</time>
      </trkpt>
      <trkpt lat="46.02885" lon="-0.28885">
        <ele>93.2</ele>
        <time>2014-08-31T06:32:28.000Z</time>
      </trkpt>
      <trkpt lat="46.02895" lon="-0.28884">
        <ele>91.8</ele>
        <time>2014-08-31T06:32:31.000Z</time>
      </trkpt>
      <trkpt lat="46.02907" lon="-0.28882">
        <ele>90.1</ele>
        <time>2014-08-31T06:32:34.000Z</time>
      </trkpt>
      <trkpt lat="46.02917" lon="-0.2888">
        <ele>89</ele>
        <time>2014-08-31T06:32:37.000Z</time>
      </trkpt>
      <trkpt lat="46.02928" lon="-0.28878">
        <ele>88.3</ele>
        <time>2014-08-31T06:32:40.000Z</time>
      </trkpt>
      <trkpt lat="46.02938" lon="-0.28874">
        <ele>87.9</ele>
        <time>2014-08-31T06:32:43.000Z</time>
      </trkpt>
      <trkpt lat="46.02947" lon="-0.28867">
        <ele>86.7</ele>
        <time>2014-08-31T06:32:46.000Z</time>
      </trkpt>
      <trkpt lat="46.02957" lon="-0.28859">
        <ele>85.9</ele>
        <time>2014-08-31T06:32:49.000Z</time>
      </trkpt>
      <trkpt lat="46.02968" lon="-0.28852">
        <ele>84.8</ele>
        <time>2014-08-31T06:32:52.000Z</time>
      </trkpt>
      <trkpt lat="46.02976" lon="-0.28843">
        <ele>83</ele>
        <time>2014-08-31T06:32:55.000Z</time>
      </trkpt>
      <trkpt lat="46.02985" lon="-0.28832">
        <ele>81.6</ele>
        <time>2014-08-31T06:32:58.000Z</time>
      </trkpt>
      <trkpt lat="46.02995" lon="-0.28822">
        <ele>80.7</ele>
        <time>2014-08-31T06:33:01.000Z</time>
      </trkpt>
      <trkpt lat="46.03005" lon="-0.28812">
        <ele>80.2</ele>
        <time>2014-08-31T06:33:04.000Z</time>
      </trkpt>
      <trkpt lat="46.03016" lon="-0.28802">
        <ele>79.8</ele>
        <time>2014-08-31T06:33:07.000Z</time>
      </trkpt>
      <trkpt lat="46.03026" lon="-0.28792">
        <ele>78.8</ele>
        <time>2014-08-31T06:33:10.000Z</time>
      </trkpt>
      <trkpt lat="46.03036" lon="-0.28783">
        <ele>78.1</ele>
        <time>2014-08-31T06:33:13.000Z</time>
      </trkpt>
      <trkpt lat="46.03043" lon="-0.28776">
        <ele>78.1</ele>
        <time>2014-08-31T06:33:15.000Z</time>
      </trkpt>
      <trkpt lat="46.03053" lon="-0.28767">
        <ele>77.6</ele>
        <time>2014-08-31T06:33:18.000Z</time>
      </trkpt>
      <trkpt lat="46.03063" lon="-0.28756">
        <ele>77.1</ele>
        <time>2014-08-31T06:33:21.000Z</time>
      </trkpt>
      <trkpt lat="46.0308" lon="-0.28733">
        <ele>75.8</ele>
        <time>2014-08-31T06:33:27.000Z</time>
      </trkpt>
      <trkpt lat="46.03088" lon="-0.28723">
        <ele>75.5</ele>
        <time>2014-08-31T06:33:30.000Z</time>
      </trkpt>
      <trkpt lat="46.03097" lon="-0.28713">
        <ele>76</ele>
        <time>2014-08-31T06:33:33.000Z</time>
      </trkpt>
      <trkpt lat="46.03104" lon="-0.28705">
        <ele>76.6</ele>
        <time>2014-08-31T06:33:35.000Z</time>
      </trkpt>
      <trkpt lat="46.03112" lon="-0.28697">
        <ele>76.8</ele>
        <time>2014-08-31T06:33:37.000Z</time>
      </trkpt>
      <trkpt lat="46.03119" lon="-0.28688">
        <ele>76.7</ele>
        <time>2014-08-31T06:33:39.000Z</time>
      </trkpt>
      <trkpt lat="46.03126" lon="-0.28679">
        <ele>77.7</ele>
        <time>2014-08-31T06:33:41.000Z</time>
      </trkpt>
      <trkpt lat="46.03134" lon="-0.2867">
        <ele>78.7</ele>
        <time>2014-08-31T06:33:43.000Z</time>
      </trkpt>
      <trkpt lat="46.03141" lon="-0.28661">
        <ele>79.1</ele>
        <time>2014-08-31T06:33:45.000Z</time>
      </trkpt>
      <trkpt lat="46.03149" lon="-0.28651">
        <ele>79.8</ele>
        <time>2014-08-31T06:33:47.000Z</time>
      </trkpt>
      <trkpt lat="46.03158" lon="-0.28642">
        <ele>80.4</ele>
        <time>2014-08-31T06:33:49.000Z</time>
      </trkpt>
      <trkpt lat="46.03166" lon="-0.28633">
        <ele>80.7</ele>
        <time>2014-08-31T06:33:51.000Z</time>
      </trkpt>
      <trkpt lat="46.03174" lon="-0.28625">
        <ele>81.2</ele>
        <time>2014-08-31T06:33:53.000Z</time>
      </trkpt>
      <trkpt lat="46.03182" lon="-0.28618">
        <ele>81.7</ele>
        <time>2014-08-31T06:33:55.000Z</time>
      </trkpt>
      <trkpt lat="46.03192" lon="-0.2862">
        <ele>82.3</ele>
        <time>2014-08-31T06:33:58.000Z</time>
      </trkpt>
      <trkpt lat="46.03202" lon="-0.28616">
        <ele>84.5</ele>
        <time>2014-08-31T06:34:05.000Z</time>
      </trkpt>
      <trkpt lat="46.03212" lon="-0.28612">
        <ele>86.5</ele>
        <time>2014-08-31T06:34:10.000Z</time>
      </trkpt>
      <trkpt lat="46.03223" lon="-0.28611">
        <ele>88.1</ele>
        <time>2014-08-31T06:34:14.000Z</time>
      </trkpt>
      <trkpt lat="46.03233" lon="-0.28607">
        <ele>90.2</ele>
        <time>2014-08-31T06:34:18.000Z</time>
      </trkpt>
      <trkpt lat="46.03244" lon="-0.28597">
        <ele>91.6</ele>
        <time>2014-08-31T06:34:21.000Z</time>
      </trkpt>
      <trkpt lat="46.03253" lon="-0.28597">
        <ele>93.8</ele>
        <time>2014-08-31T06:34:24.000Z</time>
      </trkpt>
      <trkpt lat="46.03272" lon="-0.28589">
        <ele>97.8</ele>
        <time>2014-08-31T06:34:31.000Z</time>
      </trkpt>
      <trkpt lat="46.03282" lon="-0.28586">
        <ele>100.8</ele>
        <time>2014-08-31T06:34:35.000Z</time>
      </trkpt>
      <trkpt lat="46.0329" lon="-0.28577">
        <ele>103.8</ele>
        <time>2014-08-31T06:34:39.000Z</time>
      </trkpt>
      <trkpt lat="46.03302" lon="-0.28571">
        <ele>106.7</ele>
        <time>2014-08-31T06:34:43.000Z</time>
      </trkpt>
      <trkpt lat="46.03312" lon="-0.28565">
        <ele>107.9</ele>
        <time>2014-08-31T06:34:46.000Z</time>
      </trkpt>
      <trkpt lat="46.03314" lon="-0.2855">
        <ele>110.9</ele>
        <time>2014-08-31T06:34:51.000Z</time>
      </trkpt>
      <trkpt lat="46.03318" lon="-0.28538">
        <ele>114.7</ele>
        <time>2014-08-31T06:34:56.000Z</time>
      </trkpt>
      <trkpt lat="46.03321" lon="-0.28524">
        <ele>116.4</ele>
        <time>2014-08-31T06:34:59.000Z</time>
      </trkpt>
      <trkpt lat="46.03325" lon="-0.28509">
        <ele>117.7</ele>
        <time>2014-08-31T06:35:02.000Z</time>
      </trkpt>
      <trkpt lat="46.03333" lon="-0.28493">
        <ele>118.1</ele>
        <time>2014-08-31T06:35:05.000Z</time>
      </trkpt>
      <trkpt lat="46.03341" lon="-0.28485">
        <ele>119</ele>
        <time>2014-08-31T06:35:08.000Z</time>
      </trkpt>
      <trkpt lat="46.03351" lon="-0.2848">
        <ele>117.8</ele>
        <time>2014-08-31T06:35:10.000Z</time>
      </trkpt>
      <trkpt lat="46.03361" lon="-0.28474">
        <ele>118.1</ele>
        <time>2014-08-31T06:35:12.000Z</time>
      </trkpt>
      <trkpt lat="46.0337" lon="-0.28472">
        <ele>118.1</ele>
        <time>2014-08-31T06:35:14.000Z</time>
      </trkpt>
      <trkpt lat="46.0338" lon="-0.28468">
        <ele>118</ele>
        <time>2014-08-31T06:35:17.000Z</time>
      </trkpt>
      <trkpt lat="46.03388" lon="-0.28462">
        <ele>119.4</ele>
        <time>2014-08-31T06:35:20.000Z</time>
      </trkpt>
      <trkpt lat="46.03398" lon="-0.28459">
        <ele>121.6</ele>
        <time>2014-08-31T06:35:23.000Z</time>
      </trkpt>
      <trkpt lat="46.03414" lon="-0.28452">
        <ele>122.2</ele>
        <time>2014-08-31T06:35:27.000Z</time>
      </trkpt>
      <trkpt lat="46.03441" lon="-0.28444">
        <ele>122.1</ele>
        <time>2014-08-31T06:35:31.000Z</time>
      </trkpt>
      <trkpt lat="46.03452" lon="-0.28439">
        <ele>123.5</ele>
        <time>2014-08-31T06:35:34.000Z</time>
      </trkpt>
      <trkpt lat="46.03461" lon="-0.28433">
        <ele>123.5</ele>
        <time>2014-08-31T06:35:36.000Z</time>
      </trkpt>
      <trkpt lat="46.0347" lon="-0.28427">
        <ele>122.9</ele>
        <time>2014-08-31T06:35:38.000Z</time>
      </trkpt>
      <trkpt lat="46.03479" lon="-0.28422">
        <ele>123.2</ele>
        <time>2014-08-31T06:35:40.000Z</time>
      </trkpt>
      <trkpt lat="46.03492" lon="-0.28414">
        <ele>121.5</ele>
        <time>2014-08-31T06:35:42.000Z</time>
      </trkpt>
      <trkpt lat="46.03501" lon="-0.28409">
        <ele>122.6</ele>
        <time>2014-08-31T06:35:44.000Z</time>
      </trkpt>
      <trkpt lat="46.03511" lon="-0.28404">
        <ele>123.4</ele>
        <time>2014-08-31T06:35:46.000Z</time>
      </trkpt>
      <trkpt lat="46.03521" lon="-0.28397">
        <ele>124.3</ele>
        <time>2014-08-31T06:35:49.000Z</time>
      </trkpt>
      <trkpt lat="46.03532" lon="-0.28392">
        <ele>124.9</ele>
        <time>2014-08-31T06:35:52.000Z</time>
      </trkpt>
      <trkpt lat="46.03546" lon="-0.28386">
        <ele>125.5</ele>
        <time>2014-08-31T06:35:54.000Z</time>
      </trkpt>
      <trkpt lat="46.03557" lon="-0.28383">
        <ele>126.9</ele>
        <time>2014-08-31T06:35:56.000Z</time>
      </trkpt>
      <trkpt lat="46.03567" lon="-0.28379">
        <ele>127.7</ele>
        <time>2014-08-31T06:35:58.000Z</time>
      </trkpt>
      <trkpt lat="46.03576" lon="-0.28373">
        <ele>128.4</ele>
        <time>2014-08-31T06:36:00.000Z</time>
      </trkpt>
      <trkpt lat="46.03585" lon="-0.28367">
        <ele>129.4</ele>
        <time>2014-08-31T06:36:02.000Z</time>
      </trkpt>
      <trkpt lat="46.03594" lon="-0.28362">
        <ele>130.5</ele>
        <time>2014-08-31T06:36:04.000Z</time>
      </trkpt>
      <trkpt lat="46.03602" lon="-0.28355">
        <ele>130</ele>
        <time>2014-08-31T06:36:06.000Z</time>
      </trkpt>
      <trkpt lat="46.03611" lon="-0.28349">
        <ele>130.7</ele>
        <time>2014-08-31T06:36:08.000Z</time>
      </trkpt>
      <trkpt lat="46.03623" lon="-0.28353">
        <ele>132.5</ele>
        <time>2014-08-31T06:36:11.000Z</time>
      </trkpt>
      <trkpt lat="46.03627" lon="-0.28368">
        <ele>132.6</ele>
        <time>2014-08-31T06:36:14.000Z</time>
      </trkpt>
      <trkpt lat="46.03631" lon="-0.28384">
        <ele>132.8</ele>
        <time>2014-08-31T06:36:17.000Z</time>
      </trkpt>
      <trkpt lat="46.03636" lon="-0.284">
        <ele>133.6</ele>
        <time>2014-08-31T06:36:20.000Z</time>
      </trkpt>
      <trkpt lat="46.03642" lon="-0.28415">
        <ele>135</ele>
        <time>2014-08-31T06:36:23.000Z</time>
      </trkpt>
      <trkpt lat="46.03647" lon="-0.28429">
        <ele>136.5</ele>
        <time>2014-08-31T06:36:26.000Z</time>
      </trkpt>
      <trkpt lat="46.03652" lon="-0.28446">
        <ele>137.4</ele>
        <time>2014-08-31T06:36:29.000Z</time>
      </trkpt>
      <trkpt lat="46.03662" lon="-0.28475">
        <ele>138.5</ele>
        <time>2014-08-31T06:36:34.000Z</time>
      </trkpt>
      <trkpt lat="46.03668" lon="-0.2849">
        <ele>137.7</ele>
        <time>2014-08-31T06:36:37.000Z</time>
      </trkpt>
      <trkpt lat="46.03672" lon="-0.28506">
        <ele>138.2</ele>
        <time>2014-08-31T06:36:40.000Z</time>
      </trkpt>
      <trkpt lat="46.03676" lon="-0.28522">
        <ele>139.3</ele>
        <time>2014-08-31T06:36:43.000Z</time>
      </trkpt>
      <trkpt lat="46.03681" lon="-0.28532">
        <ele>140.1</ele>
        <time>2014-08-31T06:36:45.000Z</time>
      </trkpt>
      <trkpt lat="46.03688" lon="-0.28549">
        <ele>140.4</ele>
        <time>2014-08-31T06:36:48.000Z</time>
      </trkpt>
      <trkpt lat="46.03693" lon="-0.28566">
        <ele>140.4</ele>
        <time>2014-08-31T06:36:51.000Z</time>
      </trkpt>
      <trkpt lat="46.03699" lon="-0.28584">
        <ele>140.9</ele>
        <time>2014-08-31T06:36:54.000Z</time>
      </trkpt>
      <trkpt lat="46.03704" lon="-0.286">
        <ele>141.4</ele>
        <time>2014-08-31T06:36:57.000Z</time>
      </trkpt>
      <trkpt lat="46.03711" lon="-0.28612">
        <ele>141.6</ele>
        <time>2014-08-31T06:36:59.000Z</time>
      </trkpt>
      <trkpt lat="46.03723" lon="-0.28621">
        <ele>141.1</ele>
        <time>2014-08-31T06:37:02.000Z</time>
      </trkpt>
      <trkpt lat="46.03734" lon="-0.28626">
        <ele>136.1</ele>
        <time>2014-08-31T06:37:05.000Z</time>
      </trkpt>
      <trkpt lat="46.03743" lon="-0.28628">
        <ele>132.6</ele>
        <time>2014-08-31T06:37:07.000Z</time>
      </trkpt>
      <trkpt lat="46.03756" lon="-0.28634">
        <ele>128</ele>
        <time>2014-08-31T06:37:10.000Z</time>
      </trkpt>
      <trkpt lat="46.03764" lon="-0.28628">
        <ele>126.1</ele>
        <time>2014-08-31T06:37:12.000Z</time>
      </trkpt>
      <trkpt lat="46.03773" lon="-0.28621">
        <ele>124.8</ele>
        <time>2014-08-31T06:37:14.000Z</time>
      </trkpt>
      <trkpt lat="46.03781" lon="-0.28616">
        <ele>123.8</ele>
        <time>2014-08-31T06:37:16.000Z</time>
      </trkpt>
      <trkpt lat="46.0379" lon="-0.28611">
        <ele>123.1</ele>
        <time>2014-08-31T06:37:18.000Z</time>
      </trkpt>
      <trkpt lat="46.03798" lon="-0.28604">
        <ele>122.3</ele>
        <time>2014-08-31T06:37:20.000Z</time>
      </trkpt>
      <trkpt lat="46.03806" lon="-0.28597">
        <ele>121.4</ele>
        <time>2014-08-31T06:37:22.000Z</time>
      </trkpt>
      <trkpt lat="46.03814" lon="-0.2859">
        <ele>121.2</ele>
        <time>2014-08-31T06:37:24.000Z</time>
      </trkpt>
      <trkpt lat="46.03825" lon="-0.28584">
        <ele>121.3</ele>
        <time>2014-08-31T06:37:27.000Z</time>
      </trkpt>
      <trkpt lat="46.03835" lon="-0.28581">
        <ele>121.7</ele>
        <time>2014-08-31T06:37:30.000Z</time>
      </trkpt>
      <trkpt lat="46.03844" lon="-0.28611">
        <ele>122.1</ele>
        <time>2014-08-31T06:37:35.000Z</time>
      </trkpt>
      <trkpt lat="46.03847" lon="-0.28629">
        <ele>121.7</ele>
        <time>2014-08-31T06:37:38.000Z</time>
      </trkpt>
      <trkpt lat="46.03849" lon="-0.28648">
        <ele>121.8</ele>
        <time>2014-08-31T06:37:41.000Z</time>
      </trkpt>
      <trkpt lat="46.03858" lon="-0.28651">
        <ele>121.3</ele>
        <time>2014-08-31T06:37:45.000Z</time>
      </trkpt>
      <trkpt lat="46.03865" lon="-0.28643">
        <ele>121.2</ele>
        <time>2014-08-31T06:37:47.000Z</time>
      </trkpt>
      <trkpt lat="46.03874" lon="-0.28645">
        <ele>121.5</ele>
        <time>2014-08-31T06:37:50.000Z</time>
      </trkpt>
      <trkpt lat="46.03882" lon="-0.28653">
        <ele>121.4</ele>
        <time>2014-08-31T06:37:55.000Z</time>
      </trkpt>
      <trkpt lat="46.03892" lon="-0.28651">
        <ele>121.3</ele>
        <time>2014-08-31T06:37:59.000Z</time>
      </trkpt>
      <trkpt lat="46.03902" lon="-0.28643">
        <ele>122.2</ele>
        <time>2014-08-31T06:38:03.000Z</time>
      </trkpt>
      <trkpt lat="46.03913" lon="-0.28635">
        <ele>123.2</ele>
        <time>2014-08-31T06:38:06.000Z</time>
      </trkpt>
      <trkpt lat="46.03925" lon="-0.28635">
        <ele>124.3</ele>
        <time>2014-08-31T06:38:09.000Z</time>
      </trkpt>
      <trkpt lat="46.03937" lon="-0.2863">
        <ele>124.2</ele>
        <time>2014-08-31T06:38:14.000Z</time>
      </trkpt>
      <trkpt lat="46.03944" lon="-0.2862">
        <ele>123.4</ele>
        <time>2014-08-31T06:38:17.000Z</time>
      </trkpt>
      <trkpt lat="46.0395" lon="-0.2861">
        <ele>123</ele>
        <time>2014-08-31T06:38:20.000Z</time>
      </trkpt>
      <trkpt lat="46.03954" lon="-0.28597">
        <ele>124.2</ele>
        <time>2014-08-31T06:38:24.000Z</time>
      </trkpt>
      <trkpt lat="46.0396" lon="-0.28586">
        <ele>125</ele>
        <time>2014-08-31T06:38:27.000Z</time>
      </trkpt>
      <trkpt lat="46.03967" lon="-0.28574">
        <ele>125.5</ele>
        <time>2014-08-31T06:38:30.000Z</time>
      </trkpt>
      <trkpt lat="46.03975" lon="-0.28558">
        <ele>125.4</ele>
        <time>2014-08-31T06:38:33.000Z</time>
      </trkpt>
      <trkpt lat="46.03987" lon="-0.28533">
        <ele>126.3</ele>
        <time>2014-08-31T06:38:38.000Z</time>
      </trkpt>
      <trkpt lat="46.03995" lon="-0.28518">
        <ele>126.5</ele>
        <time>2014-08-31T06:38:40.000Z</time>
      </trkpt>
      <trkpt lat="46.04002" lon="-0.28506">
        <ele>126.5</ele>
        <time>2014-08-31T06:38:42.000Z</time>
      </trkpt>
      <trkpt lat="46.0401" lon="-0.28494">
        <ele>126</ele>
        <time>2014-08-31T06:38:44.000Z</time>
      </trkpt>
      <trkpt lat="46.04019" lon="-0.28482">
        <ele>126.2</ele>
        <time>2014-08-31T06:38:46.000Z</time>
      </trkpt>
      <trkpt lat="46.04025" lon="-0.28472">
        <ele>126.9</ele>
        <time>2014-08-31T06:38:48.000Z</time>
      </trkpt>
      <trkpt lat="46.04033" lon="-0.28462">
        <ele>128.2</ele>
        <time>2014-08-31T06:38:51.000Z</time>
      </trkpt>
      <trkpt lat="46.04043" lon="-0.28449">
        <ele>129</ele>
        <time>2014-08-31T06:38:54.000Z</time>
      </trkpt>
      <trkpt lat="46.0405" lon="-0.28435">
        <ele>130.2</ele>
        <time>2014-08-31T06:38:57.000Z</time>
      </trkpt>
      <trkpt lat="46.04058" lon="-0.28426">
        <ele>131.1</ele>
        <time>2014-08-31T06:38:59.000Z</time>
      </trkpt>
      <trkpt lat="46.04067" lon="-0.28415">
        <ele>132.1</ele>
        <time>2014-08-31T06:39:02.000Z</time>
      </trkpt>
      <trkpt lat="46.04074" lon="-0.284">
        <ele>133.2</ele>
        <time>2014-08-31T06:39:06.000Z</time>
      </trkpt>
      <trkpt lat="46.0408" lon="-0.28388">
        <ele>134.8</ele>
        <time>2014-08-31T06:39:09.000Z</time>
      </trkpt>
      <trkpt lat="46.04086" lon="-0.28378">
        <ele>135.6</ele>
        <time>2014-08-31T06:39:11.000Z</time>
      </trkpt>
      <trkpt lat="46.04097" lon="-0.28362">
        <ele>136.4</ele>
        <time>2014-08-31T06:39:14.000Z</time>
      </trkpt>
      <trkpt lat="46.04103" lon="-0.28351">
        <ele>135.9</ele>
        <time>2014-08-31T06:39:16.000Z</time>
      </trkpt>
      <trkpt lat="46.0411" lon="-0.28338">
        <ele>135.2</ele>
        <time>2014-08-31T06:39:18.000Z</time>
      </trkpt>
      <trkpt lat="46.04118" lon="-0.28327">
        <ele>134.6</ele>
        <time>2014-08-31T06:39:20.000Z</time>
      </trkpt>
      <trkpt lat="46.04125" lon="-0.28317">
        <ele>133.1</ele>
        <time>2014-08-31T06:39:22.000Z</time>
      </trkpt>
      <trkpt lat="46.04132" lon="-0.28309">
        <ele>133</ele>
        <time>2014-08-31T06:39:24.000Z</time>
      </trkpt>
      <trkpt lat="46.0414" lon="-0.28299">
        <ele>131.4</ele>
        <time>2014-08-31T06:39:26.000Z</time>
      </trkpt>
      <trkpt lat="46.04146" lon="-0.28288">
        <ele>130.2</ele>
        <time>2014-08-31T06:39:28.000Z</time>
      </trkpt>
      <trkpt lat="46.04157" lon="-0.28274">
        <ele>128.6</ele>
        <time>2014-08-31T06:39:30.000Z</time>
      </trkpt>
      <trkpt lat="46.04165" lon="-0.28264">
        <ele>128.5</ele>
        <time>2014-08-31T06:39:32.000Z</time>
      </trkpt>
      <trkpt lat="46.04174" lon="-0.2825">
        <ele>126.7</ele>
        <time>2014-08-31T06:39:35.000Z</time>
      </trkpt>
      <trkpt lat="46.0419" lon="-0.28224">
        <ele>124.9</ele>
        <time>2014-08-31T06:39:41.000Z</time>
      </trkpt>
      <trkpt lat="46.04197" lon="-0.28214">
        <ele>124.4</ele>
        <time>2014-08-31T06:39:43.000Z</time>
      </trkpt>
      <trkpt lat="46.04197" lon="-0.28196">
        <ele>123.6</ele>
        <time>2014-08-31T06:39:46.000Z</time>
      </trkpt>
      <trkpt lat="46.0419" lon="-0.28184">
        <ele>123.3</ele>
        <time>2014-08-31T06:39:48.000Z</time>
      </trkpt>
      <trkpt lat="46.04183" lon="-0.28172">
        <ele>123.5</ele>
        <time>2014-08-31T06:39:50.000Z</time>
      </trkpt>
      <trkpt lat="46.04176" lon="-0.28161">
        <ele>123.1</ele>
        <time>2014-08-31T06:39:52.000Z</time>
      </trkpt>
      <trkpt lat="46.04168" lon="-0.28148">
        <ele>122</ele>
        <time>2014-08-31T06:39:54.000Z</time>
      </trkpt>
      <trkpt lat="46.04162" lon="-0.28136">
        <ele>121.3</ele>
        <time>2014-08-31T06:39:56.000Z</time>
      </trkpt>
      <trkpt lat="46.04156" lon="-0.28125">
        <ele>120.7</ele>
        <time>2014-08-31T06:39:58.000Z</time>
      </trkpt>
      <trkpt lat="46.04147" lon="-0.2812">
        <ele>119.8</ele>
        <time>2014-08-31T06:40:00.000Z</time>
      </trkpt>
      <trkpt lat="46.04135" lon="-0.28123">
        <ele>119.3</ele>
        <time>2014-08-31T06:40:02.000Z</time>
      </trkpt>
      <trkpt lat="46.04125" lon="-0.28124">
        <ele>118.5</ele>
        <time>2014-08-31T06:40:04.000Z</time>
      </trkpt>
      <trkpt lat="46.04116" lon="-0.28125">
        <ele>118</ele>
        <time>2014-08-31T06:40:06.000Z</time>
      </trkpt>
      <trkpt lat="46.04102" lon="-0.28127">
        <ele>117.1</ele>
        <time>2014-08-31T06:40:09.000Z</time>
      </trkpt>
      <trkpt lat="46.04092" lon="-0.28128">
        <ele>116.3</ele>
        <time>2014-08-31T06:40:11.000Z</time>
      </trkpt>
      <trkpt lat="46.0408" lon="-0.28131">
        <ele>115.5</ele>
        <time>2014-08-31T06:40:13.000Z</time>
      </trkpt>
      <trkpt lat="46.04066" lon="-0.28132">
        <ele>114</ele>
        <time>2014-08-31T06:40:15.000Z</time>
      </trkpt>
      <trkpt lat="46.04051" lon="-0.28134">
        <ele>112.3</ele>
        <time>2014-08-31T06:40:17.000Z</time>
      </trkpt>
      <trkpt lat="46.04035" lon="-0.28134">
        <ele>110.5</ele>
        <time>2014-08-31T06:40:19.000Z</time>
      </trkpt>
      <trkpt lat="46.0402" lon="-0.28135">
        <ele>109.1</ele>
        <time>2014-08-31T06:40:21.000Z</time>
      </trkpt>
      <trkpt lat="46.04006" lon="-0.28137">
        <ele>108</ele>
        <time>2014-08-31T06:40:23.000Z</time>
      </trkpt>
      <trkpt lat="46.03992" lon="-0.28139">
        <ele>106.9</ele>
        <time>2014-08-31T06:40:25.000Z</time>
      </trkpt>
      <trkpt lat="46.0398" lon="-0.28138">
        <ele>106.4</ele>
        <time>2014-08-31T06:40:28.000Z</time>
      </trkpt>
      <trkpt lat="46.03979" lon="-0.28126">
        <ele>106.5</ele>
        <time>2014-08-31T06:40:33.000Z</time>
      </trkpt>
      <trkpt lat="46.03991" lon="-0.28115">
        <ele>106.7</ele>
        <time>2014-08-31T06:40:36.000Z</time>
      </trkpt>
      <trkpt lat="46.04008" lon="-0.281">
        <ele>106.7</ele>
        <time>2014-08-31T06:40:40.000Z</time>
      </trkpt>
      <trkpt lat="46.04017" lon="-0.28095">
        <ele>107.1</ele>
        <time>2014-08-31T06:40:42.000Z</time>
      </trkpt>
      <trkpt lat="46.04025" lon="-0.28087">
        <ele>107.1</ele>
        <time>2014-08-31T06:40:44.000Z</time>
      </trkpt>
      <trkpt lat="46.04037" lon="-0.2808">
        <ele>107.5</ele>
        <time>2014-08-31T06:40:47.000Z</time>
      </trkpt>
      <trkpt lat="46.04046" lon="-0.28076">
        <ele>108.1</ele>
        <time>2014-08-31T06:40:49.000Z</time>
      </trkpt>
      <trkpt lat="46.04057" lon="-0.28064">
        <ele>107.6</ele>
        <time>2014-08-31T06:40:52.000Z</time>
      </trkpt>
      <trkpt lat="46.04068" lon="-0.28054">
        <ele>107.2</ele>
        <time>2014-08-31T06:40:55.000Z</time>
      </trkpt>
      <trkpt lat="46.04078" lon="-0.28044">
        <ele>107.4</ele>
        <time>2014-08-31T06:40:59.000Z</time>
      </trkpt>
      <trkpt lat="46.04086" lon="-0.28036">
        <ele>108.3</ele>
        <time>2014-08-31T06:41:02.000Z</time>
      </trkpt>
      <trkpt lat="46.0408" lon="-0.28019">
        <ele>107.7</ele>
        <time>2014-08-31T06:41:06.000Z</time>
      </trkpt>
      <trkpt lat="46.04074" lon="-0.28008">
        <ele>106.9</ele>
        <time>2014-08-31T06:41:08.000Z</time>
      </trkpt>
      <trkpt lat="46.04067" lon="-0.27996">
        <ele>106.4</ele>
        <time>2014-08-31T06:41:10.000Z</time>
      </trkpt>
      <trkpt lat="46.04059" lon="-0.27982">
        <ele>105.9</ele>
        <time>2014-08-31T06:41:12.000Z</time>
      </trkpt>
      <trkpt lat="46.04051" lon="-0.27969">
        <ele>105.5</ele>
        <time>2014-08-31T06:41:14.000Z</time>
      </trkpt>
      <trkpt lat="46.04043" lon="-0.27953">
        <ele>104.7</ele>
        <time>2014-08-31T06:41:16.000Z</time>
      </trkpt>
      <trkpt lat="46.04036" lon="-0.27937">
        <ele>103.9</ele>
        <time>2014-08-31T06:41:18.000Z</time>
      </trkpt>
      <trkpt lat="46.04029" lon="-0.27919">
        <ele>103.5</ele>
        <time>2014-08-31T06:41:20.000Z</time>
      </trkpt>
      <trkpt lat="46.04021" lon="-0.27899">
        <ele>103.3</ele>
        <time>2014-08-31T06:41:22.000Z</time>
      </trkpt>
      <trkpt lat="46.04019" lon="-0.27878">
        <ele>103.3</ele>
        <time>2014-08-31T06:41:24.000Z</time>
      </trkpt>
      <trkpt lat="46.04027" lon="-0.2786">
        <ele>103.2</ele>
        <time>2014-08-31T06:41:26.000Z</time>
      </trkpt>
      <trkpt lat="46.04038" lon="-0.27846">
        <ele>103.4</ele>
        <time>2014-08-31T06:41:28.000Z</time>
      </trkpt>
      <trkpt lat="46.04041" lon="-0.27828">
        <ele>102.9</ele>
        <time>2014-08-31T06:41:30.000Z</time>
      </trkpt>
      <trkpt lat="46.04035" lon="-0.27811">
        <ele>102.1</ele>
        <time>2014-08-31T06:41:32.000Z</time>
      </trkpt>
      <trkpt lat="46.04028" lon="-0.27795">
        <ele>101.3</ele>
        <time>2014-08-31T06:41:34.000Z</time>
      </trkpt>
      <trkpt lat="46.04022" lon="-0.27777">
        <ele>100.6</ele>
        <time>2014-08-31T06:41:36.000Z</time>
      </trkpt>
      <trkpt lat="46.04017" lon="-0.27757">
        <ele>99.6</ele>
        <time>2014-08-31T06:41:38.000Z</time>
      </trkpt>
      <trkpt lat="46.04004" lon="-0.27713">
        <ele>97.1</ele>
        <time>2014-08-31T06:41:42.000Z</time>
      </trkpt>
      <trkpt lat="46.03998" lon="-0.2769">
        <ele>95.5</ele>
        <time>2014-08-31T06:41:44.000Z</time>
      </trkpt>
      <trkpt lat="46.03992" lon="-0.27666">
        <ele>94.1</ele>
        <time>2014-08-31T06:41:46.000Z</time>
      </trkpt>
      <trkpt lat="46.03986" lon="-0.27642">
        <ele>93.6</ele>
        <time>2014-08-31T06:41:48.000Z</time>
      </trkpt>
      <trkpt lat="46.03981" lon="-0.27619">
        <ele>93.3</ele>
        <time>2014-08-31T06:41:50.000Z</time>
      </trkpt>
      <trkpt lat="46.03975" lon="-0.276">
        <ele>93.6</ele>
        <time>2014-08-31T06:41:52.000Z</time>
      </trkpt>
      <trkpt lat="46.0397" lon="-0.27586">
        <ele>94.8</ele>
        <time>2014-08-31T06:41:54.000Z</time>
      </trkpt>
      <trkpt lat="46.0396" lon="-0.27583">
        <ele>95.2</ele>
        <time>2014-08-31T06:41:57.000Z</time>
      </trkpt>
      <trkpt lat="46.03952" lon="-0.27595">
        <ele>93.5</ele>
        <time>2014-08-31T06:42:00.000Z</time>
      </trkpt>
      <trkpt lat="46.03941" lon="-0.27607">
        <ele>93.4</ele>
        <time>2014-08-31T06:42:03.000Z</time>
      </trkpt>
      <trkpt lat="46.03934" lon="-0.27616">
        <ele>93.1</ele>
        <time>2014-08-31T06:42:05.000Z</time>
      </trkpt>
      <trkpt lat="46.03926" lon="-0.27624">
        <ele>92.9</ele>
        <time>2014-08-31T06:42:07.000Z</time>
      </trkpt>
      <trkpt lat="46.03917" lon="-0.27632">
        <ele>92.7</ele>
        <time>2014-08-31T06:42:09.000Z</time>
      </trkpt>
      <trkpt lat="46.03908" lon="-0.27638">
        <ele>92.6</ele>
        <time>2014-08-31T06:42:11.000Z</time>
      </trkpt>
      <trkpt lat="46.03899" lon="-0.27644">
        <ele>92.8</ele>
        <time>2014-08-31T06:42:13.000Z</time>
      </trkpt>
      <trkpt lat="46.03889" lon="-0.2765">
        <ele>93.1</ele>
        <time>2014-08-31T06:42:15.000Z</time>
      </trkpt>
      <trkpt lat="46.0388" lon="-0.27655">
        <ele>93.3</ele>
        <time>2014-08-31T06:42:17.000Z</time>
      </trkpt>
      <trkpt lat="46.03869" lon="-0.27662">
        <ele>94.1</ele>
        <time>2014-08-31T06:42:20.000Z</time>
      </trkpt>
      <trkpt lat="46.03858" lon="-0.27661">
        <ele>94.4</ele>
        <time>2014-08-31T06:42:24.000Z</time>
      </trkpt>
      <trkpt lat="46.0385" lon="-0.27653">
        <ele>95</ele>
        <time>2014-08-31T06:42:27.000Z</time>
      </trkpt>
      <trkpt lat="46.03844" lon="-0.27643">
        <ele>95.5</ele>
        <time>2014-08-31T06:42:30.000Z</time>
      </trkpt>
      <trkpt lat="46.03838" lon="-0.27631">
        <ele>96.2</ele>
        <time>2014-08-31T06:42:33.000Z</time>
      </trkpt>
      <trkpt lat="46.03832" lon="-0.27618">
        <ele>96.9</ele>
        <time>2014-08-31T06:42:36.000Z</time>
      </trkpt>
      <trkpt lat="46.03826" lon="-0.27605">
        <ele>97.6</ele>
        <time>2014-08-31T06:42:38.000Z</time>
      </trkpt>
      <trkpt lat="46.0382" lon="-0.27594">
        <ele>98.4</ele>
        <time>2014-08-31T06:42:40.000Z</time>
      </trkpt>
      <trkpt lat="46.03806" lon="-0.2757">
        <ele>101.2</ele>
        <time>2014-08-31T06:42:46.000Z</time>
      </trkpt>
      <trkpt lat="46.038" lon="-0.27558">
        <ele>102.5</ele>
        <time>2014-08-31T06:42:49.000Z</time>
      </trkpt>
      <trkpt lat="46.03794" lon="-0.27547">
        <ele>104.2</ele>
        <time>2014-08-31T06:42:52.000Z</time>
      </trkpt>
      <trkpt lat="46.03787" lon="-0.27535">
        <ele>105.9</ele>
        <time>2014-08-31T06:42:55.000Z</time>
      </trkpt>
      <trkpt lat="46.03779" lon="-0.27523">
        <ele>107.2</ele>
        <time>2014-08-31T06:42:58.000Z</time>
      </trkpt>
      <trkpt lat="46.03773" lon="-0.27511">
        <ele>108.5</ele>
        <time>2014-08-31T06:43:01.000Z</time>
      </trkpt>
      <trkpt lat="46.03766" lon="-0.27499">
        <ele>110.2</ele>
        <time>2014-08-31T06:43:05.000Z</time>
      </trkpt>
      <trkpt lat="46.03757" lon="-0.27485">
        <ele>111.7</ele>
        <time>2014-08-31T06:43:08.000Z</time>
      </trkpt>
      <trkpt lat="46.0375" lon="-0.27471">
        <ele>113.4</ele>
        <time>2014-08-31T06:43:11.000Z</time>
      </trkpt>
      <trkpt lat="46.03742" lon="-0.27461">
        <ele>114.5</ele>
        <time>2014-08-31T06:43:14.000Z</time>
      </trkpt>
      <trkpt lat="46.03734" lon="-0.2745">
        <ele>115.9</ele>
        <time>2014-08-31T06:43:17.000Z</time>
      </trkpt>
      <trkpt lat="46.03726" lon="-0.27439">
        <ele>116.9</ele>
        <time>2014-08-31T06:43:20.000Z</time>
      </trkpt>
      <trkpt lat="46.03717" lon="-0.27429">
        <ele>117.8</ele>
        <time>2014-08-31T06:43:23.000Z</time>
      </trkpt>
      <trkpt lat="46.03709" lon="-0.27418">
        <ele>118.6</ele>
        <time>2014-08-31T06:43:26.000Z</time>
      </trkpt>
      <trkpt lat="46.03702" lon="-0.27407">
        <ele>119.1</ele>
        <time>2014-08-31T06:43:29.000Z</time>
      </trkpt>
      <trkpt lat="46.03694" lon="-0.27397">
        <ele>119.5</ele>
        <time>2014-08-31T06:43:32.000Z</time>
      </trkpt>
      <trkpt lat="46.03684" lon="-0.27387">
        <ele>120.5</ele>
        <time>2014-08-31T06:43:36.000Z</time>
      </trkpt>
      <trkpt lat="46.03685" lon="-0.27373">
        <ele>121.5</ele>
        <time>2014-08-31T06:43:39.000Z</time>
      </trkpt>
      <trkpt lat="46.03695" lon="-0.27374">
        <ele>122.3</ele>
        <time>2014-08-31T06:43:42.000Z</time>
      </trkpt>
      <trkpt lat="46.03711" lon="-0.27389">
        <ele>121.9</ele>
        <time>2014-08-31T06:43:48.000Z</time>
      </trkpt>
      <trkpt lat="46.03719" lon="-0.274">
        <ele>122</ele>
        <time>2014-08-31T06:43:51.000Z</time>
      </trkpt>
      <trkpt lat="46.03728" lon="-0.274">
        <ele>121.4</ele>
        <time>2014-08-31T06:43:54.000Z</time>
      </trkpt>
      <trkpt lat="46.03738" lon="-0.27392">
        <ele>120.5</ele>
        <time>2014-08-31T06:43:57.000Z</time>
      </trkpt>
      <trkpt lat="46.03748" lon="-0.27385">
        <ele>119.9</ele>
        <time>2014-08-31T06:44:00.000Z</time>
      </trkpt>
      <trkpt lat="46.03758" lon="-0.27381">
        <ele>119.2</ele>
        <time>2014-08-31T06:44:03.000Z</time>
      </trkpt>
      <trkpt lat="46.03769" lon="-0.27376">
        <ele>118.8</ele>
        <time>2014-08-31T06:44:06.000Z</time>
      </trkpt>
      <trkpt lat="46.0378" lon="-0.27369">
        <ele>118.2</ele>
        <time>2014-08-31T06:44:09.000Z</time>
      </trkpt>
      <trkpt lat="46.03791" lon="-0.27363">
        <ele>117.2</ele>
        <time>2014-08-31T06:44:12.000Z</time>
      </trkpt>
      <trkpt lat="46.03803" lon="-0.27357">
        <ele>116.1</ele>
        <time>2014-08-31T06:44:15.000Z</time>
      </trkpt>
      <trkpt lat="46.03815" lon="-0.27351">
        <ele>115.1</ele>
        <time>2014-08-31T06:44:18.000Z</time>
      </trkpt>
      <trkpt lat="46.03823" lon="-0.27347">
        <ele>114.8</ele>
        <time>2014-08-31T06:44:20.000Z</time>
      </trkpt>
      <trkpt lat="46.03835" lon="-0.27341">
        <ele>113.9</ele>
        <time>2014-08-31T06:44:23.000Z</time>
      </trkpt>
      <trkpt lat="46.03846" lon="-0.27335">
        <ele>112.9</ele>
        <time>2014-08-31T06:44:26.000Z</time>
      </trkpt>
      <trkpt lat="46.03855" lon="-0.2733">
        <ele>112.2</ele>
        <time>2014-08-31T06:44:28.000Z</time>
      </trkpt>
      <trkpt lat="46.03864" lon="-0.27327">
        <ele>111.3</ele>
        <time>2014-08-31T06:44:30.000Z</time>
      </trkpt>
      <trkpt lat="46.03876" lon="-0.27319">
        <ele>110</ele>
        <time>2014-08-31T06:44:33.000Z</time>
      </trkpt>
      <trkpt lat="46.03887" lon="-0.27313">
        <ele>109.1</ele>
        <time>2014-08-31T06:44:36.000Z</time>
      </trkpt>
      <trkpt lat="46.03897" lon="-0.27305">
        <ele>108.1</ele>
        <time>2014-08-31T06:44:39.000Z</time>
      </trkpt>
      <trkpt lat="46.03905" lon="-0.27301">
        <ele>107.2</ele>
        <time>2014-08-31T06:44:41.000Z</time>
      </trkpt>
      <trkpt lat="46.03915" lon="-0.27296">
        <ele>106.6</ele>
        <time>2014-08-31T06:44:43.000Z</time>
      </trkpt>
      <trkpt lat="46.03936" lon="-0.27304">
        <ele>104.6</ele>
        <time>2014-08-31T06:44:50.000Z</time>
      </trkpt>
      <trkpt lat="46.03947" lon="-0.27299">
        <ele>104.9</ele>
        <time>2014-08-31T06:44:54.000Z</time>
      </trkpt>
      <trkpt lat="46.03958" lon="-0.27294">
        <ele>104.8</ele>
        <time>2014-08-31T06:44:57.000Z</time>
      </trkpt>
      <trkpt lat="46.03968" lon="-0.27292">
        <ele>104.8</ele>
        <time>2014-08-31T06:45:00.000Z</time>
      </trkpt>
      <trkpt lat="46.03978" lon="-0.27303">
        <ele>104.4</ele>
        <time>2014-08-31T06:45:03.000Z</time>
      </trkpt>
      <trkpt lat="46.03987" lon="-0.2731">
        <ele>103.8</ele>
        <time>2014-08-31T06:45:06.000Z</time>
      </trkpt>
      <trkpt lat="46.03995" lon="-0.27317">
        <ele>103.7</ele>
        <time>2014-08-31T06:45:08.000Z</time>
      </trkpt>
      <trkpt lat="46.04002" lon="-0.27326">
        <ele>103.5</ele>
        <time>2014-08-31T06:45:10.000Z</time>
      </trkpt>
      <trkpt lat="46.04013" lon="-0.27343">
        <ele>103.2</ele>
        <time>2014-08-31T06:45:12.000Z</time>
      </trkpt>
      <trkpt lat="46.04018" lon="-0.27357">
        <ele>102.8</ele>
        <time>2014-08-31T06:45:14.000Z</time>
      </trkpt>
      <trkpt lat="46.04021" lon="-0.27371">
        <ele>102.3</ele>
        <time>2014-08-31T06:45:17.000Z</time>
      </trkpt>
      <trkpt lat="46.04025" lon="-0.27385">
        <ele>101.6</ele>
        <time>2014-08-31T06:45:21.000Z</time>
      </trkpt>
      <trkpt lat="46.04029" lon="-0.27402">
        <ele>101.1</ele>
        <time>2014-08-31T06:45:24.000Z</time>
      </trkpt>
      <trkpt lat="46.04038" lon="-0.27405">
        <ele>99.7</ele>
        <time>2014-08-31T06:45:29.000Z</time>
      </trkpt>
      <trkpt lat="46.04049" lon="-0.27396">
        <ele>99.2</ele>
        <time>2014-08-31T06:45:45.000Z</time>
      </trkpt>
      <trkpt lat="46.04067" lon="-0.27385">
        <ele>99.3</ele>
        <time>2014-08-31T06:45:51.000Z</time>
      </trkpt>
      <trkpt lat="46.04072" lon="-0.27369">
        <ele>98.8</ele>
        <time>2014-08-31T06:45:55.000Z</time>
      </trkpt>
      <trkpt lat="46.04082" lon="-0.2736">
        <ele>97.4</ele>
        <time>2014-08-31T06:45:58.000Z</time>
      </trkpt>
      <trkpt lat="46.04092" lon="-0.2736">
        <ele>95.5</ele>
        <time>2014-08-31T06:46:01.000Z</time>
      </trkpt>
      <trkpt lat="46.04102" lon="-0.27371">
        <ele>94.2</ele>
        <time>2014-08-31T06:46:04.000Z</time>
      </trkpt>
      <trkpt lat="46.04107" lon="-0.27382">
        <ele>93.6</ele>
        <time>2014-08-31T06:46:06.000Z</time>
      </trkpt>
      <trkpt lat="46.04111" lon="-0.27397">
        <ele>92.6</ele>
        <time>2014-08-31T06:46:09.000Z</time>
      </trkpt>
      <trkpt lat="46.0412" lon="-0.27399">
        <ele>93.3</ele>
        <time>2014-08-31T06:46:20.000Z</time>
      </trkpt>
      <trkpt lat="46.04123" lon="-0.27384">
        <ele>95.9</ele>
        <time>2014-08-31T06:46:32.000Z</time>
      </trkpt>
      <trkpt lat="46.0413" lon="-0.27374">
        <ele>97.6</ele>
        <time>2014-08-31T06:46:38.000Z</time>
      </trkpt>
      <trkpt lat="46.04139" lon="-0.27375">
        <ele>101.9</ele>
        <time>2014-08-31T06:46:51.000Z</time>
      </trkpt>
      <trkpt lat="46.04158" lon="-0.27374">
        <ele>101.7</ele>
        <time>2014-08-31T06:47:05.000Z</time>
      </trkpt>
      <trkpt lat="46.04168" lon="-0.27384">
        <ele>100.7</ele>
        <time>2014-08-31T06:47:07.000Z</time>
      </trkpt>
      <trkpt lat="46.04171" lon="-0.27398">
        <ele>100.4</ele>
        <time>2014-08-31T06:47:09.000Z</time>
      </trkpt>
      <trkpt lat="46.04166" lon="-0.2741">
        <ele>100.3</ele>
        <time>2014-08-31T06:47:12.000Z</time>
      </trkpt>
      <trkpt lat="46.04159" lon="-0.27419">
        <ele>100.3</ele>
        <time>2014-08-31T06:47:15.000Z</time>
      </trkpt>
      <trkpt lat="46.04157" lon="-0.27433">
        <ele>100.5</ele>
        <time>2014-08-31T06:47:19.000Z</time>
      </trkpt>
      <trkpt lat="46.04165" lon="-0.27441">
        <ele>101.3</ele>
        <time>2014-08-31T06:47:23.000Z</time>
      </trkpt>
      <trkpt lat="46.04175" lon="-0.27441">
        <ele>102.5</ele>
        <time>2014-08-31T06:47:27.000Z</time>
      </trkpt>
      <trkpt lat="46.04185" lon="-0.27439">
        <ele>101.9</ele>
        <time>2014-08-31T06:47:33.000Z</time>
      </trkpt>
      <trkpt lat="46.04175" lon="-0.27445">
        <ele>98.7</ele>
        <time>2014-08-31T06:47:40.000Z</time>
      </trkpt>
      <trkpt lat="46.04165" lon="-0.27442">
        <ele>98.6</ele>
        <time>2014-08-31T06:47:44.000Z</time>
      </trkpt>
      <trkpt lat="46.04155" lon="-0.27445">
        <ele>98.8</ele>
        <time>2014-08-31T06:47:49.000Z</time>
      </trkpt>
      <trkpt lat="46.04152" lon="-0.27431">
        <ele>101.2</ele>
        <time>2014-08-31T06:48:15.000Z</time>
      </trkpt>
      <trkpt lat="46.04164" lon="-0.27407">
        <ele>102.2</ele>
        <time>2014-08-31T06:48:23.000Z</time>
      </trkpt>
      <trkpt lat="46.04166" lon="-0.27393">
        <ele>102.2</ele>
        <time>2014-08-31T06:48:28.000Z</time>
      </trkpt>
      <trkpt lat="46.04174" lon="-0.27386">
        <ele>102.5</ele>
        <time>2014-08-31T06:48:43.000Z</time>
      </trkpt>
      <trkpt lat="46.04164" lon="-0.27383">
        <ele>103.4</ele>
        <time>2014-08-31T06:49:02.000Z</time>
      </trkpt>
      <trkpt lat="46.04157" lon="-0.27374">
        <ele>103.5</ele>
        <time>2014-08-31T06:49:06.000Z</time>
      </trkpt>
      <trkpt lat="46.04148" lon="-0.27371">
        <ele>104.8</ele>
        <time>2014-08-31T06:49:27.000Z</time>
      </trkpt>
      <trkpt lat="46.04142" lon="-0.27362">
        <ele>105.4</ele>
        <time>2014-08-31T06:50:24.000Z</time>
      </trkpt>
      <trkpt lat="46.04149" lon="-0.27353">
        <ele>105.5</ele>
        <time>2014-08-31T06:50:29.000Z</time>
      </trkpt>
      <trkpt lat="46.04166" lon="-0.27344">
        <ele>106.2</ele>
        <time>2014-08-31T06:50:42.000Z</time>
      </trkpt>
      <trkpt lat="46.04176" lon="-0.27346">
        <ele>105.8</ele>
        <time>2014-08-31T06:50:47.000Z</time>
      </trkpt>
      <trkpt lat="46.04184" lon="-0.27338">
        <ele>104.6</ele>
        <time>2014-08-31T06:50:52.000Z</time>
      </trkpt>
      <trkpt lat="46.04197" lon="-0.27332">
        <ele>104.2</ele>
        <time>2014-08-31T06:50:58.000Z</time>
      </trkpt>
      <trkpt lat="46.04206" lon="-0.2733">
        <ele>104.3</ele>
        <time>2014-08-31T06:51:01.000Z</time>
      </trkpt>
      <trkpt lat="46.04217" lon="-0.27332">
        <ele>104.8</ele>
        <time>2014-08-31T06:51:05.000Z</time>
      </trkpt>
      <trkpt lat="46.04228" lon="-0.27333">
        <ele>107.6</ele>
        <time>2014-08-31T06:51:09.000Z</time>
      </trkpt>
      <trkpt lat="46.04235" lon="-0.27347">
        <ele>107.9</ele>
        <time>2014-08-31T06:51:13.000Z</time>
      </trkpt>
      <trkpt lat="46.04231" lon="-0.27361">
        <ele>107.4</ele>
        <time>2014-08-31T06:51:18.000Z</time>
      </trkpt>
      <trkpt lat="46.04229" lon="-0.2738">
        <ele>106.8</ele>
        <time>2014-08-31T06:51:22.000Z</time>
      </trkpt>
      <trkpt lat="46.04227" lon="-0.27394">
        <ele>105.7</ele>
        <time>2014-08-31T06:51:24.000Z</time>
      </trkpt>
      <trkpt lat="46.04232" lon="-0.27406">
        <ele>108.9</ele>
        <time>2014-08-31T06:52:06.000Z</time>
      </trkpt>
      <trkpt lat="46.04234" lon="-0.27438">
        <ele>108.3</ele>
        <time>2014-08-31T06:52:12.000Z</time>
      </trkpt>
      <trkpt lat="46.04231" lon="-0.27451">
        <ele>107.6</ele>
        <time>2014-08-31T06:52:14.000Z</time>
      </trkpt>
      <trkpt lat="46.04228" lon="-0.27465">
        <ele>106.8</ele>
        <time>2014-08-31T06:52:16.000Z</time>
      </trkpt>
      <trkpt lat="46.04224" lon="-0.27479">
        <ele>106.2</ele>
        <time>2014-08-31T06:52:18.000Z</time>
      </trkpt>
      <trkpt lat="46.04221" lon="-0.27495">
        <ele>105.7</ele>
        <time>2014-08-31T06:52:20.000Z</time>
      </trkpt>
      <trkpt lat="46.04219" lon="-0.27508">
        <ele>104.6</ele>
        <time>2014-08-31T06:52:22.000Z</time>
      </trkpt>
      <trkpt lat="46.04231" lon="-0.27508">
        <ele>101.1</ele>
        <time>2014-08-31T06:52:46.000Z</time>
      </trkpt>
      <trkpt lat="46.04239" lon="-0.27497">
        <ele>101.5</ele>
        <time>2014-08-31T06:52:49.000Z</time>
      </trkpt>
      <trkpt lat="46.04246" lon="-0.27488">
        <ele>101.8</ele>
        <time>2014-08-31T06:52:52.000Z</time>
      </trkpt>
      <trkpt lat="46.04253" lon="-0.2748">
        <ele>101.3</ele>
        <time>2014-08-31T06:52:55.000Z</time>
      </trkpt>
      <trkpt lat="46.04263" lon="-0.27476">
        <ele>100.8</ele>
        <time>2014-08-31T06:52:59.000Z</time>
      </trkpt>
      <trkpt lat="46.04273" lon="-0.27469">
        <ele>100.1</ele>
        <time>2014-08-31T06:53:03.000Z</time>
      </trkpt>
      <trkpt lat="46.04283" lon="-0.27461">
        <ele>99.5</ele>
        <time>2014-08-31T06:53:07.000Z</time>
      </trkpt>
      <trkpt lat="46.04289" lon="-0.27434">
        <ele>99.1</ele>
        <time>2014-08-31T06:53:16.000Z</time>
      </trkpt>
      <trkpt lat="46.04293" lon="-0.27421">
        <ele>99.3</ele>
        <time>2014-08-31T06:53:19.000Z</time>
      </trkpt>
      <trkpt lat="46.04295" lon="-0.27408">
        <ele>99.4</ele>
        <time>2014-08-31T06:53:22.000Z</time>
      </trkpt>
      <trkpt lat="46.04296" lon="-0.27391">
        <ele>99.4</ele>
        <time>2014-08-31T06:53:26.000Z</time>
      </trkpt>
      <trkpt lat="46.04296" lon="-0.27375">
        <ele>99.1</ele>
        <time>2014-08-31T06:53:30.000Z</time>
      </trkpt>
      <trkpt lat="46.04298" lon="-0.27359">
        <ele>99.4</ele>
        <time>2014-08-31T06:53:34.000Z</time>
      </trkpt>
      <trkpt lat="46.043" lon="-0.27342">
        <ele>99.5</ele>
        <time>2014-08-31T06:53:38.000Z</time>
      </trkpt>
      <trkpt lat="46.04302" lon="-0.27328">
        <ele>99.8</ele>
        <time>2014-08-31T06:53:41.000Z</time>
      </trkpt>
      <trkpt lat="46.04302" lon="-0.27314">
        <ele>99.9</ele>
        <time>2014-08-31T06:53:44.000Z</time>
      </trkpt>
      <trkpt lat="46.04303" lon="-0.273">
        <ele>100.2</ele>
        <time>2014-08-31T06:53:47.000Z</time>
      </trkpt>
      <trkpt lat="46.04303" lon="-0.27283">
        <ele>101.1</ele>
        <time>2014-08-31T06:53:50.000Z</time>
      </trkpt>
      <trkpt lat="46.04304" lon="-0.27266">
        <ele>101.9</ele>
        <time>2014-08-31T06:53:53.000Z</time>
      </trkpt>
      <trkpt lat="46.04305" lon="-0.27249">
        <ele>102.5</ele>
        <time>2014-08-31T06:53:56.000Z</time>
      </trkpt>
      <trkpt lat="46.04306" lon="-0.27232">
        <ele>102.9</ele>
        <time>2014-08-31T06:53:59.000Z</time>
      </trkpt>
      <trkpt lat="46.04306" lon="-0.27219">
        <ele>102.8</ele>
        <time>2014-08-31T06:54:02.000Z</time>
      </trkpt>
      <trkpt lat="46.04306" lon="-0.27202">
        <ele>103.9</ele>
        <time>2014-08-31T06:54:06.000Z</time>
      </trkpt>
      <trkpt lat="46.04304" lon="-0.27188">
        <ele>106.6</ele>
        <time>2014-08-31T06:54:09.000Z</time>
      </trkpt>
      <trkpt lat="46.04304" lon="-0.27152">
        <ele>109.9</ele>
        <time>2014-08-31T06:54:15.000Z</time>
      </trkpt>
      <trkpt lat="46.04304" lon="-0.27139">
        <ele>111.2</ele>
        <time>2014-08-31T06:54:17.000Z</time>
      </trkpt>
      <trkpt lat="46.04301" lon="-0.2712">
        <ele>113.2</ele>
        <time>2014-08-31T06:54:20.000Z</time>
      </trkpt>
      <trkpt lat="46.04298" lon="-0.27102">
        <ele>114.4</ele>
        <time>2014-08-31T06:54:23.000Z</time>
      </trkpt>
      <trkpt lat="46.04298" lon="-0.27083">
        <ele>115.7</ele>
        <time>2014-08-31T06:54:26.000Z</time>
      </trkpt>
      <trkpt lat="46.04299" lon="-0.27065">
        <ele>117.2</ele>
        <time>2014-08-31T06:54:29.000Z</time>
      </trkpt>
      <trkpt lat="46.04299" lon="-0.27046">
        <ele>118.9</ele>
        <time>2014-08-31T06:54:32.000Z</time>
      </trkpt>
      <trkpt lat="46.04298" lon="-0.27027">
        <ele>120.1</ele>
        <time>2014-08-31T06:54:35.000Z</time>
      </trkpt>
      <trkpt lat="46.043" lon="-0.27014">
        <ele>120.9</ele>
        <time>2014-08-31T06:54:37.000Z</time>
      </trkpt>
      <trkpt lat="46.04301" lon="-0.26998">
        <ele>122.3</ele>
        <time>2014-08-31T06:54:40.000Z</time>
      </trkpt>
      <trkpt lat="46.04303" lon="-0.26979">
        <ele>123.3</ele>
        <time>2014-08-31T06:54:43.000Z</time>
      </trkpt>
      <trkpt lat="46.04304" lon="-0.26962">
        <ele>124.8</ele>
        <time>2014-08-31T06:54:46.000Z</time>
      </trkpt>
      <trkpt lat="46.04298" lon="-0.26946">
        <ele>125.9</ele>
        <time>2014-08-31T06:54:49.000Z</time>
      </trkpt>
      <trkpt lat="46.04288" lon="-0.26942">
        <ele>127.2</ele>
        <time>2014-08-31T06:54:53.000Z</time>
      </trkpt>
      <trkpt lat="46.04277" lon="-0.26942">
        <ele>127.8</ele>
        <time>2014-08-31T06:54:55.000Z</time>
      </trkpt>
      <trkpt lat="46.04267" lon="-0.26943">
        <ele>128.5</ele>
        <time>2014-08-31T06:54:57.000Z</time>
      </trkpt>
      <trkpt lat="46.04254" lon="-0.26943">
        <ele>129.5</ele>
        <time>2014-08-31T06:55:00.000Z</time>
      </trkpt>
      <trkpt lat="46.04242" lon="-0.26944">
        <ele>130.3</ele>
        <time>2014-08-31T06:55:03.000Z</time>
      </trkpt>
      <trkpt lat="46.04228" lon="-0.26945">
        <ele>131.2</ele>
        <time>2014-08-31T06:55:06.000Z</time>
      </trkpt>
      <trkpt lat="46.04215" lon="-0.26944">
        <ele>132.2</ele>
        <time>2014-08-31T06:55:09.000Z</time>
      </trkpt>
      <trkpt lat="46.04204" lon="-0.26944">
        <ele>133.5</ele>
        <time>2014-08-31T06:55:12.000Z</time>
      </trkpt>
      <trkpt lat="46.0418" lon="-0.26943">
        <ele>135.3</ele>
        <time>2014-08-31T06:55:17.000Z</time>
      </trkpt>
      <trkpt lat="46.04168" lon="-0.2694">
        <ele>135.8</ele>
        <time>2014-08-31T06:55:19.000Z</time>
      </trkpt>
      <trkpt lat="46.04151" lon="-0.26938">
        <ele>136.1</ele>
        <time>2014-08-31T06:55:21.000Z</time>
      </trkpt>
      <trkpt lat="46.04138" lon="-0.26937">
        <ele>137</ele>
        <time>2014-08-31T06:55:24.000Z</time>
      </trkpt>
      <trkpt lat="46.04124" lon="-0.26937">
        <ele>137.7</ele>
        <time>2014-08-31T06:55:27.000Z</time>
      </trkpt>
      <trkpt lat="46.04115" lon="-0.26936">
        <ele>137.9</ele>
        <time>2014-08-31T06:55:29.000Z</time>
      </trkpt>
      <trkpt lat="46.04105" lon="-0.26941">
        <ele>137.6</ele>
        <time>2014-08-31T06:55:32.000Z</time>
      </trkpt>
      <trkpt lat="46.04101" lon="-0.26953">
        <ele>137.5</ele>
        <time>2014-08-31T06:55:35.000Z</time>
      </trkpt>
      <trkpt lat="46.04098" lon="-0.26966">
        <ele>138.1</ele>
        <time>2014-08-31T06:55:38.000Z</time>
      </trkpt>
      <trkpt lat="46.04092" lon="-0.26955">
        <ele>140.7</ele>
        <time>2014-08-31T06:56:23.000Z</time>
      </trkpt>
      <trkpt lat="46.04083" lon="-0.26941">
        <ele>138.7</ele>
        <time>2014-08-31T06:56:33.000Z</time>
      </trkpt>
      <trkpt lat="46.04074" lon="-0.26943">
        <ele>137.8</ele>
        <time>2014-08-31T06:56:36.000Z</time>
      </trkpt>
      <trkpt lat="46.04065" lon="-0.26957">
        <ele>136.8</ele>
        <time>2014-08-31T06:56:39.000Z</time>
      </trkpt>
      <trkpt lat="46.04056" lon="-0.26963">
        <ele>135.7</ele>
        <time>2014-08-31T06:56:45.000Z</time>
      </trkpt>
      <trkpt lat="46.04048" lon="-0.26955">
        <ele>134.1</ele>
        <time>2014-08-31T06:56:58.000Z</time>
      </trkpt>
      <trkpt lat="46.04045" lon="-0.26942">
        <ele>132.5</ele>
        <time>2014-08-31T06:57:08.000Z</time>
      </trkpt>
      <trkpt lat="46.04043" lon="-0.26927">
        <ele>132.5</ele>
        <time>2014-08-31T06:57:15.000Z</time>
      </trkpt>
      <trkpt lat="46.04044" lon="-0.2691">
        <ele>132.7</ele>
        <time>2014-08-31T06:57:20.000Z</time>
      </trkpt>
      <trkpt lat="46.04046" lon="-0.26896">
        <ele>133.2</ele>
        <time>2014-08-31T06:57:23.000Z</time>
      </trkpt>
      <trkpt lat="46.04045" lon="-0.26882">
        <ele>133.6</ele>
        <time>2014-08-31T06:57:27.000Z</time>
      </trkpt>
      <trkpt lat="46.04045" lon="-0.26853">
        <ele>134.7</ele>
        <time>2014-08-31T06:57:34.000Z</time>
      </trkpt>
      <trkpt lat="46.04045" lon="-0.26838">
        <ele>135.6</ele>
        <time>2014-08-31T06:57:37.000Z</time>
      </trkpt>
      <trkpt lat="46.04046" lon="-0.26823">
        <ele>136.7</ele>
        <time>2014-08-31T06:57:40.000Z</time>
      </trkpt>
      <trkpt lat="46.04045" lon="-0.26809">
        <ele>137.6</ele>
        <time>2014-08-31T06:57:43.000Z</time>
      </trkpt>
      <trkpt lat="46.04047" lon="-0.26795">
        <ele>138.6</ele>
        <time>2014-08-31T06:57:46.000Z</time>
      </trkpt>
      <trkpt lat="46.04049" lon="-0.2678">
        <ele>140.2</ele>
        <time>2014-08-31T06:57:49.000Z</time>
      </trkpt>
      <trkpt lat="46.0405" lon="-0.26764">
        <ele>142.6</ele>
        <time>2014-08-31T06:57:52.000Z</time>
      </trkpt>
      <trkpt lat="46.04052" lon="-0.2675">
        <ele>145</ele>
        <time>2014-08-31T06:57:55.000Z</time>
      </trkpt>
      <trkpt lat="46.04051" lon="-0.26737">
        <ele>147.5</ele>
        <time>2014-08-31T06:57:58.000Z</time>
      </trkpt>
      <trkpt lat="46.04049" lon="-0.26721">
        <ele>150.5</ele>
        <time>2014-08-31T06:58:02.000Z</time>
      </trkpt>
      <trkpt lat="46.0405" lon="-0.26705">
        <ele>153.1</ele>
        <time>2014-08-31T06:58:06.000Z</time>
      </trkpt>
      <trkpt lat="46.04047" lon="-0.26691">
        <ele>154.7</ele>
        <time>2014-08-31T06:58:09.000Z</time>
      </trkpt>
      <trkpt lat="46.04053" lon="-0.26679">
        <ele>157.8</ele>
        <time>2014-08-31T06:58:15.000Z</time>
      </trkpt>
      <trkpt lat="46.04062" lon="-0.26678">
        <ele>158.5</ele>
        <time>2014-08-31T06:58:17.000Z</time>
      </trkpt>
      <trkpt lat="46.04074" lon="-0.2668">
        <ele>158.9</ele>
        <time>2014-08-31T06:58:19.000Z</time>
      </trkpt>
      <trkpt lat="46.04085" lon="-0.26682">
        <ele>159.3</ele>
        <time>2014-08-31T06:58:21.000Z</time>
      </trkpt>
      <trkpt lat="46.04096" lon="-0.26683">
        <ele>160.6</ele>
        <time>2014-08-31T06:58:23.000Z</time>
      </trkpt>
      <trkpt lat="46.04105" lon="-0.26685">
        <ele>161.2</ele>
        <time>2014-08-31T06:58:25.000Z</time>
      </trkpt>
      <trkpt lat="46.04117" lon="-0.2669">
        <ele>161.2</ele>
        <time>2014-08-31T06:58:28.000Z</time>
      </trkpt>
      <trkpt lat="46.04139" lon="-0.26691">
        <ele>157.5</ele>
        <time>2014-08-31T06:58:33.000Z</time>
      </trkpt>
      <trkpt lat="46.04148" lon="-0.26687">
        <ele>152.5</ele>
        <time>2014-08-31T06:58:36.000Z</time>
      </trkpt>
      <trkpt lat="46.04157" lon="-0.26687">
        <ele>151.4</ele>
        <time>2014-08-31T06:58:38.000Z</time>
      </trkpt>
      <trkpt lat="46.04167" lon="-0.26688">
        <ele>150.9</ele>
        <time>2014-08-31T06:58:40.000Z</time>
      </trkpt>
      <trkpt lat="46.04181" lon="-0.26689">
        <ele>150</ele>
        <time>2014-08-31T06:58:44.000Z</time>
      </trkpt>
      <trkpt lat="46.04194" lon="-0.2669">
        <ele>148.8</ele>
        <time>2014-08-31T06:58:47.000Z</time>
      </trkpt>
      <trkpt lat="46.04207" lon="-0.26691">
        <ele>146.5</ele>
        <time>2014-08-31T06:58:50.000Z</time>
      </trkpt>
      <trkpt lat="46.04221" lon="-0.26692">
        <ele>145.4</ele>
        <time>2014-08-31T06:58:53.000Z</time>
      </trkpt>
      <trkpt lat="46.04233" lon="-0.26692">
        <ele>144</ele>
        <time>2014-08-31T06:58:56.000Z</time>
      </trkpt>
      <trkpt lat="46.0425" lon="-0.2669">
        <ele>141</ele>
        <time>2014-08-31T06:59:00.000Z</time>
      </trkpt>
      <trkpt lat="46.04257" lon="-0.26681">
        <ele>140.8</ele>
        <time>2014-08-31T06:59:04.000Z</time>
      </trkpt>
      <trkpt lat="46.04257" lon="-0.26664">
        <ele>138.8</ele>
        <time>2014-08-31T06:59:08.000Z</time>
      </trkpt>
      <trkpt lat="46.04253" lon="-0.26651">
        <ele>137.6</ele>
        <time>2014-08-31T06:59:11.000Z</time>
      </trkpt>
      <trkpt lat="46.04251" lon="-0.26635">
        <ele>137.3</ele>
        <time>2014-08-31T06:59:14.000Z</time>
      </trkpt>
      <trkpt lat="46.0425" lon="-0.26619">
        <ele>137</ele>
        <time>2014-08-31T06:59:17.000Z</time>
      </trkpt>
      <trkpt lat="46.04249" lon="-0.26604">
        <ele>136.5</ele>
        <time>2014-08-31T06:59:20.000Z</time>
      </trkpt>
      <trkpt lat="46.04246" lon="-0.26591">
        <ele>136.2</ele>
        <time>2014-08-31T06:59:23.000Z</time>
      </trkpt>
      <trkpt lat="46.04244" lon="-0.26574">
        <ele>135.9</ele>
        <time>2014-08-31T06:59:26.000Z</time>
      </trkpt>
      <trkpt lat="46.04241" lon="-0.26558">
        <ele>135.3</ele>
        <time>2014-08-31T06:59:29.000Z</time>
      </trkpt>
      <trkpt lat="46.04238" lon="-0.26529">
        <ele>135.6</ele>
        <time>2014-08-31T06:59:33.000Z</time>
      </trkpt>
      <trkpt lat="46.04238" lon="-0.26513">
        <ele>136.2</ele>
        <time>2014-08-31T06:59:35.000Z</time>
      </trkpt>
      <trkpt lat="46.04237" lon="-0.26498">
        <ele>136.9</ele>
        <time>2014-08-31T06:59:37.000Z</time>
      </trkpt>
      <trkpt lat="46.04234" lon="-0.26484">
        <ele>137.5</ele>
        <time>2014-08-31T06:59:39.000Z</time>
      </trkpt>
      <trkpt lat="46.04231" lon="-0.26467">
        <ele>137.9</ele>
        <time>2014-08-31T06:59:41.000Z</time>
      </trkpt>
      <trkpt lat="46.04229" lon="-0.26453">
        <ele>138.5</ele>
        <time>2014-08-31T06:59:43.000Z</time>
      </trkpt>
      <trkpt lat="46.04228" lon="-0.2644">
        <ele>139.1</ele>
        <time>2014-08-31T06:59:45.000Z</time>
      </trkpt>
      <trkpt lat="46.04225" lon="-0.26423">
        <ele>140.1</ele>
        <time>2014-08-31T06:59:48.000Z</time>
      </trkpt>
      <trkpt lat="46.04223" lon="-0.26405">
        <ele>140.4</ele>
        <time>2014-08-31T06:59:51.000Z</time>
      </trkpt>
      <trkpt lat="46.04221" lon="-0.26391">
        <ele>139.2</ele>
        <time>2014-08-31T06:59:54.000Z</time>
      </trkpt>
      <trkpt lat="46.04229" lon="-0.2638">
        <ele>140.1</ele>
        <time>2014-08-31T06:59:58.000Z</time>
      </trkpt>
      <trkpt lat="46.04241" lon="-0.26377">
        <ele>140.4</ele>
        <time>2014-08-31T07:00:01.000Z</time>
      </trkpt>
      <trkpt lat="46.0425" lon="-0.26374">
        <ele>139.3</ele>
        <time>2014-08-31T07:00:03.000Z</time>
      </trkpt>
      <trkpt lat="46.0426" lon="-0.26371">
        <ele>138.6</ele>
        <time>2014-08-31T07:00:05.000Z</time>
      </trkpt>
      <trkpt lat="46.0427" lon="-0.26368">
        <ele>136.9</ele>
        <time>2014-08-31T07:00:07.000Z</time>
      </trkpt>
      <trkpt lat="46.04281" lon="-0.26365">
        <ele>136.3</ele>
        <time>2014-08-31T07:00:09.000Z</time>
      </trkpt>
      <trkpt lat="46.04292" lon="-0.26362">
        <ele>135.6</ele>
        <time>2014-08-31T07:00:11.000Z</time>
      </trkpt>
      <trkpt lat="46.04303" lon="-0.26358">
        <ele>134.7</ele>
        <time>2014-08-31T07:00:13.000Z</time>
      </trkpt>
      <trkpt lat="46.04316" lon="-0.26355">
        <ele>133</ele>
        <time>2014-08-31T07:00:15.000Z</time>
      </trkpt>
      <trkpt lat="46.0433" lon="-0.26352">
        <ele>132.4</ele>
        <time>2014-08-31T07:00:17.000Z</time>
      </trkpt>
      <trkpt lat="46.04344" lon="-0.2635">
        <ele>131.5</ele>
        <time>2014-08-31T07:00:19.000Z</time>
      </trkpt>
      <trkpt lat="46.04357" lon="-0.26347">
        <ele>130.5</ele>
        <time>2014-08-31T07:00:21.000Z</time>
      </trkpt>
      <trkpt lat="46.04372" lon="-0.26343">
        <ele>128.8</ele>
        <time>2014-08-31T07:00:23.000Z</time>
      </trkpt>
      <trkpt lat="46.04385" lon="-0.2634">
        <ele>127.2</ele>
        <time>2014-08-31T07:00:25.000Z</time>
      </trkpt>
      <trkpt lat="46.04397" lon="-0.26337">
        <ele>125.7</ele>
        <time>2014-08-31T07:00:27.000Z</time>
      </trkpt>
      <trkpt lat="46.04407" lon="-0.26334">
        <ele>124.1</ele>
        <time>2014-08-31T07:00:29.000Z</time>
      </trkpt>
      <trkpt lat="46.04416" lon="-0.26332">
        <ele>122.5</ele>
        <time>2014-08-31T07:00:32.000Z</time>
      </trkpt>
      <trkpt lat="46.04437" lon="-0.26326">
        <ele>117.3</ele>
        <time>2014-08-31T07:00:38.000Z</time>
      </trkpt>
      <trkpt lat="46.04435" lon="-0.26312">
        <ele>114.8</ele>
        <time>2014-08-31T07:00:41.000Z</time>
      </trkpt>
      <trkpt lat="46.04434" lon="-0.26293">
        <ele>113.1</ele>
        <time>2014-08-31T07:00:44.000Z</time>
      </trkpt>
      <trkpt lat="46.04432" lon="-0.26279">
        <ele>112.5</ele>
        <time>2014-08-31T07:00:46.000Z</time>
      </trkpt>
      <trkpt lat="46.04432" lon="-0.26264">
        <ele>111.9</ele>
        <time>2014-08-31T07:00:48.000Z</time>
      </trkpt>
      <trkpt lat="46.0443" lon="-0.26249">
        <ele>111.4</ele>
        <time>2014-08-31T07:00:50.000Z</time>
      </trkpt>
      <trkpt lat="46.04429" lon="-0.26234">
        <ele>111.2</ele>
        <time>2014-08-31T07:00:52.000Z</time>
      </trkpt>
      <trkpt lat="46.04428" lon="-0.2622">
        <ele>111.2</ele>
        <time>2014-08-31T07:00:54.000Z</time>
      </trkpt>
      <trkpt lat="46.04427" lon="-0.26201">
        <ele>111.1</ele>
        <time>2014-08-31T07:00:57.000Z</time>
      </trkpt>
      <trkpt lat="46.04427" lon="-0.26182">
        <ele>110.9</ele>
        <time>2014-08-31T07:01:00.000Z</time>
      </trkpt>
      <trkpt lat="46.04426" lon="-0.26163">
        <ele>110.9</ele>
        <time>2014-08-31T07:01:03.000Z</time>
      </trkpt>
      <trkpt lat="46.04426" lon="-0.26149">
        <ele>110.8</ele>
        <time>2014-08-31T07:01:05.000Z</time>
      </trkpt>
      <trkpt lat="46.04427" lon="-0.26135">
        <ele>111.3</ele>
        <time>2014-08-31T07:01:07.000Z</time>
      </trkpt>
      <trkpt lat="46.04427" lon="-0.26122">
        <ele>111.7</ele>
        <time>2014-08-31T07:01:09.000Z</time>
      </trkpt>
      <trkpt lat="46.04426" lon="-0.26109">
        <ele>112.1</ele>
        <time>2014-08-31T07:01:11.000Z</time>
      </trkpt>
      <trkpt lat="46.04424" lon="-0.26091">
        <ele>112.4</ele>
        <time>2014-08-31T07:01:14.000Z</time>
      </trkpt>
      <trkpt lat="46.04424" lon="-0.26076">
        <ele>112.8</ele>
        <time>2014-08-31T07:01:17.000Z</time>
      </trkpt>
      <trkpt lat="46.04424" lon="-0.26061">
        <ele>113.2</ele>
        <time>2014-08-31T07:01:21.000Z</time>
      </trkpt>
      <trkpt lat="46.04414" lon="-0.26058">
        <ele>113.2</ele>
        <time>2014-08-31T07:01:29.000Z</time>
      </trkpt>
      <trkpt lat="46.04401" lon="-0.26063">
        <ele>114</ele>
        <time>2014-08-31T07:01:34.000Z</time>
      </trkpt>
      <trkpt lat="46.04373" lon="-0.26062">
        <ele>118.3</ele>
        <time>2014-08-31T07:01:46.000Z</time>
      </trkpt>
      <trkpt lat="46.04363" lon="-0.26065">
        <ele>119.7</ele>
        <time>2014-08-31T07:01:51.000Z</time>
      </trkpt>
      <trkpt lat="46.04354" lon="-0.26061">
        <ele>120</ele>
        <time>2014-08-31T07:01:55.000Z</time>
      </trkpt>
      <trkpt lat="46.04343" lon="-0.2606">
        <ele>121</ele>
        <time>2014-08-31T07:02:03.000Z</time>
      </trkpt>
      <trkpt lat="46.04326" lon="-0.26058">
        <ele>121</ele>
        <time>2014-08-31T07:02:11.000Z</time>
      </trkpt>
      <trkpt lat="46.04313" lon="-0.26059">
        <ele>120.9</ele>
        <time>2014-08-31T07:02:18.000Z</time>
      </trkpt>
      <trkpt lat="46.04301" lon="-0.2606">
        <ele>120</ele>
        <time>2014-08-31T07:02:24.000Z</time>
      </trkpt>
      <trkpt lat="46.04292" lon="-0.26054">
        <ele>119.5</ele>
        <time>2014-08-31T07:02:31.000Z</time>
      </trkpt>
      <trkpt lat="46.04282" lon="-0.26052">
        <ele>119.8</ele>
        <time>2014-08-31T07:02:37.000Z</time>
      </trkpt>
      <trkpt lat="46.04264" lon="-0.26051">
        <ele>116.1</ele>
        <time>2014-08-31T07:03:07.000Z</time>
      </trkpt>
      <trkpt lat="46.0425" lon="-0.26046">
        <ele>116.3</ele>
        <time>2014-08-31T07:03:12.000Z</time>
      </trkpt>
      <trkpt lat="46.04241" lon="-0.26045">
        <ele>115.8</ele>
        <time>2014-08-31T07:03:17.000Z</time>
      </trkpt>
      <trkpt lat="46.04231" lon="-0.26047">
        <ele>114</ele>
        <time>2014-08-31T07:03:21.000Z</time>
      </trkpt>
      <trkpt lat="46.0422" lon="-0.26043">
        <ele>112.8</ele>
        <time>2014-08-31T07:03:27.000Z</time>
      </trkpt>
      <trkpt lat="46.0422" lon="-0.26059">
        <ele>110.8</ele>
        <time>2014-08-31T07:03:33.000Z</time>
      </trkpt>
      <trkpt lat="46.04222" lon="-0.26072">
        <ele>109.4</ele>
        <time>2014-08-31T07:03:36.000Z</time>
      </trkpt>
      <trkpt lat="46.04221" lon="-0.26088">
        <ele>107.8</ele>
        <time>2014-08-31T07:03:39.000Z</time>
      </trkpt>
      <trkpt lat="46.04218" lon="-0.26119">
        <ele>105</ele>
        <time>2014-08-31T07:03:43.000Z</time>
      </trkpt>
      <trkpt lat="46.04211" lon="-0.26131">
        <ele>104.4</ele>
        <time>2014-08-31T07:03:47.000Z</time>
      </trkpt>
      <trkpt lat="46.04201" lon="-0.26129">
        <ele>104.1</ele>
        <time>2014-08-31T07:03:51.000Z</time>
      </trkpt>
      <trkpt lat="46.04191" lon="-0.26126">
        <ele>102</ele>
        <time>2014-08-31T07:03:54.000Z</time>
      </trkpt>
      <trkpt lat="46.04181" lon="-0.26125">
        <ele>101.8</ele>
        <time>2014-08-31T07:03:58.000Z</time>
      </trkpt>
      <trkpt lat="46.04165" lon="-0.26123">
        <ele>99</ele>
        <time>2014-08-31T07:04:03.000Z</time>
      </trkpt>
      <trkpt lat="46.04152" lon="-0.2612">
        <ele>97</ele>
        <time>2014-08-31T07:04:07.000Z</time>
      </trkpt>
      <trkpt lat="46.04139" lon="-0.26116">
        <ele>96</ele>
        <time>2014-08-31T07:04:12.000Z</time>
      </trkpt>
      <trkpt lat="46.04122" lon="-0.26113">
        <ele>94</ele>
        <time>2014-08-31T07:04:20.000Z</time>
      </trkpt>
      <trkpt lat="46.04104" lon="-0.26109">
        <ele>92</ele>
        <time>2014-08-31T07:04:28.000Z</time>
      </trkpt>
      <trkpt lat="46.04092" lon="-0.26107">
        <ele>92.1</ele>
        <time>2014-08-31T07:04:33.000Z</time>
      </trkpt>
      <trkpt lat="46.04082" lon="-0.26104">
        <ele>91.7</ele>
        <time>2014-08-31T07:04:36.000Z</time>
      </trkpt>
      <trkpt lat="46.0407" lon="-0.26102">
        <ele>91.4</ele>
        <time>2014-08-31T07:04:39.000Z</time>
      </trkpt>
      <trkpt lat="46.0406" lon="-0.261">
        <ele>90</ele>
        <time>2014-08-31T07:04:41.000Z</time>
      </trkpt>
      <trkpt lat="46.04037" lon="-0.26091">
        <ele>90.5</ele>
        <time>2014-08-31T07:04:51.000Z</time>
      </trkpt>
      <trkpt lat="46.0402" lon="-0.26088">
        <ele>89</ele>
        <time>2014-08-31T07:04:57.000Z</time>
      </trkpt>
      <trkpt lat="46.04008" lon="-0.26088">
        <ele>88</ele>
        <time>2014-08-31T07:05:01.000Z</time>
      </trkpt>
      <trkpt lat="46.04001" lon="-0.26073">
        <ele>88</ele>
        <time>2014-08-31T07:05:05.000Z</time>
      </trkpt>
      <trkpt lat="46.03998" lon="-0.26056">
        <ele>88.8</ele>
        <time>2014-08-31T07:05:09.000Z</time>
      </trkpt>
      <trkpt lat="46.03994" lon="-0.2604">
        <ele>88.6</ele>
        <time>2014-08-31T07:05:12.000Z</time>
      </trkpt>
      <trkpt lat="46.03996" lon="-0.26024">
        <ele>88</ele>
        <time>2014-08-31T07:05:15.000Z</time>
      </trkpt>
      <trkpt lat="46.03997" lon="-0.26002">
        <ele>88</ele>
        <time>2014-08-31T07:05:22.000Z</time>
      </trkpt>
      <trkpt lat="46.03997" lon="-0.25988">
        <ele>87.9</ele>
        <time>2014-08-31T07:05:26.000Z</time>
      </trkpt>
      <trkpt lat="46.03995" lon="-0.25975">
        <ele>88.1</ele>
        <time>2014-08-31T07:05:30.000Z</time>
      </trkpt>
      <trkpt lat="46.03995" lon="-0.25957">
        <ele>88.3</ele>
        <time>2014-08-31T07:05:34.000Z</time>
      </trkpt>
      <trkpt lat="46.03993" lon="-0.25944">
        <ele>88.5</ele>
        <time>2014-08-31T07:05:37.000Z</time>
      </trkpt>
      <trkpt lat="46.03991" lon="-0.25931">
        <ele>88.8</ele>
        <time>2014-08-31T07:05:40.000Z</time>
      </trkpt>
      <trkpt lat="46.0399" lon="-0.25917">
        <ele>89.3</ele>
        <time>2014-08-31T07:05:43.000Z</time>
      </trkpt>
      <trkpt lat="46.03991" lon="-0.25899">
        <ele>89.7</ele>
        <time>2014-08-31T07:05:46.000Z</time>
      </trkpt>
      <trkpt lat="46.03991" lon="-0.25868">
        <ele>90.8</ele>
        <time>2014-08-31T07:06:17.000Z</time>
      </trkpt>
      <trkpt lat="46.03988" lon="-0.25855">
        <ele>92.3</ele>
        <time>2014-08-31T07:06:21.000Z</time>
      </trkpt>
      <trkpt lat="46.03986" lon="-0.25838">
        <ele>94.5</ele>
        <time>2014-08-31T07:06:25.000Z</time>
      </trkpt>
      <trkpt lat="46.03986" lon="-0.25821">
        <ele>96.2</ele>
        <time>2014-08-31T07:06:28.000Z</time>
      </trkpt>
      <trkpt lat="46.03987" lon="-0.25803">
        <ele>97.7</ele>
        <time>2014-08-31T07:06:31.000Z</time>
      </trkpt>
      <trkpt lat="46.03985" lon="-0.25785">
        <ele>99.2</ele>
        <time>2014-08-31T07:06:34.000Z</time>
      </trkpt>
      <trkpt lat="46.03984" lon="-0.2577">
        <ele>100</ele>
        <time>2014-08-31T07:06:36.000Z</time>
      </trkpt>
      <trkpt lat="46.03982" lon="-0.25754">
        <ele>101.1</ele>
        <time>2014-08-31T07:06:39.000Z</time>
      </trkpt>
      <trkpt lat="46.03984" lon="-0.25735">
        <ele>102</ele>
        <time>2014-08-31T07:06:42.000Z</time>
      </trkpt>
      <trkpt lat="46.03981" lon="-0.25722">
        <ele>102.7</ele>
        <time>2014-08-31T07:06:44.000Z</time>
      </trkpt>
      <trkpt lat="46.03983" lon="-0.25706">
        <ele>103.2</ele>
        <time>2014-08-31T07:06:46.000Z</time>
      </trkpt>
      <trkpt lat="46.03984" lon="-0.25689">
        <ele>103</ele>
        <time>2014-08-31T07:06:48.000Z</time>
      </trkpt>
      <trkpt lat="46.03984" lon="-0.25657">
        <ele>105.2</ele>
        <time>2014-08-31T07:06:53.000Z</time>
      </trkpt>
      <trkpt lat="46.03979" lon="-0.25631">
        <ele>106</ele>
        <time>2014-08-31T07:06:56.000Z</time>
      </trkpt>
      <trkpt lat="46.03979" lon="-0.25611">
        <ele>107.4</ele>
        <time>2014-08-31T07:06:59.000Z</time>
      </trkpt>
      <trkpt lat="46.03981" lon="-0.25597">
        <ele>107.9</ele>
        <time>2014-08-31T07:07:01.000Z</time>
      </trkpt>
      <trkpt lat="46.03982" lon="-0.25583">
        <ele>108.9</ele>
        <time>2014-08-31T07:07:03.000Z</time>
      </trkpt>
      <trkpt lat="46.03982" lon="-0.2557">
        <ele>113.4</ele>
        <time>2014-08-31T07:07:05.000Z</time>
      </trkpt>
      <trkpt lat="46.03975" lon="-0.25559">
        <ele>117</ele>
        <time>2014-08-31T07:07:07.000Z</time>
      </trkpt>
      <trkpt lat="46.03984" lon="-0.25551">
        <ele>126.6</ele>
        <time>2014-08-31T07:07:14.000Z</time>
      </trkpt>
      <trkpt lat="46.03993" lon="-0.25561">
        <ele>130.6</ele>
        <time>2014-08-31T07:07:17.000Z</time>
      </trkpt>
      <trkpt lat="46.04002" lon="-0.25572">
        <ele>133.7</ele>
        <time>2014-08-31T07:07:20.000Z</time>
      </trkpt>
      <trkpt lat="46.0401" lon="-0.25582">
        <ele>135.3</ele>
        <time>2014-08-31T07:07:22.000Z</time>
      </trkpt>
      <trkpt lat="46.0402" lon="-0.25593">
        <ele>136.4</ele>
        <time>2014-08-31T07:07:24.000Z</time>
      </trkpt>
      <trkpt lat="46.04031" lon="-0.25603">
        <ele>137.6</ele>
        <time>2014-08-31T07:07:26.000Z</time>
      </trkpt>
      <trkpt lat="46.04044" lon="-0.2561">
        <ele>138.7</ele>
        <time>2014-08-31T07:07:28.000Z</time>
      </trkpt>
      <trkpt lat="46.0406" lon="-0.25613">
        <ele>139.7</ele>
        <time>2014-08-31T07:07:30.000Z</time>
      </trkpt>
      <trkpt lat="46.04075" lon="-0.25613">
        <ele>140.6</ele>
        <time>2014-08-31T07:07:32.000Z</time>
      </trkpt>
      <trkpt lat="46.04092" lon="-0.25611">
        <ele>141.1</ele>
        <time>2014-08-31T07:07:34.000Z</time>
      </trkpt>
      <trkpt lat="46.04109" lon="-0.2561">
        <ele>141.4</ele>
        <time>2014-08-31T07:07:36.000Z</time>
      </trkpt>
      <trkpt lat="46.04126" lon="-0.25609">
        <ele>141.6</ele>
        <time>2014-08-31T07:07:38.000Z</time>
      </trkpt>
      <trkpt lat="46.04142" lon="-0.2561">
        <ele>142.1</ele>
        <time>2014-08-31T07:07:40.000Z</time>
      </trkpt>
      <trkpt lat="46.04158" lon="-0.25612">
        <ele>142.3</ele>
        <time>2014-08-31T07:07:42.000Z</time>
      </trkpt>
      <trkpt lat="46.04172" lon="-0.25615">
        <ele>141</ele>
        <time>2014-08-31T07:07:44.000Z</time>
      </trkpt>
      <trkpt lat="46.04188" lon="-0.25616">
        <ele>140.6</ele>
        <time>2014-08-31T07:07:46.000Z</time>
      </trkpt>
      <trkpt lat="46.04212" lon="-0.25616">
        <ele>139</ele>
        <time>2014-08-31T07:07:48.000Z</time>
      </trkpt>
      <trkpt lat="46.04231" lon="-0.25617">
        <ele>138.2</ele>
        <time>2014-08-31T07:07:51.000Z</time>
      </trkpt>
      <trkpt lat="46.04247" lon="-0.25617">
        <ele>136.4</ele>
        <time>2014-08-31T07:07:53.000Z</time>
      </trkpt>
      <trkpt lat="46.04282" lon="-0.25615">
        <ele>133.2</ele>
        <time>2014-08-31T07:07:58.000Z</time>
      </trkpt>
      <trkpt lat="46.04298" lon="-0.25612">
        <ele>131.8</ele>
        <time>2014-08-31T07:08:00.000Z</time>
      </trkpt>
      <trkpt lat="46.04313" lon="-0.25608">
        <ele>130.3</ele>
        <time>2014-08-31T07:08:02.000Z</time>
      </trkpt>
      <trkpt lat="46.04327" lon="-0.25606">
        <ele>129</ele>
        <time>2014-08-31T07:08:04.000Z</time>
      </trkpt>
      <trkpt lat="46.04338" lon="-0.25605">
        <ele>128.2</ele>
        <time>2014-08-31T07:08:06.000Z</time>
      </trkpt>
      <trkpt lat="46.04348" lon="-0.25605">
        <ele>126.1</ele>
        <time>2014-08-31T07:08:09.000Z</time>
      </trkpt>
      <trkpt lat="46.04358" lon="-0.25607">
        <ele>128.5</ele>
        <time>2014-08-31T07:08:21.000Z</time>
      </trkpt>
      <trkpt lat="46.04367" lon="-0.25609">
        <ele>128.1</ele>
        <time>2014-08-31T07:08:27.000Z</time>
      </trkpt>
      <trkpt lat="46.04377" lon="-0.2561">
        <ele>128.7</ele>
        <time>2014-08-31T07:08:34.000Z</time>
      </trkpt>
      <trkpt lat="46.04389" lon="-0.25606">
        <ele>130.5</ele>
        <time>2014-08-31T07:08:42.000Z</time>
      </trkpt>
      <trkpt lat="46.04393" lon="-0.25593">
        <ele>129.2</ele>
        <time>2014-08-31T07:08:48.000Z</time>
      </trkpt>
      <trkpt lat="46.04401" lon="-0.25587">
        <ele>127.5</ele>
        <time>2014-08-31T07:09:11.000Z</time>
      </trkpt>
      <trkpt lat="46.04384" lon="-0.25596">
        <ele>116.8</ele>
        <time>2014-08-31T07:18:56.000Z</time>
      </trkpt>
      <trkpt lat="46.04373" lon="-0.2557">
        <ele>120.6</ele>
        <time>2014-08-31T07:19:09.000Z</time>
      </trkpt>
      <trkpt lat="46.0437" lon="-0.25557">
        <ele>121.4</ele>
        <time>2014-08-31T07:19:11.000Z</time>
      </trkpt>
      <trkpt lat="46.04367" lon="-0.2554">
        <ele>122.2</ele>
        <time>2014-08-31T07:19:13.000Z</time>
      </trkpt>
      <trkpt lat="46.04365" lon="-0.25521">
        <ele>123.1</ele>
        <time>2014-08-31T07:19:15.000Z</time>
      </trkpt>
      <trkpt lat="46.04361" lon="-0.25504">
        <ele>123.9</ele>
        <time>2014-08-31T07:19:17.000Z</time>
      </trkpt>
      <trkpt lat="46.04359" lon="-0.25488">
        <ele>124.4</ele>
        <time>2014-08-31T07:19:19.000Z</time>
      </trkpt>
      <trkpt lat="46.04358" lon="-0.25475">
        <ele>125</ele>
        <time>2014-08-31T07:19:21.000Z</time>
      </trkpt>
      <trkpt lat="46.04358" lon="-0.25458">
        <ele>125.6</ele>
        <time>2014-08-31T07:19:24.000Z</time>
      </trkpt>
      <trkpt lat="46.04356" lon="-0.25441">
        <ele>126.1</ele>
        <time>2014-08-31T07:19:27.000Z</time>
      </trkpt>
      <trkpt lat="46.04356" lon="-0.25425">
        <ele>126.6</ele>
        <time>2014-08-31T07:19:30.000Z</time>
      </trkpt>
      <trkpt lat="46.04355" lon="-0.2541">
        <ele>127</ele>
        <time>2014-08-31T07:19:33.000Z</time>
      </trkpt>
      <trkpt lat="46.04352" lon="-0.25392">
        <ele>127.3</ele>
        <time>2014-08-31T07:19:36.000Z</time>
      </trkpt>
      <trkpt lat="46.04349" lon="-0.25377">
        <ele>128.2</ele>
        <time>2014-08-31T07:19:39.000Z</time>
      </trkpt>
      <trkpt lat="46.04347" lon="-0.25363">
        <ele>129</ele>
        <time>2014-08-31T07:19:42.000Z</time>
      </trkpt>
      <trkpt lat="46.04345" lon="-0.25349">
        <ele>129.9</ele>
        <time>2014-08-31T07:19:45.000Z</time>
      </trkpt>
      <trkpt lat="46.04343" lon="-0.25335">
        <ele>131</ele>
        <time>2014-08-31T07:19:48.000Z</time>
      </trkpt>
      <trkpt lat="46.04341" lon="-0.2532">
        <ele>132.1</ele>
        <time>2014-08-31T07:19:51.000Z</time>
      </trkpt>
      <trkpt lat="46.04339" lon="-0.25307">
        <ele>133.1</ele>
        <time>2014-08-31T07:19:54.000Z</time>
      </trkpt>
      <trkpt lat="46.04338" lon="-0.2529">
        <ele>134.5</ele>
        <time>2014-08-31T07:19:59.000Z</time>
      </trkpt>
      <trkpt lat="46.04333" lon="-0.25262">
        <ele>136.2</ele>
        <time>2014-08-31T07:20:05.000Z</time>
      </trkpt>
      <trkpt lat="46.04328" lon="-0.25248">
        <ele>136.8</ele>
        <time>2014-08-31T07:20:09.000Z</time>
      </trkpt>
      <trkpt lat="46.04323" lon="-0.25234">
        <ele>137.1</ele>
        <time>2014-08-31T07:20:13.000Z</time>
      </trkpt>
      <trkpt lat="46.0432" lon="-0.2522">
        <ele>137.3</ele>
        <time>2014-08-31T07:20:16.000Z</time>
      </trkpt>
      <trkpt lat="46.04316" lon="-0.25206">
        <ele>137.3</ele>
        <time>2014-08-31T07:20:19.000Z</time>
      </trkpt>
      <trkpt lat="46.04313" lon="-0.25191">
        <ele>137</ele>
        <time>2014-08-31T07:20:22.000Z</time>
      </trkpt>
      <trkpt lat="46.04308" lon="-0.25176">
        <ele>135.9</ele>
        <time>2014-08-31T07:20:25.000Z</time>
      </trkpt>
      <trkpt lat="46.04302" lon="-0.25163">
        <ele>135.1</ele>
        <time>2014-08-31T07:20:28.000Z</time>
      </trkpt>
      <trkpt lat="46.04296" lon="-0.2515">
        <ele>134.3</ele>
        <time>2014-08-31T07:20:31.000Z</time>
      </trkpt>
      <trkpt lat="46.0429" lon="-0.25138">
        <ele>132.7</ele>
        <time>2014-08-31T07:20:35.000Z</time>
      </trkpt>
      <trkpt lat="46.04286" lon="-0.25126">
        <ele>131.5</ele>
        <time>2014-08-31T07:20:38.000Z</time>
      </trkpt>
      <trkpt lat="46.0428" lon="-0.25115">
        <ele>130</ele>
        <time>2014-08-31T07:20:41.000Z</time>
      </trkpt>
      <trkpt lat="46.04276" lon="-0.251">
        <ele>129.7</ele>
        <time>2014-08-31T07:20:44.000Z</time>
      </trkpt>
      <trkpt lat="46.04271" lon="-0.25083">
        <ele>128.7</ele>
        <time>2014-08-31T07:20:48.000Z</time>
      </trkpt>
      <trkpt lat="46.0427" lon="-0.2507">
        <ele>127</ele>
        <time>2014-08-31T07:20:52.000Z</time>
      </trkpt>
      <trkpt lat="46.04267" lon="-0.25057">
        <ele>124.6</ele>
        <time>2014-08-31T07:20:58.000Z</time>
      </trkpt>
      <trkpt lat="46.04259" lon="-0.25045">
        <ele>124</ele>
        <time>2014-08-31T07:21:03.000Z</time>
      </trkpt>
      <trkpt lat="46.0425" lon="-0.2502">
        <ele>125.5</ele>
        <time>2014-08-31T07:21:09.000Z</time>
      </trkpt>
      <trkpt lat="46.04247" lon="-0.25007">
        <ele>126.2</ele>
        <time>2014-08-31T07:21:12.000Z</time>
      </trkpt>
      <trkpt lat="46.04244" lon="-0.24993">
        <ele>126.3</ele>
        <time>2014-08-31T07:21:15.000Z</time>
      </trkpt>
      <trkpt lat="46.04239" lon="-0.24976">
        <ele>127.1</ele>
        <time>2014-08-31T07:21:18.000Z</time>
      </trkpt>
      <trkpt lat="46.04237" lon="-0.24961">
        <ele>126.9</ele>
        <time>2014-08-31T07:21:20.000Z</time>
      </trkpt>
      <trkpt lat="46.04235" lon="-0.24943">
        <ele>127.5</ele>
        <time>2014-08-31T07:21:23.000Z</time>
      </trkpt>
      <trkpt lat="46.04234" lon="-0.24924">
        <ele>128.6</ele>
        <time>2014-08-31T07:21:26.000Z</time>
      </trkpt>
      <trkpt lat="46.04229" lon="-0.2491">
        <ele>129.8</ele>
        <time>2014-08-31T07:21:29.000Z</time>
      </trkpt>
      <trkpt lat="46.04223" lon="-0.24899">
        <ele>130.7</ele>
        <time>2014-08-31T07:21:31.000Z</time>
      </trkpt>
      <trkpt lat="46.04217" lon="-0.24888">
        <ele>131.6</ele>
        <time>2014-08-31T07:21:33.000Z</time>
      </trkpt>
      <trkpt lat="46.04213" lon="-0.24875">
        <ele>132.9</ele>
        <time>2014-08-31T07:21:35.000Z</time>
      </trkpt>
      <trkpt lat="46.04206" lon="-0.24859">
        <ele>134.6</ele>
        <time>2014-08-31T07:21:38.000Z</time>
      </trkpt>
      <trkpt lat="46.042" lon="-0.24849">
        <ele>135.7</ele>
        <time>2014-08-31T07:21:40.000Z</time>
      </trkpt>
      <trkpt lat="46.04192" lon="-0.24835">
        <ele>137.6</ele>
        <time>2014-08-31T07:21:43.000Z</time>
      </trkpt>
      <trkpt lat="46.04184" lon="-0.24822">
        <ele>139.7</ele>
        <time>2014-08-31T07:21:46.000Z</time>
      </trkpt>
      <trkpt lat="46.04174" lon="-0.24808">
        <ele>141.7</ele>
        <time>2014-08-31T07:21:49.000Z</time>
      </trkpt>
      <trkpt lat="46.04166" lon="-0.24797">
        <ele>143.7</ele>
        <time>2014-08-31T07:21:52.000Z</time>
      </trkpt>
      <trkpt lat="46.04158" lon="-0.2479">
        <ele>145.4</ele>
        <time>2014-08-31T07:21:55.000Z</time>
      </trkpt>
      <trkpt lat="46.04148" lon="-0.24784">
        <ele>147.2</ele>
        <time>2014-08-31T07:21:58.000Z</time>
      </trkpt>
      <trkpt lat="46.04138" lon="-0.24776">
        <ele>148.4</ele>
        <time>2014-08-31T07:22:01.000Z</time>
      </trkpt>
      <trkpt lat="46.04129" lon="-0.24768">
        <ele>149.9</ele>
        <time>2014-08-31T07:22:03.000Z</time>
      </trkpt>
      <trkpt lat="46.04119" lon="-0.24758">
        <ele>152.5</ele>
        <time>2014-08-31T07:22:06.000Z</time>
      </trkpt>
      <trkpt lat="46.041" lon="-0.24737">
        <ele>156.7</ele>
        <time>2014-08-31T07:22:12.000Z</time>
      </trkpt>
      <trkpt lat="46.04092" lon="-0.24728">
        <ele>159</ele>
        <time>2014-08-31T07:22:15.000Z</time>
      </trkpt>
      <trkpt lat="46.04084" lon="-0.24718">
        <ele>161.5</ele>
        <time>2014-08-31T07:22:18.000Z</time>
      </trkpt>
      <trkpt lat="46.04076" lon="-0.24707">
        <ele>162.5</ele>
        <time>2014-08-31T07:22:20.000Z</time>
      </trkpt>
      <trkpt lat="46.04069" lon="-0.24697">
        <ele>164</ele>
        <time>2014-08-31T07:22:22.000Z</time>
      </trkpt>
      <trkpt lat="46.04062" lon="-0.24687">
        <ele>165.2</ele>
        <time>2014-08-31T07:22:24.000Z</time>
      </trkpt>
      <trkpt lat="46.04053" lon="-0.24673">
        <ele>167.2</ele>
        <time>2014-08-31T07:22:27.000Z</time>
      </trkpt>
      <trkpt lat="46.04047" lon="-0.24664">
        <ele>168.7</ele>
        <time>2014-08-31T07:22:29.000Z</time>
      </trkpt>
      <trkpt lat="46.04039" lon="-0.2465">
        <ele>169.3</ele>
        <time>2014-08-31T07:22:32.000Z</time>
      </trkpt>
      <trkpt lat="46.04031" lon="-0.24639">
        <ele>171</ele>
        <time>2014-08-31T07:22:35.000Z</time>
      </trkpt>
      <trkpt lat="46.04025" lon="-0.24627">
        <ele>172.3</ele>
        <time>2014-08-31T07:22:38.000Z</time>
      </trkpt>
      <trkpt lat="46.0402" lon="-0.24613">
        <ele>172.4</ele>
        <time>2014-08-31T07:22:41.000Z</time>
      </trkpt>
      <trkpt lat="46.04014" lon="-0.24596">
        <ele>172</ele>
        <time>2014-08-31T07:22:44.000Z</time>
      </trkpt>
      <trkpt lat="46.04008" lon="-0.24582">
        <ele>172.6</ele>
        <time>2014-08-31T07:22:47.000Z</time>
      </trkpt>
      <trkpt lat="46.04001" lon="-0.24566">
        <ele>173.6</ele>
        <time>2014-08-31T07:22:50.000Z</time>
      </trkpt>
      <trkpt lat="46.03993" lon="-0.24549">
        <ele>173.8</ele>
        <time>2014-08-31T07:22:52.000Z</time>
      </trkpt>
      <trkpt lat="46.03988" lon="-0.24536">
        <ele>173.7</ele>
        <time>2014-08-31T07:22:54.000Z</time>
      </trkpt>
      <trkpt lat="46.03983" lon="-0.24519">
        <ele>174.3</ele>
        <time>2014-08-31T07:22:57.000Z</time>
      </trkpt>
      <trkpt lat="46.03977" lon="-0.24504">
        <ele>174.9</ele>
        <time>2014-08-31T07:23:00.000Z</time>
      </trkpt>
      <trkpt lat="46.03973" lon="-0.24489">
        <ele>174.6</ele>
        <time>2014-08-31T07:23:03.000Z</time>
      </trkpt>
      <trkpt lat="46.03972" lon="-0.24475">
        <ele>172.4</ele>
        <time>2014-08-31T07:23:06.000Z</time>
      </trkpt>
      <trkpt lat="46.03971" lon="-0.2446">
        <ele>170.8</ele>
        <time>2014-08-31T07:23:09.000Z</time>
      </trkpt>
      <trkpt lat="46.0397" lon="-0.24428">
        <ele>169.2</ele>
        <time>2014-08-31T07:23:15.000Z</time>
      </trkpt>
      <trkpt lat="46.0397" lon="-0.24413">
        <ele>168.5</ele>
        <time>2014-08-31T07:23:18.000Z</time>
      </trkpt>
      <trkpt lat="46.03968" lon="-0.24397">
        <ele>168.8</ele>
        <time>2014-08-31T07:23:21.000Z</time>
      </trkpt>
      <trkpt lat="46.03963" lon="-0.24381">
        <ele>169.7</ele>
        <time>2014-08-31T07:23:24.000Z</time>
      </trkpt>
      <trkpt lat="46.03959" lon="-0.24365">
        <ele>170.2</ele>
        <time>2014-08-31T07:23:27.000Z</time>
      </trkpt>
      <trkpt lat="46.03956" lon="-0.24351">
        <ele>171.1</ele>
        <time>2014-08-31T07:23:30.000Z</time>
      </trkpt>
      <trkpt lat="46.0395" lon="-0.24341">
        <ele>172.3</ele>
        <time>2014-08-31T07:23:33.000Z</time>
      </trkpt>
      <trkpt lat="46.03939" lon="-0.2433">
        <ele>173</ele>
        <time>2014-08-31T07:23:37.000Z</time>
      </trkpt>
      <trkpt lat="46.03928" lon="-0.24321">
        <ele>171.8</ele>
        <time>2014-08-31T07:23:40.000Z</time>
      </trkpt>
      <trkpt lat="46.03921" lon="-0.2431">
        <ele>170.4</ele>
        <time>2014-08-31T07:23:43.000Z</time>
      </trkpt>
      <trkpt lat="46.03915" lon="-0.24301">
        <ele>168.3</ele>
        <time>2014-08-31T07:23:47.000Z</time>
      </trkpt>
      <trkpt lat="46.03908" lon="-0.24292">
        <ele>168</ele>
        <time>2014-08-31T07:23:50.000Z</time>
      </trkpt>
      <trkpt lat="46.03901" lon="-0.24283">
        <ele>167.5</ele>
        <time>2014-08-31T07:23:52.000Z</time>
      </trkpt>
      <trkpt lat="46.03893" lon="-0.24271">
        <ele>167.8</ele>
        <time>2014-08-31T07:23:55.000Z</time>
      </trkpt>
      <trkpt lat="46.03885" lon="-0.24261">
        <ele>168.4</ele>
        <time>2014-08-31T07:23:58.000Z</time>
      </trkpt>
      <trkpt lat="46.03876" lon="-0.24252">
        <ele>169.4</ele>
        <time>2014-08-31T07:24:01.000Z</time>
      </trkpt>
      <trkpt lat="46.03868" lon="-0.24242">
        <ele>170.5</ele>
        <time>2014-08-31T07:24:04.000Z</time>
      </trkpt>
      <trkpt lat="46.0386" lon="-0.24231">
        <ele>171.4</ele>
        <time>2014-08-31T07:24:07.000Z</time>
      </trkpt>
      <trkpt lat="46.03853" lon="-0.2422">
        <ele>172.5</ele>
        <time>2014-08-31T07:24:10.000Z</time>
      </trkpt>
      <trkpt lat="46.03839" lon="-0.24197">
        <ele>175.4</ele>
        <time>2014-08-31T07:24:16.000Z</time>
      </trkpt>
      <trkpt lat="46.03831" lon="-0.24183">
        <ele>174.7</ele>
        <time>2014-08-31T07:24:19.000Z</time>
      </trkpt>
      <trkpt lat="46.03823" lon="-0.2417">
        <ele>174.6</ele>
        <time>2014-08-31T07:24:22.000Z</time>
      </trkpt>
      <trkpt lat="46.03815" lon="-0.2416">
        <ele>174.3</ele>
        <time>2014-08-31T07:24:25.000Z</time>
      </trkpt>
      <trkpt lat="46.03807" lon="-0.24151">
        <ele>174.9</ele>
        <time>2014-08-31T07:24:28.000Z</time>
      </trkpt>
      <trkpt lat="46.03799" lon="-0.24141">
        <ele>175</ele>
        <time>2014-08-31T07:24:31.000Z</time>
      </trkpt>
      <trkpt lat="46.03791" lon="-0.24131">
        <ele>175.2</ele>
        <time>2014-08-31T07:24:35.000Z</time>
      </trkpt>
      <trkpt lat="46.03783" lon="-0.24123">
        <ele>176.1</ele>
        <time>2014-08-31T07:24:38.000Z</time>
      </trkpt>
      <trkpt lat="46.03775" lon="-0.24114">
        <ele>177.1</ele>
        <time>2014-08-31T07:24:41.000Z</time>
      </trkpt>
      <trkpt lat="46.03767" lon="-0.24105">
        <ele>177.8</ele>
        <time>2014-08-31T07:24:44.000Z</time>
      </trkpt>
      <trkpt lat="46.0376" lon="-0.24094">
        <ele>178.4</ele>
        <time>2014-08-31T07:24:47.000Z</time>
      </trkpt>
      <trkpt lat="46.03753" lon="-0.24082">
        <ele>178.3</ele>
        <time>2014-08-31T07:24:50.000Z</time>
      </trkpt>
      <trkpt lat="46.03745" lon="-0.24071">
        <ele>178.2</ele>
        <time>2014-08-31T07:24:53.000Z</time>
      </trkpt>
      <trkpt lat="46.03737" lon="-0.24059">
        <ele>178.2</ele>
        <time>2014-08-31T07:24:56.000Z</time>
      </trkpt>
      <trkpt lat="46.03743" lon="-0.24048">
        <ele>179.6</ele>
        <time>2014-08-31T07:25:05.000Z</time>
      </trkpt>
      <trkpt lat="46.03752" lon="-0.24043">
        <ele>180.8</ele>
        <time>2014-08-31T07:25:10.000Z</time>
      </trkpt>
      <trkpt lat="46.03763" lon="-0.24035">
        <ele>179.5</ele>
        <time>2014-08-31T07:25:14.000Z</time>
      </trkpt>
      <trkpt lat="46.03779" lon="-0.24024">
        <ele>174.1</ele>
        <time>2014-08-31T07:25:20.000Z</time>
      </trkpt>
      <trkpt lat="46.03788" lon="-0.24019">
        <ele>171.5</ele>
        <time>2014-08-31T07:25:23.000Z</time>
      </trkpt>
      <trkpt lat="46.03799" lon="-0.24012">
        <ele>169.4</ele>
        <time>2014-08-31T07:25:27.000Z</time>
      </trkpt>
      <trkpt lat="46.03808" lon="-0.24006">
        <ele>167.7</ele>
        <time>2014-08-31T07:25:30.000Z</time>
      </trkpt>
      <trkpt lat="46.03817" lon="-0.24001">
        <ele>166.2</ele>
        <time>2014-08-31T07:25:33.000Z</time>
      </trkpt>
      <trkpt lat="46.03817" lon="-0.24001">
        <ele>166.2</ele>
        <time>2014-08-31T07:25:33.000Z</time>
      </trkpt>
      <trkpt lat="46.03828" lon="-0.23994">
        <ele>164.7</ele>
        <time>2014-08-31T07:25:37.000Z</time>
      </trkpt>
      <trkpt lat="46.03836" lon="-0.23987">
        <ele>163.2</ele>
        <time>2014-08-31T07:25:41.000Z</time>
      </trkpt>
      <trkpt lat="46.03846" lon="-0.23982">
        <ele>161.8</ele>
        <time>2014-08-31T07:25:45.000Z</time>
      </trkpt>
      <trkpt lat="46.03856" lon="-0.23975">
        <ele>160.4</ele>
        <time>2014-08-31T07:25:49.000Z</time>
      </trkpt>
      <trkpt lat="46.03865" lon="-0.23969">
        <ele>159.6</ele>
        <time>2014-08-31T07:25:52.000Z</time>
      </trkpt>
      <trkpt lat="46.03874" lon="-0.23963">
        <ele>158.9</ele>
        <time>2014-08-31T07:25:55.000Z</time>
      </trkpt>
      <trkpt lat="46.03882" lon="-0.23957">
        <ele>158</ele>
        <time>2014-08-31T07:25:58.000Z</time>
      </trkpt>
      <trkpt lat="46.0389" lon="-0.23951">
        <ele>157.1</ele>
        <time>2014-08-31T07:26:01.000Z</time>
      </trkpt>
      <trkpt lat="46.03899" lon="-0.23946">
        <ele>156.2</ele>
        <time>2014-08-31T07:26:04.000Z</time>
      </trkpt>
      <trkpt lat="46.03908" lon="-0.2394">
        <ele>155.5</ele>
        <time>2014-08-31T07:26:07.000Z</time>
      </trkpt>
      <trkpt lat="46.03918" lon="-0.23933">
        <ele>154.3</ele>
        <time>2014-08-31T07:26:11.000Z</time>
      </trkpt>
      <trkpt lat="46.03918" lon="-0.23917">
        <ele>153.2</ele>
        <time>2014-08-31T07:26:15.000Z</time>
      </trkpt>
      <trkpt lat="46.03902" lon="-0.23895">
        <ele>152.7</ele>
        <time>2014-08-31T07:26:21.000Z</time>
      </trkpt>
      <trkpt lat="46.03894" lon="-0.23884">
        <ele>152.3</ele>
        <time>2014-08-31T07:26:24.000Z</time>
      </trkpt>
      <trkpt lat="46.03886" lon="-0.23872">
        <ele>151.9</ele>
        <time>2014-08-31T07:26:27.000Z</time>
      </trkpt>
      <trkpt lat="46.03877" lon="-0.23861">
        <ele>151.5</ele>
        <time>2014-08-31T07:26:30.000Z</time>
      </trkpt>
      <trkpt lat="46.03869" lon="-0.2385">
        <ele>151.1</ele>
        <time>2014-08-31T07:26:33.000Z</time>
      </trkpt>
      <trkpt lat="46.03861" lon="-0.23838">
        <ele>150.6</ele>
        <time>2014-08-31T07:26:36.000Z</time>
      </trkpt>
      <trkpt lat="46.03852" lon="-0.23823">
        <ele>149.8</ele>
        <time>2014-08-31T07:26:39.000Z</time>
      </trkpt>
      <trkpt lat="46.03847" lon="-0.23812">
        <ele>149.3</ele>
        <time>2014-08-31T07:26:41.000Z</time>
      </trkpt>
      <trkpt lat="46.03844" lon="-0.23798">
        <ele>148.8</ele>
        <time>2014-08-31T07:26:43.000Z</time>
      </trkpt>
      <trkpt lat="46.03843" lon="-0.23785">
        <ele>148.8</ele>
        <time>2014-08-31T07:26:45.000Z</time>
      </trkpt>
      <trkpt lat="46.03841" lon="-0.23771">
        <ele>148.4</ele>
        <time>2014-08-31T07:26:47.000Z</time>
      </trkpt>
      <trkpt lat="46.03839" lon="-0.23757">
        <ele>148</ele>
        <time>2014-08-31T07:26:49.000Z</time>
      </trkpt>
      <trkpt lat="46.03838" lon="-0.23743">
        <ele>147.6</ele>
        <time>2014-08-31T07:26:51.000Z</time>
      </trkpt>
      <trkpt lat="46.03836" lon="-0.23729">
        <ele>147.5</ele>
        <time>2014-08-31T07:26:53.000Z</time>
      </trkpt>
      <trkpt lat="46.03834" lon="-0.23716">
        <ele>147.4</ele>
        <time>2014-08-31T07:26:55.000Z</time>
      </trkpt>
      <trkpt lat="46.03831" lon="-0.23702">
        <ele>146.8</ele>
        <time>2014-08-31T07:26:57.000Z</time>
      </trkpt>
      <trkpt lat="46.0383" lon="-0.23687">
        <ele>146.7</ele>
        <time>2014-08-31T07:26:59.000Z</time>
      </trkpt>
      <trkpt lat="46.03828" lon="-0.23672">
        <ele>146.2</ele>
        <time>2014-08-31T07:27:01.000Z</time>
      </trkpt>
      <trkpt lat="46.03827" lon="-0.23657">
        <ele>146</ele>
        <time>2014-08-31T07:27:03.000Z</time>
      </trkpt>
      <trkpt lat="46.03825" lon="-0.23642">
        <ele>145.9</ele>
        <time>2014-08-31T07:27:05.000Z</time>
      </trkpt>
      <trkpt lat="46.03823" lon="-0.23627">
        <ele>145.6</ele>
        <time>2014-08-31T07:27:07.000Z</time>
      </trkpt>
      <trkpt lat="46.03821" lon="-0.23612">
        <ele>145.5</ele>
        <time>2014-08-31T07:27:09.000Z</time>
      </trkpt>
      <trkpt lat="46.03819" lon="-0.23597">
        <ele>145.2</ele>
        <time>2014-08-31T07:27:11.000Z</time>
      </trkpt>
      <trkpt lat="46.03818" lon="-0.23583">
        <ele>145.1</ele>
        <time>2014-08-31T07:27:13.000Z</time>
      </trkpt>
      <trkpt lat="46.03817" lon="-0.23568">
        <ele>144.5</ele>
        <time>2014-08-31T07:27:15.000Z</time>
      </trkpt>
      <trkpt lat="46.03815" lon="-0.23553">
        <ele>143.7</ele>
        <time>2014-08-31T07:27:17.000Z</time>
      </trkpt>
      <trkpt lat="46.03811" lon="-0.23523">
        <ele>142.9</ele>
        <time>2014-08-31T07:27:21.000Z</time>
      </trkpt>
      <trkpt lat="46.0381" lon="-0.23509">
        <ele>142.4</ele>
        <time>2014-08-31T07:27:23.000Z</time>
      </trkpt>
      <trkpt lat="46.03809" lon="-0.23495">
        <ele>142</ele>
        <time>2014-08-31T07:27:25.000Z</time>
      </trkpt>
      <trkpt lat="46.03806" lon="-0.23477">
        <ele>142.6</ele>
        <time>2014-08-31T07:27:28.000Z</time>
      </trkpt>
      <trkpt lat="46.03802" lon="-0.2346">
        <ele>143.4</ele>
        <time>2014-08-31T07:27:31.000Z</time>
      </trkpt>
      <trkpt lat="46.03807" lon="-0.23448">
        <ele>144.6</ele>
        <time>2014-08-31T07:27:34.000Z</time>
      </trkpt>
      <trkpt lat="46.03814" lon="-0.23437">
        <ele>145.9</ele>
        <time>2014-08-31T07:27:37.000Z</time>
      </trkpt>
      <trkpt lat="46.0382" lon="-0.23423">
        <ele>147.4</ele>
        <time>2014-08-31T07:27:40.000Z</time>
      </trkpt>
      <trkpt lat="46.03827" lon="-0.23409">
        <ele>147.8</ele>
        <time>2014-08-31T07:27:43.000Z</time>
      </trkpt>
      <trkpt lat="46.03835" lon="-0.23396">
        <ele>148.3</ele>
        <time>2014-08-31T07:27:46.000Z</time>
      </trkpt>
      <trkpt lat="46.03842" lon="-0.23382">
        <ele>148.9</ele>
        <time>2014-08-31T07:27:49.000Z</time>
      </trkpt>
      <trkpt lat="46.0385" lon="-0.23367">
        <ele>150</ele>
        <time>2014-08-31T07:27:52.000Z</time>
      </trkpt>
      <trkpt lat="46.03857" lon="-0.23352">
        <ele>150.6</ele>
        <time>2014-08-31T07:27:55.000Z</time>
      </trkpt>
      <trkpt lat="46.03866" lon="-0.23337">
        <ele>151.5</ele>
        <time>2014-08-31T07:27:58.000Z</time>
      </trkpt>
      <trkpt lat="46.03871" lon="-0.23327">
        <ele>151.8</ele>
        <time>2014-08-31T07:28:00.000Z</time>
      </trkpt>
      <trkpt lat="46.0388" lon="-0.23312">
        <ele>152</ele>
        <time>2014-08-31T07:28:03.000Z</time>
      </trkpt>
      <trkpt lat="46.03888" lon="-0.23297">
        <ele>152.5</ele>
        <time>2014-08-31T07:28:06.000Z</time>
      </trkpt>
      <trkpt lat="46.03894" lon="-0.23282">
        <ele>153</ele>
        <time>2014-08-31T07:28:09.000Z</time>
      </trkpt>
      <trkpt lat="46.03902" lon="-0.23267">
        <ele>153.8</ele>
        <time>2014-08-31T07:28:12.000Z</time>
      </trkpt>
      <trkpt lat="46.03908" lon="-0.23251">
        <ele>154</ele>
        <time>2014-08-31T07:28:15.000Z</time>
      </trkpt>
      <trkpt lat="46.03916" lon="-0.23236">
        <ele>154.1</ele>
        <time>2014-08-31T07:28:18.000Z</time>
      </trkpt>
      <trkpt lat="46.03928" lon="-0.23215">
        <ele>154.7</ele>
        <time>2014-08-31T07:28:22.000Z</time>
      </trkpt>
      <trkpt lat="46.03935" lon="-0.23204">
        <ele>154.9</ele>
        <time>2014-08-31T07:28:25.000Z</time>
      </trkpt>
      <trkpt lat="46.03944" lon="-0.23208">
        <ele>155.1</ele>
        <time>2014-08-31T07:28:29.000Z</time>
      </trkpt>
      <trkpt lat="46.03952" lon="-0.23216">
        <ele>155.2</ele>
        <time>2014-08-31T07:28:32.000Z</time>
      </trkpt>
      <trkpt lat="46.0396" lon="-0.23225">
        <ele>155.2</ele>
        <time>2014-08-31T07:28:35.000Z</time>
      </trkpt>
      <trkpt lat="46.0397" lon="-0.23236">
        <ele>155.1</ele>
        <time>2014-08-31T07:28:38.000Z</time>
      </trkpt>
      <trkpt lat="46.03979" lon="-0.23248">
        <ele>154.6</ele>
        <time>2014-08-31T07:28:41.000Z</time>
      </trkpt>
      <trkpt lat="46.03987" lon="-0.23258">
        <ele>154</ele>
        <time>2014-08-31T07:28:44.000Z</time>
      </trkpt>
      <trkpt lat="46.03996" lon="-0.2327">
        <ele>153.3</ele>
        <time>2014-08-31T07:28:47.000Z</time>
      </trkpt>
      <trkpt lat="46.04005" lon="-0.2328">
        <ele>152.4</ele>
        <time>2014-08-31T07:28:50.000Z</time>
      </trkpt>
      <trkpt lat="46.04013" lon="-0.23291">
        <ele>151.8</ele>
        <time>2014-08-31T07:28:53.000Z</time>
      </trkpt>
      <trkpt lat="46.04022" lon="-0.23303">
        <ele>150.9</ele>
        <time>2014-08-31T07:28:56.000Z</time>
      </trkpt>
      <trkpt lat="46.0403" lon="-0.23314">
        <ele>150.1</ele>
        <time>2014-08-31T07:28:59.000Z</time>
      </trkpt>
      <trkpt lat="46.04037" lon="-0.23323">
        <ele>149.5</ele>
        <time>2014-08-31T07:29:02.000Z</time>
      </trkpt>
      <trkpt lat="46.04045" lon="-0.23331">
        <ele>149</ele>
        <time>2014-08-31T07:29:05.000Z</time>
      </trkpt>
      <trkpt lat="46.04054" lon="-0.23342">
        <ele>148.2</ele>
        <time>2014-08-31T07:29:08.000Z</time>
      </trkpt>
      <trkpt lat="46.04064" lon="-0.23353">
        <ele>147.3</ele>
        <time>2014-08-31T07:29:11.000Z</time>
      </trkpt>
      <trkpt lat="46.04072" lon="-0.23362">
        <ele>146.6</ele>
        <time>2014-08-31T07:29:13.000Z</time>
      </trkpt>
      <trkpt lat="46.04079" lon="-0.23372">
        <ele>145.7</ele>
        <time>2014-08-31T07:29:15.000Z</time>
      </trkpt>
      <trkpt lat="46.04088" lon="-0.23384">
        <ele>145.2</ele>
        <time>2014-08-31T07:29:18.000Z</time>
      </trkpt>
      <trkpt lat="46.04096" lon="-0.23395">
        <ele>144.1</ele>
        <time>2014-08-31T07:29:21.000Z</time>
      </trkpt>
      <trkpt lat="46.04114" lon="-0.23417">
        <ele>142.3</ele>
        <time>2014-08-31T07:29:28.000Z</time>
      </trkpt>
      <trkpt lat="46.04123" lon="-0.23429">
        <ele>141.4</ele>
        <time>2014-08-31T07:29:31.000Z</time>
      </trkpt>
      <trkpt lat="46.04134" lon="-0.2344">
        <ele>140.3</ele>
        <time>2014-08-31T07:29:34.000Z</time>
      </trkpt>
      <trkpt lat="46.04142" lon="-0.23448">
        <ele>139.6</ele>
        <time>2014-08-31T07:29:36.000Z</time>
      </trkpt>
      <trkpt lat="46.0415" lon="-0.23457">
        <ele>139.1</ele>
        <time>2014-08-31T07:29:38.000Z</time>
      </trkpt>
      <trkpt lat="46.04159" lon="-0.23471">
        <ele>137.8</ele>
        <time>2014-08-31T07:29:41.000Z</time>
      </trkpt>
      <trkpt lat="46.04167" lon="-0.23485">
        <ele>137.9</ele>
        <time>2014-08-31T07:29:44.000Z</time>
      </trkpt>
      <trkpt lat="46.04176" lon="-0.23497">
        <ele>137.4</ele>
        <time>2014-08-31T07:29:47.000Z</time>
      </trkpt>
      <trkpt lat="46.04183" lon="-0.23507">
        <ele>137.8</ele>
        <time>2014-08-31T07:29:50.000Z</time>
      </trkpt>
      <trkpt lat="46.04192" lon="-0.23519">
        <ele>137.8</ele>
        <time>2014-08-31T07:29:53.000Z</time>
      </trkpt>
      <trkpt lat="46.04202" lon="-0.23532">
        <ele>138.2</ele>
        <time>2014-08-31T07:29:56.000Z</time>
      </trkpt>
      <trkpt lat="46.04211" lon="-0.23545">
        <ele>137.9</ele>
        <time>2014-08-31T07:29:59.000Z</time>
      </trkpt>
      <trkpt lat="46.0422" lon="-0.23556">
        <ele>137</ele>
        <time>2014-08-31T07:30:02.000Z</time>
      </trkpt>
      <trkpt lat="46.04229" lon="-0.23568">
        <ele>136.5</ele>
        <time>2014-08-31T07:30:05.000Z</time>
      </trkpt>
      <trkpt lat="46.04238" lon="-0.23576">
        <ele>135.9</ele>
        <time>2014-08-31T07:30:07.000Z</time>
      </trkpt>
      <trkpt lat="46.04248" lon="-0.23587">
        <ele>134.9</ele>
        <time>2014-08-31T07:30:10.000Z</time>
      </trkpt>
      <trkpt lat="46.04256" lon="-0.23599">
        <ele>133.9</ele>
        <time>2014-08-31T07:30:13.000Z</time>
      </trkpt>
      <trkpt lat="46.04265" lon="-0.23611">
        <ele>134.5</ele>
        <time>2014-08-31T07:30:16.000Z</time>
      </trkpt>
      <trkpt lat="46.0427" lon="-0.23624">
        <ele>139</ele>
        <time>2014-08-31T07:30:19.000Z</time>
      </trkpt>
      <trkpt lat="46.04275" lon="-0.2364">
        <ele>141.7</ele>
        <time>2014-08-31T07:30:22.000Z</time>
      </trkpt>
      <trkpt lat="46.04273" lon="-0.23672">
        <ele>145.3</ele>
        <time>2014-08-31T07:30:27.000Z</time>
      </trkpt>
      <trkpt lat="46.04271" lon="-0.23691">
        <ele>145.8</ele>
        <time>2014-08-31T07:30:30.000Z</time>
      </trkpt>
      <trkpt lat="46.0427" lon="-0.23704">
        <ele>145.9</ele>
        <time>2014-08-31T07:30:32.000Z</time>
      </trkpt>
      <trkpt lat="46.04268" lon="-0.23717">
        <ele>146.1</ele>
        <time>2014-08-31T07:30:34.000Z</time>
      </trkpt>
      <trkpt lat="46.04266" lon="-0.23736">
        <ele>146.5</ele>
        <time>2014-08-31T07:30:37.000Z</time>
      </trkpt>
      <trkpt lat="46.04264" lon="-0.23749">
        <ele>146.8</ele>
        <time>2014-08-31T07:30:39.000Z</time>
      </trkpt>
      <trkpt lat="46.04262" lon="-0.23762">
        <ele>147.1</ele>
        <time>2014-08-31T07:30:41.000Z</time>
      </trkpt>
      <trkpt lat="46.04261" lon="-0.23776">
        <ele>147.5</ele>
        <time>2014-08-31T07:30:43.000Z</time>
      </trkpt>
      <trkpt lat="46.04259" lon="-0.2379">
        <ele>147.8</ele>
        <time>2014-08-31T07:30:45.000Z</time>
      </trkpt>
      <trkpt lat="46.04258" lon="-0.23805">
        <ele>147.9</ele>
        <time>2014-08-31T07:30:47.000Z</time>
      </trkpt>
      <trkpt lat="46.04256" lon="-0.2382">
        <ele>148</ele>
        <time>2014-08-31T07:30:49.000Z</time>
      </trkpt>
      <trkpt lat="46.04255" lon="-0.23835">
        <ele>147.9</ele>
        <time>2014-08-31T07:30:51.000Z</time>
      </trkpt>
      <trkpt lat="46.04252" lon="-0.23851">
        <ele>148.3</ele>
        <time>2014-08-31T07:30:53.000Z</time>
      </trkpt>
      <trkpt lat="46.0425" lon="-0.23866">
        <ele>149.2</ele>
        <time>2014-08-31T07:30:55.000Z</time>
      </trkpt>
      <trkpt lat="46.04249" lon="-0.2388">
        <ele>149.5</ele>
        <time>2014-08-31T07:30:57.000Z</time>
      </trkpt>
      <trkpt lat="46.04248" lon="-0.23897">
        <ele>150.4</ele>
        <time>2014-08-31T07:31:00.000Z</time>
      </trkpt>
      <trkpt lat="46.04245" lon="-0.23913">
        <ele>149.9</ele>
        <time>2014-08-31T07:31:03.000Z</time>
      </trkpt>
      <trkpt lat="46.04244" lon="-0.23932">
        <ele>149.8</ele>
        <time>2014-08-31T07:31:06.000Z</time>
      </trkpt>
      <trkpt lat="46.04242" lon="-0.23946">
        <ele>149.9</ele>
        <time>2014-08-31T07:31:08.000Z</time>
      </trkpt>
      <trkpt lat="46.0424" lon="-0.23963">
        <ele>149.9</ele>
        <time>2014-08-31T07:31:10.000Z</time>
      </trkpt>
      <trkpt lat="46.04238" lon="-0.2398">
        <ele>149.3</ele>
        <time>2014-08-31T07:31:12.000Z</time>
      </trkpt>
      <trkpt lat="46.04235" lon="-0.23997">
        <ele>148.9</ele>
        <time>2014-08-31T07:31:14.000Z</time>
      </trkpt>
      <trkpt lat="46.04233" lon="-0.24015">
        <ele>148.7</ele>
        <time>2014-08-31T07:31:16.000Z</time>
      </trkpt>
      <trkpt lat="46.0423" lon="-0.24032">
        <ele>148.7</ele>
        <time>2014-08-31T07:31:18.000Z</time>
      </trkpt>
      <trkpt lat="46.04229" lon="-0.24049">
        <ele>148.6</ele>
        <time>2014-08-31T07:31:20.000Z</time>
      </trkpt>
      <trkpt lat="46.04232" lon="-0.24065">
        <ele>148.7</ele>
        <time>2014-08-31T07:31:22.000Z</time>
      </trkpt>
      <trkpt lat="46.04238" lon="-0.24078">
        <ele>148.5</ele>
        <time>2014-08-31T07:31:24.000Z</time>
      </trkpt>
      <trkpt lat="46.04259" lon="-0.24073">
        <ele>147.7</ele>
        <time>2014-08-31T07:31:29.000Z</time>
      </trkpt>
      <trkpt lat="46.04267" lon="-0.24066">
        <ele>147.5</ele>
        <time>2014-08-31T07:31:31.000Z</time>
      </trkpt>
      <trkpt lat="46.04276" lon="-0.24061">
        <ele>147.9</ele>
        <time>2014-08-31T07:31:33.000Z</time>
      </trkpt>
      <trkpt lat="46.04288" lon="-0.2406">
        <ele>147.4</ele>
        <time>2014-08-31T07:31:36.000Z</time>
      </trkpt>
      <trkpt lat="46.04288" lon="-0.24074">
        <ele>147.3</ele>
        <time>2014-08-31T07:31:39.000Z</time>
      </trkpt>
      <trkpt lat="46.04287" lon="-0.24091">
        <ele>146.7</ele>
        <time>2014-08-31T07:31:42.000Z</time>
      </trkpt>
      <trkpt lat="46.04286" lon="-0.24104">
        <ele>146.5</ele>
        <time>2014-08-31T07:31:44.000Z</time>
      </trkpt>
      <trkpt lat="46.04285" lon="-0.24119">
        <ele>146.5</ele>
        <time>2014-08-31T07:31:46.000Z</time>
      </trkpt>
      <trkpt lat="46.04284" lon="-0.24135">
        <ele>146.4</ele>
        <time>2014-08-31T07:31:48.000Z</time>
      </trkpt>
      <trkpt lat="46.04285" lon="-0.24151">
        <ele>146.2</ele>
        <time>2014-08-31T07:31:50.000Z</time>
      </trkpt>
      <trkpt lat="46.04286" lon="-0.24168">
        <ele>146.1</ele>
        <time>2014-08-31T07:31:52.000Z</time>
      </trkpt>
      <trkpt lat="46.04286" lon="-0.24185">
        <ele>146.2</ele>
        <time>2014-08-31T07:31:54.000Z</time>
      </trkpt>
      <trkpt lat="46.04286" lon="-0.24203">
        <ele>146.1</ele>
        <time>2014-08-31T07:31:56.000Z</time>
      </trkpt>
      <trkpt lat="46.04286" lon="-0.24222">
        <ele>146.5</ele>
        <time>2014-08-31T07:31:58.000Z</time>
      </trkpt>
      <trkpt lat="46.04286" lon="-0.24241">
        <ele>146.1</ele>
        <time>2014-08-31T07:32:00.000Z</time>
      </trkpt>
      <trkpt lat="46.04286" lon="-0.2426">
        <ele>146.5</ele>
        <time>2014-08-31T07:32:02.000Z</time>
      </trkpt>
      <trkpt lat="46.04286" lon="-0.24279">
        <ele>146.6</ele>
        <time>2014-08-31T07:32:04.000Z</time>
      </trkpt>
      <trkpt lat="46.04287" lon="-0.24297">
        <ele>146.3</ele>
        <time>2014-08-31T07:32:06.000Z</time>
      </trkpt>
      <trkpt lat="46.04287" lon="-0.24315">
        <ele>145.4</ele>
        <time>2014-08-31T07:32:08.000Z</time>
      </trkpt>
      <trkpt lat="46.04287" lon="-0.24334">
        <ele>145.1</ele>
        <time>2014-08-31T07:32:10.000Z</time>
      </trkpt>
      <trkpt lat="46.04288" lon="-0.24352">
        <ele>144.5</ele>
        <time>2014-08-31T07:32:12.000Z</time>
      </trkpt>
      <trkpt lat="46.04288" lon="-0.24372">
        <ele>144.1</ele>
        <time>2014-08-31T07:32:14.000Z</time>
      </trkpt>
      <trkpt lat="46.04288" lon="-0.24392">
        <ele>143.4</ele>
        <time>2014-08-31T07:32:16.000Z</time>
      </trkpt>
      <trkpt lat="46.04289" lon="-0.24412">
        <ele>143</ele>
        <time>2014-08-31T07:32:18.000Z</time>
      </trkpt>
      <trkpt lat="46.04289" lon="-0.24432">
        <ele>142.7</ele>
        <time>2014-08-31T07:32:20.000Z</time>
      </trkpt>
      <trkpt lat="46.04289" lon="-0.24452">
        <ele>142.4</ele>
        <time>2014-08-31T07:32:22.000Z</time>
      </trkpt>
      <trkpt lat="46.04289" lon="-0.24473">
        <ele>141.8</ele>
        <time>2014-08-31T07:32:24.000Z</time>
      </trkpt>
      <trkpt lat="46.0429" lon="-0.24494">
        <ele>141.3</ele>
        <time>2014-08-31T07:32:26.000Z</time>
      </trkpt>
      <trkpt lat="46.04289" lon="-0.24535">
        <ele>140.3</ele>
        <time>2014-08-31T07:32:30.000Z</time>
      </trkpt>
      <trkpt lat="46.0429" lon="-0.24556">
        <ele>139.7</ele>
        <time>2014-08-31T07:32:32.000Z</time>
      </trkpt>
      <trkpt lat="46.0429" lon="-0.24576">
        <ele>139</ele>
        <time>2014-08-31T07:32:34.000Z</time>
      </trkpt>
      <trkpt lat="46.0429" lon="-0.24595">
        <ele>138</ele>
        <time>2014-08-31T07:32:36.000Z</time>
      </trkpt>
      <trkpt lat="46.0429" lon="-0.24615">
        <ele>136.9</ele>
        <time>2014-08-31T07:32:38.000Z</time>
      </trkpt>
      <trkpt lat="46.04289" lon="-0.24635">
        <ele>136.2</ele>
        <time>2014-08-31T07:32:40.000Z</time>
      </trkpt>
      <trkpt lat="46.04289" lon="-0.24655">
        <ele>135.4</ele>
        <time>2014-08-31T07:32:42.000Z</time>
      </trkpt>
      <trkpt lat="46.0429" lon="-0.24675">
        <ele>134.7</ele>
        <time>2014-08-31T07:32:44.000Z</time>
      </trkpt>
      <trkpt lat="46.04291" lon="-0.24695">
        <ele>133.4</ele>
        <time>2014-08-31T07:32:46.000Z</time>
      </trkpt>
      <trkpt lat="46.04291" lon="-0.24717">
        <ele>130.9</ele>
        <time>2014-08-31T07:32:48.000Z</time>
      </trkpt>
      <trkpt lat="46.04293" lon="-0.24741">
        <ele>128.2</ele>
        <time>2014-08-31T07:32:50.000Z</time>
      </trkpt>
      <trkpt lat="46.04294" lon="-0.24762">
        <ele>126.7</ele>
        <time>2014-08-31T07:32:52.000Z</time>
      </trkpt>
      <trkpt lat="46.04299" lon="-0.24779">
        <ele>126.2</ele>
        <time>2014-08-31T07:32:55.000Z</time>
      </trkpt>
      <trkpt lat="46.04305" lon="-0.24793">
        <ele>127.4</ele>
        <time>2014-08-31T07:32:58.000Z</time>
      </trkpt>
      <trkpt lat="46.04309" lon="-0.24809">
        <ele>128.4</ele>
        <time>2014-08-31T07:33:01.000Z</time>
      </trkpt>
      <trkpt lat="46.04314" lon="-0.24826">
        <ele>129.5</ele>
        <time>2014-08-31T07:33:04.000Z</time>
      </trkpt>
      <trkpt lat="46.04317" lon="-0.24839">
        <ele>129.8</ele>
        <time>2014-08-31T07:33:06.000Z</time>
      </trkpt>
      <trkpt lat="46.04321" lon="-0.24851">
        <ele>130.3</ele>
        <time>2014-08-31T07:33:08.000Z</time>
      </trkpt>
      <trkpt lat="46.04325" lon="-0.24865">
        <ele>130.7</ele>
        <time>2014-08-31T07:33:10.000Z</time>
      </trkpt>
      <trkpt lat="46.04328" lon="-0.24879">
        <ele>131</ele>
        <time>2014-08-31T07:33:12.000Z</time>
      </trkpt>
      <trkpt lat="46.04333" lon="-0.24893">
        <ele>130.8</ele>
        <time>2014-08-31T07:33:14.000Z</time>
      </trkpt>
      <trkpt lat="46.04337" lon="-0.24909">
        <ele>130.9</ele>
        <time>2014-08-31T07:33:16.000Z</time>
      </trkpt>
      <trkpt lat="46.04341" lon="-0.24924">
        <ele>130.9</ele>
        <time>2014-08-31T07:33:18.000Z</time>
      </trkpt>
      <trkpt lat="46.04345" lon="-0.24939">
        <ele>130.9</ele>
        <time>2014-08-31T07:33:20.000Z</time>
      </trkpt>
      <trkpt lat="46.04349" lon="-0.24954">
        <ele>130.8</ele>
        <time>2014-08-31T07:33:22.000Z</time>
      </trkpt>
      <trkpt lat="46.04353" lon="-0.24969">
        <ele>130.8</ele>
        <time>2014-08-31T07:33:24.000Z</time>
      </trkpt>
      <trkpt lat="46.04357" lon="-0.24984">
        <ele>130.5</ele>
        <time>2014-08-31T07:33:26.000Z</time>
      </trkpt>
      <trkpt lat="46.04361" lon="-0.25">
        <ele>130.4</ele>
        <time>2014-08-31T07:33:28.000Z</time>
      </trkpt>
      <trkpt lat="46.0437" lon="-0.25032">
        <ele>130.4</ele>
        <time>2014-08-31T07:33:32.000Z</time>
      </trkpt>
      <trkpt lat="46.04375" lon="-0.25047">
        <ele>129.7</ele>
        <time>2014-08-31T07:33:34.000Z</time>
      </trkpt>
      <trkpt lat="46.04379" lon="-0.25063">
        <ele>129.7</ele>
        <time>2014-08-31T07:33:36.000Z</time>
      </trkpt>
      <trkpt lat="46.04384" lon="-0.25079">
        <ele>128.8</ele>
        <time>2014-08-31T07:33:38.000Z</time>
      </trkpt>
      <trkpt lat="46.04388" lon="-0.25095">
        <ele>128.9</ele>
        <time>2014-08-31T07:33:40.000Z</time>
      </trkpt>
      <trkpt lat="46.04392" lon="-0.25111">
        <ele>128.9</ele>
        <time>2014-08-31T07:33:42.000Z</time>
      </trkpt>
      <trkpt lat="46.04397" lon="-0.25128">
        <ele>128.6</ele>
        <time>2014-08-31T07:33:44.000Z</time>
      </trkpt>
      <trkpt lat="46.04401" lon="-0.25144">
        <ele>128.7</ele>
        <time>2014-08-31T07:33:46.000Z</time>
      </trkpt>
      <trkpt lat="46.04406" lon="-0.25161">
        <ele>128.4</ele>
        <time>2014-08-31T07:33:48.000Z</time>
      </trkpt>
      <trkpt lat="46.0441" lon="-0.25178">
        <ele>128.3</ele>
        <time>2014-08-31T07:33:50.000Z</time>
      </trkpt>
      <trkpt lat="46.04415" lon="-0.25194">
        <ele>127.7</ele>
        <time>2014-08-31T07:33:52.000Z</time>
      </trkpt>
      <trkpt lat="46.04419" lon="-0.2521">
        <ele>127.4</ele>
        <time>2014-08-31T07:33:54.000Z</time>
      </trkpt>
      <trkpt lat="46.04423" lon="-0.25226">
        <ele>127</ele>
        <time>2014-08-31T07:33:56.000Z</time>
      </trkpt>
      <trkpt lat="46.04427" lon="-0.25242">
        <ele>127</ele>
        <time>2014-08-31T07:33:58.000Z</time>
      </trkpt>
      <trkpt lat="46.04431" lon="-0.25258">
        <ele>127.2</ele>
        <time>2014-08-31T07:34:00.000Z</time>
      </trkpt>
      <trkpt lat="46.04435" lon="-0.25273">
        <ele>127</ele>
        <time>2014-08-31T07:34:02.000Z</time>
      </trkpt>
      <trkpt lat="46.04442" lon="-0.25283">
        <ele>126.5</ele>
        <time>2014-08-31T07:34:04.000Z</time>
      </trkpt>
      <trkpt lat="46.0445" lon="-0.25275">
        <ele>126.4</ele>
        <time>2014-08-31T07:34:08.000Z</time>
      </trkpt>
      <trkpt lat="46.04455" lon="-0.2526">
        <ele>126.7</ele>
        <time>2014-08-31T07:34:12.000Z</time>
      </trkpt>
      <trkpt lat="46.04459" lon="-0.25247">
        <ele>127.3</ele>
        <time>2014-08-31T07:34:15.000Z</time>
      </trkpt>
      <trkpt lat="46.04462" lon="-0.25233">
        <ele>127.7</ele>
        <time>2014-08-31T07:34:18.000Z</time>
      </trkpt>
      <trkpt lat="46.04466" lon="-0.25221">
        <ele>127.9</ele>
        <time>2014-08-31T07:34:21.000Z</time>
      </trkpt>
      <trkpt lat="46.04469" lon="-0.25207">
        <ele>128.1</ele>
        <time>2014-08-31T07:34:24.000Z</time>
      </trkpt>
      <trkpt lat="46.04473" lon="-0.25191">
        <ele>129.1</ele>
        <time>2014-08-31T07:34:28.000Z</time>
      </trkpt>
      <trkpt lat="46.04477" lon="-0.25175">
        <ele>129.3</ele>
        <time>2014-08-31T07:34:32.000Z</time>
      </trkpt>
      <trkpt lat="46.04486" lon="-0.25144">
        <ele>130.8</ele>
        <time>2014-08-31T07:34:40.000Z</time>
      </trkpt>
      <trkpt lat="46.0449" lon="-0.25127">
        <ele>131.1</ele>
        <time>2014-08-31T07:34:44.000Z</time>
      </trkpt>
      <trkpt lat="46.04495" lon="-0.25111">
        <ele>132.2</ele>
        <time>2014-08-31T07:34:48.000Z</time>
      </trkpt>
      <trkpt lat="46.04499" lon="-0.25096">
        <ele>133.3</ele>
        <time>2014-08-31T07:34:52.000Z</time>
      </trkpt>
      <trkpt lat="46.04504" lon="-0.25081">
        <ele>134.4</ele>
        <time>2014-08-31T07:34:56.000Z</time>
      </trkpt>
      <trkpt lat="46.04508" lon="-0.25065">
        <ele>135.3</ele>
        <time>2014-08-31T07:35:00.000Z</time>
      </trkpt>
      <trkpt lat="46.04513" lon="-0.2505">
        <ele>136.5</ele>
        <time>2014-08-31T07:35:04.000Z</time>
      </trkpt>
      <trkpt lat="46.04517" lon="-0.25035">
        <ele>137.5</ele>
        <time>2014-08-31T07:35:08.000Z</time>
      </trkpt>
      <trkpt lat="46.04521" lon="-0.25022">
        <ele>137.8</ele>
        <time>2014-08-31T07:35:11.000Z</time>
      </trkpt>
      <trkpt lat="46.04525" lon="-0.25008">
        <ele>138.5</ele>
        <time>2014-08-31T07:35:14.000Z</time>
      </trkpt>
      <trkpt lat="46.04529" lon="-0.24992">
        <ele>139.1</ele>
        <time>2014-08-31T07:35:17.000Z</time>
      </trkpt>
      <trkpt lat="46.04534" lon="-0.24976">
        <ele>139.7</ele>
        <time>2014-08-31T07:35:20.000Z</time>
      </trkpt>
      <trkpt lat="46.04538" lon="-0.2496">
        <ele>140</ele>
        <time>2014-08-31T07:35:23.000Z</time>
      </trkpt>
      <trkpt lat="46.04543" lon="-0.24944">
        <ele>140.3</ele>
        <time>2014-08-31T07:35:26.000Z</time>
      </trkpt>
      <trkpt lat="46.04547" lon="-0.24928">
        <ele>140.7</ele>
        <time>2014-08-31T07:35:29.000Z</time>
      </trkpt>
      <trkpt lat="46.04552" lon="-0.24912">
        <ele>140.8</ele>
        <time>2014-08-31T07:35:32.000Z</time>
      </trkpt>
      <trkpt lat="46.04557" lon="-0.24897">
        <ele>141.6</ele>
        <time>2014-08-31T07:35:35.000Z</time>
      </trkpt>
      <trkpt lat="46.04565" lon="-0.24866">
        <ele>142.8</ele>
        <time>2014-08-31T07:35:41.000Z</time>
      </trkpt>
      <trkpt lat="46.0457" lon="-0.2485">
        <ele>142.9</ele>
        <time>2014-08-31T07:35:44.000Z</time>
      </trkpt>
      <trkpt lat="46.04574" lon="-0.24832">
        <ele>144.3</ele>
        <time>2014-08-31T07:35:47.000Z</time>
      </trkpt>
      <trkpt lat="46.04578" lon="-0.24818">
        <ele>144.7</ele>
        <time>2014-08-31T07:35:50.000Z</time>
      </trkpt>
      <trkpt lat="46.04589" lon="-0.24816">
        <ele>145.2</ele>
        <time>2014-08-31T07:35:53.000Z</time>
      </trkpt>
      <trkpt lat="46.04599" lon="-0.24813">
        <ele>145.5</ele>
        <time>2014-08-31T07:35:56.000Z</time>
      </trkpt>
      <trkpt lat="46.0461" lon="-0.24811">
        <ele>145.2</ele>
        <time>2014-08-31T07:35:59.000Z</time>
      </trkpt>
      <trkpt lat="46.04621" lon="-0.2481">
        <ele>144.6</ele>
        <time>2014-08-31T07:36:02.000Z</time>
      </trkpt>
      <trkpt lat="46.04632" lon="-0.24808">
        <ele>144.3</ele>
        <time>2014-08-31T07:36:05.000Z</time>
      </trkpt>
      <trkpt lat="46.04643" lon="-0.24806">
        <ele>144.7</ele>
        <time>2014-08-31T07:36:08.000Z</time>
      </trkpt>
      <trkpt lat="46.04655" lon="-0.24805">
        <ele>144.7</ele>
        <time>2014-08-31T07:36:11.000Z</time>
      </trkpt>
      <trkpt lat="46.04666" lon="-0.24803">
        <ele>145.3</ele>
        <time>2014-08-31T07:36:14.000Z</time>
      </trkpt>
      <trkpt lat="46.04678" lon="-0.24801">
        <ele>145.1</ele>
        <time>2014-08-31T07:36:17.000Z</time>
      </trkpt>
      <trkpt lat="46.04689" lon="-0.24799">
        <ele>144.9</ele>
        <time>2014-08-31T07:36:20.000Z</time>
      </trkpt>
      <trkpt lat="46.047" lon="-0.24797">
        <ele>145.1</ele>
        <time>2014-08-31T07:36:23.000Z</time>
      </trkpt>
      <trkpt lat="46.04712" lon="-0.24795">
        <ele>145.9</ele>
        <time>2014-08-31T07:36:26.000Z</time>
      </trkpt>
      <trkpt lat="46.04723" lon="-0.24794">
        <ele>146.2</ele>
        <time>2014-08-31T07:36:29.000Z</time>
      </trkpt>
      <trkpt lat="46.04735" lon="-0.24791">
        <ele>146.3</ele>
        <time>2014-08-31T07:36:32.000Z</time>
      </trkpt>
      <trkpt lat="46.04748" lon="-0.24789">
        <ele>146.5</ele>
        <time>2014-08-31T07:36:35.000Z</time>
      </trkpt>
      <trkpt lat="46.04759" lon="-0.24788">
        <ele>146.9</ele>
        <time>2014-08-31T07:36:38.000Z</time>
      </trkpt>
      <trkpt lat="46.04773" lon="-0.24808">
        <ele>146.5</ele>
        <time>2014-08-31T07:36:44.000Z</time>
      </trkpt>
      <trkpt lat="46.04775" lon="-0.24821">
        <ele>146</ele>
        <time>2014-08-31T07:36:46.000Z</time>
      </trkpt>
      <trkpt lat="46.04775" lon="-0.24835">
        <ele>145.8</ele>
        <time>2014-08-31T07:36:48.000Z</time>
      </trkpt>
      <trkpt lat="46.04775" lon="-0.24849">
        <ele>145.5</ele>
        <time>2014-08-31T07:36:50.000Z</time>
      </trkpt>
      <trkpt lat="46.04776" lon="-0.24864">
        <ele>145</ele>
        <time>2014-08-31T07:36:52.000Z</time>
      </trkpt>
      <trkpt lat="46.04777" lon="-0.24878">
        <ele>144.7</ele>
        <time>2014-08-31T07:36:54.000Z</time>
      </trkpt>
      <trkpt lat="46.04778" lon="-0.24893">
        <ele>144.6</ele>
        <time>2014-08-31T07:36:56.000Z</time>
      </trkpt>
      <trkpt lat="46.04779" lon="-0.24908">
        <ele>144.3</ele>
        <time>2014-08-31T07:36:58.000Z</time>
      </trkpt>
      <trkpt lat="46.0478" lon="-0.24924">
        <ele>144.1</ele>
        <time>2014-08-31T07:37:00.000Z</time>
      </trkpt>
      <trkpt lat="46.04781" lon="-0.2494">
        <ele>143.7</ele>
        <time>2014-08-31T07:37:02.000Z</time>
      </trkpt>
      <trkpt lat="46.04781" lon="-0.24956">
        <ele>143.4</ele>
        <time>2014-08-31T07:37:04.000Z</time>
      </trkpt>
      <trkpt lat="46.04782" lon="-0.24974">
        <ele>142.9</ele>
        <time>2014-08-31T07:37:06.000Z</time>
      </trkpt>
      <trkpt lat="46.04783" lon="-0.24991">
        <ele>142.6</ele>
        <time>2014-08-31T07:37:08.000Z</time>
      </trkpt>
      <trkpt lat="46.04784" lon="-0.25007">
        <ele>142.2</ele>
        <time>2014-08-31T07:37:10.000Z</time>
      </trkpt>
      <trkpt lat="46.04785" lon="-0.25024">
        <ele>142</ele>
        <time>2014-08-31T07:37:12.000Z</time>
      </trkpt>
      <trkpt lat="46.04786" lon="-0.25039">
        <ele>141.9</ele>
        <time>2014-08-31T07:37:14.000Z</time>
      </trkpt>
      <trkpt lat="46.04787" lon="-0.25055">
        <ele>141.1</ele>
        <time>2014-08-31T07:37:16.000Z</time>
      </trkpt>
      <trkpt lat="46.04789" lon="-0.25072">
        <ele>140.4</ele>
        <time>2014-08-31T07:37:18.000Z</time>
      </trkpt>
      <trkpt lat="46.04789" lon="-0.2509">
        <ele>139.4</ele>
        <time>2014-08-31T07:37:20.000Z</time>
      </trkpt>
      <trkpt lat="46.04788" lon="-0.25108">
        <ele>139.3</ele>
        <time>2014-08-31T07:37:22.000Z</time>
      </trkpt>
      <trkpt lat="46.0479" lon="-0.25125">
        <ele>139.6</ele>
        <time>2014-08-31T07:37:24.000Z</time>
      </trkpt>
      <trkpt lat="46.04791" lon="-0.25139">
        <ele>140</ele>
        <time>2014-08-31T07:37:26.000Z</time>
      </trkpt>
      <trkpt lat="46.04792" lon="-0.25152">
        <ele>140</ele>
        <time>2014-08-31T07:37:28.000Z</time>
      </trkpt>
      <trkpt lat="46.04793" lon="-0.25166">
        <ele>140</ele>
        <time>2014-08-31T07:37:30.000Z</time>
      </trkpt>
      <trkpt lat="46.04795" lon="-0.25184">
        <ele>139.8</ele>
        <time>2014-08-31T07:37:33.000Z</time>
      </trkpt>
      <trkpt lat="46.04796" lon="-0.25197">
        <ele>139.8</ele>
        <time>2014-08-31T07:37:35.000Z</time>
      </trkpt>
      <trkpt lat="46.04797" lon="-0.25211">
        <ele>139.9</ele>
        <time>2014-08-31T07:37:37.000Z</time>
      </trkpt>
      <trkpt lat="46.04798" lon="-0.25231">
        <ele>140</ele>
        <time>2014-08-31T07:37:40.000Z</time>
      </trkpt>
      <trkpt lat="46.04799" lon="-0.2526">
        <ele>139.7</ele>
        <time>2014-08-31T07:37:44.000Z</time>
      </trkpt>
      <trkpt lat="46.048" lon="-0.25275">
        <ele>139.3</ele>
        <time>2014-08-31T07:37:46.000Z</time>
      </trkpt>
      <trkpt lat="46.04801" lon="-0.2529">
        <ele>139</ele>
        <time>2014-08-31T07:37:48.000Z</time>
      </trkpt>
      <trkpt lat="46.04802" lon="-0.25304">
        <ele>138.7</ele>
        <time>2014-08-31T07:37:50.000Z</time>
      </trkpt>
      <trkpt lat="46.04803" lon="-0.25319">
        <ele>138.9</ele>
        <time>2014-08-31T07:37:52.000Z</time>
      </trkpt>
      <trkpt lat="46.04803" lon="-0.25334">
        <ele>138.4</ele>
        <time>2014-08-31T07:37:54.000Z</time>
      </trkpt>
      <trkpt lat="46.04804" lon="-0.25348">
        <ele>138.2</ele>
        <time>2014-08-31T07:37:56.000Z</time>
      </trkpt>
      <trkpt lat="46.04804" lon="-0.25367">
        <ele>138.1</ele>
        <time>2014-08-31T07:37:59.000Z</time>
      </trkpt>
      <trkpt lat="46.04805" lon="-0.25381">
        <ele>138.1</ele>
        <time>2014-08-31T07:38:01.000Z</time>
      </trkpt>
      <trkpt lat="46.04806" lon="-0.25395">
        <ele>138</ele>
        <time>2014-08-31T07:38:03.000Z</time>
      </trkpt>
      <trkpt lat="46.04807" lon="-0.25411">
        <ele>138</ele>
        <time>2014-08-31T07:38:05.000Z</time>
      </trkpt>
      <trkpt lat="46.04809" lon="-0.25425">
        <ele>138.1</ele>
        <time>2014-08-31T07:38:07.000Z</time>
      </trkpt>
      <trkpt lat="46.04809" lon="-0.25441">
        <ele>138.2</ele>
        <time>2014-08-31T07:38:09.000Z</time>
      </trkpt>
      <trkpt lat="46.04805" lon="-0.25454">
        <ele>138.4</ele>
        <time>2014-08-31T07:38:11.000Z</time>
      </trkpt>
      <trkpt lat="46.04792" lon="-0.25459">
        <ele>136.8</ele>
        <time>2014-08-31T07:38:14.000Z</time>
      </trkpt>
      <trkpt lat="46.04781" lon="-0.25464">
        <ele>136</ele>
        <time>2014-08-31T07:38:16.000Z</time>
      </trkpt>
      <trkpt lat="46.04768" lon="-0.2547">
        <ele>136.2</ele>
        <time>2014-08-31T07:38:18.000Z</time>
      </trkpt>
      <trkpt lat="46.04754" lon="-0.25475">
        <ele>136.2</ele>
        <time>2014-08-31T07:38:20.000Z</time>
      </trkpt>
      <trkpt lat="46.0474" lon="-0.25481">
        <ele>136.1</ele>
        <time>2014-08-31T07:38:22.000Z</time>
      </trkpt>
      <trkpt lat="46.04728" lon="-0.25486">
        <ele>135.7</ele>
        <time>2014-08-31T07:38:24.000Z</time>
      </trkpt>
      <trkpt lat="46.04715" lon="-0.25491">
        <ele>135.2</ele>
        <time>2014-08-31T07:38:26.000Z</time>
      </trkpt>
      <trkpt lat="46.04702" lon="-0.25495">
        <ele>134.6</ele>
        <time>2014-08-31T07:38:28.000Z</time>
      </trkpt>
      <trkpt lat="46.0469" lon="-0.255">
        <ele>133.8</ele>
        <time>2014-08-31T07:38:30.000Z</time>
      </trkpt>
      <trkpt lat="46.04679" lon="-0.25503">
        <ele>133.5</ele>
        <time>2014-08-31T07:38:32.000Z</time>
      </trkpt>
      <trkpt lat="46.04669" lon="-0.25508">
        <ele>132.6</ele>
        <time>2014-08-31T07:38:34.000Z</time>
      </trkpt>
      <trkpt lat="46.04663" lon="-0.25524">
        <ele>131.6</ele>
        <time>2014-08-31T07:38:37.000Z</time>
      </trkpt>
      <trkpt lat="46.04668" lon="-0.25541">
        <ele>132</ele>
        <time>2014-08-31T07:38:40.000Z</time>
      </trkpt>
      <trkpt lat="46.04672" lon="-0.25553">
        <ele>132.4</ele>
        <time>2014-08-31T07:38:42.000Z</time>
      </trkpt>
      <trkpt lat="46.04681" lon="-0.25583">
        <ele>133.2</ele>
        <time>2014-08-31T07:38:46.000Z</time>
      </trkpt>
      <trkpt lat="46.04685" lon="-0.25598">
        <ele>133.3</ele>
        <time>2014-08-31T07:38:48.000Z</time>
      </trkpt>
      <trkpt lat="46.04689" lon="-0.25614">
        <ele>133.9</ele>
        <time>2014-08-31T07:38:50.000Z</time>
      </trkpt>
      <trkpt lat="46.04692" lon="-0.25632">
        <ele>134.1</ele>
        <time>2014-08-31T07:38:52.000Z</time>
      </trkpt>
      <trkpt lat="46.04697" lon="-0.25649">
        <ele>134.2</ele>
        <time>2014-08-31T07:38:54.000Z</time>
      </trkpt>
      <trkpt lat="46.04701" lon="-0.25667">
        <ele>134.2</ele>
        <time>2014-08-31T07:38:56.000Z</time>
      </trkpt>
      <trkpt lat="46.04705" lon="-0.25685">
        <ele>134.4</ele>
        <time>2014-08-31T07:38:58.000Z</time>
      </trkpt>
      <trkpt lat="46.0471" lon="-0.25702">
        <ele>134.5</ele>
        <time>2014-08-31T07:39:00.000Z</time>
      </trkpt>
      <trkpt lat="46.04714" lon="-0.2572">
        <ele>134.4</ele>
        <time>2014-08-31T07:39:02.000Z</time>
      </trkpt>
      <trkpt lat="46.04719" lon="-0.25738">
        <ele>134.3</ele>
        <time>2014-08-31T07:39:04.000Z</time>
      </trkpt>
      <trkpt lat="46.04723" lon="-0.25757">
        <ele>134.1</ele>
        <time>2014-08-31T07:39:06.000Z</time>
      </trkpt>
      <trkpt lat="46.04728" lon="-0.25775">
        <ele>133.7</ele>
        <time>2014-08-31T07:39:08.000Z</time>
      </trkpt>
      <trkpt lat="46.04733" lon="-0.25795">
        <ele>133.6</ele>
        <time>2014-08-31T07:39:10.000Z</time>
      </trkpt>
      <trkpt lat="46.04738" lon="-0.25814">
        <ele>133.2</ele>
        <time>2014-08-31T07:39:12.000Z</time>
      </trkpt>
      <trkpt lat="46.04743" lon="-0.25833">
        <ele>133</ele>
        <time>2014-08-31T07:39:14.000Z</time>
      </trkpt>
      <trkpt lat="46.04748" lon="-0.25853">
        <ele>132.6</ele>
        <time>2014-08-31T07:39:16.000Z</time>
      </trkpt>
      <trkpt lat="46.04753" lon="-0.25873">
        <ele>132.1</ele>
        <time>2014-08-31T07:39:18.000Z</time>
      </trkpt>
      <trkpt lat="46.04757" lon="-0.25892">
        <ele>131.7</ele>
        <time>2014-08-31T07:39:20.000Z</time>
      </trkpt>
      <trkpt lat="46.04762" lon="-0.2591">
        <ele>131.5</ele>
        <time>2014-08-31T07:39:22.000Z</time>
      </trkpt>
      <trkpt lat="46.04767" lon="-0.25926">
        <ele>131.5</ele>
        <time>2014-08-31T07:39:24.000Z</time>
      </trkpt>
      <trkpt lat="46.04771" lon="-0.25943">
        <ele>131.5</ele>
        <time>2014-08-31T07:39:26.000Z</time>
      </trkpt>
      <trkpt lat="46.04775" lon="-0.2596">
        <ele>131.4</ele>
        <time>2014-08-31T07:39:28.000Z</time>
      </trkpt>
      <trkpt lat="46.0478" lon="-0.25977">
        <ele>131.1</ele>
        <time>2014-08-31T07:39:30.000Z</time>
      </trkpt>
      <trkpt lat="46.04784" lon="-0.25995">
        <ele>130.8</ele>
        <time>2014-08-31T07:39:32.000Z</time>
      </trkpt>
      <trkpt lat="46.04788" lon="-0.26011">
        <ele>130.3</ele>
        <time>2014-08-31T07:39:34.000Z</time>
      </trkpt>
      <trkpt lat="46.04793" lon="-0.26029">
        <ele>129.7</ele>
        <time>2014-08-31T07:39:36.000Z</time>
      </trkpt>
      <trkpt lat="46.04797" lon="-0.26045">
        <ele>129.2</ele>
        <time>2014-08-31T07:39:38.000Z</time>
      </trkpt>
      <trkpt lat="46.04802" lon="-0.26063">
        <ele>128.4</ele>
        <time>2014-08-31T07:39:40.000Z</time>
      </trkpt>
      <trkpt lat="46.04806" lon="-0.2608">
        <ele>127.3</ele>
        <time>2014-08-31T07:39:42.000Z</time>
      </trkpt>
      <trkpt lat="46.04811" lon="-0.26096">
        <ele>126.7</ele>
        <time>2014-08-31T07:39:44.000Z</time>
      </trkpt>
      <trkpt lat="46.04818" lon="-0.26128">
        <ele>124.3</ele>
        <time>2014-08-31T07:39:48.000Z</time>
      </trkpt>
      <trkpt lat="46.0482" lon="-0.26143">
        <ele>122.9</ele>
        <time>2014-08-31T07:39:51.000Z</time>
      </trkpt>
      <trkpt lat="46.04814" lon="-0.26154">
        <ele>122.4</ele>
        <time>2014-08-31T07:39:54.000Z</time>
      </trkpt>
      <trkpt lat="46.04807" lon="-0.26163">
        <ele>121.9</ele>
        <time>2014-08-31T07:39:56.000Z</time>
      </trkpt>
      <trkpt lat="46.048" lon="-0.26175">
        <ele>121.6</ele>
        <time>2014-08-31T07:39:58.000Z</time>
      </trkpt>
      <trkpt lat="46.04792" lon="-0.26188">
        <ele>121.2</ele>
        <time>2014-08-31T07:40:00.000Z</time>
      </trkpt>
      <trkpt lat="46.04785" lon="-0.26201">
        <ele>120.7</ele>
        <time>2014-08-31T07:40:02.000Z</time>
      </trkpt>
      <trkpt lat="46.04779" lon="-0.26211">
        <ele>120.3</ele>
        <time>2014-08-31T07:40:04.000Z</time>
      </trkpt>
      <trkpt lat="46.0477" lon="-0.26225">
        <ele>119.3</ele>
        <time>2014-08-31T07:40:07.000Z</time>
      </trkpt>
      <trkpt lat="46.04763" lon="-0.26238">
        <ele>118.9</ele>
        <time>2014-08-31T07:40:09.000Z</time>
      </trkpt>
      <trkpt lat="46.04755" lon="-0.2625">
        <ele>118</ele>
        <time>2014-08-31T07:40:11.000Z</time>
      </trkpt>
      <trkpt lat="46.04748" lon="-0.26261">
        <ele>117.4</ele>
        <time>2014-08-31T07:40:13.000Z</time>
      </trkpt>
      <trkpt lat="46.0474" lon="-0.26273">
        <ele>117.1</ele>
        <time>2014-08-31T07:40:15.000Z</time>
      </trkpt>
      <trkpt lat="46.04731" lon="-0.26285">
        <ele>116.3</ele>
        <time>2014-08-31T07:40:17.000Z</time>
      </trkpt>
      <trkpt lat="46.04723" lon="-0.26297">
        <ele>115.3</ele>
        <time>2014-08-31T07:40:19.000Z</time>
      </trkpt>
      <trkpt lat="46.04716" lon="-0.2631">
        <ele>114.8</ele>
        <time>2014-08-31T07:40:21.000Z</time>
      </trkpt>
      <trkpt lat="46.04708" lon="-0.26323">
        <ele>114.2</ele>
        <time>2014-08-31T07:40:23.000Z</time>
      </trkpt>
      <trkpt lat="46.04701" lon="-0.26336">
        <ele>113.6</ele>
        <time>2014-08-31T07:40:25.000Z</time>
      </trkpt>
      <trkpt lat="46.04694" lon="-0.26347">
        <ele>113.3</ele>
        <time>2014-08-31T07:40:27.000Z</time>
      </trkpt>
      <trkpt lat="46.04686" lon="-0.26359">
        <ele>112.8</ele>
        <time>2014-08-31T07:40:29.000Z</time>
      </trkpt>
      <trkpt lat="46.04677" lon="-0.26371">
        <ele>112.5</ele>
        <time>2014-08-31T07:40:31.000Z</time>
      </trkpt>
      <trkpt lat="46.0467" lon="-0.26381">
        <ele>111.8</ele>
        <time>2014-08-31T07:40:33.000Z</time>
      </trkpt>
      <trkpt lat="46.04665" lon="-0.26392">
        <ele>110.8</ele>
        <time>2014-08-31T07:40:35.000Z</time>
      </trkpt>
      <trkpt lat="46.04658" lon="-0.26403">
        <ele>110.1</ele>
        <time>2014-08-31T07:40:37.000Z</time>
      </trkpt>
      <trkpt lat="46.04652" lon="-0.26414">
        <ele>110.1</ele>
        <time>2014-08-31T07:40:39.000Z</time>
      </trkpt>
      <trkpt lat="46.04644" lon="-0.26427">
        <ele>108</ele>
        <time>2014-08-31T07:40:41.000Z</time>
      </trkpt>
      <trkpt lat="46.04637" lon="-0.2644">
        <ele>108.4</ele>
        <time>2014-08-31T07:40:43.000Z</time>
      </trkpt>
      <trkpt lat="46.04629" lon="-0.26454">
        <ele>108.4</ele>
        <time>2014-08-31T07:40:45.000Z</time>
      </trkpt>
      <trkpt lat="46.0461" lon="-0.26481">
        <ele>107.1</ele>
        <time>2014-08-31T07:40:49.000Z</time>
      </trkpt>
      <trkpt lat="46.04601" lon="-0.26494">
        <ele>107.3</ele>
        <time>2014-08-31T07:40:51.000Z</time>
      </trkpt>
      <trkpt lat="46.04592" lon="-0.26508">
        <ele>106.5</ele>
        <time>2014-08-31T07:40:53.000Z</time>
      </trkpt>
      <trkpt lat="46.04583" lon="-0.26519">
        <ele>105.8</ele>
        <time>2014-08-31T07:40:55.000Z</time>
      </trkpt>
      <trkpt lat="46.04574" lon="-0.26527">
        <ele>106</ele>
        <time>2014-08-31T07:40:57.000Z</time>
      </trkpt>
      <trkpt lat="46.04566" lon="-0.26535">
        <ele>106.6</ele>
        <time>2014-08-31T07:40:59.000Z</time>
      </trkpt>
      <trkpt lat="46.04557" lon="-0.26545">
        <ele>105.7</ele>
        <time>2014-08-31T07:41:02.000Z</time>
      </trkpt>
      <trkpt lat="46.04545" lon="-0.26554">
        <ele>104.5</ele>
        <time>2014-08-31T07:41:05.000Z</time>
      </trkpt>
      <trkpt lat="46.04533" lon="-0.2656">
        <ele>103.2</ele>
        <time>2014-08-31T07:41:08.000Z</time>
      </trkpt>
      <trkpt lat="46.04528" lon="-0.26573">
        <ele>102.9</ele>
        <time>2014-08-31T07:41:11.000Z</time>
      </trkpt>
      <trkpt lat="46.04531" lon="-0.26588">
        <ele>103</ele>
        <time>2014-08-31T07:41:14.000Z</time>
      </trkpt>
      <trkpt lat="46.04536" lon="-0.26603">
        <ele>103.6</ele>
        <time>2014-08-31T07:41:17.000Z</time>
      </trkpt>
      <trkpt lat="46.0454" lon="-0.26617">
        <ele>104.2</ele>
        <time>2014-08-31T07:41:20.000Z</time>
      </trkpt>
      <trkpt lat="46.04542" lon="-0.26635">
        <ele>105.1</ele>
        <time>2014-08-31T07:41:23.000Z</time>
      </trkpt>
      <trkpt lat="46.04544" lon="-0.26648">
        <ele>106.4</ele>
        <time>2014-08-31T07:41:27.000Z</time>
      </trkpt>
      <trkpt lat="46.04552" lon="-0.26657">
        <ele>109.9</ele>
        <time>2014-08-31T07:41:50.000Z</time>
      </trkpt>
      <trkpt lat="46.0456" lon="-0.26681">
        <ele>107</ele>
        <time>2014-08-31T07:42:01.000Z</time>
      </trkpt>
      <trkpt lat="46.04562" lon="-0.26694">
        <ele>105.8</ele>
        <time>2014-08-31T07:42:06.000Z</time>
      </trkpt>
      <trkpt lat="46.04564" lon="-0.26712">
        <ele>104.5</ele>
        <time>2014-08-31T07:42:10.000Z</time>
      </trkpt>
      <trkpt lat="46.04564" lon="-0.26725">
        <ele>103.8</ele>
        <time>2014-08-31T07:42:12.000Z</time>
      </trkpt>
      <trkpt lat="46.04564" lon="-0.26738">
        <ele>103.2</ele>
        <time>2014-08-31T07:42:14.000Z</time>
      </trkpt>
      <trkpt lat="46.04565" lon="-0.26756">
        <ele>102</ele>
        <time>2014-08-31T07:42:17.000Z</time>
      </trkpt>
      <trkpt lat="46.04565" lon="-0.26769">
        <ele>101.1</ele>
        <time>2014-08-31T07:42:19.000Z</time>
      </trkpt>
      <trkpt lat="46.04568" lon="-0.26789">
        <ele>99.7</ele>
        <time>2014-08-31T07:42:22.000Z</time>
      </trkpt>
      <trkpt lat="46.04569" lon="-0.26802">
        <ele>98.5</ele>
        <time>2014-08-31T07:42:24.000Z</time>
      </trkpt>
      <trkpt lat="46.0457" lon="-0.26817">
        <ele>97.6</ele>
        <time>2014-08-31T07:42:26.000Z</time>
      </trkpt>
      <trkpt lat="46.0457" lon="-0.26832">
        <ele>96.4</ele>
        <time>2014-08-31T07:42:28.000Z</time>
      </trkpt>
      <trkpt lat="46.04576" lon="-0.2685">
        <ele>94.8</ele>
        <time>2014-08-31T07:42:30.000Z</time>
      </trkpt>
      <trkpt lat="46.0458" lon="-0.26868">
        <ele>93.5</ele>
        <time>2014-08-31T07:42:32.000Z</time>
      </trkpt>
      <trkpt lat="46.04583" lon="-0.26888">
        <ele>92</ele>
        <time>2014-08-31T07:42:34.000Z</time>
      </trkpt>
      <trkpt lat="46.04585" lon="-0.2691">
        <ele>89.8</ele>
        <time>2014-08-31T07:42:36.000Z</time>
      </trkpt>
      <trkpt lat="46.04583" lon="-0.26929">
        <ele>88.5</ele>
        <time>2014-08-31T07:42:38.000Z</time>
      </trkpt>
      <trkpt lat="46.04579" lon="-0.26948">
        <ele>86.4</ele>
        <time>2014-08-31T07:42:40.000Z</time>
      </trkpt>
      <trkpt lat="46.04577" lon="-0.26966">
        <ele>84.2</ele>
        <time>2014-08-31T07:42:42.000Z</time>
      </trkpt>
      <trkpt lat="46.04575" lon="-0.26982">
        <ele>82.4</ele>
        <time>2014-08-31T07:42:44.000Z</time>
      </trkpt>
      <trkpt lat="46.04572" lon="-0.26999">
        <ele>80.3</ele>
        <time>2014-08-31T07:42:46.000Z</time>
      </trkpt>
      <trkpt lat="46.0457" lon="-0.27016">
        <ele>78.2</ele>
        <time>2014-08-31T07:42:48.000Z</time>
      </trkpt>
      <trkpt lat="46.04568" lon="-0.27032">
        <ele>76</ele>
        <time>2014-08-31T07:42:50.000Z</time>
      </trkpt>
      <trkpt lat="46.04565" lon="-0.27048">
        <ele>74.1</ele>
        <time>2014-08-31T07:42:52.000Z</time>
      </trkpt>
      <trkpt lat="46.04562" lon="-0.2708">
        <ele>71.4</ele>
        <time>2014-08-31T07:42:56.000Z</time>
      </trkpt>
      <trkpt lat="46.0456" lon="-0.27097">
        <ele>70.8</ele>
        <time>2014-08-31T07:42:58.000Z</time>
      </trkpt>
      <trkpt lat="46.04558" lon="-0.2711">
        <ele>70.3</ele>
        <time>2014-08-31T07:43:00.000Z</time>
      </trkpt>
      <trkpt lat="46.04557" lon="-0.27125">
        <ele>68.7</ele>
        <time>2014-08-31T07:43:04.000Z</time>
      </trkpt>
      <trkpt lat="46.04554" lon="-0.27142">
        <ele>67.1</ele>
        <time>2014-08-31T07:43:09.000Z</time>
      </trkpt>
      <trkpt lat="46.04551" lon="-0.2716">
        <ele>66.2</ele>
        <time>2014-08-31T07:43:12.000Z</time>
      </trkpt>
      <trkpt lat="46.04549" lon="-0.27179">
        <ele>64.8</ele>
        <time>2014-08-31T07:43:15.000Z</time>
      </trkpt>
      <trkpt lat="46.04547" lon="-0.27193">
        <ele>65</ele>
        <time>2014-08-31T07:43:18.000Z</time>
      </trkpt>
      <trkpt lat="46.04545" lon="-0.27207">
        <ele>65.1</ele>
        <time>2014-08-31T07:43:21.000Z</time>
      </trkpt>
      <trkpt lat="46.04545" lon="-0.2722">
        <ele>64.3</ele>
        <time>2014-08-31T07:43:24.000Z</time>
      </trkpt>
      <trkpt lat="46.04546" lon="-0.27234">
        <ele>64</ele>
        <time>2014-08-31T07:43:27.000Z</time>
      </trkpt>
      <trkpt lat="46.04548" lon="-0.27249">
        <ele>64.3</ele>
        <time>2014-08-31T07:43:31.000Z</time>
      </trkpt>
      <trkpt lat="46.04551" lon="-0.27264">
        <ele>65.1</ele>
        <time>2014-08-31T07:43:35.000Z</time>
      </trkpt>
      <trkpt lat="46.04555" lon="-0.2728">
        <ele>66.1</ele>
        <time>2014-08-31T07:43:39.000Z</time>
      </trkpt>
      <trkpt lat="46.04565" lon="-0.27283">
        <ele>70.2</ele>
        <time>2014-08-31T07:43:45.000Z</time>
      </trkpt>
      <trkpt lat="46.04574" lon="-0.27275">
        <ele>71.7</ele>
        <time>2014-08-31T07:43:50.000Z</time>
      </trkpt>
      <trkpt lat="46.04578" lon="-0.27263">
        <ele>73</ele>
        <time>2014-08-31T07:43:54.000Z</time>
      </trkpt>
      <trkpt lat="46.04586" lon="-0.27233">
        <ele>75.6</ele>
        <time>2014-08-31T07:44:00.000Z</time>
      </trkpt>
      <trkpt lat="46.04587" lon="-0.27216">
        <ele>77.4</ele>
        <time>2014-08-31T07:44:04.000Z</time>
      </trkpt>
      <trkpt lat="46.04589" lon="-0.27202">
        <ele>78.4</ele>
        <time>2014-08-31T07:44:07.000Z</time>
      </trkpt>
      <trkpt lat="46.04593" lon="-0.27189">
        <ele>78.9</ele>
        <time>2014-08-31T07:44:10.000Z</time>
      </trkpt>
      <trkpt lat="46.04599" lon="-0.27177">
        <ele>79.3</ele>
        <time>2014-08-31T07:44:13.000Z</time>
      </trkpt>
      <trkpt lat="46.04604" lon="-0.27165">
        <ele>79.7</ele>
        <time>2014-08-31T07:44:16.000Z</time>
      </trkpt>
      <trkpt lat="46.04608" lon="-0.27152">
        <ele>80.6</ele>
        <time>2014-08-31T07:44:19.000Z</time>
      </trkpt>
      <trkpt lat="46.04612" lon="-0.27137">
        <ele>81.7</ele>
        <time>2014-08-31T07:44:23.000Z</time>
      </trkpt>
      <trkpt lat="46.04616" lon="-0.27122">
        <ele>82.3</ele>
        <time>2014-08-31T07:44:27.000Z</time>
      </trkpt>
      <trkpt lat="46.04621" lon="-0.27109">
        <ele>83</ele>
        <time>2014-08-31T07:44:30.000Z</time>
      </trkpt>
      <trkpt lat="46.04626" lon="-0.27097">
        <ele>83.5</ele>
        <time>2014-08-31T07:44:34.000Z</time>
      </trkpt>
      <trkpt lat="46.04632" lon="-0.27085">
        <ele>84.1</ele>
        <time>2014-08-31T07:44:38.000Z</time>
      </trkpt>
      <trkpt lat="46.04637" lon="-0.2707">
        <ele>84.6</ele>
        <time>2014-08-31T07:44:42.000Z</time>
      </trkpt>
      <trkpt lat="46.04639" lon="-0.27056">
        <ele>85.4</ele>
        <time>2014-08-31T07:44:46.000Z</time>
      </trkpt>
      <trkpt lat="46.04642" lon="-0.2704">
        <ele>86.8</ele>
        <time>2014-08-31T07:44:50.000Z</time>
      </trkpt>
      <trkpt lat="46.04644" lon="-0.27026">
        <ele>89.9</ele>
        <time>2014-08-31T07:44:55.000Z</time>
      </trkpt>
      <trkpt lat="46.04646" lon="-0.26997">
        <ele>93</ele>
        <time>2014-08-31T07:45:04.000Z</time>
      </trkpt>
      <trkpt lat="46.0465" lon="-0.26982">
        <ele>95.6</ele>
        <time>2014-08-31T07:45:08.000Z</time>
      </trkpt>
      <trkpt lat="46.04653" lon="-0.26969">
        <ele>97.8</ele>
        <time>2014-08-31T07:45:11.000Z</time>
      </trkpt>
      <trkpt lat="46.04657" lon="-0.26954">
        <ele>99.6</ele>
        <time>2014-08-31T07:45:14.000Z</time>
      </trkpt>
      <trkpt lat="46.04662" lon="-0.26938">
        <ele>102.5</ele>
        <time>2014-08-31T07:45:18.000Z</time>
      </trkpt>
      <trkpt lat="46.0467" lon="-0.26931">
        <ele>105.7</ele>
        <time>2014-08-31T07:45:21.000Z</time>
      </trkpt>
      <trkpt lat="46.04679" lon="-0.26924">
        <ele>109.7</ele>
        <time>2014-08-31T07:45:26.000Z</time>
      </trkpt>
      <trkpt lat="46.04688" lon="-0.26918">
        <ele>113.5</ele>
        <time>2014-08-31T07:45:30.000Z</time>
      </trkpt>
      <trkpt lat="46.04697" lon="-0.26914">
        <ele>117.3</ele>
        <time>2014-08-31T07:45:34.000Z</time>
      </trkpt>
      <trkpt lat="46.04707" lon="-0.26909">
        <ele>122</ele>
        <time>2014-08-31T07:45:39.000Z</time>
      </trkpt>
      <trkpt lat="46.04719" lon="-0.26905">
        <ele>125.1</ele>
        <time>2014-08-31T07:45:43.000Z</time>
      </trkpt>
      <trkpt lat="46.04732" lon="-0.269">
        <ele>127.3</ele>
        <time>2014-08-31T07:45:46.000Z</time>
      </trkpt>
      <trkpt lat="46.04742" lon="-0.26895">
        <ele>129.8</ele>
        <time>2014-08-31T07:45:49.000Z</time>
      </trkpt>
      <trkpt lat="46.04752" lon="-0.26891">
        <ele>132.6</ele>
        <time>2014-08-31T07:45:52.000Z</time>
      </trkpt>
      <trkpt lat="46.04761" lon="-0.26888">
        <ele>133.8</ele>
        <time>2014-08-31T07:45:55.000Z</time>
      </trkpt>
      <trkpt lat="46.04771" lon="-0.26885">
        <ele>134.7</ele>
        <time>2014-08-31T07:45:58.000Z</time>
      </trkpt>
      <trkpt lat="46.0479" lon="-0.26876">
        <ele>138.3</ele>
        <time>2014-08-31T07:46:06.000Z</time>
      </trkpt>
      <trkpt lat="46.048" lon="-0.2687">
        <ele>141.9</ele>
        <time>2014-08-31T07:46:11.000Z</time>
      </trkpt>
      <trkpt lat="46.04809" lon="-0.26867">
        <ele>143.3</ele>
        <time>2014-08-31T07:46:14.000Z</time>
      </trkpt>
      <trkpt lat="46.0482" lon="-0.26865">
        <ele>145</ele>
        <time>2014-08-31T07:46:17.000Z</time>
      </trkpt>
      <trkpt lat="46.04829" lon="-0.26865">
        <ele>145.2</ele>
        <time>2014-08-31T07:46:20.000Z</time>
      </trkpt>
      <trkpt lat="46.04834" lon="-0.26852">
        <ele>152.2</ele>
        <time>2014-08-31T07:46:43.000Z</time>
      </trkpt>
      <trkpt lat="46.04845" lon="-0.2685">
        <ele>151.6</ele>
        <time>2014-08-31T07:46:47.000Z</time>
      </trkpt>
      <trkpt lat="46.04854" lon="-0.26854">
        <ele>149.6</ele>
        <time>2014-08-31T07:46:56.000Z</time>
      </trkpt>
      <trkpt lat="46.04863" lon="-0.26853">
        <ele>147.7</ele>
        <time>2014-08-31T07:47:04.000Z</time>
      </trkpt>
      <trkpt lat="46.04885" lon="-0.26843">
        <ele>148.3</ele>
        <time>2014-08-31T07:47:15.000Z</time>
      </trkpt>
      <trkpt lat="46.04898" lon="-0.26835">
        <ele>148.8</ele>
        <time>2014-08-31T07:47:18.000Z</time>
      </trkpt>
      <trkpt lat="46.04909" lon="-0.26827">
        <ele>148.5</ele>
        <time>2014-08-31T07:47:21.000Z</time>
      </trkpt>
      <trkpt lat="46.04921" lon="-0.26823">
        <ele>147.9</ele>
        <time>2014-08-31T07:47:24.000Z</time>
      </trkpt>
      <trkpt lat="46.04932" lon="-0.26822">
        <ele>146</ele>
        <time>2014-08-31T07:47:27.000Z</time>
      </trkpt>
      <trkpt lat="46.04941" lon="-0.26837">
        <ele>145.8</ele>
        <time>2014-08-31T07:47:30.000Z</time>
      </trkpt>
      <trkpt lat="46.04943" lon="-0.2685">
        <ele>145.3</ele>
        <time>2014-08-31T07:47:32.000Z</time>
      </trkpt>
      <trkpt lat="46.04946" lon="-0.26864">
        <ele>144.8</ele>
        <time>2014-08-31T07:47:34.000Z</time>
      </trkpt>
      <trkpt lat="46.04949" lon="-0.26879">
        <ele>144.8</ele>
        <time>2014-08-31T07:47:36.000Z</time>
      </trkpt>
      <trkpt lat="46.04953" lon="-0.26896">
        <ele>142.8</ele>
        <time>2014-08-31T07:47:38.000Z</time>
      </trkpt>
      <trkpt lat="46.04956" lon="-0.26911">
        <ele>142.6</ele>
        <time>2014-08-31T07:47:40.000Z</time>
      </trkpt>
      <trkpt lat="46.0496" lon="-0.26927">
        <ele>142.6</ele>
        <time>2014-08-31T07:47:42.000Z</time>
      </trkpt>
      <trkpt lat="46.04965" lon="-0.26944">
        <ele>142.2</ele>
        <time>2014-08-31T07:47:44.000Z</time>
      </trkpt>
      <trkpt lat="46.04969" lon="-0.26959">
        <ele>141.8</ele>
        <time>2014-08-31T07:47:46.000Z</time>
      </trkpt>
      <trkpt lat="46.04972" lon="-0.26979">
        <ele>141.2</ele>
        <time>2014-08-31T07:47:48.000Z</time>
      </trkpt>
      <trkpt lat="46.04976" lon="-0.27001">
        <ele>140.8</ele>
        <time>2014-08-31T07:47:50.000Z</time>
      </trkpt>
      <trkpt lat="46.04979" lon="-0.27021">
        <ele>140.1</ele>
        <time>2014-08-31T07:47:52.000Z</time>
      </trkpt>
      <trkpt lat="46.04983" lon="-0.27042">
        <ele>139.7</ele>
        <time>2014-08-31T07:47:54.000Z</time>
      </trkpt>
      <trkpt lat="46.04987" lon="-0.27064">
        <ele>138.7</ele>
        <time>2014-08-31T07:47:56.000Z</time>
      </trkpt>
      <trkpt lat="46.04991" lon="-0.27083">
        <ele>137.7</ele>
        <time>2014-08-31T07:47:58.000Z</time>
      </trkpt>
      <trkpt lat="46.04996" lon="-0.27101">
        <ele>136.3</ele>
        <time>2014-08-31T07:48:00.000Z</time>
      </trkpt>
      <trkpt lat="46.05" lon="-0.27117">
        <ele>134.1</ele>
        <time>2014-08-31T07:48:03.000Z</time>
      </trkpt>
      <trkpt lat="46.05003" lon="-0.27131">
        <ele>131.6</ele>
        <time>2014-08-31T07:48:08.000Z</time>
      </trkpt>
      <trkpt lat="46.05005" lon="-0.27164">
        <ele>129.6</ele>
        <time>2014-08-31T07:48:15.000Z</time>
      </trkpt>
      <trkpt lat="46.0501" lon="-0.27175">
        <ele>129.3</ele>
        <time>2014-08-31T07:48:33.000Z</time>
      </trkpt>
      <trkpt lat="46.05013" lon="-0.27187">
        <ele>129.7</ele>
        <time>2014-08-31T07:48:51.000Z</time>
      </trkpt>
      <trkpt lat="46.05017" lon="-0.27201">
        <ele>129.8</ele>
        <time>2014-08-31T07:49:02.000Z</time>
      </trkpt>
      <trkpt lat="46.05021" lon="-0.27214">
        <ele>130.3</ele>
        <time>2014-08-31T07:49:06.000Z</time>
      </trkpt>
      <trkpt lat="46.05024" lon="-0.27227">
        <ele>131.1</ele>
        <time>2014-08-31T07:49:10.000Z</time>
      </trkpt>
      <trkpt lat="46.0503" lon="-0.27254">
        <ele>133.2</ele>
        <time>2014-08-31T07:49:19.000Z</time>
      </trkpt>
      <trkpt lat="46.05033" lon="-0.27269">
        <ele>133.8</ele>
        <time>2014-08-31T07:49:23.000Z</time>
      </trkpt>
      <trkpt lat="46.05036" lon="-0.27285">
        <ele>134.7</ele>
        <time>2014-08-31T07:49:27.000Z</time>
      </trkpt>
      <trkpt lat="46.05039" lon="-0.27301">
        <ele>135.2</ele>
        <time>2014-08-31T07:49:31.000Z</time>
      </trkpt>
      <trkpt lat="46.05041" lon="-0.27315">
        <ele>135.6</ele>
        <time>2014-08-31T07:49:34.000Z</time>
      </trkpt>
      <trkpt lat="46.05041" lon="-0.27331">
        <ele>135.8</ele>
        <time>2014-08-31T07:49:38.000Z</time>
      </trkpt>
      <trkpt lat="46.05042" lon="-0.27347">
        <ele>136.3</ele>
        <time>2014-08-31T07:49:42.000Z</time>
      </trkpt>
      <trkpt lat="46.05039" lon="-0.27361">
        <ele>136.2</ele>
        <time>2014-08-31T07:49:46.000Z</time>
      </trkpt>
      <trkpt lat="46.05029" lon="-0.27362">
        <ele>134.4</ele>
        <time>2014-08-31T07:49:49.000Z</time>
      </trkpt>
      <trkpt lat="46.05018" lon="-0.27363">
        <ele>132.5</ele>
        <time>2014-08-31T07:49:52.000Z</time>
      </trkpt>
      <trkpt lat="46.05006" lon="-0.27366">
        <ele>130.3</ele>
        <time>2014-08-31T07:49:55.000Z</time>
      </trkpt>
      <trkpt lat="46.04993" lon="-0.27367">
        <ele>129.7</ele>
        <time>2014-08-31T07:49:58.000Z</time>
      </trkpt>
      <trkpt lat="46.0498" lon="-0.27369">
        <ele>128.1</ele>
        <time>2014-08-31T07:50:01.000Z</time>
      </trkpt>
      <trkpt lat="46.04967" lon="-0.27369">
        <ele>126.6</ele>
        <time>2014-08-31T07:50:04.000Z</time>
      </trkpt>
      <trkpt lat="46.04954" lon="-0.27369">
        <ele>124.7</ele>
        <time>2014-08-31T07:50:07.000Z</time>
      </trkpt>
      <trkpt lat="46.04941" lon="-0.2737">
        <ele>122.2</ele>
        <time>2014-08-31T07:50:10.000Z</time>
      </trkpt>
      <trkpt lat="46.04928" lon="-0.27372">
        <ele>120.2</ele>
        <time>2014-08-31T07:50:13.000Z</time>
      </trkpt>
      <trkpt lat="46.04905" lon="-0.27373">
        <ele>117.2</ele>
        <time>2014-08-31T07:50:18.000Z</time>
      </trkpt>
      <trkpt lat="46.04894" lon="-0.27374">
        <ele>115.9</ele>
        <time>2014-08-31T07:50:20.000Z</time>
      </trkpt>
      <trkpt lat="46.04883" lon="-0.27374">
        <ele>115.3</ele>
        <time>2014-08-31T07:50:22.000Z</time>
      </trkpt>
      <trkpt lat="46.04874" lon="-0.27375">
        <ele>114.6</ele>
        <time>2014-08-31T07:50:24.000Z</time>
      </trkpt>
      <trkpt lat="46.04864" lon="-0.27377">
        <ele>113</ele>
        <time>2014-08-31T07:50:26.000Z</time>
      </trkpt>
      <trkpt lat="46.04854" lon="-0.27378">
        <ele>112</ele>
        <time>2014-08-31T07:50:28.000Z</time>
      </trkpt>
      <trkpt lat="46.04844" lon="-0.27378">
        <ele>110.9</ele>
        <time>2014-08-31T07:50:30.000Z</time>
      </trkpt>
      <trkpt lat="46.04831" lon="-0.27378">
        <ele>109.5</ele>
        <time>2014-08-31T07:50:32.000Z</time>
      </trkpt>
      <trkpt lat="46.04819" lon="-0.27378">
        <ele>108.5</ele>
        <time>2014-08-31T07:50:34.000Z</time>
      </trkpt>
      <trkpt lat="46.04809" lon="-0.2738">
        <ele>108.2</ele>
        <time>2014-08-31T07:50:36.000Z</time>
      </trkpt>
      <trkpt lat="46.04799" lon="-0.27382">
        <ele>107.2</ele>
        <time>2014-08-31T07:50:38.000Z</time>
      </trkpt>
      <trkpt lat="46.04788" lon="-0.27383">
        <ele>105.9</ele>
        <time>2014-08-31T07:50:40.000Z</time>
      </trkpt>
      <trkpt lat="46.04776" lon="-0.27384">
        <ele>104.9</ele>
        <time>2014-08-31T07:50:42.000Z</time>
      </trkpt>
      <trkpt lat="46.04762" lon="-0.27384">
        <ele>103.5</ele>
        <time>2014-08-31T07:50:44.000Z</time>
      </trkpt>
      <trkpt lat="46.04747" lon="-0.27384">
        <ele>102.2</ele>
        <time>2014-08-31T07:50:46.000Z</time>
      </trkpt>
      <trkpt lat="46.04732" lon="-0.27385">
        <ele>101.1</ele>
        <time>2014-08-31T07:50:48.000Z</time>
      </trkpt>
      <trkpt lat="46.04719" lon="-0.27387">
        <ele>101</ele>
        <time>2014-08-31T07:50:50.000Z</time>
      </trkpt>
      <trkpt lat="46.04706" lon="-0.2739">
        <ele>100.7</ele>
        <time>2014-08-31T07:50:52.000Z</time>
      </trkpt>
      <trkpt lat="46.04693" lon="-0.2739">
        <ele>100</ele>
        <time>2014-08-31T07:50:54.000Z</time>
      </trkpt>
      <trkpt lat="46.04679" lon="-0.2739">
        <ele>99</ele>
        <time>2014-08-31T07:50:56.000Z</time>
      </trkpt>
      <trkpt lat="46.04664" lon="-0.27392">
        <ele>97.6</ele>
        <time>2014-08-31T07:50:58.000Z</time>
      </trkpt>
      <trkpt lat="46.0465" lon="-0.27393">
        <ele>96.3</ele>
        <time>2014-08-31T07:51:00.000Z</time>
      </trkpt>
      <trkpt lat="46.04635" lon="-0.27394">
        <ele>95.9</ele>
        <time>2014-08-31T07:51:02.000Z</time>
      </trkpt>
      <trkpt lat="46.0462" lon="-0.27395">
        <ele>94.9</ele>
        <time>2014-08-31T07:51:04.000Z</time>
      </trkpt>
      <trkpt lat="46.04604" lon="-0.27395">
        <ele>93.7</ele>
        <time>2014-08-31T07:51:06.000Z</time>
      </trkpt>
      <trkpt lat="46.04592" lon="-0.27397">
        <ele>92.5</ele>
        <time>2014-08-31T07:51:08.000Z</time>
      </trkpt>
      <trkpt lat="46.04583" lon="-0.27399">
        <ele>91.3</ele>
        <time>2014-08-31T07:51:10.000Z</time>
      </trkpt>
      <trkpt lat="46.0457" lon="-0.27401">
        <ele>90.1</ele>
        <time>2014-08-31T07:51:13.000Z</time>
      </trkpt>
      <trkpt lat="46.04578" lon="-0.27411">
        <ele>92.3</ele>
        <time>2014-08-31T07:57:50.000Z</time>
      </trkpt>
      <trkpt lat="46.04584" lon="-0.2744">
        <ele>93.2</ele>
        <time>2014-08-31T07:57:59.000Z</time>
      </trkpt>
      <trkpt lat="46.04587" lon="-0.27453">
        <ele>95.4</ele>
        <time>2014-08-31T07:58:03.000Z</time>
      </trkpt>
      <trkpt lat="46.04592" lon="-0.27467">
        <ele>97.3</ele>
        <time>2014-08-31T07:58:08.000Z</time>
      </trkpt>
      <trkpt lat="46.04599" lon="-0.27479">
        <ele>98.7</ele>
        <time>2014-08-31T07:58:13.000Z</time>
      </trkpt>
      <trkpt lat="46.04604" lon="-0.2749">
        <ele>100</ele>
        <time>2014-08-31T07:58:17.000Z</time>
      </trkpt>
      <trkpt lat="46.04609" lon="-0.27501">
        <ele>101.4</ele>
        <time>2014-08-31T07:58:21.000Z</time>
      </trkpt>
      <trkpt lat="46.04615" lon="-0.27514">
        <ele>103.4</ele>
        <time>2014-08-31T07:58:26.000Z</time>
      </trkpt>
      <trkpt lat="46.04622" lon="-0.27527">
        <ele>104.4</ele>
        <time>2014-08-31T07:58:31.000Z</time>
      </trkpt>
      <trkpt lat="46.0463" lon="-0.27539">
        <ele>105.3</ele>
        <time>2014-08-31T07:58:36.000Z</time>
      </trkpt>
      <trkpt lat="46.04637" lon="-0.27552">
        <ele>107.2</ele>
        <time>2014-08-31T07:58:41.000Z</time>
      </trkpt>
      <trkpt lat="46.04644" lon="-0.27561">
        <ele>108.7</ele>
        <time>2014-08-31T07:58:45.000Z</time>
      </trkpt>
      <trkpt lat="46.04651" lon="-0.27573">
        <ele>109.8</ele>
        <time>2014-08-31T07:58:50.000Z</time>
      </trkpt>
      <trkpt lat="46.04657" lon="-0.27585">
        <ele>112.3</ele>
        <time>2014-08-31T07:58:55.000Z</time>
      </trkpt>
      <trkpt lat="46.04667" lon="-0.27612">
        <ele>114.8</ele>
        <time>2014-08-31T07:59:05.000Z</time>
      </trkpt>
      <trkpt lat="46.04663" lon="-0.27623">
        <ele>115.9</ele>
        <time>2014-08-31T07:59:10.000Z</time>
      </trkpt>
      <trkpt lat="46.04654" lon="-0.27629">
        <ele>116.1</ele>
        <time>2014-08-31T07:59:14.000Z</time>
      </trkpt>
      <trkpt lat="46.04645" lon="-0.27621">
        <ele>116.1</ele>
        <time>2014-08-31T07:59:18.000Z</time>
      </trkpt>
      <trkpt lat="46.04639" lon="-0.2761">
        <ele>116.1</ele>
        <time>2014-08-31T07:59:21.000Z</time>
      </trkpt>
      <trkpt lat="46.04632" lon="-0.276">
        <ele>115.8</ele>
        <time>2014-08-31T07:59:23.000Z</time>
      </trkpt>
      <trkpt lat="46.04625" lon="-0.27588">
        <ele>115.6</ele>
        <time>2014-08-31T07:59:27.000Z</time>
      </trkpt>
      <trkpt lat="46.0462" lon="-0.27573">
        <ele>114.9</ele>
        <time>2014-08-31T07:59:31.000Z</time>
      </trkpt>
      <trkpt lat="46.04615" lon="-0.27558">
        <ele>113.9</ele>
        <time>2014-08-31T07:59:35.000Z</time>
      </trkpt>
      <trkpt lat="46.04607" lon="-0.27555">
        <ele>112.7</ele>
        <time>2014-08-31T07:59:39.000Z</time>
      </trkpt>
      <trkpt lat="46.04601" lon="-0.27567">
        <ele>111.1</ele>
        <time>2014-08-31T07:59:45.000Z</time>
      </trkpt>
      <trkpt lat="46.04594" lon="-0.27579">
        <ele>110.4</ele>
        <time>2014-08-31T07:59:49.000Z</time>
      </trkpt>
      <trkpt lat="46.04586" lon="-0.27585">
        <ele>109.3</ele>
        <time>2014-08-31T07:59:53.000Z</time>
      </trkpt>
      <trkpt lat="46.04578" lon="-0.27578">
        <ele>108.5</ele>
        <time>2014-08-31T07:59:56.000Z</time>
      </trkpt>
      <trkpt lat="46.04569" lon="-0.27583">
        <ele>107.1</ele>
        <time>2014-08-31T08:00:00.000Z</time>
      </trkpt>
      <trkpt lat="46.04564" lon="-0.27566">
        <ele>105.4</ele>
        <time>2014-08-31T08:00:08.000Z</time>
      </trkpt>
      <trkpt lat="46.04567" lon="-0.27551">
        <ele>104.7</ele>
        <time>2014-08-31T08:00:11.000Z</time>
      </trkpt>
      <trkpt lat="46.04572" lon="-0.27539">
        <ele>104.4</ele>
        <time>2014-08-31T08:00:13.000Z</time>
      </trkpt>
      <trkpt lat="46.04579" lon="-0.27525">
        <ele>103.6</ele>
        <time>2014-08-31T08:00:16.000Z</time>
      </trkpt>
      <trkpt lat="46.04584" lon="-0.27514">
        <ele>102.8</ele>
        <time>2014-08-31T08:00:18.000Z</time>
      </trkpt>
      <trkpt lat="46.04578" lon="-0.27502">
        <ele>102.7</ele>
        <time>2014-08-31T08:00:24.000Z</time>
      </trkpt>
      <trkpt lat="46.0457" lon="-0.27493">
        <ele>102.7</ele>
        <time>2014-08-31T08:00:27.000Z</time>
      </trkpt>
      <trkpt lat="46.0456" lon="-0.27492">
        <ele>102.5</ele>
        <time>2014-08-31T08:00:30.000Z</time>
      </trkpt>
      <trkpt lat="46.04552" lon="-0.27498">
        <ele>103</ele>
        <time>2014-08-31T08:00:35.000Z</time>
      </trkpt>
      <trkpt lat="46.04548" lon="-0.2751">
        <ele>103.6</ele>
        <time>2014-08-31T08:00:39.000Z</time>
      </trkpt>
      <trkpt lat="46.04542" lon="-0.27525">
        <ele>104.6</ele>
        <time>2014-08-31T08:00:43.000Z</time>
      </trkpt>
      <trkpt lat="46.04536" lon="-0.27536">
        <ele>105.4</ele>
        <time>2014-08-31T08:00:46.000Z</time>
      </trkpt>
      <trkpt lat="46.04528" lon="-0.27548">
        <ele>106.6</ele>
        <time>2014-08-31T08:00:49.000Z</time>
      </trkpt>
      <trkpt lat="46.0452" lon="-0.27557">
        <ele>107.3</ele>
        <time>2014-08-31T08:00:52.000Z</time>
      </trkpt>
      <trkpt lat="46.04511" lon="-0.2756">
        <ele>107.8</ele>
        <time>2014-08-31T08:00:56.000Z</time>
      </trkpt>
      <trkpt lat="46.04501" lon="-0.27565">
        <ele>107.3</ele>
        <time>2014-08-31T08:01:00.000Z</time>
      </trkpt>
      <trkpt lat="46.04493" lon="-0.27575">
        <ele>107.3</ele>
        <time>2014-08-31T08:01:03.000Z</time>
      </trkpt>
      <trkpt lat="46.04481" lon="-0.27597">
        <ele>107.8</ele>
        <time>2014-08-31T08:01:09.000Z</time>
      </trkpt>
      <trkpt lat="46.04474" lon="-0.27608">
        <ele>108.2</ele>
        <time>2014-08-31T08:01:12.000Z</time>
      </trkpt>
      <trkpt lat="46.04468" lon="-0.27621">
        <ele>109</ele>
        <time>2014-08-31T08:01:15.000Z</time>
      </trkpt>
      <trkpt lat="46.04463" lon="-0.27631">
        <ele>109.7</ele>
        <time>2014-08-31T08:01:18.000Z</time>
      </trkpt>
      <trkpt lat="46.04456" lon="-0.27643">
        <ele>110.7</ele>
        <time>2014-08-31T08:01:21.000Z</time>
      </trkpt>
      <trkpt lat="46.0445" lon="-0.27656">
        <ele>111.7</ele>
        <time>2014-08-31T08:01:25.000Z</time>
      </trkpt>
      <trkpt lat="46.04445" lon="-0.27669">
        <ele>112.2</ele>
        <time>2014-08-31T08:01:28.000Z</time>
      </trkpt>
      <trkpt lat="46.04438" lon="-0.2768">
        <ele>111.8</ele>
        <time>2014-08-31T08:01:31.000Z</time>
      </trkpt>
      <trkpt lat="46.04434" lon="-0.27695">
        <ele>111.8</ele>
        <time>2014-08-31T08:01:35.000Z</time>
      </trkpt>
      <trkpt lat="46.04429" lon="-0.27712">
        <ele>111.4</ele>
        <time>2014-08-31T08:01:39.000Z</time>
      </trkpt>
      <trkpt lat="46.04423" lon="-0.27722">
        <ele>110.4</ele>
        <time>2014-08-31T08:01:42.000Z</time>
      </trkpt>
      <trkpt lat="46.04417" lon="-0.27735">
        <ele>108.8</ele>
        <time>2014-08-31T08:01:45.000Z</time>
      </trkpt>
      <trkpt lat="46.04411" lon="-0.27749">
        <ele>107.7</ele>
        <time>2014-08-31T08:01:48.000Z</time>
      </trkpt>
      <trkpt lat="46.04403" lon="-0.27765">
        <ele>106.6</ele>
        <time>2014-08-31T08:01:51.000Z</time>
      </trkpt>
      <trkpt lat="46.04398" lon="-0.27777">
        <ele>105.9</ele>
        <time>2014-08-31T08:01:53.000Z</time>
      </trkpt>
      <trkpt lat="46.04393" lon="-0.27788">
        <ele>105.7</ele>
        <time>2014-08-31T08:01:55.000Z</time>
      </trkpt>
      <trkpt lat="46.04386" lon="-0.27803">
        <ele>105.3</ele>
        <time>2014-08-31T08:01:58.000Z</time>
      </trkpt>
      <trkpt lat="46.04379" lon="-0.27818">
        <ele>105.4</ele>
        <time>2014-08-31T08:02:01.000Z</time>
      </trkpt>
      <trkpt lat="46.04372" lon="-0.27833">
        <ele>104.6</ele>
        <time>2014-08-31T08:02:04.000Z</time>
      </trkpt>
      <trkpt lat="46.04365" lon="-0.27846">
        <ele>103.7</ele>
        <time>2014-08-31T08:02:07.000Z</time>
      </trkpt>
      <trkpt lat="46.04352" lon="-0.27875">
        <ele>101.1</ele>
        <time>2014-08-31T08:02:13.000Z</time>
      </trkpt>
      <trkpt lat="46.04348" lon="-0.27886">
        <ele>100.3</ele>
        <time>2014-08-31T08:02:15.000Z</time>
      </trkpt>
      <trkpt lat="46.04343" lon="-0.279">
        <ele>99.5</ele>
        <time>2014-08-31T08:02:17.000Z</time>
      </trkpt>
      <trkpt lat="46.04337" lon="-0.27913">
        <ele>98.4</ele>
        <time>2014-08-31T08:02:19.000Z</time>
      </trkpt>
      <trkpt lat="46.04331" lon="-0.27929">
        <ele>97.5</ele>
        <time>2014-08-31T08:02:21.000Z</time>
      </trkpt>
      <trkpt lat="46.04323" lon="-0.27941">
        <ele>96.7</ele>
        <time>2014-08-31T08:02:23.000Z</time>
      </trkpt>
      <trkpt lat="46.04317" lon="-0.27954">
        <ele>95.7</ele>
        <time>2014-08-31T08:02:25.000Z</time>
      </trkpt>
      <trkpt lat="46.04311" lon="-0.27967">
        <ele>96.1</ele>
        <time>2014-08-31T08:02:27.000Z</time>
      </trkpt>
      <trkpt lat="46.04305" lon="-0.27981">
        <ele>95.9</ele>
        <time>2014-08-31T08:02:29.000Z</time>
      </trkpt>
      <trkpt lat="46.04299" lon="-0.27992">
        <ele>95.2</ele>
        <time>2014-08-31T08:02:31.000Z</time>
      </trkpt>
      <trkpt lat="46.04293" lon="-0.28004">
        <ele>94.9</ele>
        <time>2014-08-31T08:02:33.000Z</time>
      </trkpt>
      <trkpt lat="46.04287" lon="-0.28017">
        <ele>94.5</ele>
        <time>2014-08-31T08:02:35.000Z</time>
      </trkpt>
      <trkpt lat="46.04282" lon="-0.2803">
        <ele>94.5</ele>
        <time>2014-08-31T08:02:37.000Z</time>
      </trkpt>
      <trkpt lat="46.04278" lon="-0.28041">
        <ele>94</ele>
        <time>2014-08-31T08:02:39.000Z</time>
      </trkpt>
      <trkpt lat="46.04274" lon="-0.28056">
        <ele>94.8</ele>
        <time>2014-08-31T08:02:42.000Z</time>
      </trkpt>
      <trkpt lat="46.04278" lon="-0.28071">
        <ele>94.2</ele>
        <time>2014-08-31T08:02:45.000Z</time>
      </trkpt>
      <trkpt lat="46.04283" lon="-0.28087">
        <ele>94</ele>
        <time>2014-08-31T08:02:48.000Z</time>
      </trkpt>
      <trkpt lat="46.04285" lon="-0.28104">
        <ele>92.3</ele>
        <time>2014-08-31T08:02:51.000Z</time>
      </trkpt>
      <trkpt lat="46.04286" lon="-0.28119">
        <ele>91.8</ele>
        <time>2014-08-31T08:02:55.000Z</time>
      </trkpt>
      <trkpt lat="46.04296" lon="-0.28118">
        <ele>93.3</ele>
        <time>2014-08-31T08:02:58.000Z</time>
      </trkpt>
      <trkpt lat="46.04307" lon="-0.28118">
        <ele>95</ele>
        <time>2014-08-31T08:03:01.000Z</time>
      </trkpt>
      <trkpt lat="46.04319" lon="-0.28118">
        <ele>95.9</ele>
        <time>2014-08-31T08:03:04.000Z</time>
      </trkpt>
      <trkpt lat="46.04333" lon="-0.28117">
        <ele>97.5</ele>
        <time>2014-08-31T08:03:07.000Z</time>
      </trkpt>
      <trkpt lat="46.04346" lon="-0.28116">
        <ele>98.8</ele>
        <time>2014-08-31T08:03:10.000Z</time>
      </trkpt>
      <trkpt lat="46.04369" lon="-0.28114">
        <ele>101.1</ele>
        <time>2014-08-31T08:03:15.000Z</time>
      </trkpt>
      <trkpt lat="46.04378" lon="-0.28115">
        <ele>101.3</ele>
        <time>2014-08-31T08:03:17.000Z</time>
      </trkpt>
      <trkpt lat="46.04392" lon="-0.28115">
        <ele>102.4</ele>
        <time>2014-08-31T08:03:20.000Z</time>
      </trkpt>
      <trkpt lat="46.04402" lon="-0.28115">
        <ele>104</ele>
        <time>2014-08-31T08:03:22.000Z</time>
      </trkpt>
      <trkpt lat="46.04412" lon="-0.28116">
        <ele>105.5</ele>
        <time>2014-08-31T08:03:24.000Z</time>
      </trkpt>
      <trkpt lat="46.04424" lon="-0.28115">
        <ele>107.7</ele>
        <time>2014-08-31T08:03:27.000Z</time>
      </trkpt>
      <trkpt lat="46.04433" lon="-0.28115">
        <ele>109.3</ele>
        <time>2014-08-31T08:03:29.000Z</time>
      </trkpt>
      <trkpt lat="46.04443" lon="-0.28114">
        <ele>110.8</ele>
        <time>2014-08-31T08:03:31.000Z</time>
      </trkpt>
      <trkpt lat="46.04454" lon="-0.28112">
        <ele>112.5</ele>
        <time>2014-08-31T08:03:33.000Z</time>
      </trkpt>
      <trkpt lat="46.04464" lon="-0.2811">
        <ele>113.9</ele>
        <time>2014-08-31T08:03:35.000Z</time>
      </trkpt>
      <trkpt lat="46.04474" lon="-0.28108">
        <ele>114.7</ele>
        <time>2014-08-31T08:03:37.000Z</time>
      </trkpt>
      <trkpt lat="46.04484" lon="-0.28106">
        <ele>116.1</ele>
        <time>2014-08-31T08:03:39.000Z</time>
      </trkpt>
      <trkpt lat="46.04495" lon="-0.28104">
        <ele>116.7</ele>
        <time>2014-08-31T08:03:41.000Z</time>
      </trkpt>
      <trkpt lat="46.04504" lon="-0.28101">
        <ele>118.1</ele>
        <time>2014-08-31T08:03:43.000Z</time>
      </trkpt>
      <trkpt lat="46.04514" lon="-0.28099">
        <ele>120.8</ele>
        <time>2014-08-31T08:03:45.000Z</time>
      </trkpt>
      <trkpt lat="46.04525" lon="-0.28097">
        <ele>122.9</ele>
        <time>2014-08-31T08:03:47.000Z</time>
      </trkpt>
      <trkpt lat="46.04536" lon="-0.28095">
        <ele>124.4</ele>
        <time>2014-08-31T08:03:49.000Z</time>
      </trkpt>
      <trkpt lat="46.04545" lon="-0.28092">
        <ele>125.3</ele>
        <time>2014-08-31T08:03:51.000Z</time>
      </trkpt>
      <trkpt lat="46.04556" lon="-0.2809">
        <ele>126.2</ele>
        <time>2014-08-31T08:03:53.000Z</time>
      </trkpt>
      <trkpt lat="46.04566" lon="-0.28087">
        <ele>126.2</ele>
        <time>2014-08-31T08:03:55.000Z</time>
      </trkpt>
      <trkpt lat="46.04578" lon="-0.28087">
        <ele>126</ele>
        <time>2014-08-31T08:03:58.000Z</time>
      </trkpt>
      <trkpt lat="46.0459" lon="-0.28084">
        <ele>125.2</ele>
        <time>2014-08-31T08:04:01.000Z</time>
      </trkpt>
      <trkpt lat="46.04598" lon="-0.28077">
        <ele>123.8</ele>
        <time>2014-08-31T08:04:03.000Z</time>
      </trkpt>
      <trkpt lat="46.04608" lon="-0.28065">
        <ele>123</ele>
        <time>2014-08-31T08:04:06.000Z</time>
      </trkpt>
      <trkpt lat="46.04617" lon="-0.28053">
        <ele>123</ele>
        <time>2014-08-31T08:04:09.000Z</time>
      </trkpt>
      <trkpt lat="46.04624" lon="-0.28044">
        <ele>122.7</ele>
        <time>2014-08-31T08:04:12.000Z</time>
      </trkpt>
      <trkpt lat="46.0464" lon="-0.2806">
        <ele>123.4</ele>
        <time>2014-08-31T08:04:18.000Z</time>
      </trkpt>
      <trkpt lat="46.04645" lon="-0.28074">
        <ele>123.6</ele>
        <time>2014-08-31T08:04:21.000Z</time>
      </trkpt>
      <trkpt lat="46.04651" lon="-0.2809">
        <ele>122.8</ele>
        <time>2014-08-31T08:04:24.000Z</time>
      </trkpt>
      <trkpt lat="46.04656" lon="-0.28109">
        <ele>121.6</ele>
        <time>2014-08-31T08:04:26.000Z</time>
      </trkpt>
      <trkpt lat="46.04658" lon="-0.28125">
        <ele>121.6</ele>
        <time>2014-08-31T08:04:28.000Z</time>
      </trkpt>
      <trkpt lat="46.04661" lon="-0.28137">
        <ele>121.6</ele>
        <time>2014-08-31T08:04:30.000Z</time>
      </trkpt>
      <trkpt lat="46.04666" lon="-0.2815">
        <ele>121.7</ele>
        <time>2014-08-31T08:04:32.000Z</time>
      </trkpt>
      <trkpt lat="46.04669" lon="-0.28163">
        <ele>121.9</ele>
        <time>2014-08-31T08:04:34.000Z</time>
      </trkpt>
      <trkpt lat="46.04673" lon="-0.28176">
        <ele>122</ele>
        <time>2014-08-31T08:04:36.000Z</time>
      </trkpt>
      <trkpt lat="46.04678" lon="-0.28189">
        <ele>122</ele>
        <time>2014-08-31T08:04:38.000Z</time>
      </trkpt>
      <trkpt lat="46.04683" lon="-0.28203">
        <ele>121.8</ele>
        <time>2014-08-31T08:04:40.000Z</time>
      </trkpt>
      <trkpt lat="46.04688" lon="-0.28218">
        <ele>121.6</ele>
        <time>2014-08-31T08:04:42.000Z</time>
      </trkpt>
      <trkpt lat="46.04693" lon="-0.28235">
        <ele>121</ele>
        <time>2014-08-31T08:04:44.000Z</time>
      </trkpt>
      <trkpt lat="46.04698" lon="-0.28253">
        <ele>120.5</ele>
        <time>2014-08-31T08:04:46.000Z</time>
      </trkpt>
      <trkpt lat="46.04702" lon="-0.2827">
        <ele>119.6</ele>
        <time>2014-08-31T08:04:48.000Z</time>
      </trkpt>
      <trkpt lat="46.04706" lon="-0.28288">
        <ele>118.8</ele>
        <time>2014-08-31T08:04:50.000Z</time>
      </trkpt>
      <trkpt lat="46.0471" lon="-0.28305">
        <ele>118.2</ele>
        <time>2014-08-31T08:04:52.000Z</time>
      </trkpt>
      <trkpt lat="46.04715" lon="-0.28321">
        <ele>117.2</ele>
        <time>2014-08-31T08:04:54.000Z</time>
      </trkpt>
      <trkpt lat="46.04723" lon="-0.28343">
        <ele>115.2</ele>
        <time>2014-08-31T08:04:56.000Z</time>
      </trkpt>
      <trkpt lat="46.04728" lon="-0.28359">
        <ele>113.7</ele>
        <time>2014-08-31T08:04:58.000Z</time>
      </trkpt>
      <trkpt lat="46.04737" lon="-0.28366">
        <ele>113.1</ele>
        <time>2014-08-31T08:05:01.000Z</time>
      </trkpt>
      <trkpt lat="46.04746" lon="-0.28369">
        <ele>112.8</ele>
        <time>2014-08-31T08:05:04.000Z</time>
      </trkpt>
      <trkpt lat="46.04752" lon="-0.28383">
        <ele>112.4</ele>
        <time>2014-08-31T08:05:07.000Z</time>
      </trkpt>
      <trkpt lat="46.04753" lon="-0.28397">
        <ele>112.2</ele>
        <time>2014-08-31T08:05:09.000Z</time>
      </trkpt>
      <trkpt lat="46.04753" lon="-0.28413">
        <ele>111.7</ele>
        <time>2014-08-31T08:05:11.000Z</time>
      </trkpt>
      <trkpt lat="46.04755" lon="-0.28432">
        <ele>111.6</ele>
        <time>2014-08-31T08:05:13.000Z</time>
      </trkpt>
      <trkpt lat="46.04756" lon="-0.28452">
        <ele>111.6</ele>
        <time>2014-08-31T08:05:15.000Z</time>
      </trkpt>
      <trkpt lat="46.04757" lon="-0.28493">
        <ele>111.3</ele>
        <time>2014-08-31T08:05:19.000Z</time>
      </trkpt>
      <trkpt lat="46.04757" lon="-0.28514">
        <ele>111.6</ele>
        <time>2014-08-31T08:05:21.000Z</time>
      </trkpt>
      <trkpt lat="46.04757" lon="-0.28533">
        <ele>111.7</ele>
        <time>2014-08-31T08:05:23.000Z</time>
      </trkpt>
      <trkpt lat="46.04758" lon="-0.28553">
        <ele>111.6</ele>
        <time>2014-08-31T08:05:25.000Z</time>
      </trkpt>
      <trkpt lat="46.04762" lon="-0.28572">
        <ele>111.3</ele>
        <time>2014-08-31T08:05:27.000Z</time>
      </trkpt>
      <trkpt lat="46.04766" lon="-0.28593">
        <ele>110.4</ele>
        <time>2014-08-31T08:05:29.000Z</time>
      </trkpt>
      <trkpt lat="46.0477" lon="-0.28614">
        <ele>109.3</ele>
        <time>2014-08-31T08:05:31.000Z</time>
      </trkpt>
      <trkpt lat="46.04773" lon="-0.28634">
        <ele>108.3</ele>
        <time>2014-08-31T08:05:33.000Z</time>
      </trkpt>
      <trkpt lat="46.04776" lon="-0.28655">
        <ele>107.3</ele>
        <time>2014-08-31T08:05:35.000Z</time>
      </trkpt>
      <trkpt lat="46.04781" lon="-0.28676">
        <ele>106.1</ele>
        <time>2014-08-31T08:05:37.000Z</time>
      </trkpt>
      <trkpt lat="46.04785" lon="-0.28698">
        <ele>105</ele>
        <time>2014-08-31T08:05:39.000Z</time>
      </trkpt>
      <trkpt lat="46.04787" lon="-0.28721">
        <ele>104.1</ele>
        <time>2014-08-31T08:05:41.000Z</time>
      </trkpt>
      <trkpt lat="46.04789" lon="-0.28744">
        <ele>103.5</ele>
        <time>2014-08-31T08:05:43.000Z</time>
      </trkpt>
      <trkpt lat="46.0479" lon="-0.28763">
        <ele>103</ele>
        <time>2014-08-31T08:05:45.000Z</time>
      </trkpt>
      <trkpt lat="46.0479" lon="-0.28779">
        <ele>102.8</ele>
        <time>2014-08-31T08:05:47.000Z</time>
      </trkpt>
      <trkpt lat="46.04789" lon="-0.28793">
        <ele>102.5</ele>
        <time>2014-08-31T08:05:49.000Z</time>
      </trkpt>
      <trkpt lat="46.04788" lon="-0.28807">
        <ele>102.3</ele>
        <time>2014-08-31T08:05:52.000Z</time>
      </trkpt>
      <trkpt lat="46.04798" lon="-0.28802">
        <ele>104.6</ele>
        <time>2014-08-31T08:05:56.000Z</time>
      </trkpt>
      <trkpt lat="46.04806" lon="-0.2879">
        <ele>106.2</ele>
        <time>2014-08-31T08:06:00.000Z</time>
      </trkpt>
      <trkpt lat="46.04814" lon="-0.2878">
        <ele>106.2</ele>
        <time>2014-08-31T08:06:03.000Z</time>
      </trkpt>
      <trkpt lat="46.04823" lon="-0.28771">
        <ele>106.4</ele>
        <time>2014-08-31T08:06:06.000Z</time>
      </trkpt>
      <trkpt lat="46.04832" lon="-0.28762">
        <ele>106.7</ele>
        <time>2014-08-31T08:06:09.000Z</time>
      </trkpt>
      <trkpt lat="46.04842" lon="-0.28754">
        <ele>108.1</ele>
        <time>2014-08-31T08:06:12.000Z</time>
      </trkpt>
      <trkpt lat="46.0485" lon="-0.28746">
        <ele>109.5</ele>
        <time>2014-08-31T08:06:15.000Z</time>
      </trkpt>
      <trkpt lat="46.04857" lon="-0.28736">
        <ele>110.2</ele>
        <time>2014-08-31T08:06:18.000Z</time>
      </trkpt>
      <trkpt lat="46.04868" lon="-0.28711">
        <ele>109.4</ele>
        <time>2014-08-31T08:06:24.000Z</time>
      </trkpt>
      <trkpt lat="46.04874" lon="-0.28696">
        <ele>110</ele>
        <time>2014-08-31T08:06:27.000Z</time>
      </trkpt>
      <trkpt lat="46.04878" lon="-0.28682">
        <ele>110</ele>
        <time>2014-08-31T08:06:30.000Z</time>
      </trkpt>
      <trkpt lat="46.04881" lon="-0.28668">
        <ele>109.8</ele>
        <time>2014-08-31T08:06:33.000Z</time>
      </trkpt>
      <trkpt lat="46.04884" lon="-0.28655">
        <ele>109.6</ele>
        <time>2014-08-31T08:06:36.000Z</time>
      </trkpt>
      <trkpt lat="46.04889" lon="-0.28644">
        <ele>109.4</ele>
        <time>2014-08-31T08:06:39.000Z</time>
      </trkpt>
      <trkpt lat="46.04896" lon="-0.28629">
        <ele>109.6</ele>
        <time>2014-08-31T08:06:43.000Z</time>
      </trkpt>
      <trkpt lat="46.04901" lon="-0.28615">
        <ele>109.6</ele>
        <time>2014-08-31T08:06:47.000Z</time>
      </trkpt>
      <trkpt lat="46.04907" lon="-0.28604">
        <ele>110.3</ele>
        <time>2014-08-31T08:06:50.000Z</time>
      </trkpt>
      <trkpt lat="46.04914" lon="-0.28593">
        <ele>111.4</ele>
        <time>2014-08-31T08:06:53.000Z</time>
      </trkpt>
      <trkpt lat="46.04921" lon="-0.28583">
        <ele>112.5</ele>
        <time>2014-08-31T08:06:56.000Z</time>
      </trkpt>
      <trkpt lat="46.04929" lon="-0.28574">
        <ele>113.9</ele>
        <time>2014-08-31T08:06:59.000Z</time>
      </trkpt>
      <trkpt lat="46.04938" lon="-0.28564">
        <ele>114.8</ele>
        <time>2014-08-31T08:07:02.000Z</time>
      </trkpt>
      <trkpt lat="46.04944" lon="-0.28553">
        <ele>115.4</ele>
        <time>2014-08-31T08:07:05.000Z</time>
      </trkpt>
      <trkpt lat="46.04948" lon="-0.28541">
        <ele>116.1</ele>
        <time>2014-08-31T08:07:08.000Z</time>
      </trkpt>
      <trkpt lat="46.0495" lon="-0.28527">
        <ele>116.8</ele>
        <time>2014-08-31T08:07:11.000Z</time>
      </trkpt>
      <trkpt lat="46.04954" lon="-0.28514">
        <ele>117</ele>
        <time>2014-08-31T08:07:14.000Z</time>
      </trkpt>
      <trkpt lat="46.04958" lon="-0.28501">
        <ele>116.8</ele>
        <time>2014-08-31T08:07:17.000Z</time>
      </trkpt>
      <trkpt lat="46.04963" lon="-0.28487">
        <ele>115.8</ele>
        <time>2014-08-31T08:07:20.000Z</time>
      </trkpt>
      <trkpt lat="46.04972" lon="-0.28455">
        <ele>116.5</ele>
        <time>2014-08-31T08:07:26.000Z</time>
      </trkpt>
      <trkpt lat="46.04976" lon="-0.28441">
        <ele>116.8</ele>
        <time>2014-08-31T08:07:29.000Z</time>
      </trkpt>
      <trkpt lat="46.04979" lon="-0.28429">
        <ele>117</ele>
        <time>2014-08-31T08:07:32.000Z</time>
      </trkpt>
      <trkpt lat="46.04985" lon="-0.28415">
        <ele>117.3</ele>
        <time>2014-08-31T08:07:35.000Z</time>
      </trkpt>
      <trkpt lat="46.04993" lon="-0.28402">
        <ele>117.7</ele>
        <time>2014-08-31T08:07:38.000Z</time>
      </trkpt>
      <trkpt lat="46.05001" lon="-0.28391">
        <ele>118.2</ele>
        <time>2014-08-31T08:07:41.000Z</time>
      </trkpt>
      <trkpt lat="46.0501" lon="-0.28379">
        <ele>118.6</ele>
        <time>2014-08-31T08:07:44.000Z</time>
      </trkpt>
      <trkpt lat="46.05019" lon="-0.28369">
        <ele>119.1</ele>
        <time>2014-08-31T08:07:47.000Z</time>
      </trkpt>
      <trkpt lat="46.05028" lon="-0.28356">
        <ele>119.3</ele>
        <time>2014-08-31T08:07:50.000Z</time>
      </trkpt>
      <trkpt lat="46.05036" lon="-0.28342">
        <ele>119.7</ele>
        <time>2014-08-31T08:07:53.000Z</time>
      </trkpt>
      <trkpt lat="46.05044" lon="-0.2833">
        <ele>120.3</ele>
        <time>2014-08-31T08:07:56.000Z</time>
      </trkpt>
      <trkpt lat="46.05054" lon="-0.28321">
        <ele>120.3</ele>
        <time>2014-08-31T08:07:59.000Z</time>
      </trkpt>
      <trkpt lat="46.05058" lon="-0.28335">
        <ele>119.6</ele>
        <time>2014-08-31T08:08:05.000Z</time>
      </trkpt>
      <trkpt lat="46.05055" lon="-0.28349">
        <ele>119.1</ele>
        <time>2014-08-31T08:08:08.000Z</time>
      </trkpt>
      <trkpt lat="46.05056" lon="-0.28363">
        <ele>118.5</ele>
        <time>2014-08-31T08:08:10.000Z</time>
      </trkpt>
      <trkpt lat="46.05059" lon="-0.2838">
        <ele>117.8</ele>
        <time>2014-08-31T08:08:12.000Z</time>
      </trkpt>
      <trkpt lat="46.0506" lon="-0.28396">
        <ele>118.1</ele>
        <time>2014-08-31T08:08:14.000Z</time>
      </trkpt>
      <trkpt lat="46.05059" lon="-0.28411">
        <ele>118.6</ele>
        <time>2014-08-31T08:08:16.000Z</time>
      </trkpt>
      <trkpt lat="46.05061" lon="-0.28424">
        <ele>118.9</ele>
        <time>2014-08-31T08:08:18.000Z</time>
      </trkpt>
      <trkpt lat="46.05064" lon="-0.28436">
        <ele>118.2</ele>
        <time>2014-08-31T08:08:20.000Z</time>
      </trkpt>
      <trkpt lat="46.0507" lon="-0.28454">
        <ele>118</ele>
        <time>2014-08-31T08:08:23.000Z</time>
      </trkpt>
      <trkpt lat="46.05079" lon="-0.28486">
        <ele>117.9</ele>
        <time>2014-08-31T08:08:27.000Z</time>
      </trkpt>
      <trkpt lat="46.05083" lon="-0.28499">
        <ele>117.7</ele>
        <time>2014-08-31T08:08:29.000Z</time>
      </trkpt>
      <trkpt lat="46.05088" lon="-0.28516">
        <ele>117.3</ele>
        <time>2014-08-31T08:08:32.000Z</time>
      </trkpt>
      <trkpt lat="46.05092" lon="-0.28533">
        <ele>116.9</ele>
        <time>2014-08-31T08:08:34.000Z</time>
      </trkpt>
      <trkpt lat="46.05093" lon="-0.28549">
        <ele>116.1</ele>
        <time>2014-08-31T08:08:36.000Z</time>
      </trkpt>
      <trkpt lat="46.05092" lon="-0.28567">
        <ele>114.9</ele>
        <time>2014-08-31T08:08:38.000Z</time>
      </trkpt>
      <trkpt lat="46.05091" lon="-0.28584">
        <ele>113.8</ele>
        <time>2014-08-31T08:08:40.000Z</time>
      </trkpt>
      <trkpt lat="46.05089" lon="-0.28599">
        <ele>112.7</ele>
        <time>2014-08-31T08:08:42.000Z</time>
      </trkpt>
      <trkpt lat="46.05086" lon="-0.28613">
        <ele>112</ele>
        <time>2014-08-31T08:08:44.000Z</time>
      </trkpt>
      <trkpt lat="46.05084" lon="-0.28626">
        <ele>111.4</ele>
        <time>2014-08-31T08:08:46.000Z</time>
      </trkpt>
      <trkpt lat="46.0508" lon="-0.2864">
        <ele>110</ele>
        <time>2014-08-31T08:08:48.000Z</time>
      </trkpt>
      <trkpt lat="46.05074" lon="-0.28653">
        <ele>108.7</ele>
        <time>2014-08-31T08:08:50.000Z</time>
      </trkpt>
      <trkpt lat="46.05068" lon="-0.28666">
        <ele>107.3</ele>
        <time>2014-08-31T08:08:52.000Z</time>
      </trkpt>
      <trkpt lat="46.0506" lon="-0.2868">
        <ele>106.1</ele>
        <time>2014-08-31T08:08:54.000Z</time>
      </trkpt>
      <trkpt lat="46.05052" lon="-0.28693">
        <ele>105.3</ele>
        <time>2014-08-31T08:08:56.000Z</time>
      </trkpt>
      <trkpt lat="46.05045" lon="-0.28705">
        <ele>104.1</ele>
        <time>2014-08-31T08:08:58.000Z</time>
      </trkpt>
      <trkpt lat="46.05037" lon="-0.28718">
        <ele>103.2</ele>
        <time>2014-08-31T08:09:00.000Z</time>
      </trkpt>
      <trkpt lat="46.05031" lon="-0.28731">
        <ele>102.2</ele>
        <time>2014-08-31T08:09:02.000Z</time>
      </trkpt>
      <trkpt lat="46.05024" lon="-0.28745">
        <ele>101</ele>
        <time>2014-08-31T08:09:04.000Z</time>
      </trkpt>
      <trkpt lat="46.05016" lon="-0.28758">
        <ele>100.2</ele>
        <time>2014-08-31T08:09:06.000Z</time>
      </trkpt>
      <trkpt lat="46.05007" lon="-0.28772">
        <ele>99.5</ele>
        <time>2014-08-31T08:09:08.000Z</time>
      </trkpt>
      <trkpt lat="46.04998" lon="-0.28784">
        <ele>99.1</ele>
        <time>2014-08-31T08:09:10.000Z</time>
      </trkpt>
      <trkpt lat="46.04989" lon="-0.28797">
        <ele>98.7</ele>
        <time>2014-08-31T08:09:12.000Z</time>
      </trkpt>
      <trkpt lat="46.04981" lon="-0.2881">
        <ele>98.6</ele>
        <time>2014-08-31T08:09:14.000Z</time>
      </trkpt>
      <trkpt lat="46.04974" lon="-0.28824">
        <ele>98</ele>
        <time>2014-08-31T08:09:16.000Z</time>
      </trkpt>
      <trkpt lat="46.04969" lon="-0.2884">
        <ele>97.8</ele>
        <time>2014-08-31T08:09:18.000Z</time>
      </trkpt>
      <trkpt lat="46.04966" lon="-0.28857">
        <ele>97.6</ele>
        <time>2014-08-31T08:09:20.000Z</time>
      </trkpt>
      <trkpt lat="46.04964" lon="-0.28874">
        <ele>97.8</ele>
        <time>2014-08-31T08:09:22.000Z</time>
      </trkpt>
      <trkpt lat="46.04962" lon="-0.28892">
        <ele>98.2</ele>
        <time>2014-08-31T08:09:24.000Z</time>
      </trkpt>
      <trkpt lat="46.0496" lon="-0.28926">
        <ele>97.9</ele>
        <time>2014-08-31T08:09:28.000Z</time>
      </trkpt>
      <trkpt lat="46.04959" lon="-0.28941">
        <ele>97.9</ele>
        <time>2014-08-31T08:09:30.000Z</time>
      </trkpt>
      <trkpt lat="46.04957" lon="-0.28955">
        <ele>98.1</ele>
        <time>2014-08-31T08:09:32.000Z</time>
      </trkpt>
      <trkpt lat="46.04956" lon="-0.28969">
        <ele>98.2</ele>
        <time>2014-08-31T08:09:34.000Z</time>
      </trkpt>
      <trkpt lat="46.04955" lon="-0.28985">
        <ele>98.7</ele>
        <time>2014-08-31T08:09:36.000Z</time>
      </trkpt>
      <trkpt lat="46.04952" lon="-0.29">
        <ele>98.3</ele>
        <time>2014-08-31T08:09:38.000Z</time>
      </trkpt>
      <trkpt lat="46.04951" lon="-0.29017">
        <ele>98.5</ele>
        <time>2014-08-31T08:09:41.000Z</time>
      </trkpt>
      <trkpt lat="46.04963" lon="-0.29017">
        <ele>100.6</ele>
        <time>2014-08-31T08:09:45.000Z</time>
      </trkpt>
      <trkpt lat="46.04973" lon="-0.29025">
        <ele>102.9</ele>
        <time>2014-08-31T08:09:48.000Z</time>
      </trkpt>
      <trkpt lat="46.04981" lon="-0.29035">
        <ele>103.7</ele>
        <time>2014-08-31T08:09:50.000Z</time>
      </trkpt>
      <trkpt lat="46.04989" lon="-0.29045">
        <ele>104.3</ele>
        <time>2014-08-31T08:09:52.000Z</time>
      </trkpt>
      <trkpt lat="46.04998" lon="-0.29055">
        <ele>104.9</ele>
        <time>2014-08-31T08:09:54.000Z</time>
      </trkpt>
      <trkpt lat="46.05006" lon="-0.29066">
        <ele>105.6</ele>
        <time>2014-08-31T08:09:56.000Z</time>
      </trkpt>
      <trkpt lat="46.05013" lon="-0.29077">
        <ele>106.5</ele>
        <time>2014-08-31T08:09:58.000Z</time>
      </trkpt>
      <trkpt lat="46.05019" lon="-0.2909">
        <ele>106.9</ele>
        <time>2014-08-31T08:10:00.000Z</time>
      </trkpt>
      <trkpt lat="46.05023" lon="-0.29102">
        <ele>107.9</ele>
        <time>2014-08-31T08:10:02.000Z</time>
      </trkpt>
      <trkpt lat="46.05027" lon="-0.29115">
        <ele>108.8</ele>
        <time>2014-08-31T08:10:04.000Z</time>
      </trkpt>
      <trkpt lat="46.05034" lon="-0.29129">
        <ele>110</ele>
        <time>2014-08-31T08:10:06.000Z</time>
      </trkpt>
      <trkpt lat="46.05043" lon="-0.29139">
        <ele>110.7</ele>
        <time>2014-08-31T08:10:08.000Z</time>
      </trkpt>
      <trkpt lat="46.05052" lon="-0.29148">
        <ele>112.1</ele>
        <time>2014-08-31T08:10:10.000Z</time>
      </trkpt>
      <trkpt lat="46.05061" lon="-0.29158">
        <ele>113.1</ele>
        <time>2014-08-31T08:10:12.000Z</time>
      </trkpt>
      <trkpt lat="46.05069" lon="-0.29165">
        <ele>113.9</ele>
        <time>2014-08-31T08:10:14.000Z</time>
      </trkpt>
      <trkpt lat="46.05077" lon="-0.29174">
        <ele>114.8</ele>
        <time>2014-08-31T08:10:16.000Z</time>
      </trkpt>
      <trkpt lat="46.05086" lon="-0.29183">
        <ele>114.8</ele>
        <time>2014-08-31T08:10:18.000Z</time>
      </trkpt>
      <trkpt lat="46.05096" lon="-0.29191">
        <ele>115.2</ele>
        <time>2014-08-31T08:10:20.000Z</time>
      </trkpt>
      <trkpt lat="46.05104" lon="-0.29195">
        <ele>115.5</ele>
        <time>2014-08-31T08:10:22.000Z</time>
      </trkpt>
      <trkpt lat="46.05114" lon="-0.29201">
        <ele>115.6</ele>
        <time>2014-08-31T08:10:24.000Z</time>
      </trkpt>
      <trkpt lat="46.05123" lon="-0.29209">
        <ele>115.8</ele>
        <time>2014-08-31T08:10:26.000Z</time>
      </trkpt>
      <trkpt lat="46.0514" lon="-0.2923">
        <ele>115.7</ele>
        <time>2014-08-31T08:10:30.000Z</time>
      </trkpt>
      <trkpt lat="46.05149" lon="-0.29243">
        <ele>115.7</ele>
        <time>2014-08-31T08:10:32.000Z</time>
      </trkpt>
      <trkpt lat="46.05157" lon="-0.29255">
        <ele>116.1</ele>
        <time>2014-08-31T08:10:34.000Z</time>
      </trkpt>
      <trkpt lat="46.05164" lon="-0.29267">
        <ele>116.7</ele>
        <time>2014-08-31T08:10:36.000Z</time>
      </trkpt>
      <trkpt lat="46.05173" lon="-0.29281">
        <ele>116.6</ele>
        <time>2014-08-31T08:10:38.000Z</time>
      </trkpt>
      <trkpt lat="46.05182" lon="-0.29294">
        <ele>116.6</ele>
        <time>2014-08-31T08:10:40.000Z</time>
      </trkpt>
      <trkpt lat="46.05189" lon="-0.29307">
        <ele>116.3</ele>
        <time>2014-08-31T08:10:42.000Z</time>
      </trkpt>
      <trkpt lat="46.05197" lon="-0.29318">
        <ele>116.2</ele>
        <time>2014-08-31T08:10:44.000Z</time>
      </trkpt>
      <trkpt lat="46.05207" lon="-0.29328">
        <ele>116.2</ele>
        <time>2014-08-31T08:10:46.000Z</time>
      </trkpt>
      <trkpt lat="46.05216" lon="-0.2934">
        <ele>116</ele>
        <time>2014-08-31T08:10:48.000Z</time>
      </trkpt>
      <trkpt lat="46.05224" lon="-0.2935">
        <ele>116</ele>
        <time>2014-08-31T08:10:50.000Z</time>
      </trkpt>
      <trkpt lat="46.05234" lon="-0.2936">
        <ele>116</ele>
        <time>2014-08-31T08:10:52.000Z</time>
      </trkpt>
      <trkpt lat="46.05245" lon="-0.29369">
        <ele>115.6</ele>
        <time>2014-08-31T08:10:54.000Z</time>
      </trkpt>
      <trkpt lat="46.05254" lon="-0.29375">
        <ele>115.5</ele>
        <time>2014-08-31T08:10:56.000Z</time>
      </trkpt>
      <trkpt lat="46.05267" lon="-0.29382">
        <ele>115</ele>
        <time>2014-08-31T08:10:59.000Z</time>
      </trkpt>
      <trkpt lat="46.05276" lon="-0.29381">
        <ele>114.6</ele>
        <time>2014-08-31T08:11:01.000Z</time>
      </trkpt>
      <trkpt lat="46.05287" lon="-0.29375">
        <ele>114.8</ele>
        <time>2014-08-31T08:11:03.000Z</time>
      </trkpt>
      <trkpt lat="46.05297" lon="-0.29367">
        <ele>114.3</ele>
        <time>2014-08-31T08:11:05.000Z</time>
      </trkpt>
      <trkpt lat="46.05307" lon="-0.29357">
        <ele>113.9</ele>
        <time>2014-08-31T08:11:07.000Z</time>
      </trkpt>
      <trkpt lat="46.05317" lon="-0.29347">
        <ele>114.3</ele>
        <time>2014-08-31T08:11:09.000Z</time>
      </trkpt>
      <trkpt lat="46.05325" lon="-0.29336">
        <ele>113.8</ele>
        <time>2014-08-31T08:11:11.000Z</time>
      </trkpt>
      <trkpt lat="46.05334" lon="-0.29324">
        <ele>112.9</ele>
        <time>2014-08-31T08:11:13.000Z</time>
      </trkpt>
      <trkpt lat="46.05342" lon="-0.29313">
        <ele>113</ele>
        <time>2014-08-31T08:11:15.000Z</time>
      </trkpt>
      <trkpt lat="46.0535" lon="-0.29303">
        <ele>113.3</ele>
        <time>2014-08-31T08:11:17.000Z</time>
      </trkpt>
      <trkpt lat="46.05358" lon="-0.29293">
        <ele>113.2</ele>
        <time>2014-08-31T08:11:19.000Z</time>
      </trkpt>
      <trkpt lat="46.05366" lon="-0.29283">
        <ele>113.6</ele>
        <time>2014-08-31T08:11:21.000Z</time>
      </trkpt>
      <trkpt lat="46.05376" lon="-0.29275">
        <ele>114.1</ele>
        <time>2014-08-31T08:11:23.000Z</time>
      </trkpt>
      <trkpt lat="46.05386" lon="-0.29267">
        <ele>114.6</ele>
        <time>2014-08-31T08:11:25.000Z</time>
      </trkpt>
      <trkpt lat="46.05399" lon="-0.2926">
        <ele>114.5</ele>
        <time>2014-08-31T08:11:27.000Z</time>
      </trkpt>
      <trkpt lat="46.0541" lon="-0.29252">
        <ele>115.3</ele>
        <time>2014-08-31T08:11:29.000Z</time>
      </trkpt>
      <trkpt lat="46.05431" lon="-0.29233">
        <ele>115.6</ele>
        <time>2014-08-31T08:11:33.000Z</time>
      </trkpt>
      <trkpt lat="46.05439" lon="-0.29221">
        <ele>115.2</ele>
        <time>2014-08-31T08:11:35.000Z</time>
      </trkpt>
      <trkpt lat="46.05448" lon="-0.29209">
        <ele>115.8</ele>
        <time>2014-08-31T08:11:37.000Z</time>
      </trkpt>
      <trkpt lat="46.05456" lon="-0.29195">
        <ele>116</ele>
        <time>2014-08-31T08:11:39.000Z</time>
      </trkpt>
      <trkpt lat="46.05464" lon="-0.29183">
        <ele>116.4</ele>
        <time>2014-08-31T08:11:41.000Z</time>
      </trkpt>
      <trkpt lat="46.05473" lon="-0.29179">
        <ele>117.1</ele>
        <time>2014-08-31T08:11:44.000Z</time>
      </trkpt>
      <trkpt lat="46.05479" lon="-0.29189">
        <ele>117.8</ele>
        <time>2014-08-31T08:11:47.000Z</time>
      </trkpt>
      <trkpt lat="46.05484" lon="-0.292">
        <ele>117.7</ele>
        <time>2014-08-31T08:11:49.000Z</time>
      </trkpt>
      <trkpt lat="46.05491" lon="-0.29214">
        <ele>117.7</ele>
        <time>2014-08-31T08:11:51.000Z</time>
      </trkpt>
      <trkpt lat="46.05499" lon="-0.2923">
        <ele>117.8</ele>
        <time>2014-08-31T08:11:53.000Z</time>
      </trkpt>
      <trkpt lat="46.05507" lon="-0.29246">
        <ele>117.6</ele>
        <time>2014-08-31T08:11:55.000Z</time>
      </trkpt>
      <trkpt lat="46.05512" lon="-0.29264">
        <ele>117</ele>
        <time>2014-08-31T08:11:57.000Z</time>
      </trkpt>
      <trkpt lat="46.05516" lon="-0.29284">
        <ele>115.7</ele>
        <time>2014-08-31T08:11:59.000Z</time>
      </trkpt>
      <trkpt lat="46.05518" lon="-0.29304">
        <ele>114.5</ele>
        <time>2014-08-31T08:12:01.000Z</time>
      </trkpt>
      <trkpt lat="46.05521" lon="-0.29319">
        <ele>113.4</ele>
        <time>2014-08-31T08:12:04.000Z</time>
      </trkpt>
      <trkpt lat="46.05529" lon="-0.29307">
        <ele>111.6</ele>
        <time>2014-08-31T08:12:08.000Z</time>
      </trkpt>
      <trkpt lat="46.05537" lon="-0.29292">
        <ele>111.2</ele>
        <time>2014-08-31T08:12:11.000Z</time>
      </trkpt>
      <trkpt lat="46.05543" lon="-0.2928">
        <ele>112</ele>
        <time>2014-08-31T08:12:13.000Z</time>
      </trkpt>
      <trkpt lat="46.05548" lon="-0.29268">
        <ele>112.1</ele>
        <time>2014-08-31T08:12:15.000Z</time>
      </trkpt>
      <trkpt lat="46.05553" lon="-0.29255">
        <ele>111.9</ele>
        <time>2014-08-31T08:12:17.000Z</time>
      </trkpt>
      <trkpt lat="46.05558" lon="-0.29241">
        <ele>111.8</ele>
        <time>2014-08-31T08:12:19.000Z</time>
      </trkpt>
      <trkpt lat="46.05566" lon="-0.29228">
        <ele>112</ele>
        <time>2014-08-31T08:12:21.000Z</time>
      </trkpt>
      <trkpt lat="46.05573" lon="-0.29215">
        <ele>112.5</ele>
        <time>2014-08-31T08:12:23.000Z</time>
      </trkpt>
      <trkpt lat="46.0558" lon="-0.29201">
        <ele>112.9</ele>
        <time>2014-08-31T08:12:25.000Z</time>
      </trkpt>
      <trkpt lat="46.05585" lon="-0.29187">
        <ele>113.2</ele>
        <time>2014-08-31T08:12:27.000Z</time>
      </trkpt>
      <trkpt lat="46.0559" lon="-0.29174">
        <ele>113.6</ele>
        <time>2014-08-31T08:12:29.000Z</time>
      </trkpt>
      <trkpt lat="46.05595" lon="-0.29161">
        <ele>114</ele>
        <time>2014-08-31T08:12:31.000Z</time>
      </trkpt>
      <trkpt lat="46.05606" lon="-0.29135">
        <ele>115.6</ele>
        <time>2014-08-31T08:12:35.000Z</time>
      </trkpt>
      <trkpt lat="46.05613" lon="-0.29122">
        <ele>116.5</ele>
        <time>2014-08-31T08:12:37.000Z</time>
      </trkpt>
      <trkpt lat="46.05618" lon="-0.29109">
        <ele>116.5</ele>
        <time>2014-08-31T08:12:39.000Z</time>
      </trkpt>
      <trkpt lat="46.05625" lon="-0.29094">
        <ele>116.1</ele>
        <time>2014-08-31T08:12:41.000Z</time>
      </trkpt>
      <trkpt lat="46.0563" lon="-0.29081">
        <ele>115.3</ele>
        <time>2014-08-31T08:12:43.000Z</time>
      </trkpt>
      <trkpt lat="46.05638" lon="-0.29071">
        <ele>115.7</ele>
        <time>2014-08-31T08:12:45.000Z</time>
      </trkpt>
      <trkpt lat="46.05649" lon="-0.29069">
        <ele>116.4</ele>
        <time>2014-08-31T08:12:47.000Z</time>
      </trkpt>
      <trkpt lat="46.05661" lon="-0.29068">
        <ele>117.5</ele>
        <time>2014-08-31T08:12:49.000Z</time>
      </trkpt>
      <trkpt lat="46.05674" lon="-0.29069">
        <ele>118.2</ele>
        <time>2014-08-31T08:12:51.000Z</time>
      </trkpt>
      <trkpt lat="46.05685" lon="-0.29068">
        <ele>119</ele>
        <time>2014-08-31T08:12:53.000Z</time>
      </trkpt>
      <trkpt lat="46.05695" lon="-0.29067">
        <ele>119.7</ele>
        <time>2014-08-31T08:12:55.000Z</time>
      </trkpt>
      <trkpt lat="46.05706" lon="-0.29068">
        <ele>119.6</ele>
        <time>2014-08-31T08:12:57.000Z</time>
      </trkpt>
      <trkpt lat="46.05719" lon="-0.29074">
        <ele>117.6</ele>
        <time>2014-08-31T08:12:59.000Z</time>
      </trkpt>
      <trkpt lat="46.05733" lon="-0.29077">
        <ele>117.3</ele>
        <time>2014-08-31T08:13:01.000Z</time>
      </trkpt>
      <trkpt lat="46.05746" lon="-0.29079">
        <ele>116.2</ele>
        <time>2014-08-31T08:13:03.000Z</time>
      </trkpt>
      <trkpt lat="46.05759" lon="-0.29075">
        <ele>115.9</ele>
        <time>2014-08-31T08:13:05.000Z</time>
      </trkpt>
      <trkpt lat="46.05771" lon="-0.29068">
        <ele>114.1</ele>
        <time>2014-08-31T08:13:07.000Z</time>
      </trkpt>
      <trkpt lat="46.05782" lon="-0.29061">
        <ele>112.3</ele>
        <time>2014-08-31T08:13:09.000Z</time>
      </trkpt>
      <trkpt lat="46.05793" lon="-0.29055">
        <ele>111.1</ele>
        <time>2014-08-31T08:13:11.000Z</time>
      </trkpt>
      <trkpt lat="46.05804" lon="-0.29053">
        <ele>111.1</ele>
        <time>2014-08-31T08:13:14.000Z</time>
      </trkpt>
      <trkpt lat="46.05815" lon="-0.29049">
        <ele>111.8</ele>
        <time>2014-08-31T08:13:18.000Z</time>
      </trkpt>
      <trkpt lat="46.05819" lon="-0.29037">
        <ele>112.2</ele>
        <time>2014-08-31T08:13:21.000Z</time>
      </trkpt>
      <trkpt lat="46.05816" lon="-0.29019">
        <ele>111.8</ele>
        <time>2014-08-31T08:13:25.000Z</time>
      </trkpt>
      <trkpt lat="46.05817" lon="-0.29001">
        <ele>110.6</ele>
        <time>2014-08-31T08:13:28.000Z</time>
      </trkpt>
      <trkpt lat="46.05818" lon="-0.28982">
        <ele>107.7</ele>
        <time>2014-08-31T08:13:31.000Z</time>
      </trkpt>
      <trkpt lat="46.05821" lon="-0.28969">
        <ele>105.9</ele>
        <time>2014-08-31T08:13:33.000Z</time>
      </trkpt>
      <trkpt lat="46.05824" lon="-0.2894">
        <ele>102.5</ele>
        <time>2014-08-31T08:13:37.000Z</time>
      </trkpt>
      <trkpt lat="46.05825" lon="-0.28926">
        <ele>100.4</ele>
        <time>2014-08-31T08:13:39.000Z</time>
      </trkpt>
      <trkpt lat="46.05834" lon="-0.28912">
        <ele>99.1</ele>
        <time>2014-08-31T08:13:42.000Z</time>
      </trkpt>
      <trkpt lat="46.05844" lon="-0.28903">
        <ele>98.7</ele>
        <time>2014-08-31T08:13:44.000Z</time>
      </trkpt>
      <trkpt lat="46.05854" lon="-0.28894">
        <ele>98.8</ele>
        <time>2014-08-31T08:13:46.000Z</time>
      </trkpt>
      <trkpt lat="46.05863" lon="-0.28884">
        <ele>98.9</ele>
        <time>2014-08-31T08:13:48.000Z</time>
      </trkpt>
      <trkpt lat="46.05872" lon="-0.28873">
        <ele>99.3</ele>
        <time>2014-08-31T08:13:50.000Z</time>
      </trkpt>
      <trkpt lat="46.05882" lon="-0.28861">
        <ele>100.2</ele>
        <time>2014-08-31T08:13:52.000Z</time>
      </trkpt>
      <trkpt lat="46.05893" lon="-0.2885">
        <ele>101.4</ele>
        <time>2014-08-31T08:13:54.000Z</time>
      </trkpt>
      <trkpt lat="46.05902" lon="-0.28837">
        <ele>102.2</ele>
        <time>2014-08-31T08:13:56.000Z</time>
      </trkpt>
      <trkpt lat="46.05911" lon="-0.28825">
        <ele>102.5</ele>
        <time>2014-08-31T08:13:58.000Z</time>
      </trkpt>
      <trkpt lat="46.0592" lon="-0.28813">
        <ele>103.4</ele>
        <time>2014-08-31T08:14:00.000Z</time>
      </trkpt>
      <trkpt lat="46.05928" lon="-0.28801">
        <ele>104.5</ele>
        <time>2014-08-31T08:14:02.000Z</time>
      </trkpt>
      <trkpt lat="46.05937" lon="-0.2879">
        <ele>105.6</ele>
        <time>2014-08-31T08:14:04.000Z</time>
      </trkpt>
      <trkpt lat="46.05948" lon="-0.28784">
        <ele>106.5</ele>
        <time>2014-08-31T08:14:06.000Z</time>
      </trkpt>
      <trkpt lat="46.05959" lon="-0.28779">
        <ele>107</ele>
        <time>2014-08-31T08:14:08.000Z</time>
      </trkpt>
      <trkpt lat="46.0597" lon="-0.28773">
        <ele>107.3</ele>
        <time>2014-08-31T08:14:10.000Z</time>
      </trkpt>
      <trkpt lat="46.05981" lon="-0.28767">
        <ele>107.6</ele>
        <time>2014-08-31T08:14:12.000Z</time>
      </trkpt>
      <trkpt lat="46.05992" lon="-0.28763">
        <ele>107.8</ele>
        <time>2014-08-31T08:14:14.000Z</time>
      </trkpt>
      <trkpt lat="46.06006" lon="-0.28758">
        <ele>108.1</ele>
        <time>2014-08-31T08:14:16.000Z</time>
      </trkpt>
      <trkpt lat="46.06019" lon="-0.28755">
        <ele>108.4</ele>
        <time>2014-08-31T08:14:18.000Z</time>
      </trkpt>
      <trkpt lat="46.0603" lon="-0.28751">
        <ele>108.9</ele>
        <time>2014-08-31T08:14:20.000Z</time>
      </trkpt>
      <trkpt lat="46.06039" lon="-0.28742">
        <ele>108.9</ele>
        <time>2014-08-31T08:14:23.000Z</time>
      </trkpt>
      <trkpt lat="46.06035" lon="-0.28727">
        <ele>107.7</ele>
        <time>2014-08-31T08:14:27.000Z</time>
      </trkpt>
      <trkpt lat="46.06029" lon="-0.2871">
        <ele>106.7</ele>
        <time>2014-08-31T08:14:30.000Z</time>
      </trkpt>
      <trkpt lat="46.06023" lon="-0.28698">
        <ele>105.7</ele>
        <time>2014-08-31T08:14:32.000Z</time>
      </trkpt>
      <trkpt lat="46.06018" lon="-0.28686">
        <ele>104.8</ele>
        <time>2014-08-31T08:14:34.000Z</time>
      </trkpt>
      <trkpt lat="46.06011" lon="-0.28673">
        <ele>103.8</ele>
        <time>2014-08-31T08:14:36.000Z</time>
      </trkpt>
      <trkpt lat="46.05999" lon="-0.28645">
        <ele>102.3</ele>
        <time>2014-08-31T08:14:40.000Z</time>
      </trkpt>
      <trkpt lat="46.05994" lon="-0.28631">
        <ele>101.9</ele>
        <time>2014-08-31T08:14:42.000Z</time>
      </trkpt>
      <trkpt lat="46.05991" lon="-0.28615">
        <ele>101.5</ele>
        <time>2014-08-31T08:14:44.000Z</time>
      </trkpt>
      <trkpt lat="46.05995" lon="-0.28595">
        <ele>101.7</ele>
        <time>2014-08-31T08:14:46.000Z</time>
      </trkpt>
      <trkpt lat="46.06002" lon="-0.28579">
        <ele>100.8</ele>
        <time>2014-08-31T08:14:48.000Z</time>
      </trkpt>
      <trkpt lat="46.06007" lon="-0.28559">
        <ele>99</ele>
        <time>2014-08-31T08:14:50.000Z</time>
      </trkpt>
      <trkpt lat="46.06011" lon="-0.28542">
        <ele>97.4</ele>
        <time>2014-08-31T08:14:52.000Z</time>
      </trkpt>
      <trkpt lat="46.06011" lon="-0.28526">
        <ele>95.6</ele>
        <time>2014-08-31T08:14:55.000Z</time>
      </trkpt>
      <trkpt lat="46.06018" lon="-0.28517">
        <ele>96.7</ele>
        <time>2014-08-31T08:15:00.000Z</time>
      </trkpt>
      <trkpt lat="46.06027" lon="-0.28509">
        <ele>98.6</ele>
        <time>2014-08-31T08:15:05.000Z</time>
      </trkpt>
      <trkpt lat="46.06037" lon="-0.28505">
        <ele>98.5</ele>
        <time>2014-08-31T08:15:09.000Z</time>
      </trkpt>
      <trkpt lat="46.06046" lon="-0.28502">
        <ele>98.1</ele>
        <time>2014-08-31T08:15:12.000Z</time>
      </trkpt>
      <trkpt lat="46.06059" lon="-0.28498">
        <ele>98.7</ele>
        <time>2014-08-31T08:15:16.000Z</time>
      </trkpt>
      <trkpt lat="46.06068" lon="-0.28492">
        <ele>100.4</ele>
        <time>2014-08-31T08:15:19.000Z</time>
      </trkpt>
      <trkpt lat="46.06077" lon="-0.2849">
        <ele>101.6</ele>
        <time>2014-08-31T08:15:22.000Z</time>
      </trkpt>
      <trkpt lat="46.06073" lon="-0.28477">
        <ele>101.8</ele>
        <time>2014-08-31T08:15:35.000Z</time>
      </trkpt>
      <trkpt lat="46.06065" lon="-0.28469">
        <ele>102.9</ele>
        <time>2014-08-31T08:15:41.000Z</time>
      </trkpt>
      <trkpt lat="46.06049" lon="-0.28453">
        <ele>106.9</ele>
        <time>2014-08-31T08:15:53.000Z</time>
      </trkpt>
      <trkpt lat="46.0604" lon="-0.28451">
        <ele>107.3</ele>
        <time>2014-08-31T08:16:59.000Z</time>
      </trkpt>
      <trkpt lat="46.06024" lon="-0.28436">
        <ele>103.3</ele>
        <time>2014-08-31T08:17:12.000Z</time>
      </trkpt>
      <trkpt lat="46.06014" lon="-0.28427">
        <ele>100.6</ele>
        <time>2014-08-31T08:17:17.000Z</time>
      </trkpt>
      <trkpt lat="46.06007" lon="-0.28419">
        <ele>97.7</ele>
        <time>2014-08-31T08:17:20.000Z</time>
      </trkpt>
      <trkpt lat="46.06001" lon="-0.28409">
        <ele>94.8</ele>
        <time>2014-08-31T08:17:23.000Z</time>
      </trkpt>
      <trkpt lat="46.05993" lon="-0.28395">
        <ele>92.8</ele>
        <time>2014-08-31T08:17:26.000Z</time>
      </trkpt>
      <trkpt lat="46.05986" lon="-0.28384">
        <ele>91.2</ele>
        <time>2014-08-31T08:17:28.000Z</time>
      </trkpt>
      <trkpt lat="46.0598" lon="-0.28373">
        <ele>89.4</ele>
        <time>2014-08-31T08:17:30.000Z</time>
      </trkpt>
      <trkpt lat="46.05972" lon="-0.28362">
        <ele>87.6</ele>
        <time>2014-08-31T08:17:32.000Z</time>
      </trkpt>
      <trkpt lat="46.05963" lon="-0.28352">
        <ele>85.2</ele>
        <time>2014-08-31T08:17:34.000Z</time>
      </trkpt>
      <trkpt lat="46.05954" lon="-0.28338">
        <ele>83.1</ele>
        <time>2014-08-31T08:17:36.000Z</time>
      </trkpt>
      <trkpt lat="46.05946" lon="-0.28326">
        <ele>81.1</ele>
        <time>2014-08-31T08:17:38.000Z</time>
      </trkpt>
      <trkpt lat="46.05937" lon="-0.28313">
        <ele>79.7</ele>
        <time>2014-08-31T08:17:40.000Z</time>
      </trkpt>
      <trkpt lat="46.0593" lon="-0.28304">
        <ele>78.2</ele>
        <time>2014-08-31T08:17:42.000Z</time>
      </trkpt>
      <trkpt lat="46.05927" lon="-0.28287">
        <ele>78.8</ele>
        <time>2014-08-31T08:17:45.000Z</time>
      </trkpt>
      <trkpt lat="46.05929" lon="-0.2827">
        <ele>82.1</ele>
        <time>2014-08-31T08:17:48.000Z</time>
      </trkpt>
      <trkpt lat="46.05933" lon="-0.28253">
        <ele>83.6</ele>
        <time>2014-08-31T08:17:51.000Z</time>
      </trkpt>
      <trkpt lat="46.05939" lon="-0.28238">
        <ele>84.3</ele>
        <time>2014-08-31T08:17:54.000Z</time>
      </trkpt>
      <trkpt lat="46.05943" lon="-0.28223">
        <ele>87.3</ele>
        <time>2014-08-31T08:17:57.000Z</time>
      </trkpt>
      <trkpt lat="46.05946" lon="-0.28208">
        <ele>90.9</ele>
        <time>2014-08-31T08:18:00.000Z</time>
      </trkpt>
      <trkpt lat="46.05953" lon="-0.28193">
        <ele>92.8</ele>
        <time>2014-08-31T08:18:03.000Z</time>
      </trkpt>
      <trkpt lat="46.05963" lon="-0.28165">
        <ele>98</ele>
        <time>2014-08-31T08:18:08.000Z</time>
      </trkpt>
      <trkpt lat="46.05969" lon="-0.28149">
        <ele>99.2</ele>
        <time>2014-08-31T08:18:11.000Z</time>
      </trkpt>
      <trkpt lat="46.05974" lon="-0.28137">
        <ele>100.2</ele>
        <time>2014-08-31T08:18:13.000Z</time>
      </trkpt>
      <trkpt lat="46.05981" lon="-0.28121">
        <ele>101.7</ele>
        <time>2014-08-31T08:18:16.000Z</time>
      </trkpt>
      <trkpt lat="46.05988" lon="-0.28105">
        <ele>101.9</ele>
        <time>2014-08-31T08:18:19.000Z</time>
      </trkpt>
      <trkpt lat="46.05994" lon="-0.28089">
        <ele>102</ele>
        <time>2014-08-31T08:18:22.000Z</time>
      </trkpt>
      <trkpt lat="46.06" lon="-0.28074">
        <ele>103</ele>
        <time>2014-08-31T08:18:25.000Z</time>
      </trkpt>
      <trkpt lat="46.06006" lon="-0.28061">
        <ele>104.2</ele>
        <time>2014-08-31T08:18:28.000Z</time>
      </trkpt>
      <trkpt lat="46.06011" lon="-0.28047">
        <ele>105</ele>
        <time>2014-08-31T08:18:31.000Z</time>
      </trkpt>
      <trkpt lat="46.06018" lon="-0.28034">
        <ele>106.6</ele>
        <time>2014-08-31T08:18:34.000Z</time>
      </trkpt>
      <trkpt lat="46.06022" lon="-0.28018">
        <ele>108.2</ele>
        <time>2014-08-31T08:18:37.000Z</time>
      </trkpt>
      <trkpt lat="46.06028" lon="-0.28002">
        <ele>110.3</ele>
        <time>2014-08-31T08:18:40.000Z</time>
      </trkpt>
      <trkpt lat="46.06035" lon="-0.27987">
        <ele>109.8</ele>
        <time>2014-08-31T08:18:43.000Z</time>
      </trkpt>
      <trkpt lat="46.06042" lon="-0.27972">
        <ele>109</ele>
        <time>2014-08-31T08:18:46.000Z</time>
      </trkpt>
      <trkpt lat="46.06049" lon="-0.27955">
        <ele>109.5</ele>
        <time>2014-08-31T08:18:49.000Z</time>
      </trkpt>
      <trkpt lat="46.06056" lon="-0.27939">
        <ele>109.3</ele>
        <time>2014-08-31T08:18:52.000Z</time>
      </trkpt>
      <trkpt lat="46.0606" lon="-0.27928">
        <ele>109.2</ele>
        <time>2014-08-31T08:18:54.000Z</time>
      </trkpt>
      <trkpt lat="46.06065" lon="-0.27916">
        <ele>109.1</ele>
        <time>2014-08-31T08:18:56.000Z</time>
      </trkpt>
      <trkpt lat="46.0607" lon="-0.27904">
        <ele>109.4</ele>
        <time>2014-08-31T08:18:58.000Z</time>
      </trkpt>
      <trkpt lat="46.06074" lon="-0.27891">
        <ele>109.8</ele>
        <time>2014-08-31T08:19:00.000Z</time>
      </trkpt>
      <trkpt lat="46.06079" lon="-0.27879">
        <ele>109.7</ele>
        <time>2014-08-31T08:19:02.000Z</time>
      </trkpt>
      <trkpt lat="46.06083" lon="-0.27867">
        <ele>109.7</ele>
        <time>2014-08-31T08:19:04.000Z</time>
      </trkpt>
      <trkpt lat="46.06087" lon="-0.27856">
        <ele>109.3</ele>
        <time>2014-08-31T08:19:06.000Z</time>
      </trkpt>
      <trkpt lat="46.06096" lon="-0.27831">
        <ele>107.4</ele>
        <time>2014-08-31T08:19:10.000Z</time>
      </trkpt>
      <trkpt lat="46.061" lon="-0.27818">
        <ele>106.6</ele>
        <time>2014-08-31T08:19:12.000Z</time>
      </trkpt>
      <trkpt lat="46.06105" lon="-0.27804">
        <ele>106</ele>
        <time>2014-08-31T08:19:14.000Z</time>
      </trkpt>
      <trkpt lat="46.06111" lon="-0.27789">
        <ele>106.5</ele>
        <time>2014-08-31T08:19:16.000Z</time>
      </trkpt>
      <trkpt lat="46.06118" lon="-0.27775">
        <ele>106.4</ele>
        <time>2014-08-31T08:19:18.000Z</time>
      </trkpt>
      <trkpt lat="46.06124" lon="-0.27759">
        <ele>106.1</ele>
        <time>2014-08-31T08:19:20.000Z</time>
      </trkpt>
      <trkpt lat="46.0613" lon="-0.27744">
        <ele>105.6</ele>
        <time>2014-08-31T08:19:22.000Z</time>
      </trkpt>
      <trkpt lat="46.06136" lon="-0.27729">
        <ele>105.3</ele>
        <time>2014-08-31T08:19:24.000Z</time>
      </trkpt>
      <trkpt lat="46.06142" lon="-0.27713">
        <ele>105.1</ele>
        <time>2014-08-31T08:19:26.000Z</time>
      </trkpt>
      <trkpt lat="46.06148" lon="-0.27697">
        <ele>105.1</ele>
        <time>2014-08-31T08:19:28.000Z</time>
      </trkpt>
      <trkpt lat="46.06156" lon="-0.2768">
        <ele>105</ele>
        <time>2014-08-31T08:19:30.000Z</time>
      </trkpt>
      <trkpt lat="46.06163" lon="-0.27663">
        <ele>105.1</ele>
        <time>2014-08-31T08:19:32.000Z</time>
      </trkpt>
      <trkpt lat="46.0617" lon="-0.27645">
        <ele>104.9</ele>
        <time>2014-08-31T08:19:34.000Z</time>
      </trkpt>
      <trkpt lat="46.06177" lon="-0.27626">
        <ele>103.7</ele>
        <time>2014-08-31T08:19:36.000Z</time>
      </trkpt>
      <trkpt lat="46.06185" lon="-0.27607">
        <ele>103</ele>
        <time>2014-08-31T08:19:38.000Z</time>
      </trkpt>
      <trkpt lat="46.06193" lon="-0.27588">
        <ele>102.6</ele>
        <time>2014-08-31T08:19:40.000Z</time>
      </trkpt>
      <trkpt lat="46.06201" lon="-0.27569">
        <ele>102.3</ele>
        <time>2014-08-31T08:19:42.000Z</time>
      </trkpt>
      <trkpt lat="46.06208" lon="-0.2755">
        <ele>101.8</ele>
        <time>2014-08-31T08:19:44.000Z</time>
      </trkpt>
      <trkpt lat="46.06215" lon="-0.2753">
        <ele>101.4</ele>
        <time>2014-08-31T08:19:46.000Z</time>
      </trkpt>
      <trkpt lat="46.06222" lon="-0.27513">
        <ele>102.4</ele>
        <time>2014-08-31T08:19:48.000Z</time>
      </trkpt>
      <trkpt lat="46.06228" lon="-0.27499">
        <ele>102.9</ele>
        <time>2014-08-31T08:19:50.000Z</time>
      </trkpt>
      <trkpt lat="46.06233" lon="-0.27487">
        <ele>103.7</ele>
        <time>2014-08-31T08:19:52.000Z</time>
      </trkpt>
      <trkpt lat="46.06239" lon="-0.27472">
        <ele>103.5</ele>
        <time>2014-08-31T08:19:55.000Z</time>
      </trkpt>
      <trkpt lat="46.06245" lon="-0.27457">
        <ele>104.1</ele>
        <time>2014-08-31T08:19:58.000Z</time>
      </trkpt>
      <trkpt lat="46.06251" lon="-0.27443">
        <ele>106.1</ele>
        <time>2014-08-31T08:20:01.000Z</time>
      </trkpt>
      <trkpt lat="46.06257" lon="-0.27429">
        <ele>107.6</ele>
        <time>2014-08-31T08:20:04.000Z</time>
      </trkpt>
      <trkpt lat="46.06264" lon="-0.27414">
        <ele>109</ele>
        <time>2014-08-31T08:20:07.000Z</time>
      </trkpt>
      <trkpt lat="46.06271" lon="-0.27399">
        <ele>109.7</ele>
        <time>2014-08-31T08:20:10.000Z</time>
      </trkpt>
      <trkpt lat="46.06283" lon="-0.27369">
        <ele>111.2</ele>
        <time>2014-08-31T08:20:16.000Z</time>
      </trkpt>
      <trkpt lat="46.06289" lon="-0.27354">
        <ele>111.4</ele>
        <time>2014-08-31T08:20:19.000Z</time>
      </trkpt>
      <trkpt lat="46.06295" lon="-0.2734">
        <ele>111.6</ele>
        <time>2014-08-31T08:20:22.000Z</time>
      </trkpt>
      <trkpt lat="46.06302" lon="-0.27325">
        <ele>111.8</ele>
        <time>2014-08-31T08:20:25.000Z</time>
      </trkpt>
      <trkpt lat="46.06306" lon="-0.27314">
        <ele>111.9</ele>
        <time>2014-08-31T08:20:27.000Z</time>
      </trkpt>
      <trkpt lat="46.06311" lon="-0.27302">
        <ele>111.9</ele>
        <time>2014-08-31T08:20:29.000Z</time>
      </trkpt>
      <trkpt lat="46.06316" lon="-0.27291">
        <ele>112.2</ele>
        <time>2014-08-31T08:20:31.000Z</time>
      </trkpt>
      <trkpt lat="46.06321" lon="-0.27279">
        <ele>112.7</ele>
        <time>2014-08-31T08:20:33.000Z</time>
      </trkpt>
      <trkpt lat="46.06327" lon="-0.27263">
        <ele>112.9</ele>
        <time>2014-08-31T08:20:36.000Z</time>
      </trkpt>
      <trkpt lat="46.06333" lon="-0.27249">
        <ele>113.5</ele>
        <time>2014-08-31T08:20:39.000Z</time>
      </trkpt>
      <trkpt lat="46.06338" lon="-0.27235">
        <ele>113.4</ele>
        <time>2014-08-31T08:20:42.000Z</time>
      </trkpt>
      <trkpt lat="46.06344" lon="-0.2722">
        <ele>113.6</ele>
        <time>2014-08-31T08:20:45.000Z</time>
      </trkpt>
      <trkpt lat="46.06349" lon="-0.27205">
        <ele>112.6</ele>
        <time>2014-08-31T08:20:48.000Z</time>
      </trkpt>
      <trkpt lat="46.06354" lon="-0.27189">
        <ele>111.3</ele>
        <time>2014-08-31T08:20:51.000Z</time>
      </trkpt>
      <trkpt lat="46.06361" lon="-0.27173">
        <ele>110.6</ele>
        <time>2014-08-31T08:20:54.000Z</time>
      </trkpt>
      <trkpt lat="46.06367" lon="-0.27157">
        <ele>109.8</ele>
        <time>2014-08-31T08:20:57.000Z</time>
      </trkpt>
      <trkpt lat="46.06372" lon="-0.27145">
        <ele>109.7</ele>
        <time>2014-08-31T08:20:59.000Z</time>
      </trkpt>
      <trkpt lat="46.06377" lon="-0.27133">
        <ele>109.8</ele>
        <time>2014-08-31T08:21:01.000Z</time>
      </trkpt>
      <trkpt lat="46.06381" lon="-0.27121">
        <ele>109.8</ele>
        <time>2014-08-31T08:21:03.000Z</time>
      </trkpt>
      <trkpt lat="46.06386" lon="-0.27108">
        <ele>109.7</ele>
        <time>2014-08-31T08:21:05.000Z</time>
      </trkpt>
      <trkpt lat="46.06391" lon="-0.27097">
        <ele>109.8</ele>
        <time>2014-08-31T08:21:07.000Z</time>
      </trkpt>
      <trkpt lat="46.06396" lon="-0.27084">
        <ele>110</ele>
        <time>2014-08-31T08:21:09.000Z</time>
      </trkpt>
      <trkpt lat="46.06401" lon="-0.27073">
        <ele>110</ele>
        <time>2014-08-31T08:21:11.000Z</time>
      </trkpt>
      <trkpt lat="46.06405" lon="-0.2706">
        <ele>109.9</ele>
        <time>2014-08-31T08:21:13.000Z</time>
      </trkpt>
      <trkpt lat="46.06415" lon="-0.27036">
        <ele>110.3</ele>
        <time>2014-08-31T08:21:17.000Z</time>
      </trkpt>
      <trkpt lat="46.0642" lon="-0.27023">
        <ele>110.2</ele>
        <time>2014-08-31T08:21:19.000Z</time>
      </trkpt>
      <trkpt lat="46.06426" lon="-0.27009">
        <ele>110.5</ele>
        <time>2014-08-31T08:21:21.000Z</time>
      </trkpt>
      <trkpt lat="46.06432" lon="-0.26995">
        <ele>110.3</ele>
        <time>2014-08-31T08:21:23.000Z</time>
      </trkpt>
      <trkpt lat="46.06438" lon="-0.26982">
        <ele>110</ele>
        <time>2014-08-31T08:21:25.000Z</time>
      </trkpt>
      <trkpt lat="46.06442" lon="-0.26967">
        <ele>109.5</ele>
        <time>2014-08-31T08:21:27.000Z</time>
      </trkpt>
      <trkpt lat="46.06446" lon="-0.26953">
        <ele>109.2</ele>
        <time>2014-08-31T08:21:29.000Z</time>
      </trkpt>
      <trkpt lat="46.06451" lon="-0.26938">
        <ele>108.9</ele>
        <time>2014-08-31T08:21:31.000Z</time>
      </trkpt>
      <trkpt lat="46.06456" lon="-0.26924">
        <ele>108.7</ele>
        <time>2014-08-31T08:21:33.000Z</time>
      </trkpt>
      <trkpt lat="46.06463" lon="-0.26909">
        <ele>108.5</ele>
        <time>2014-08-31T08:21:35.000Z</time>
      </trkpt>
      <trkpt lat="46.06469" lon="-0.26896">
        <ele>108.6</ele>
        <time>2014-08-31T08:21:37.000Z</time>
      </trkpt>
      <trkpt lat="46.06475" lon="-0.26881">
        <ele>108.9</ele>
        <time>2014-08-31T08:21:39.000Z</time>
      </trkpt>
      <trkpt lat="46.06481" lon="-0.26865">
        <ele>108.5</ele>
        <time>2014-08-31T08:21:41.000Z</time>
      </trkpt>
      <trkpt lat="46.06487" lon="-0.26848">
        <ele>108.1</ele>
        <time>2014-08-31T08:21:43.000Z</time>
      </trkpt>
      <trkpt lat="46.06493" lon="-0.26831">
        <ele>107.8</ele>
        <time>2014-08-31T08:21:45.000Z</time>
      </trkpt>
      <trkpt lat="46.065" lon="-0.26815">
        <ele>107</ele>
        <time>2014-08-31T08:21:47.000Z</time>
      </trkpt>
      <trkpt lat="46.06509" lon="-0.26796">
        <ele>106.1</ele>
        <time>2014-08-31T08:21:49.000Z</time>
      </trkpt>
      <trkpt lat="46.06516" lon="-0.26776">
        <ele>104.8</ele>
        <time>2014-08-31T08:21:51.000Z</time>
      </trkpt>
      <trkpt lat="46.06525" lon="-0.26758">
        <ele>104.3</ele>
        <time>2014-08-31T08:21:53.000Z</time>
      </trkpt>
      <trkpt lat="46.06535" lon="-0.2674">
        <ele>103.8</ele>
        <time>2014-08-31T08:21:55.000Z</time>
      </trkpt>
      <trkpt lat="46.06542" lon="-0.26723">
        <ele>103.7</ele>
        <time>2014-08-31T08:21:57.000Z</time>
      </trkpt>
      <trkpt lat="46.06548" lon="-0.26705">
        <ele>103.7</ele>
        <time>2014-08-31T08:21:59.000Z</time>
      </trkpt>
      <trkpt lat="46.06554" lon="-0.26687">
        <ele>103.6</ele>
        <time>2014-08-31T08:22:01.000Z</time>
      </trkpt>
      <trkpt lat="46.06561" lon="-0.26668">
        <ele>103.4</ele>
        <time>2014-08-31T08:22:03.000Z</time>
      </trkpt>
      <trkpt lat="46.06568" lon="-0.26646">
        <ele>102.9</ele>
        <time>2014-08-31T08:22:05.000Z</time>
      </trkpt>
      <trkpt lat="46.06574" lon="-0.26627">
        <ele>102.6</ele>
        <time>2014-08-31T08:22:07.000Z</time>
      </trkpt>
      <trkpt lat="46.06581" lon="-0.26612">
        <ele>102.6</ele>
        <time>2014-08-31T08:22:09.000Z</time>
      </trkpt>
      <trkpt lat="46.06592" lon="-0.26602">
        <ele>103</ele>
        <time>2014-08-31T08:22:11.000Z</time>
      </trkpt>
      <trkpt lat="46.06606" lon="-0.26595">
        <ele>103.1</ele>
        <time>2014-08-31T08:22:13.000Z</time>
      </trkpt>
      <trkpt lat="46.06623" lon="-0.26588">
        <ele>103</ele>
        <time>2014-08-31T08:22:15.000Z</time>
      </trkpt>
      <trkpt lat="46.06654" lon="-0.26574">
        <ele>102</ele>
        <time>2014-08-31T08:22:19.000Z</time>
      </trkpt>
      <trkpt lat="46.06665" lon="-0.26567">
        <ele>101.4</ele>
        <time>2014-08-31T08:22:21.000Z</time>
      </trkpt>
      <trkpt lat="46.06675" lon="-0.26563">
        <ele>101</ele>
        <time>2014-08-31T08:22:25.000Z</time>
      </trkpt>
      <trkpt lat="46.06685" lon="-0.26562">
        <ele>100.5</ele>
        <time>2014-08-31T08:22:29.000Z</time>
      </trkpt>
      <trkpt lat="46.0669" lon="-0.26574">
        <ele>99.5</ele>
        <time>2014-08-31T08:22:33.000Z</time>
      </trkpt>
      <trkpt lat="46.06691" lon="-0.26587">
        <ele>99</ele>
        <time>2014-08-31T08:22:36.000Z</time>
      </trkpt>
      <trkpt lat="46.0669" lon="-0.26604">
        <ele>98.1</ele>
        <time>2014-08-31T08:22:39.000Z</time>
      </trkpt>
      <trkpt lat="46.0669" lon="-0.26619">
        <ele>97</ele>
        <time>2014-08-31T08:22:41.000Z</time>
      </trkpt>
      <trkpt lat="46.06689" lon="-0.26635">
        <ele>95</ele>
        <time>2014-08-31T08:22:43.000Z</time>
      </trkpt>
      <trkpt lat="46.06688" lon="-0.26653">
        <ele>93.4</ele>
        <time>2014-08-31T08:22:45.000Z</time>
      </trkpt>
      <trkpt lat="46.06686" lon="-0.26673">
        <ele>92.1</ele>
        <time>2014-08-31T08:22:47.000Z</time>
      </trkpt>
      <trkpt lat="46.06684" lon="-0.26689">
        <ele>91.1</ele>
        <time>2014-08-31T08:22:49.000Z</time>
      </trkpt>
      <trkpt lat="46.06683" lon="-0.26704">
        <ele>90.4</ele>
        <time>2014-08-31T08:22:51.000Z</time>
      </trkpt>
      <trkpt lat="46.06681" lon="-0.26719">
        <ele>90</ele>
        <time>2014-08-31T08:22:53.000Z</time>
      </trkpt>
      <trkpt lat="46.0668" lon="-0.26734">
        <ele>90</ele>
        <time>2014-08-31T08:22:55.000Z</time>
      </trkpt>
      <trkpt lat="46.06679" lon="-0.26752">
        <ele>89</ele>
        <time>2014-08-31T08:22:58.000Z</time>
      </trkpt>
      <trkpt lat="46.06678" lon="-0.26769">
        <ele>87.3</ele>
        <time>2014-08-31T08:23:01.000Z</time>
      </trkpt>
      <trkpt lat="46.06677" lon="-0.26788">
        <ele>85.2</ele>
        <time>2014-08-31T08:23:04.000Z</time>
      </trkpt>
      <trkpt lat="46.06675" lon="-0.26805">
        <ele>83.5</ele>
        <time>2014-08-31T08:23:06.000Z</time>
      </trkpt>
      <trkpt lat="46.06673" lon="-0.26821">
        <ele>81.9</ele>
        <time>2014-08-31T08:23:08.000Z</time>
      </trkpt>
      <trkpt lat="46.06671" lon="-0.26838">
        <ele>82.4</ele>
        <time>2014-08-31T08:23:10.000Z</time>
      </trkpt>
      <trkpt lat="46.06669" lon="-0.26852">
        <ele>83.7</ele>
        <time>2014-08-31T08:23:12.000Z</time>
      </trkpt>
      <trkpt lat="46.06665" lon="-0.26869">
        <ele>83.8</ele>
        <time>2014-08-31T08:23:15.000Z</time>
      </trkpt>
      <trkpt lat="46.0666" lon="-0.26882">
        <ele>83.8</ele>
        <time>2014-08-31T08:23:17.000Z</time>
      </trkpt>
      <trkpt lat="46.06656" lon="-0.26909">
        <ele>83.7</ele>
        <time>2014-08-31T08:23:23.000Z</time>
      </trkpt>
      <trkpt lat="46.06655" lon="-0.26922">
        <ele>83.6</ele>
        <time>2014-08-31T08:23:26.000Z</time>
      </trkpt>
      <trkpt lat="46.06654" lon="-0.26936">
        <ele>83.1</ele>
        <time>2014-08-31T08:23:29.000Z</time>
      </trkpt>
      <trkpt lat="46.06654" lon="-0.26951">
        <ele>84</ele>
        <time>2014-08-31T08:23:32.000Z</time>
      </trkpt>
      <trkpt lat="46.06651" lon="-0.26965">
        <ele>82.6</ele>
        <time>2014-08-31T08:23:35.000Z</time>
      </trkpt>
      <trkpt lat="46.06648" lon="-0.26978">
        <ele>80.3</ele>
        <time>2014-08-31T08:23:38.000Z</time>
      </trkpt>
      <trkpt lat="46.06645" lon="-0.26992">
        <ele>79</ele>
        <time>2014-08-31T08:23:41.000Z</time>
      </trkpt>
      <trkpt lat="46.06644" lon="-0.27007">
        <ele>78</ele>
        <time>2014-08-31T08:23:44.000Z</time>
      </trkpt>
      <trkpt lat="46.06641" lon="-0.27021">
        <ele>76.5</ele>
        <time>2014-08-31T08:23:47.000Z</time>
      </trkpt>
      <trkpt lat="46.06637" lon="-0.27034">
        <ele>74.8</ele>
        <time>2014-08-31T08:23:50.000Z</time>
      </trkpt>
      <trkpt lat="46.06635" lon="-0.27048">
        <ele>73.4</ele>
        <time>2014-08-31T08:23:53.000Z</time>
      </trkpt>
      <trkpt lat="46.06632" lon="-0.27065">
        <ele>71.3</ele>
        <time>2014-08-31T08:23:57.000Z</time>
      </trkpt>
      <trkpt lat="46.06627" lon="-0.27082">
        <ele>70.2</ele>
        <time>2014-08-31T08:24:00.000Z</time>
      </trkpt>
      <trkpt lat="46.06623" lon="-0.27101">
        <ele>70.1</ele>
        <time>2014-08-31T08:24:03.000Z</time>
      </trkpt>
      <trkpt lat="46.06621" lon="-0.27114">
        <ele>70.3</ele>
        <time>2014-08-31T08:24:05.000Z</time>
      </trkpt>
      <trkpt lat="46.06619" lon="-0.2713">
        <ele>69.9</ele>
        <time>2014-08-31T08:24:08.000Z</time>
      </trkpt>
      <trkpt lat="46.06616" lon="-0.27147">
        <ele>70.5</ele>
        <time>2014-08-31T08:24:11.000Z</time>
      </trkpt>
      <trkpt lat="46.06613" lon="-0.27163">
        <ele>70.3</ele>
        <time>2014-08-31T08:24:14.000Z</time>
      </trkpt>
      <trkpt lat="46.06609" lon="-0.2718">
        <ele>70.6</ele>
        <time>2014-08-31T08:24:17.000Z</time>
      </trkpt>
      <trkpt lat="46.06608" lon="-0.27193">
        <ele>70.6</ele>
        <time>2014-08-31T08:24:19.000Z</time>
      </trkpt>
      <trkpt lat="46.06602" lon="-0.27225">
        <ele>70.5</ele>
        <time>2014-08-31T08:24:25.000Z</time>
      </trkpt>
      <trkpt lat="46.06597" lon="-0.2724">
        <ele>69.8</ele>
        <time>2014-08-31T08:24:28.000Z</time>
      </trkpt>
      <trkpt lat="46.06594" lon="-0.27256">
        <ele>68</ele>
        <time>2014-08-31T08:24:31.000Z</time>
      </trkpt>
      <trkpt lat="46.06591" lon="-0.27273">
        <ele>66.4</ele>
        <time>2014-08-31T08:24:34.000Z</time>
      </trkpt>
      <trkpt lat="46.06588" lon="-0.27286">
        <ele>64.9</ele>
        <time>2014-08-31T08:24:36.000Z</time>
      </trkpt>
      <trkpt lat="46.06586" lon="-0.27299">
        <ele>63.9</ele>
        <time>2014-08-31T08:24:38.000Z</time>
      </trkpt>
      <trkpt lat="46.06584" lon="-0.27313">
        <ele>63.1</ele>
        <time>2014-08-31T08:24:40.000Z</time>
      </trkpt>
      <trkpt lat="46.06581" lon="-0.27331">
        <ele>61.7</ele>
        <time>2014-08-31T08:24:43.000Z</time>
      </trkpt>
      <trkpt lat="46.06575" lon="-0.27343">
        <ele>61.3</ele>
        <time>2014-08-31T08:24:45.000Z</time>
      </trkpt>
      <trkpt lat="46.06568" lon="-0.27354">
        <ele>60.8</ele>
        <time>2014-08-31T08:24:47.000Z</time>
      </trkpt>
      <trkpt lat="46.06559" lon="-0.27363">
        <ele>60.5</ele>
        <time>2014-08-31T08:24:49.000Z</time>
      </trkpt>
      <trkpt lat="46.06552" lon="-0.27372">
        <ele>59.7</ele>
        <time>2014-08-31T08:24:51.000Z</time>
      </trkpt>
      <trkpt lat="46.06545" lon="-0.27388">
        <ele>58.6</ele>
        <time>2014-08-31T08:24:54.000Z</time>
      </trkpt>
      <trkpt lat="46.06537" lon="-0.27398">
        <ele>57.8</ele>
        <time>2014-08-31T08:24:56.000Z</time>
      </trkpt>
      <trkpt lat="46.06526" lon="-0.27412">
        <ele>57.3</ele>
        <time>2014-08-31T08:24:58.000Z</time>
      </trkpt>
      <trkpt lat="46.06517" lon="-0.27424">
        <ele>57.7</ele>
        <time>2014-08-31T08:25:00.000Z</time>
      </trkpt>
      <trkpt lat="46.06509" lon="-0.27438">
        <ele>57.9</ele>
        <time>2014-08-31T08:25:02.000Z</time>
      </trkpt>
      <trkpt lat="46.065" lon="-0.27453">
        <ele>58.2</ele>
        <time>2014-08-31T08:25:04.000Z</time>
      </trkpt>
      <trkpt lat="46.06494" lon="-0.27466">
        <ele>58.3</ele>
        <time>2014-08-31T08:25:06.000Z</time>
      </trkpt>
      <trkpt lat="46.06487" lon="-0.2748">
        <ele>59</ele>
        <time>2014-08-31T08:25:08.000Z</time>
      </trkpt>
      <trkpt lat="46.06479" lon="-0.27496">
        <ele>61</ele>
        <time>2014-08-31T08:25:10.000Z</time>
      </trkpt>
      <trkpt lat="46.06473" lon="-0.27508">
        <ele>61.1</ele>
        <time>2014-08-31T08:25:12.000Z</time>
      </trkpt>
      <trkpt lat="46.06467" lon="-0.27519">
        <ele>61</ele>
        <time>2014-08-31T08:25:14.000Z</time>
      </trkpt>
      <trkpt lat="46.06462" lon="-0.27532">
        <ele>60.7</ele>
        <time>2014-08-31T08:25:16.000Z</time>
      </trkpt>
      <trkpt lat="46.06457" lon="-0.27544">
        <ele>60.6</ele>
        <time>2014-08-31T08:25:18.000Z</time>
      </trkpt>
      <trkpt lat="46.06452" lon="-0.27555">
        <ele>60.7</ele>
        <time>2014-08-31T08:25:20.000Z</time>
      </trkpt>
      <trkpt lat="46.06447" lon="-0.27567">
        <ele>60.6</ele>
        <time>2014-08-31T08:25:22.000Z</time>
      </trkpt>
      <trkpt lat="46.06436" lon="-0.27594">
        <ele>61.1</ele>
        <time>2014-08-31T08:25:26.000Z</time>
      </trkpt>
      <trkpt lat="46.06431" lon="-0.27609">
        <ele>61.3</ele>
        <time>2014-08-31T08:25:28.000Z</time>
      </trkpt>
      <trkpt lat="46.06426" lon="-0.27623">
        <ele>60.3</ele>
        <time>2014-08-31T08:25:30.000Z</time>
      </trkpt>
      <trkpt lat="46.06421" lon="-0.27639">
        <ele>58.7</ele>
        <time>2014-08-31T08:25:32.000Z</time>
      </trkpt>
      <trkpt lat="46.06415" lon="-0.27655">
        <ele>57.9</ele>
        <time>2014-08-31T08:25:34.000Z</time>
      </trkpt>
      <trkpt lat="46.06415" lon="-0.27655">
        <ele>57.9</ele>
        <time>2014-08-31T08:25:34.000Z</time>
      </trkpt>
      <trkpt lat="46.06411" lon="-0.2767">
        <ele>57.1</ele>
        <time>2014-08-31T08:25:37.000Z</time>
      </trkpt>
      <trkpt lat="46.06406" lon="-0.27682">
        <ele>56.1</ele>
        <time>2014-08-31T08:25:40.000Z</time>
      </trkpt>
      <trkpt lat="46.06398" lon="-0.27693">
        <ele>55.2</ele>
        <time>2014-08-31T08:25:43.000Z</time>
      </trkpt>
      <trkpt lat="46.06394" lon="-0.27709">
        <ele>53.6</ele>
        <time>2014-08-31T08:25:46.000Z</time>
      </trkpt>
      <trkpt lat="46.06388" lon="-0.27722">
        <ele>52.2</ele>
        <time>2014-08-31T08:25:49.000Z</time>
      </trkpt>
      <trkpt lat="46.06381" lon="-0.27734">
        <ele>51.8</ele>
        <time>2014-08-31T08:25:51.000Z</time>
      </trkpt>
      <trkpt lat="46.06377" lon="-0.27751">
        <ele>51</ele>
        <time>2014-08-31T08:25:54.000Z</time>
      </trkpt>
      <trkpt lat="46.06374" lon="-0.27771">
        <ele>51</ele>
        <time>2014-08-31T08:25:57.000Z</time>
      </trkpt>
      <trkpt lat="46.06372" lon="-0.27784">
        <ele>52</ele>
        <time>2014-08-31T08:25:59.000Z</time>
      </trkpt>
      <trkpt lat="46.06368" lon="-0.27798">
        <ele>51.7</ele>
        <time>2014-08-31T08:26:02.000Z</time>
      </trkpt>
      <trkpt lat="46.06366" lon="-0.27814">
        <ele>51.7</ele>
        <time>2014-08-31T08:26:05.000Z</time>
      </trkpt>
      <trkpt lat="46.06365" lon="-0.27831">
        <ele>51.8</ele>
        <time>2014-08-31T08:26:08.000Z</time>
      </trkpt>
      <trkpt lat="46.06362" lon="-0.27846">
        <ele>51.8</ele>
        <time>2014-08-31T08:26:11.000Z</time>
      </trkpt>
      <trkpt lat="46.06358" lon="-0.2786">
        <ele>51.3</ele>
        <time>2014-08-31T08:26:14.000Z</time>
      </trkpt>
      <trkpt lat="46.06353" lon="-0.27874">
        <ele>51.7</ele>
        <time>2014-08-31T08:26:16.000Z</time>
      </trkpt>
      <trkpt lat="46.06347" lon="-0.27892">
        <ele>52.1</ele>
        <time>2014-08-31T08:26:19.000Z</time>
      </trkpt>
      <trkpt lat="46.06345" lon="-0.27907">
        <ele>52.4</ele>
        <time>2014-08-31T08:26:21.000Z</time>
      </trkpt>
      <trkpt lat="46.06343" lon="-0.27922">
        <ele>53.1</ele>
        <time>2014-08-31T08:26:23.000Z</time>
      </trkpt>
      <trkpt lat="46.06341" lon="-0.27936">
        <ele>53.7</ele>
        <time>2014-08-31T08:26:25.000Z</time>
      </trkpt>
      <trkpt lat="46.06332" lon="-0.27965">
        <ele>55.9</ele>
        <time>2014-08-31T08:26:30.000Z</time>
      </trkpt>
      <trkpt lat="46.06326" lon="-0.27981">
        <ele>57.4</ele>
        <time>2014-08-31T08:26:33.000Z</time>
      </trkpt>
      <trkpt lat="46.06323" lon="-0.27994">
        <ele>57.1</ele>
        <time>2014-08-31T08:26:35.000Z</time>
      </trkpt>
      <trkpt lat="46.06318" lon="-0.28007">
        <ele>56.8</ele>
        <time>2014-08-31T08:26:37.000Z</time>
      </trkpt>
      <trkpt lat="46.06314" lon="-0.28025">
        <ele>56</ele>
        <time>2014-08-31T08:26:40.000Z</time>
      </trkpt>
      <trkpt lat="46.06308" lon="-0.2804">
        <ele>54.8</ele>
        <time>2014-08-31T08:26:43.000Z</time>
      </trkpt>
      <trkpt lat="46.06303" lon="-0.28056">
        <ele>52.5</ele>
        <time>2014-08-31T08:26:46.000Z</time>
      </trkpt>
      <trkpt lat="46.06299" lon="-0.28072">
        <ele>51</ele>
        <time>2014-08-31T08:26:49.000Z</time>
      </trkpt>
      <trkpt lat="46.06295" lon="-0.28086">
        <ele>51.9</ele>
        <time>2014-08-31T08:26:51.000Z</time>
      </trkpt>
      <trkpt lat="46.06292" lon="-0.28099">
        <ele>52.3</ele>
        <time>2014-08-31T08:26:54.000Z</time>
      </trkpt>
      <trkpt lat="46.06286" lon="-0.28114">
        <ele>52.6</ele>
        <time>2014-08-31T08:26:58.000Z</time>
      </trkpt>
      <trkpt lat="46.0628" lon="-0.28125">
        <ele>53.2</ele>
        <time>2014-08-31T08:27:01.000Z</time>
      </trkpt>
      <trkpt lat="46.06276" lon="-0.2814">
        <ele>52.9</ele>
        <time>2014-08-31T08:27:04.000Z</time>
      </trkpt>
      <trkpt lat="46.06272" lon="-0.28152">
        <ele>52.5</ele>
        <time>2014-08-31T08:27:06.000Z</time>
      </trkpt>
      <trkpt lat="46.06268" lon="-0.28165">
        <ele>51.9</ele>
        <time>2014-08-31T08:27:08.000Z</time>
      </trkpt>
      <trkpt lat="46.06262" lon="-0.28182">
        <ele>50.3</ele>
        <time>2014-08-31T08:27:11.000Z</time>
      </trkpt>
      <trkpt lat="46.06259" lon="-0.28195">
        <ele>49.4</ele>
        <time>2014-08-31T08:27:13.000Z</time>
      </trkpt>
      <trkpt lat="46.06253" lon="-0.28208">
        <ele>48.2</ele>
        <time>2014-08-31T08:27:15.000Z</time>
      </trkpt>
      <trkpt lat="46.06247" lon="-0.2822">
        <ele>47.2</ele>
        <time>2014-08-31T08:27:17.000Z</time>
      </trkpt>
      <trkpt lat="46.06241" lon="-0.28233">
        <ele>46.1</ele>
        <time>2014-08-31T08:27:19.000Z</time>
      </trkpt>
      <trkpt lat="46.06236" lon="-0.28245">
        <ele>45</ele>
        <time>2014-08-31T08:27:21.000Z</time>
      </trkpt>
      <trkpt lat="46.06228" lon="-0.28258">
        <ele>43.7</ele>
        <time>2014-08-31T08:27:23.000Z</time>
      </trkpt>
      <trkpt lat="46.06219" lon="-0.28267">
        <ele>42.6</ele>
        <time>2014-08-31T08:27:25.000Z</time>
      </trkpt>
      <trkpt lat="46.0621" lon="-0.28273">
        <ele>41.8</ele>
        <time>2014-08-31T08:27:27.000Z</time>
      </trkpt>
      <trkpt lat="46.06192" lon="-0.28282">
        <ele>39.4</ele>
        <time>2014-08-31T08:27:31.000Z</time>
      </trkpt>
      <trkpt lat="46.06184" lon="-0.28287">
        <ele>38.5</ele>
        <time>2014-08-31T08:27:33.000Z</time>
      </trkpt>
      <trkpt lat="46.06173" lon="-0.28298">
        <ele>36.7</ele>
        <time>2014-08-31T08:27:36.000Z</time>
      </trkpt>
      <trkpt lat="46.06165" lon="-0.28306">
        <ele>35.7</ele>
        <time>2014-08-31T08:27:38.000Z</time>
      </trkpt>
      <trkpt lat="46.06157" lon="-0.28313">
        <ele>34.4</ele>
        <time>2014-08-31T08:27:40.000Z</time>
      </trkpt>
      <trkpt lat="46.06149" lon="-0.28319">
        <ele>33.3</ele>
        <time>2014-08-31T08:27:42.000Z</time>
      </trkpt>
      <trkpt lat="46.06141" lon="-0.28327">
        <ele>32.3</ele>
        <time>2014-08-31T08:27:44.000Z</time>
      </trkpt>
      <trkpt lat="46.06132" lon="-0.28336">
        <ele>32</ele>
        <time>2014-08-31T08:27:46.000Z</time>
      </trkpt>
      <trkpt lat="46.06125" lon="-0.28347">
        <ele>31.6</ele>
        <time>2014-08-31T08:27:48.000Z</time>
      </trkpt>
      <trkpt lat="46.06121" lon="-0.2836">
        <ele>30.8</ele>
        <time>2014-08-31T08:27:50.000Z</time>
      </trkpt>
      <trkpt lat="46.06118" lon="-0.28375">
        <ele>29.9</ele>
        <time>2014-08-31T08:27:52.000Z</time>
      </trkpt>
      <trkpt lat="46.06113" lon="-0.2839">
        <ele>29.4</ele>
        <time>2014-08-31T08:27:54.000Z</time>
      </trkpt>
      <trkpt lat="46.06109" lon="-0.28406">
        <ele>28.8</ele>
        <time>2014-08-31T08:27:56.000Z</time>
      </trkpt>
      <trkpt lat="46.06103" lon="-0.28421">
        <ele>28.4</ele>
        <time>2014-08-31T08:27:58.000Z</time>
      </trkpt>
      <trkpt lat="46.06099" lon="-0.28436">
        <ele>28.1</ele>
        <time>2014-08-31T08:28:00.000Z</time>
      </trkpt>
      <trkpt lat="46.06097" lon="-0.28449">
        <ele>27.5</ele>
        <time>2014-08-31T08:28:02.000Z</time>
      </trkpt>
      <trkpt lat="46.06102" lon="-0.28462">
        <ele>27.1</ele>
        <time>2014-08-31T08:28:04.000Z</time>
      </trkpt>
      <trkpt lat="46.06111" lon="-0.28482">
        <ele>32.7</ele>
        <time>2014-08-31T08:28:06.000Z</time>
      </trkpt>
      <trkpt lat="46.06122" lon="-0.28492">
        <ele>32.3</ele>
        <time>2014-08-31T08:28:08.000Z</time>
      </trkpt>
      <trkpt lat="46.06129" lon="-0.28502">
        <ele>31.8</ele>
        <time>2014-08-31T08:28:11.000Z</time>
      </trkpt>
      <trkpt lat="46.06138" lon="-0.28512">
        <ele>31.3</ele>
        <time>2014-08-31T08:28:15.000Z</time>
      </trkpt>
      <trkpt lat="46.06147" lon="-0.28526">
        <ele>30.7</ele>
        <time>2014-08-31T08:28:18.000Z</time>
      </trkpt>
      <trkpt lat="46.06153" lon="-0.28537">
        <ele>30.4</ele>
        <time>2014-08-31T08:28:20.000Z</time>
      </trkpt>
      <trkpt lat="46.06159" lon="-0.2855">
        <ele>30.4</ele>
        <time>2014-08-31T08:28:22.000Z</time>
      </trkpt>
      <trkpt lat="46.06167" lon="-0.2856">
        <ele>30.3</ele>
        <time>2014-08-31T08:28:24.000Z</time>
      </trkpt>
      <trkpt lat="46.0617" lon="-0.28574">
        <ele>30</ele>
        <time>2014-08-31T08:28:28.000Z</time>
      </trkpt>
      <trkpt lat="46.06162" lon="-0.28585">
        <ele>28.4</ele>
        <time>2014-08-31T08:28:33.000Z</time>
      </trkpt>
      <trkpt lat="46.06166" lon="-0.28613">
        <ele>25.6</ele>
        <time>2014-08-31T08:28:40.000Z</time>
      </trkpt>
      <trkpt lat="46.06169" lon="-0.2863">
        <ele>31.3</ele>
        <time>2014-08-31T08:28:45.000Z</time>
      </trkpt>
      <trkpt lat="46.06179" lon="-0.28639">
        <ele>36.6</ele>
        <time>2014-08-31T08:29:52.000Z</time>
      </trkpt>
      <trkpt lat="46.062" lon="-0.28657">
        <ele>40.5</ele>
        <time>2014-08-31T08:29:59.000Z</time>
      </trkpt>
      <trkpt lat="46.06209" lon="-0.28667">
        <ele>41</ele>
        <time>2014-08-31T08:30:02.000Z</time>
      </trkpt>
      <trkpt lat="46.06218" lon="-0.28681">
        <ele>43.5</ele>
        <time>2014-08-31T08:30:05.000Z</time>
      </trkpt>
      <trkpt lat="46.06225" lon="-0.28691">
        <ele>44.2</ele>
        <time>2014-08-31T08:30:07.000Z</time>
      </trkpt>
      <trkpt lat="46.06233" lon="-0.287">
        <ele>45</ele>
        <time>2014-08-31T08:30:09.000Z</time>
      </trkpt>
      <trkpt lat="46.0624" lon="-0.28711">
        <ele>46.2</ele>
        <time>2014-08-31T08:30:11.000Z</time>
      </trkpt>
      <trkpt lat="46.06247" lon="-0.28723">
        <ele>47.7</ele>
        <time>2014-08-31T08:30:13.000Z</time>
      </trkpt>
      <trkpt lat="46.06253" lon="-0.28734">
        <ele>49.6</ele>
        <time>2014-08-31T08:30:15.000Z</time>
      </trkpt>
      <trkpt lat="46.06259" lon="-0.28744">
        <ele>50.3</ele>
        <time>2014-08-31T08:30:17.000Z</time>
      </trkpt>
      <trkpt lat="46.06265" lon="-0.28754">
        <ele>51.2</ele>
        <time>2014-08-31T08:30:19.000Z</time>
      </trkpt>
      <trkpt lat="46.06271" lon="-0.28764">
        <ele>52.2</ele>
        <time>2014-08-31T08:30:21.000Z</time>
      </trkpt>
      <trkpt lat="46.06278" lon="-0.28773">
        <ele>52.6</ele>
        <time>2014-08-31T08:30:23.000Z</time>
      </trkpt>
      <trkpt lat="46.06285" lon="-0.28782">
        <ele>53.1</ele>
        <time>2014-08-31T08:30:25.000Z</time>
      </trkpt>
      <trkpt lat="46.06293" lon="-0.28792">
        <ele>52.2</ele>
        <time>2014-08-31T08:30:27.000Z</time>
      </trkpt>
      <trkpt lat="46.063" lon="-0.28802">
        <ele>52.2</ele>
        <time>2014-08-31T08:30:29.000Z</time>
      </trkpt>
      <trkpt lat="46.06307" lon="-0.28812">
        <ele>52.1</ele>
        <time>2014-08-31T08:30:31.000Z</time>
      </trkpt>
      <trkpt lat="46.06315" lon="-0.28822">
        <ele>53</ele>
        <time>2014-08-31T08:30:33.000Z</time>
      </trkpt>
      <trkpt lat="46.06322" lon="-0.28833">
        <ele>54.6</ele>
        <time>2014-08-31T08:30:35.000Z</time>
      </trkpt>
      <trkpt lat="46.06328" lon="-0.28843">
        <ele>55.1</ele>
        <time>2014-08-31T08:30:37.000Z</time>
      </trkpt>
      <trkpt lat="46.06335" lon="-0.28855">
        <ele>55.3</ele>
        <time>2014-08-31T08:30:40.000Z</time>
      </trkpt>
      <trkpt lat="46.06338" lon="-0.2887">
        <ele>54.3</ele>
        <time>2014-08-31T08:30:43.000Z</time>
      </trkpt>
      <trkpt lat="46.0634" lon="-0.28883">
        <ele>52.9</ele>
        <time>2014-08-31T08:30:45.000Z</time>
      </trkpt>
      <trkpt lat="46.06342" lon="-0.28897">
        <ele>51.5</ele>
        <time>2014-08-31T08:30:47.000Z</time>
      </trkpt>
      <trkpt lat="46.06344" lon="-0.28913">
        <ele>50.7</ele>
        <time>2014-08-31T08:30:49.000Z</time>
      </trkpt>
      <trkpt lat="46.06349" lon="-0.2893">
        <ele>50.1</ele>
        <time>2014-08-31T08:30:51.000Z</time>
      </trkpt>
      <trkpt lat="46.06357" lon="-0.28945">
        <ele>49.8</ele>
        <time>2014-08-31T08:30:53.000Z</time>
      </trkpt>
      <trkpt lat="46.06365" lon="-0.28959">
        <ele>49.4</ele>
        <time>2014-08-31T08:30:55.000Z</time>
      </trkpt>
      <trkpt lat="46.06384" lon="-0.28977">
        <ele>49</ele>
        <time>2014-08-31T08:30:59.000Z</time>
      </trkpt>
      <trkpt lat="46.06395" lon="-0.28987">
        <ele>47.8</ele>
        <time>2014-08-31T08:31:01.000Z</time>
      </trkpt>
      <trkpt lat="46.06405" lon="-0.28999">
        <ele>47.1</ele>
        <time>2014-08-31T08:31:03.000Z</time>
      </trkpt>
      <trkpt lat="46.06414" lon="-0.29012">
        <ele>46.8</ele>
        <time>2014-08-31T08:31:05.000Z</time>
      </trkpt>
      <trkpt lat="46.06418" lon="-0.2903">
        <ele>46.6</ele>
        <time>2014-08-31T08:31:07.000Z</time>
      </trkpt>
      <trkpt lat="46.06418" lon="-0.29046">
        <ele>46.3</ele>
        <time>2014-08-31T08:31:09.000Z</time>
      </trkpt>
      <trkpt lat="46.06417" lon="-0.29061">
        <ele>48.2</ele>
        <time>2014-08-31T08:31:11.000Z</time>
      </trkpt>
      <trkpt lat="46.06415" lon="-0.29075">
        <ele>50.1</ele>
        <time>2014-08-31T08:31:14.000Z</time>
      </trkpt>
      <trkpt lat="46.0641" lon="-0.29089">
        <ele>53.2</ele>
        <time>2014-08-31T08:31:18.000Z</time>
      </trkpt>
      <trkpt lat="46.06409" lon="-0.29102">
        <ele>56</ele>
        <time>2014-08-31T08:31:22.000Z</time>
      </trkpt>
      <trkpt lat="46.06402" lon="-0.29109">
        <ele>65.2</ele>
        <time>2014-08-31T08:37:07.000Z</time>
      </trkpt>
      <trkpt lat="46.0639" lon="-0.29133">
        <ele>68.7</ele>
        <time>2014-08-31T08:37:15.000Z</time>
      </trkpt>
      <trkpt lat="46.0638" lon="-0.29143">
        <ele>70.5</ele>
        <time>2014-08-31T08:37:19.000Z</time>
      </trkpt>
      <trkpt lat="46.0637" lon="-0.29148">
        <ele>71.9</ele>
        <time>2014-08-31T08:37:22.000Z</time>
      </trkpt>
      <trkpt lat="46.06359" lon="-0.29152">
        <ele>73.9</ele>
        <time>2014-08-31T08:37:25.000Z</time>
      </trkpt>
      <trkpt lat="46.06347" lon="-0.29156">
        <ele>75.5</ele>
        <time>2014-08-31T08:37:28.000Z</time>
      </trkpt>
      <trkpt lat="46.06336" lon="-0.29159">
        <ele>77.1</ele>
        <time>2014-08-31T08:37:31.000Z</time>
      </trkpt>
      <trkpt lat="46.06324" lon="-0.29164">
        <ele>78.1</ele>
        <time>2014-08-31T08:37:34.000Z</time>
      </trkpt>
      <trkpt lat="46.06313" lon="-0.29167">
        <ele>79.1</ele>
        <time>2014-08-31T08:37:37.000Z</time>
      </trkpt>
      <trkpt lat="46.06302" lon="-0.29171">
        <ele>80.2</ele>
        <time>2014-08-31T08:37:40.000Z</time>
      </trkpt>
      <trkpt lat="46.06291" lon="-0.29176">
        <ele>81.3</ele>
        <time>2014-08-31T08:37:43.000Z</time>
      </trkpt>
      <trkpt lat="46.06281" lon="-0.29184">
        <ele>82.4</ele>
        <time>2014-08-31T08:37:46.000Z</time>
      </trkpt>
      <trkpt lat="46.06272" lon="-0.29191">
        <ele>83.7</ele>
        <time>2014-08-31T08:37:49.000Z</time>
      </trkpt>
      <trkpt lat="46.06264" lon="-0.29199">
        <ele>85.1</ele>
        <time>2014-08-31T08:37:52.000Z</time>
      </trkpt>
      <trkpt lat="46.06256" lon="-0.29209">
        <ele>86.4</ele>
        <time>2014-08-31T08:37:55.000Z</time>
      </trkpt>
      <trkpt lat="46.06249" lon="-0.29218">
        <ele>87.5</ele>
        <time>2014-08-31T08:37:58.000Z</time>
      </trkpt>
      <trkpt lat="46.06241" lon="-0.29229">
        <ele>88.3</ele>
        <time>2014-08-31T08:38:01.000Z</time>
      </trkpt>
      <trkpt lat="46.06231" lon="-0.2924">
        <ele>88.7</ele>
        <time>2014-08-31T08:38:04.000Z</time>
      </trkpt>
      <trkpt lat="46.06219" lon="-0.29246">
        <ele>89</ele>
        <time>2014-08-31T08:38:07.000Z</time>
      </trkpt>
      <trkpt lat="46.06206" lon="-0.29251">
        <ele>89.3</ele>
        <time>2014-08-31T08:38:10.000Z</time>
      </trkpt>
      <trkpt lat="46.06182" lon="-0.29264">
        <ele>89.8</ele>
        <time>2014-08-31T08:38:16.000Z</time>
      </trkpt>
      <trkpt lat="46.06173" lon="-0.29267">
        <ele>91.3</ele>
        <time>2014-08-31T08:38:18.000Z</time>
      </trkpt>
      <trkpt lat="46.06161" lon="-0.29272">
        <ele>91.9</ele>
        <time>2014-08-31T08:38:21.000Z</time>
      </trkpt>
      <trkpt lat="46.06149" lon="-0.29276">
        <ele>92.3</ele>
        <time>2014-08-31T08:38:24.000Z</time>
      </trkpt>
      <trkpt lat="46.06136" lon="-0.29278">
        <ele>92.7</ele>
        <time>2014-08-31T08:38:27.000Z</time>
      </trkpt>
      <trkpt lat="46.06124" lon="-0.29278">
        <ele>92.8</ele>
        <time>2014-08-31T08:38:30.000Z</time>
      </trkpt>
      <trkpt lat="46.06111" lon="-0.29277">
        <ele>92.8</ele>
        <time>2014-08-31T08:38:33.000Z</time>
      </trkpt>
      <trkpt lat="46.06099" lon="-0.29277">
        <ele>92.5</ele>
        <time>2014-08-31T08:38:36.000Z</time>
      </trkpt>
      <trkpt lat="46.06089" lon="-0.29276">
        <ele>92.2</ele>
        <time>2014-08-31T08:38:39.000Z</time>
      </trkpt>
      <trkpt lat="46.06077" lon="-0.29275">
        <ele>91.7</ele>
        <time>2014-08-31T08:38:42.000Z</time>
      </trkpt>
      <trkpt lat="46.06065" lon="-0.29273">
        <ele>91.4</ele>
        <time>2014-08-31T08:38:45.000Z</time>
      </trkpt>
      <trkpt lat="46.06053" lon="-0.29272">
        <ele>91.9</ele>
        <time>2014-08-31T08:38:48.000Z</time>
      </trkpt>
      <trkpt lat="46.06041" lon="-0.29271">
        <ele>91.8</ele>
        <time>2014-08-31T08:38:51.000Z</time>
      </trkpt>
      <trkpt lat="46.06029" lon="-0.2927">
        <ele>91.8</ele>
        <time>2014-08-31T08:38:54.000Z</time>
      </trkpt>
      <trkpt lat="46.06016" lon="-0.29271">
        <ele>92.2</ele>
        <time>2014-08-31T08:38:57.000Z</time>
      </trkpt>
      <trkpt lat="46.06004" lon="-0.29273">
        <ele>91.3</ele>
        <time>2014-08-31T08:39:00.000Z</time>
      </trkpt>
      <trkpt lat="46.05992" lon="-0.29276">
        <ele>91.3</ele>
        <time>2014-08-31T08:39:03.000Z</time>
      </trkpt>
      <trkpt lat="46.0598" lon="-0.29279">
        <ele>91.1</ele>
        <time>2014-08-31T08:39:06.000Z</time>
      </trkpt>
      <trkpt lat="46.05969" lon="-0.29284">
        <ele>90.8</ele>
        <time>2014-08-31T08:39:09.000Z</time>
      </trkpt>
      <trkpt lat="46.05957" lon="-0.2929">
        <ele>91.3</ele>
        <time>2014-08-31T08:39:12.000Z</time>
      </trkpt>
      <trkpt lat="46.05934" lon="-0.29309">
        <ele>90.5</ele>
        <time>2014-08-31T08:39:18.000Z</time>
      </trkpt>
      <trkpt lat="46.05926" lon="-0.29316">
        <ele>90.5</ele>
        <time>2014-08-31T08:39:20.000Z</time>
      </trkpt>
      <trkpt lat="46.05918" lon="-0.29322">
        <ele>89.5</ele>
        <time>2014-08-31T08:39:22.000Z</time>
      </trkpt>
      <trkpt lat="46.0591" lon="-0.29329">
        <ele>89.1</ele>
        <time>2014-08-31T08:39:24.000Z</time>
      </trkpt>
      <trkpt lat="46.05902" lon="-0.29335">
        <ele>88.2</ele>
        <time>2014-08-31T08:39:26.000Z</time>
      </trkpt>
      <trkpt lat="46.05893" lon="-0.29343">
        <ele>87.2</ele>
        <time>2014-08-31T08:39:28.000Z</time>
      </trkpt>
      <trkpt lat="46.05885" lon="-0.2935">
        <ele>86</ele>
        <time>2014-08-31T08:39:30.000Z</time>
      </trkpt>
      <trkpt lat="46.05876" lon="-0.29357">
        <ele>85.2</ele>
        <time>2014-08-31T08:39:32.000Z</time>
      </trkpt>
      <trkpt lat="46.05867" lon="-0.29364">
        <ele>84.2</ele>
        <time>2014-08-31T08:39:34.000Z</time>
      </trkpt>
      <trkpt lat="46.05859" lon="-0.2937">
        <ele>84.4</ele>
        <time>2014-08-31T08:39:36.000Z</time>
      </trkpt>
      <trkpt lat="46.0585" lon="-0.29376">
        <ele>83.7</ele>
        <time>2014-08-31T08:39:38.000Z</time>
      </trkpt>
      <trkpt lat="46.0584" lon="-0.29382">
        <ele>83.1</ele>
        <time>2014-08-31T08:39:40.000Z</time>
      </trkpt>
      <trkpt lat="46.05831" lon="-0.2939">
        <ele>81.8</ele>
        <time>2014-08-31T08:39:42.000Z</time>
      </trkpt>
      <trkpt lat="46.05822" lon="-0.29397">
        <ele>81.7</ele>
        <time>2014-08-31T08:39:44.000Z</time>
      </trkpt>
      <trkpt lat="46.05813" lon="-0.29404">
        <ele>80.6</ele>
        <time>2014-08-31T08:39:46.000Z</time>
      </trkpt>
      <trkpt lat="46.05803" lon="-0.29413">
        <ele>79.3</ele>
        <time>2014-08-31T08:39:48.000Z</time>
      </trkpt>
      <trkpt lat="46.05793" lon="-0.2942">
        <ele>77.8</ele>
        <time>2014-08-31T08:39:50.000Z</time>
      </trkpt>
      <trkpt lat="46.05781" lon="-0.29426">
        <ele>77.6</ele>
        <time>2014-08-31T08:39:52.000Z</time>
      </trkpt>
      <trkpt lat="46.05772" lon="-0.29432">
        <ele>76.8</ele>
        <time>2014-08-31T08:39:54.000Z</time>
      </trkpt>
      <trkpt lat="46.05763" lon="-0.29437">
        <ele>75.8</ele>
        <time>2014-08-31T08:39:56.000Z</time>
      </trkpt>
      <trkpt lat="46.05753" lon="-0.2944">
        <ele>75.5</ele>
        <time>2014-08-31T08:39:58.000Z</time>
      </trkpt>
      <trkpt lat="46.05741" lon="-0.29447">
        <ele>75.4</ele>
        <time>2014-08-31T08:40:01.000Z</time>
      </trkpt>
      <trkpt lat="46.05731" lon="-0.2945">
        <ele>75.8</ele>
        <time>2014-08-31T08:40:03.000Z</time>
      </trkpt>
      <trkpt lat="46.05722" lon="-0.29452">
        <ele>76.5</ele>
        <time>2014-08-31T08:40:05.000Z</time>
      </trkpt>
      <trkpt lat="46.05712" lon="-0.29455">
        <ele>75.8</ele>
        <time>2014-08-31T08:40:08.000Z</time>
      </trkpt>
      <trkpt lat="46.05702" lon="-0.29461">
        <ele>74.6</ele>
        <time>2014-08-31T08:40:11.000Z</time>
      </trkpt>
      <trkpt lat="46.05691" lon="-0.29466">
        <ele>73.2</ele>
        <time>2014-08-31T08:40:14.000Z</time>
      </trkpt>
      <trkpt lat="46.05671" lon="-0.29475">
        <ele>71</ele>
        <time>2014-08-31T08:40:20.000Z</time>
      </trkpt>
      <trkpt lat="46.05662" lon="-0.29477">
        <ele>72.7</ele>
        <time>2014-08-31T08:40:23.000Z</time>
      </trkpt>
      <trkpt lat="46.05651" lon="-0.29482">
        <ele>74.5</ele>
        <time>2014-08-31T08:40:27.000Z</time>
      </trkpt>
      <trkpt lat="46.0564" lon="-0.29481">
        <ele>75.6</ele>
        <time>2014-08-31T08:40:30.000Z</time>
      </trkpt>
      <trkpt lat="46.05631" lon="-0.29482">
        <ele>75.9</ele>
        <time>2014-08-31T08:40:33.000Z</time>
      </trkpt>
      <trkpt lat="46.05619" lon="-0.29484">
        <ele>76.9</ele>
        <time>2014-08-31T08:40:37.000Z</time>
      </trkpt>
      <trkpt lat="46.05608" lon="-0.29485">
        <ele>78.3</ele>
        <time>2014-08-31T08:40:40.000Z</time>
      </trkpt>
      <trkpt lat="46.05598" lon="-0.29486">
        <ele>79.7</ele>
        <time>2014-08-31T08:40:43.000Z</time>
      </trkpt>
      <trkpt lat="46.05588" lon="-0.29487">
        <ele>81.4</ele>
        <time>2014-08-31T08:40:46.000Z</time>
      </trkpt>
      <trkpt lat="46.05577" lon="-0.29488">
        <ele>83.2</ele>
        <time>2014-08-31T08:40:49.000Z</time>
      </trkpt>
      <trkpt lat="46.05567" lon="-0.29489">
        <ele>85.3</ele>
        <time>2014-08-31T08:40:52.000Z</time>
      </trkpt>
      <trkpt lat="46.05557" lon="-0.29489">
        <ele>86.4</ele>
        <time>2014-08-31T08:40:55.000Z</time>
      </trkpt>
      <trkpt lat="46.05547" lon="-0.29489">
        <ele>88</ele>
        <time>2014-08-31T08:40:58.000Z</time>
      </trkpt>
      <trkpt lat="46.05538" lon="-0.29489">
        <ele>89.5</ele>
        <time>2014-08-31T08:41:01.000Z</time>
      </trkpt>
      <trkpt lat="46.05526" lon="-0.2949">
        <ele>91.4</ele>
        <time>2014-08-31T08:41:05.000Z</time>
      </trkpt>
      <trkpt lat="46.05516" lon="-0.29489">
        <ele>92.6</ele>
        <time>2014-08-31T08:41:08.000Z</time>
      </trkpt>
      <trkpt lat="46.05506" lon="-0.29489">
        <ele>93</ele>
        <time>2014-08-31T08:41:11.000Z</time>
      </trkpt>
      <trkpt lat="46.05497" lon="-0.29487">
        <ele>94.1</ele>
        <time>2014-08-31T08:41:14.000Z</time>
      </trkpt>
      <trkpt lat="46.05486" lon="-0.29485">
        <ele>94.6</ele>
        <time>2014-08-31T08:41:17.000Z</time>
      </trkpt>
      <trkpt lat="46.05465" lon="-0.29487">
        <ele>95.7</ele>
        <time>2014-08-31T08:41:24.000Z</time>
      </trkpt>
      <trkpt lat="46.05455" lon="-0.2949">
        <ele>96.5</ele>
        <time>2014-08-31T08:41:27.000Z</time>
      </trkpt>
      <trkpt lat="46.05444" lon="-0.29491">
        <ele>96.9</ele>
        <time>2014-08-31T08:41:30.000Z</time>
      </trkpt>
      <trkpt lat="46.05432" lon="-0.29491">
        <ele>97.6</ele>
        <time>2014-08-31T08:41:33.000Z</time>
      </trkpt>
      <trkpt lat="46.05423" lon="-0.29486">
        <ele>98.3</ele>
        <time>2014-08-31T08:41:36.000Z</time>
      </trkpt>
      <trkpt lat="46.05416" lon="-0.29478">
        <ele>99</ele>
        <time>2014-08-31T08:41:40.000Z</time>
      </trkpt>
      <trkpt lat="46.05407" lon="-0.29486">
        <ele>100.6</ele>
        <time>2014-08-31T08:41:56.000Z</time>
      </trkpt>
      <trkpt lat="46.05396" lon="-0.29485">
        <ele>101.1</ele>
        <time>2014-08-31T08:41:59.000Z</time>
      </trkpt>
      <trkpt lat="46.05388" lon="-0.29493">
        <ele>101.5</ele>
        <time>2014-08-31T08:42:03.000Z</time>
      </trkpt>
      <trkpt lat="46.05376" lon="-0.29491">
        <ele>102.6</ele>
        <time>2014-08-31T08:42:09.000Z</time>
      </trkpt>
      <trkpt lat="46.05366" lon="-0.29496">
        <ele>102.8</ele>
        <time>2014-08-31T08:42:12.000Z</time>
      </trkpt>
      <trkpt lat="46.05353" lon="-0.29504">
        <ele>102.2</ele>
        <time>2014-08-31T08:42:15.000Z</time>
      </trkpt>
      <trkpt lat="46.05342" lon="-0.29506">
        <ele>101.8</ele>
        <time>2014-08-31T08:42:18.000Z</time>
      </trkpt>
      <trkpt lat="46.05329" lon="-0.29481">
        <ele>103.2</ele>
        <time>2014-08-31T08:42:26.000Z</time>
      </trkpt>
      <trkpt lat="46.05322" lon="-0.29467">
        <ele>103.1</ele>
        <time>2014-08-31T08:42:28.000Z</time>
      </trkpt>
      <trkpt lat="46.05315" lon="-0.29455">
        <ele>103.6</ele>
        <time>2014-08-31T08:42:30.000Z</time>
      </trkpt>
      <trkpt lat="46.05308" lon="-0.29441">
        <ele>104.4</ele>
        <time>2014-08-31T08:42:32.000Z</time>
      </trkpt>
      <trkpt lat="46.05302" lon="-0.29428">
        <ele>104.6</ele>
        <time>2014-08-31T08:42:34.000Z</time>
      </trkpt>
      <trkpt lat="46.05297" lon="-0.29417">
        <ele>104.4</ele>
        <time>2014-08-31T08:42:36.000Z</time>
      </trkpt>
      <trkpt lat="46.05291" lon="-0.29406">
        <ele>105.1</ele>
        <time>2014-08-31T08:42:38.000Z</time>
      </trkpt>
      <trkpt lat="46.05284" lon="-0.29398">
        <ele>105.3</ele>
        <time>2014-08-31T08:42:40.000Z</time>
      </trkpt>
      <trkpt lat="46.05274" lon="-0.29397">
        <ele>105.5</ele>
        <time>2014-08-31T08:42:42.000Z</time>
      </trkpt>
      <trkpt lat="46.05265" lon="-0.29403">
        <ele>105.3</ele>
        <time>2014-08-31T08:42:44.000Z</time>
      </trkpt>
      <trkpt lat="46.05258" lon="-0.29415">
        <ele>105.2</ele>
        <time>2014-08-31T08:42:46.000Z</time>
      </trkpt>
      <trkpt lat="46.05251" lon="-0.29426">
        <ele>105.2</ele>
        <time>2014-08-31T08:42:48.000Z</time>
      </trkpt>
      <trkpt lat="46.05244" lon="-0.29437">
        <ele>105.2</ele>
        <time>2014-08-31T08:42:50.000Z</time>
      </trkpt>
      <trkpt lat="46.05236" lon="-0.29449">
        <ele>105</ele>
        <time>2014-08-31T08:42:52.000Z</time>
      </trkpt>
      <trkpt lat="46.05227" lon="-0.2946">
        <ele>105</ele>
        <time>2014-08-31T08:42:54.000Z</time>
      </trkpt>
      <trkpt lat="46.05219" lon="-0.29472">
        <ele>105.2</ele>
        <time>2014-08-31T08:42:56.000Z</time>
      </trkpt>
      <trkpt lat="46.05209" lon="-0.29485">
        <ele>105.2</ele>
        <time>2014-08-31T08:42:58.000Z</time>
      </trkpt>
      <trkpt lat="46.05201" lon="-0.29498">
        <ele>105.2</ele>
        <time>2014-08-31T08:43:00.000Z</time>
      </trkpt>
      <trkpt lat="46.05194" lon="-0.29508">
        <ele>104.8</ele>
        <time>2014-08-31T08:43:02.000Z</time>
      </trkpt>
      <trkpt lat="46.05186" lon="-0.2952">
        <ele>104.6</ele>
        <time>2014-08-31T08:43:04.000Z</time>
      </trkpt>
      <trkpt lat="46.05178" lon="-0.29532">
        <ele>104.3</ele>
        <time>2014-08-31T08:43:06.000Z</time>
      </trkpt>
      <trkpt lat="46.05171" lon="-0.29545">
        <ele>104</ele>
        <time>2014-08-31T08:43:08.000Z</time>
      </trkpt>
      <trkpt lat="46.05164" lon="-0.29563">
        <ele>103.3</ele>
        <time>2014-08-31T08:43:11.000Z</time>
      </trkpt>
      <trkpt lat="46.05157" lon="-0.29576">
        <ele>102.5</ele>
        <time>2014-08-31T08:43:13.000Z</time>
      </trkpt>
      <trkpt lat="46.05151" lon="-0.2959">
        <ele>102.2</ele>
        <time>2014-08-31T08:43:15.000Z</time>
      </trkpt>
      <trkpt lat="46.05144" lon="-0.29605">
        <ele>101.9</ele>
        <time>2014-08-31T08:43:17.000Z</time>
      </trkpt>
      <trkpt lat="46.05136" lon="-0.29621">
        <ele>101.6</ele>
        <time>2014-08-31T08:43:19.000Z</time>
      </trkpt>
      <trkpt lat="46.0512" lon="-0.29653">
        <ele>100.3</ele>
        <time>2014-08-31T08:43:23.000Z</time>
      </trkpt>
      <trkpt lat="46.05112" lon="-0.29669">
        <ele>99.7</ele>
        <time>2014-08-31T08:43:25.000Z</time>
      </trkpt>
      <trkpt lat="46.05104" lon="-0.29685">
        <ele>99.3</ele>
        <time>2014-08-31T08:43:27.000Z</time>
      </trkpt>
      <trkpt lat="46.05095" lon="-0.29703">
        <ele>98.8</ele>
        <time>2014-08-31T08:43:29.000Z</time>
      </trkpt>
      <trkpt lat="46.05085" lon="-0.29721">
        <ele>98.7</ele>
        <time>2014-08-31T08:43:31.000Z</time>
      </trkpt>
      <trkpt lat="46.05078" lon="-0.29736">
        <ele>98.3</ele>
        <time>2014-08-31T08:43:33.000Z</time>
      </trkpt>
      <trkpt lat="46.05069" lon="-0.29747">
        <ele>98.5</ele>
        <time>2014-08-31T08:43:36.000Z</time>
      </trkpt>
      <trkpt lat="46.0506" lon="-0.29742">
        <ele>99.2</ele>
        <time>2014-08-31T08:43:40.000Z</time>
      </trkpt>
      <trkpt lat="46.05056" lon="-0.29729">
        <ele>102.3</ele>
        <time>2014-08-31T08:43:48.000Z</time>
      </trkpt>
      <trkpt lat="46.05046" lon="-0.29724">
        <ele>102.8</ele>
        <time>2014-08-31T08:43:51.000Z</time>
      </trkpt>
      <trkpt lat="46.05035" lon="-0.29718">
        <ele>103.6</ele>
        <time>2014-08-31T08:43:54.000Z</time>
      </trkpt>
      <trkpt lat="46.05027" lon="-0.2971">
        <ele>104.2</ele>
        <time>2014-08-31T08:43:56.000Z</time>
      </trkpt>
      <trkpt lat="46.05019" lon="-0.29696">
        <ele>105</ele>
        <time>2014-08-31T08:43:59.000Z</time>
      </trkpt>
      <trkpt lat="46.05016" lon="-0.29681">
        <ele>105.8</ele>
        <time>2014-08-31T08:44:01.000Z</time>
      </trkpt>
      <trkpt lat="46.05013" lon="-0.29668">
        <ele>106.8</ele>
        <time>2014-08-31T08:44:03.000Z</time>
      </trkpt>
      <trkpt lat="46.0501" lon="-0.29653">
        <ele>108.1</ele>
        <time>2014-08-31T08:44:06.000Z</time>
      </trkpt>
      <trkpt lat="46.05006" lon="-0.29639">
        <ele>109</ele>
        <time>2014-08-31T08:44:10.000Z</time>
      </trkpt>
      <trkpt lat="46.04996" lon="-0.29632">
        <ele>109.3</ele>
        <time>2014-08-31T08:44:14.000Z</time>
      </trkpt>
      <trkpt lat="46.04983" lon="-0.29635">
        <ele>109.2</ele>
        <time>2014-08-31T08:44:17.000Z</time>
      </trkpt>
      <trkpt lat="46.04971" lon="-0.29632">
        <ele>108.2</ele>
        <time>2014-08-31T08:44:20.000Z</time>
      </trkpt>
      <trkpt lat="46.04951" lon="-0.29634">
        <ele>108.1</ele>
        <time>2014-08-31T08:44:29.000Z</time>
      </trkpt>
      <trkpt lat="46.04939" lon="-0.29639">
        <ele>108.6</ele>
        <time>2014-08-31T08:44:32.000Z</time>
      </trkpt>
      <trkpt lat="46.04927" lon="-0.29646">
        <ele>108</ele>
        <time>2014-08-31T08:44:35.000Z</time>
      </trkpt>
      <trkpt lat="46.04919" lon="-0.29652">
        <ele>106.6</ele>
        <time>2014-08-31T08:44:37.000Z</time>
      </trkpt>
      <trkpt lat="46.04912" lon="-0.29661">
        <ele>105.3</ele>
        <time>2014-08-31T08:44:41.000Z</time>
      </trkpt>
      <trkpt lat="46.04904" lon="-0.29671">
        <ele>104.3</ele>
        <time>2014-08-31T08:44:44.000Z</time>
      </trkpt>
      <trkpt lat="46.04894" lon="-0.29667">
        <ele>104.6</ele>
        <time>2014-08-31T08:44:49.000Z</time>
      </trkpt>
      <trkpt lat="46.04885" lon="-0.29665">
        <ele>104.5</ele>
        <time>2014-08-31T08:44:52.000Z</time>
      </trkpt>
      <trkpt lat="46.04875" lon="-0.29671">
        <ele>104</ele>
        <time>2014-08-31T08:44:55.000Z</time>
      </trkpt>
      <trkpt lat="46.04866" lon="-0.29671">
        <ele>102.6</ele>
        <time>2014-08-31T08:44:58.000Z</time>
      </trkpt>
      <trkpt lat="46.04853" lon="-0.29673">
        <ele>101.7</ele>
        <time>2014-08-31T08:45:02.000Z</time>
      </trkpt>
      <trkpt lat="46.04841" lon="-0.2968">
        <ele>100.7</ele>
        <time>2014-08-31T08:45:05.000Z</time>
      </trkpt>
      <trkpt lat="46.0483" lon="-0.29682">
        <ele>99.8</ele>
        <time>2014-08-31T08:45:08.000Z</time>
      </trkpt>
      <trkpt lat="46.0482" lon="-0.29682">
        <ele>99.9</ele>
        <time>2014-08-31T08:45:12.000Z</time>
      </trkpt>
      <trkpt lat="46.04814" lon="-0.29671">
        <ele>99.7</ele>
        <time>2014-08-31T08:45:17.000Z</time>
      </trkpt>
      <trkpt lat="46.04817" lon="-0.29654">
        <ele>100.7</ele>
        <time>2014-08-31T08:45:20.000Z</time>
      </trkpt>
      <trkpt lat="46.0482" lon="-0.29641">
        <ele>100.8</ele>
        <time>2014-08-31T08:45:22.000Z</time>
      </trkpt>
      <trkpt lat="46.04818" lon="-0.29613">
        <ele>101.6</ele>
        <time>2014-08-31T08:45:26.000Z</time>
      </trkpt>
      <trkpt lat="46.0481" lon="-0.29603">
        <ele>101.8</ele>
        <time>2014-08-31T08:45:28.000Z</time>
      </trkpt>
      <trkpt lat="46.048" lon="-0.29594">
        <ele>101.5</ele>
        <time>2014-08-31T08:45:30.000Z</time>
      </trkpt>
      <trkpt lat="46.0479" lon="-0.2959">
        <ele>101.2</ele>
        <time>2014-08-31T08:45:32.000Z</time>
      </trkpt>
      <trkpt lat="46.0478" lon="-0.29587">
        <ele>101</ele>
        <time>2014-08-31T08:45:34.000Z</time>
      </trkpt>
      <trkpt lat="46.04771" lon="-0.29581">
        <ele>100.7</ele>
        <time>2014-08-31T08:45:36.000Z</time>
      </trkpt>
      <trkpt lat="46.04763" lon="-0.29571">
        <ele>100.5</ele>
        <time>2014-08-31T08:45:38.000Z</time>
      </trkpt>
      <trkpt lat="46.04758" lon="-0.29556">
        <ele>100</ele>
        <time>2014-08-31T08:45:40.000Z</time>
      </trkpt>
      <trkpt lat="46.04754" lon="-0.29538">
        <ele>100.1</ele>
        <time>2014-08-31T08:45:42.000Z</time>
      </trkpt>
      <trkpt lat="46.0475" lon="-0.29522">
        <ele>100.4</ele>
        <time>2014-08-31T08:45:44.000Z</time>
      </trkpt>
      <trkpt lat="46.04745" lon="-0.29505">
        <ele>100.7</ele>
        <time>2014-08-31T08:45:46.000Z</time>
      </trkpt>
      <trkpt lat="46.04743" lon="-0.29489">
        <ele>100.9</ele>
        <time>2014-08-31T08:45:48.000Z</time>
      </trkpt>
      <trkpt lat="46.04738" lon="-0.29472">
        <ele>101.1</ele>
        <time>2014-08-31T08:45:50.000Z</time>
      </trkpt>
      <trkpt lat="46.04732" lon="-0.29451">
        <ele>100.9</ele>
        <time>2014-08-31T08:45:52.000Z</time>
      </trkpt>
      <trkpt lat="46.04723" lon="-0.29431">
        <ele>100.4</ele>
        <time>2014-08-31T08:45:54.000Z</time>
      </trkpt>
      <trkpt lat="46.04713" lon="-0.29412">
        <ele>99.7</ele>
        <time>2014-08-31T08:45:56.000Z</time>
      </trkpt>
      <trkpt lat="46.04702" lon="-0.29394">
        <ele>99.6</ele>
        <time>2014-08-31T08:45:58.000Z</time>
      </trkpt>
      <trkpt lat="46.04693" lon="-0.29377">
        <ele>99.9</ele>
        <time>2014-08-31T08:46:00.000Z</time>
      </trkpt>
      <trkpt lat="46.04684" lon="-0.2936">
        <ele>100.2</ele>
        <time>2014-08-31T08:46:02.000Z</time>
      </trkpt>
      <trkpt lat="46.04675" lon="-0.29344">
        <ele>100.4</ele>
        <time>2014-08-31T08:46:04.000Z</time>
      </trkpt>
      <trkpt lat="46.04666" lon="-0.29328">
        <ele>100.2</ele>
        <time>2014-08-31T08:46:06.000Z</time>
      </trkpt>
      <trkpt lat="46.04656" lon="-0.29315">
        <ele>99.7</ele>
        <time>2014-08-31T08:46:08.000Z</time>
      </trkpt>
      <trkpt lat="46.04646" lon="-0.29304">
        <ele>99.2</ele>
        <time>2014-08-31T08:46:10.000Z</time>
      </trkpt>
      <trkpt lat="46.04637" lon="-0.29298">
        <ele>98.1</ele>
        <time>2014-08-31T08:46:12.000Z</time>
      </trkpt>
      <trkpt lat="46.04629" lon="-0.2929">
        <ele>97.7</ele>
        <time>2014-08-31T08:46:14.000Z</time>
      </trkpt>
      <trkpt lat="46.04623" lon="-0.29279">
        <ele>97.3</ele>
        <time>2014-08-31T08:46:16.000Z</time>
      </trkpt>
      <trkpt lat="46.04613" lon="-0.29269">
        <ele>96.8</ele>
        <time>2014-08-31T08:46:18.000Z</time>
      </trkpt>
      <trkpt lat="46.04603" lon="-0.29262">
        <ele>96.5</ele>
        <time>2014-08-31T08:46:20.000Z</time>
      </trkpt>
      <trkpt lat="46.04591" lon="-0.29254">
        <ele>95.9</ele>
        <time>2014-08-31T08:46:22.000Z</time>
      </trkpt>
      <trkpt lat="46.04579" lon="-0.29247">
        <ele>95.4</ele>
        <time>2014-08-31T08:46:24.000Z</time>
      </trkpt>
      <trkpt lat="46.0456" lon="-0.29234">
        <ele>94.7</ele>
        <time>2014-08-31T08:46:28.000Z</time>
      </trkpt>
      <trkpt lat="46.0455" lon="-0.29238">
        <ele>93.9</ele>
        <time>2014-08-31T08:46:30.000Z</time>
      </trkpt>
      <trkpt lat="46.04541" lon="-0.29244">
        <ele>93.2</ele>
        <time>2014-08-31T08:46:32.000Z</time>
      </trkpt>
      <trkpt lat="46.0453" lon="-0.29242">
        <ele>92.7</ele>
        <time>2014-08-31T08:46:34.000Z</time>
      </trkpt>
      <trkpt lat="46.04521" lon="-0.29235">
        <ele>92.3</ele>
        <time>2014-08-31T08:46:36.000Z</time>
      </trkpt>
      <trkpt lat="46.04511" lon="-0.29232">
        <ele>92</ele>
        <time>2014-08-31T08:46:38.000Z</time>
      </trkpt>
      <trkpt lat="46.04502" lon="-0.29238">
        <ele>91.9</ele>
        <time>2014-08-31T08:46:40.000Z</time>
      </trkpt>
      <trkpt lat="46.04494" lon="-0.29248">
        <ele>91.9</ele>
        <time>2014-08-31T08:46:42.000Z</time>
      </trkpt>
      <trkpt lat="46.04486" lon="-0.29261">
        <ele>91.7</ele>
        <time>2014-08-31T08:46:44.000Z</time>
      </trkpt>
      <trkpt lat="46.04477" lon="-0.29273">
        <ele>91.8</ele>
        <time>2014-08-31T08:46:46.000Z</time>
      </trkpt>
      <trkpt lat="46.04466" lon="-0.29286">
        <ele>92</ele>
        <time>2014-08-31T08:46:48.000Z</time>
      </trkpt>
      <trkpt lat="46.04456" lon="-0.29298">
        <ele>92.1</ele>
        <time>2014-08-31T08:46:50.000Z</time>
      </trkpt>
      <trkpt lat="46.04445" lon="-0.2931">
        <ele>92.4</ele>
        <time>2014-08-31T08:46:52.000Z</time>
      </trkpt>
      <trkpt lat="46.04436" lon="-0.29321">
        <ele>92.6</ele>
        <time>2014-08-31T08:46:54.000Z</time>
      </trkpt>
      <trkpt lat="46.04426" lon="-0.29325">
        <ele>92.6</ele>
        <time>2014-08-31T08:46:57.000Z</time>
      </trkpt>
      <trkpt lat="46.04419" lon="-0.29312">
        <ele>92.2</ele>
        <time>2014-08-31T08:47:00.000Z</time>
      </trkpt>
      <trkpt lat="46.04413" lon="-0.29295">
        <ele>91.8</ele>
        <time>2014-08-31T08:47:03.000Z</time>
      </trkpt>
      <trkpt lat="46.04408" lon="-0.29283">
        <ele>91.7</ele>
        <time>2014-08-31T08:47:05.000Z</time>
      </trkpt>
      <trkpt lat="46.04403" lon="-0.29269">
        <ele>91.5</ele>
        <time>2014-08-31T08:47:07.000Z</time>
      </trkpt>
      <trkpt lat="46.04398" lon="-0.29255">
        <ele>91.2</ele>
        <time>2014-08-31T08:47:09.000Z</time>
      </trkpt>
      <trkpt lat="46.04392" lon="-0.29242">
        <ele>91.1</ele>
        <time>2014-08-31T08:47:11.000Z</time>
      </trkpt>
      <trkpt lat="46.04387" lon="-0.29228">
        <ele>91.4</ele>
        <time>2014-08-31T08:47:13.000Z</time>
      </trkpt>
      <trkpt lat="46.04382" lon="-0.29215">
        <ele>91.1</ele>
        <time>2014-08-31T08:47:15.000Z</time>
      </trkpt>
      <trkpt lat="46.04377" lon="-0.29202">
        <ele>91.1</ele>
        <time>2014-08-31T08:47:17.000Z</time>
      </trkpt>
      <trkpt lat="46.04372" lon="-0.29188">
        <ele>92</ele>
        <time>2014-08-31T08:47:19.000Z</time>
      </trkpt>
      <trkpt lat="46.04367" lon="-0.29176">
        <ele>92.1</ele>
        <time>2014-08-31T08:47:21.000Z</time>
      </trkpt>
      <trkpt lat="46.04362" lon="-0.29165">
        <ele>91.7</ele>
        <time>2014-08-31T08:47:23.000Z</time>
      </trkpt>
      <trkpt lat="46.04355" lon="-0.29148">
        <ele>90.8</ele>
        <time>2014-08-31T08:47:26.000Z</time>
      </trkpt>
      <trkpt lat="46.04344" lon="-0.29126">
        <ele>89.1</ele>
        <time>2014-08-31T08:47:30.000Z</time>
      </trkpt>
      <trkpt lat="46.04337" lon="-0.29111">
        <ele>88.2</ele>
        <time>2014-08-31T08:47:33.000Z</time>
      </trkpt>
      <trkpt lat="46.0433" lon="-0.29096">
        <ele>87</ele>
        <time>2014-08-31T08:47:36.000Z</time>
      </trkpt>
      <trkpt lat="46.04322" lon="-0.29081">
        <ele>85.9</ele>
        <time>2014-08-31T08:47:39.000Z</time>
      </trkpt>
      <trkpt lat="46.04315" lon="-0.29065">
        <ele>84.7</ele>
        <time>2014-08-31T08:47:42.000Z</time>
      </trkpt>
      <trkpt lat="46.0431" lon="-0.29054">
        <ele>83.8</ele>
        <time>2014-08-31T08:47:44.000Z</time>
      </trkpt>
      <trkpt lat="46.04303" lon="-0.29041">
        <ele>82.7</ele>
        <time>2014-08-31T08:47:47.000Z</time>
      </trkpt>
      <trkpt lat="46.04295" lon="-0.29032">
        <ele>82.6</ele>
        <time>2014-08-31T08:47:50.000Z</time>
      </trkpt>
      <trkpt lat="46.04287" lon="-0.29024">
        <ele>82.1</ele>
        <time>2014-08-31T08:47:53.000Z</time>
      </trkpt>
      <trkpt lat="46.04278" lon="-0.29014">
        <ele>82.2</ele>
        <time>2014-08-31T08:47:56.000Z</time>
      </trkpt>
      <trkpt lat="46.04269" lon="-0.29004">
        <ele>82.1</ele>
        <time>2014-08-31T08:47:59.000Z</time>
      </trkpt>
      <trkpt lat="46.04262" lon="-0.28994">
        <ele>83</ele>
        <time>2014-08-31T08:48:02.000Z</time>
      </trkpt>
      <trkpt lat="46.04252" lon="-0.28985">
        <ele>83.1</ele>
        <time>2014-08-31T08:48:05.000Z</time>
      </trkpt>
      <trkpt lat="46.04242" lon="-0.28971">
        <ele>82.7</ele>
        <time>2014-08-31T08:48:08.000Z</time>
      </trkpt>
      <trkpt lat="46.04231" lon="-0.2896">
        <ele>82.1</ele>
        <time>2014-08-31T08:48:11.000Z</time>
      </trkpt>
      <trkpt lat="46.04222" lon="-0.2895">
        <ele>82.2</ele>
        <time>2014-08-31T08:48:14.000Z</time>
      </trkpt>
      <trkpt lat="46.04213" lon="-0.2894">
        <ele>82.5</ele>
        <time>2014-08-31T08:48:17.000Z</time>
      </trkpt>
      <trkpt lat="46.04204" lon="-0.28928">
        <ele>82.8</ele>
        <time>2014-08-31T08:48:20.000Z</time>
      </trkpt>
      <trkpt lat="46.04194" lon="-0.28917">
        <ele>83.8</ele>
        <time>2014-08-31T08:48:23.000Z</time>
      </trkpt>
      <trkpt lat="46.04187" lon="-0.28909">
        <ele>84.1</ele>
        <time>2014-08-31T08:48:25.000Z</time>
      </trkpt>
      <trkpt lat="46.04179" lon="-0.28902">
        <ele>84.2</ele>
        <time>2014-08-31T08:48:27.000Z</time>
      </trkpt>
      <trkpt lat="46.0416" lon="-0.28885">
        <ele>84.5</ele>
        <time>2014-08-31T08:48:33.000Z</time>
      </trkpt>
      <trkpt lat="46.04152" lon="-0.28877">
        <ele>84.9</ele>
        <time>2014-08-31T08:48:36.000Z</time>
      </trkpt>
      <trkpt lat="46.04144" lon="-0.28872">
        <ele>85.9</ele>
        <time>2014-08-31T08:48:39.000Z</time>
      </trkpt>
      <trkpt lat="46.04133" lon="-0.28879">
        <ele>86.6</ele>
        <time>2014-08-31T08:48:42.000Z</time>
      </trkpt>
      <trkpt lat="46.04123" lon="-0.28892">
        <ele>87.2</ele>
        <time>2014-08-31T08:48:45.000Z</time>
      </trkpt>
      <trkpt lat="46.04116" lon="-0.28904">
        <ele>87.6</ele>
        <time>2014-08-31T08:48:47.000Z</time>
      </trkpt>
      <trkpt lat="46.04108" lon="-0.28918">
        <ele>88.1</ele>
        <time>2014-08-31T08:48:49.000Z</time>
      </trkpt>
      <trkpt lat="46.04101" lon="-0.28933">
        <ele>87.9</ele>
        <time>2014-08-31T08:48:51.000Z</time>
      </trkpt>
      <trkpt lat="46.04092" lon="-0.28948">
        <ele>88</ele>
        <time>2014-08-31T08:48:53.000Z</time>
      </trkpt>
      <trkpt lat="46.04083" lon="-0.28964">
        <ele>88</ele>
        <time>2014-08-31T08:48:55.000Z</time>
      </trkpt>
      <trkpt lat="46.04074" lon="-0.2898">
        <ele>87.9</ele>
        <time>2014-08-31T08:48:57.000Z</time>
      </trkpt>
      <trkpt lat="46.04064" lon="-0.28995">
        <ele>87.8</ele>
        <time>2014-08-31T08:48:59.000Z</time>
      </trkpt>
      <trkpt lat="46.04054" lon="-0.2901">
        <ele>87.7</ele>
        <time>2014-08-31T08:49:01.000Z</time>
      </trkpt>
      <trkpt lat="46.04046" lon="-0.29026">
        <ele>87.4</ele>
        <time>2014-08-31T08:49:03.000Z</time>
      </trkpt>
      <trkpt lat="46.04037" lon="-0.29042">
        <ele>87</ele>
        <time>2014-08-31T08:49:05.000Z</time>
      </trkpt>
      <trkpt lat="46.04029" lon="-0.29058">
        <ele>86.6</ele>
        <time>2014-08-31T08:49:07.000Z</time>
      </trkpt>
      <trkpt lat="46.0402" lon="-0.29072">
        <ele>86.2</ele>
        <time>2014-08-31T08:49:09.000Z</time>
      </trkpt>
      <trkpt lat="46.04012" lon="-0.29085">
        <ele>85.9</ele>
        <time>2014-08-31T08:49:11.000Z</time>
      </trkpt>
      <trkpt lat="46.04007" lon="-0.291">
        <ele>86</ele>
        <time>2014-08-31T08:49:13.000Z</time>
      </trkpt>
      <trkpt lat="46.04001" lon="-0.29115">
        <ele>86.4</ele>
        <time>2014-08-31T08:49:15.000Z</time>
      </trkpt>
      <trkpt lat="46.03992" lon="-0.29128">
        <ele>86.8</ele>
        <time>2014-08-31T08:49:17.000Z</time>
      </trkpt>
      <trkpt lat="46.03983" lon="-0.29139">
        <ele>87.3</ele>
        <time>2014-08-31T08:49:19.000Z</time>
      </trkpt>
      <trkpt lat="46.03974" lon="-0.2915">
        <ele>87.8</ele>
        <time>2014-08-31T08:49:21.000Z</time>
      </trkpt>
      <trkpt lat="46.03965" lon="-0.29161">
        <ele>88.5</ele>
        <time>2014-08-31T08:49:23.000Z</time>
      </trkpt>
      <trkpt lat="46.03956" lon="-0.29171">
        <ele>89</ele>
        <time>2014-08-31T08:49:25.000Z</time>
      </trkpt>
      <trkpt lat="46.03947" lon="-0.29181">
        <ele>90.2</ele>
        <time>2014-08-31T08:49:27.000Z</time>
      </trkpt>
      <trkpt lat="46.03938" lon="-0.29191">
        <ele>91.3</ele>
        <time>2014-08-31T08:49:29.000Z</time>
      </trkpt>
      <trkpt lat="46.0392" lon="-0.29208">
        <ele>92.8</ele>
        <time>2014-08-31T08:49:33.000Z</time>
      </trkpt>
      <trkpt lat="46.0391" lon="-0.29216">
        <ele>93.1</ele>
        <time>2014-08-31T08:49:35.000Z</time>
      </trkpt>
      <trkpt lat="46.03902" lon="-0.29223">
        <ele>94.4</ele>
        <time>2014-08-31T08:49:37.000Z</time>
      </trkpt>
      <trkpt lat="46.03891" lon="-0.29233">
        <ele>95.9</ele>
        <time>2014-08-31T08:49:40.000Z</time>
      </trkpt>
      <trkpt lat="46.03881" lon="-0.29245">
        <ele>97.1</ele>
        <time>2014-08-31T08:49:43.000Z</time>
      </trkpt>
      <trkpt lat="46.03871" lon="-0.29252">
        <ele>97.7</ele>
        <time>2014-08-31T08:49:45.000Z</time>
      </trkpt>
      <trkpt lat="46.03862" lon="-0.2926">
        <ele>98.2</ele>
        <time>2014-08-31T08:49:47.000Z</time>
      </trkpt>
      <trkpt lat="46.03851" lon="-0.2927">
        <ele>99</ele>
        <time>2014-08-31T08:49:49.000Z</time>
      </trkpt>
      <trkpt lat="46.03842" lon="-0.29278">
        <ele>99.8</ele>
        <time>2014-08-31T08:49:51.000Z</time>
      </trkpt>
      <trkpt lat="46.03833" lon="-0.29288">
        <ele>100.6</ele>
        <time>2014-08-31T08:49:53.000Z</time>
      </trkpt>
      <trkpt lat="46.03824" lon="-0.29297">
        <ele>101.4</ele>
        <time>2014-08-31T08:49:55.000Z</time>
      </trkpt>
      <trkpt lat="46.03815" lon="-0.29305">
        <ele>102.2</ele>
        <time>2014-08-31T08:49:57.000Z</time>
      </trkpt>
      <trkpt lat="46.03806" lon="-0.29313">
        <ele>102.9</ele>
        <time>2014-08-31T08:49:59.000Z</time>
      </trkpt>
      <trkpt lat="46.03798" lon="-0.29321">
        <ele>103.3</ele>
        <time>2014-08-31T08:50:01.000Z</time>
      </trkpt>
      <trkpt lat="46.03789" lon="-0.29329">
        <ele>104</ele>
        <time>2014-08-31T08:50:03.000Z</time>
      </trkpt>
      <trkpt lat="46.0378" lon="-0.29337">
        <ele>104.2</ele>
        <time>2014-08-31T08:50:05.000Z</time>
      </trkpt>
      <trkpt lat="46.03771" lon="-0.29344">
        <ele>104.3</ele>
        <time>2014-08-31T08:50:07.000Z</time>
      </trkpt>
      <trkpt lat="46.03763" lon="-0.29351">
        <ele>104.3</ele>
        <time>2014-08-31T08:50:09.000Z</time>
      </trkpt>
      <trkpt lat="46.03754" lon="-0.29358">
        <ele>104.7</ele>
        <time>2014-08-31T08:50:11.000Z</time>
      </trkpt>
      <trkpt lat="46.03745" lon="-0.29364">
        <ele>104.8</ele>
        <time>2014-08-31T08:50:13.000Z</time>
      </trkpt>
      <trkpt lat="46.03736" lon="-0.29371">
        <ele>104.9</ele>
        <time>2014-08-31T08:50:15.000Z</time>
      </trkpt>
      <trkpt lat="46.03728" lon="-0.29376">
        <ele>105.1</ele>
        <time>2014-08-31T08:50:17.000Z</time>
      </trkpt>
      <trkpt lat="46.03716" lon="-0.29383">
        <ele>104.9</ele>
        <time>2014-08-31T08:50:20.000Z</time>
      </trkpt>
      <trkpt lat="46.03707" lon="-0.29386">
        <ele>105</ele>
        <time>2014-08-31T08:50:22.000Z</time>
      </trkpt>
      <trkpt lat="46.03696" lon="-0.29387">
        <ele>105</ele>
        <time>2014-08-31T08:50:24.000Z</time>
      </trkpt>
      <trkpt lat="46.03685" lon="-0.29385">
        <ele>104.9</ele>
        <time>2014-08-31T08:50:26.000Z</time>
      </trkpt>
      <trkpt lat="46.03673" lon="-0.29383">
        <ele>105.1</ele>
        <time>2014-08-31T08:50:28.000Z</time>
      </trkpt>
      <trkpt lat="46.03662" lon="-0.29383">
        <ele>105</ele>
        <time>2014-08-31T08:50:30.000Z</time>
      </trkpt>
      <trkpt lat="46.03637" lon="-0.2938">
        <ele>104.6</ele>
        <time>2014-08-31T08:50:34.000Z</time>
      </trkpt>
      <trkpt lat="46.03624" lon="-0.29375">
        <ele>104.5</ele>
        <time>2014-08-31T08:50:36.000Z</time>
      </trkpt>
      <trkpt lat="46.03612" lon="-0.29368">
        <ele>104.8</ele>
        <time>2014-08-31T08:50:38.000Z</time>
      </trkpt>
      <trkpt lat="46.036" lon="-0.29361">
        <ele>105</ele>
        <time>2014-08-31T08:50:40.000Z</time>
      </trkpt>
      <trkpt lat="46.03588" lon="-0.29351">
        <ele>104.9</ele>
        <time>2014-08-31T08:50:42.000Z</time>
      </trkpt>
      <trkpt lat="46.03576" lon="-0.2934">
        <ele>105.2</ele>
        <time>2014-08-31T08:50:44.000Z</time>
      </trkpt>
      <trkpt lat="46.03564" lon="-0.29331">
        <ele>105.2</ele>
        <time>2014-08-31T08:50:46.000Z</time>
      </trkpt>
      <trkpt lat="46.03551" lon="-0.29324">
        <ele>105.2</ele>
        <time>2014-08-31T08:50:48.000Z</time>
      </trkpt>
      <trkpt lat="46.03538" lon="-0.29318">
        <ele>105</ele>
        <time>2014-08-31T08:50:50.000Z</time>
      </trkpt>
      <trkpt lat="46.03525" lon="-0.29313">
        <ele>104.9</ele>
        <time>2014-08-31T08:50:52.000Z</time>
      </trkpt>
      <trkpt lat="46.03513" lon="-0.29308">
        <ele>104.4</ele>
        <time>2014-08-31T08:50:54.000Z</time>
      </trkpt>
      <trkpt lat="46.03499" lon="-0.29301">
        <ele>104.3</ele>
        <time>2014-08-31T08:50:56.000Z</time>
      </trkpt>
      <trkpt lat="46.03486" lon="-0.29293">
        <ele>103.9</ele>
        <time>2014-08-31T08:50:58.000Z</time>
      </trkpt>
      <trkpt lat="46.03475" lon="-0.29287">
        <ele>104.1</ele>
        <time>2014-08-31T08:51:00.000Z</time>
      </trkpt>
      <trkpt lat="46.03465" lon="-0.2929">
        <ele>103.4</ele>
        <time>2014-08-31T08:51:03.000Z</time>
      </trkpt>
      <trkpt lat="46.03465" lon="-0.29305">
        <ele>103.4</ele>
        <time>2014-08-31T08:51:06.000Z</time>
      </trkpt>
      <trkpt lat="46.03463" lon="-0.29325">
        <ele>103.2</ele>
        <time>2014-08-31T08:51:09.000Z</time>
      </trkpt>
      <trkpt lat="46.03459" lon="-0.29338">
        <ele>103.6</ele>
        <time>2014-08-31T08:51:11.000Z</time>
      </trkpt>
      <trkpt lat="46.03452" lon="-0.29348">
        <ele>103.3</ele>
        <time>2014-08-31T08:51:13.000Z</time>
      </trkpt>
      <trkpt lat="46.0346" lon="-0.29358">
        <ele>102.3</ele>
        <time>2014-08-31T08:51:19.000Z</time>
      </trkpt>
      <trkpt lat="46.03465" lon="-0.29373">
        <ele>102.1</ele>
        <time>2014-08-31T08:51:22.000Z</time>
      </trkpt>
      <trkpt lat="46.03468" lon="-0.29389">
        <ele>102</ele>
        <time>2014-08-31T08:51:25.000Z</time>
      </trkpt>
      <trkpt lat="46.03463" lon="-0.29401">
        <ele>101.5</ele>
        <time>2014-08-31T08:51:27.000Z</time>
      </trkpt>
      <trkpt lat="46.03467" lon="-0.29415">
        <ele>100.8</ele>
        <time>2014-08-31T08:51:31.000Z</time>
      </trkpt>
      <trkpt lat="46.03476" lon="-0.29438">
        <ele>100</ele>
        <time>2014-08-31T08:51:37.000Z</time>
      </trkpt>
      <trkpt lat="46.03478" lon="-0.29454">
        <ele>99.9</ele>
        <time>2014-08-31T08:51:40.000Z</time>
      </trkpt>
      <trkpt lat="46.03487" lon="-0.29467">
        <ele>99.4</ele>
        <time>2014-08-31T08:51:43.000Z</time>
      </trkpt>
      <trkpt lat="46.03494" lon="-0.29483">
        <ele>99.3</ele>
        <time>2014-08-31T08:51:46.000Z</time>
      </trkpt>
      <trkpt lat="46.035" lon="-0.29494">
        <ele>99.1</ele>
        <time>2014-08-31T08:51:48.000Z</time>
      </trkpt>
      <trkpt lat="46.03506" lon="-0.29506">
        <ele>98.5</ele>
        <time>2014-08-31T08:51:50.000Z</time>
      </trkpt>
      <trkpt lat="46.03512" lon="-0.29517">
        <ele>98.7</ele>
        <time>2014-08-31T08:51:52.000Z</time>
      </trkpt>
      <trkpt lat="46.0351" lon="-0.29533">
        <ele>99.4</ele>
        <time>2014-08-31T08:51:56.000Z</time>
      </trkpt>
      <trkpt lat="46.03502" lon="-0.29541">
        <ele>99.8</ele>
        <time>2014-08-31T08:51:58.000Z</time>
      </trkpt>
      <trkpt lat="46.03494" lon="-0.29551">
        <ele>100</ele>
        <time>2014-08-31T08:52:00.000Z</time>
      </trkpt>
      <trkpt lat="46.03484" lon="-0.2956">
        <ele>100</ele>
        <time>2014-08-31T08:52:02.000Z</time>
      </trkpt>
      <trkpt lat="46.03474" lon="-0.2957">
        <ele>100.2</ele>
        <time>2014-08-31T08:52:04.000Z</time>
      </trkpt>
      <trkpt lat="46.03463" lon="-0.29579">
        <ele>100.8</ele>
        <time>2014-08-31T08:52:06.000Z</time>
      </trkpt>
      <trkpt lat="46.03453" lon="-0.29589">
        <ele>101</ele>
        <time>2014-08-31T08:52:08.000Z</time>
      </trkpt>
      <trkpt lat="46.03443" lon="-0.296">
        <ele>101</ele>
        <time>2014-08-31T08:52:10.000Z</time>
      </trkpt>
      <trkpt lat="46.03437" lon="-0.29613">
        <ele>101.3</ele>
        <time>2014-08-31T08:52:13.000Z</time>
      </trkpt>
      <trkpt lat="46.03441" lon="-0.29628">
        <ele>101.5</ele>
        <time>2014-08-31T08:52:17.000Z</time>
      </trkpt>
      <trkpt lat="46.03448" lon="-0.2964">
        <ele>101.3</ele>
        <time>2014-08-31T08:52:20.000Z</time>
      </trkpt>
      <trkpt lat="46.03455" lon="-0.29656">
        <ele>100.9</ele>
        <time>2014-08-31T08:52:23.000Z</time>
      </trkpt>
      <trkpt lat="46.03464" lon="-0.2967">
        <ele>100.2</ele>
        <time>2014-08-31T08:52:26.000Z</time>
      </trkpt>
      <trkpt lat="46.03469" lon="-0.29682">
        <ele>100.6</ele>
        <time>2014-08-31T08:52:28.000Z</time>
      </trkpt>
      <trkpt lat="46.03476" lon="-0.29691">
        <ele>100.2</ele>
        <time>2014-08-31T08:52:30.000Z</time>
      </trkpt>
      <trkpt lat="46.03485" lon="-0.29704">
        <ele>100</ele>
        <time>2014-08-31T08:52:33.000Z</time>
      </trkpt>
      <trkpt lat="46.03506" lon="-0.29725">
        <ele>98.9</ele>
        <time>2014-08-31T08:52:39.000Z</time>
      </trkpt>
      <trkpt lat="46.03513" lon="-0.29741">
        <ele>99.2</ele>
        <time>2014-08-31T08:52:42.000Z</time>
      </trkpt>
      <trkpt lat="46.0352" lon="-0.29757">
        <ele>99.1</ele>
        <time>2014-08-31T08:52:45.000Z</time>
      </trkpt>
      <trkpt lat="46.03527" lon="-0.29772">
        <ele>99</ele>
        <time>2014-08-31T08:52:48.000Z</time>
      </trkpt>
      <trkpt lat="46.03532" lon="-0.29786">
        <ele>99</ele>
        <time>2014-08-31T08:52:51.000Z</time>
      </trkpt>
      <trkpt lat="46.03535" lon="-0.298">
        <ele>99</ele>
        <time>2014-08-31T08:52:54.000Z</time>
      </trkpt>
      <trkpt lat="46.03537" lon="-0.29817">
        <ele>98.1</ele>
        <time>2014-08-31T08:52:57.000Z</time>
      </trkpt>
      <trkpt lat="46.03531" lon="-0.29828">
        <ele>97.7</ele>
        <time>2014-08-31T08:52:59.000Z</time>
      </trkpt>
      <trkpt lat="46.03528" lon="-0.29846">
        <ele>97.2</ele>
        <time>2014-08-31T08:53:02.000Z</time>
      </trkpt>
      <trkpt lat="46.03518" lon="-0.29855">
        <ele>97.4</ele>
        <time>2014-08-31T08:53:05.000Z</time>
      </trkpt>
      <trkpt lat="46.03513" lon="-0.2987">
        <ele>96.4</ele>
        <time>2014-08-31T08:53:08.000Z</time>
      </trkpt>
      <trkpt lat="46.03516" lon="-0.29887">
        <ele>95.5</ele>
        <time>2014-08-31T08:53:11.000Z</time>
      </trkpt>
      <trkpt lat="46.03526" lon="-0.29885">
        <ele>95</ele>
        <time>2014-08-31T08:53:14.000Z</time>
      </trkpt>
      <trkpt lat="46.03536" lon="-0.29877">
        <ele>94.6</ele>
        <time>2014-08-31T08:53:17.000Z</time>
      </trkpt>
      <trkpt lat="46.03547" lon="-0.29872">
        <ele>94.2</ele>
        <time>2014-08-31T08:53:20.000Z</time>
      </trkpt>
      <trkpt lat="46.0356" lon="-0.29871">
        <ele>94.1</ele>
        <time>2014-08-31T08:53:23.000Z</time>
      </trkpt>
      <trkpt lat="46.03569" lon="-0.29873">
        <ele>93.9</ele>
        <time>2014-08-31T08:53:25.000Z</time>
      </trkpt>
      <trkpt lat="46.03579" lon="-0.29873">
        <ele>93.7</ele>
        <time>2014-08-31T08:53:27.000Z</time>
      </trkpt>
      <trkpt lat="46.0359" lon="-0.29872">
        <ele>93.4</ele>
        <time>2014-08-31T08:53:29.000Z</time>
      </trkpt>
      <trkpt lat="46.036" lon="-0.29868">
        <ele>94.3</ele>
        <time>2014-08-31T08:53:31.000Z</time>
      </trkpt>
      <trkpt lat="46.03608" lon="-0.29861">
        <ele>95.4</ele>
        <time>2014-08-31T08:53:33.000Z</time>
      </trkpt>
      <trkpt lat="46.03616" lon="-0.29856">
        <ele>95.2</ele>
        <time>2014-08-31T08:53:35.000Z</time>
      </trkpt>
      <trkpt lat="46.03635" lon="-0.29849">
        <ele>95.3</ele>
        <time>2014-08-31T08:53:39.000Z</time>
      </trkpt>
      <trkpt lat="46.03645" lon="-0.29849">
        <ele>95.5</ele>
        <time>2014-08-31T08:53:41.000Z</time>
      </trkpt>
      <trkpt lat="46.03655" lon="-0.29847">
        <ele>96.4</ele>
        <time>2014-08-31T08:53:43.000Z</time>
      </trkpt>
      <trkpt lat="46.03665" lon="-0.29848">
        <ele>96.8</ele>
        <time>2014-08-31T08:53:45.000Z</time>
      </trkpt>
      <trkpt lat="46.03674" lon="-0.29849">
        <ele>97.4</ele>
        <time>2014-08-31T08:53:47.000Z</time>
      </trkpt>
      <trkpt lat="46.03686" lon="-0.29852">
        <ele>97.6</ele>
        <time>2014-08-31T08:53:49.000Z</time>
      </trkpt>
      <trkpt lat="46.03696" lon="-0.29854">
        <ele>97.4</ele>
        <time>2014-08-31T08:53:51.000Z</time>
      </trkpt>
      <trkpt lat="46.03706" lon="-0.29853">
        <ele>98</ele>
        <time>2014-08-31T08:53:53.000Z</time>
      </trkpt>
      <trkpt lat="46.03717" lon="-0.29853">
        <ele>98.5</ele>
        <time>2014-08-31T08:53:55.000Z</time>
      </trkpt>
      <trkpt lat="46.03728" lon="-0.29855">
        <ele>98.2</ele>
        <time>2014-08-31T08:53:57.000Z</time>
      </trkpt>
      <trkpt lat="46.03739" lon="-0.29859">
        <ele>98.3</ele>
        <time>2014-08-31T08:53:59.000Z</time>
      </trkpt>
      <trkpt lat="46.0375" lon="-0.29864">
        <ele>98.7</ele>
        <time>2014-08-31T08:54:01.000Z</time>
      </trkpt>
      <trkpt lat="46.0376" lon="-0.29869">
        <ele>99.3</ele>
        <time>2014-08-31T08:54:03.000Z</time>
      </trkpt>
      <trkpt lat="46.03772" lon="-0.29876">
        <ele>99.5</ele>
        <time>2014-08-31T08:54:05.000Z</time>
      </trkpt>
      <trkpt lat="46.03784" lon="-0.29881">
        <ele>99.3</ele>
        <time>2014-08-31T08:54:07.000Z</time>
      </trkpt>
      <trkpt lat="46.03798" lon="-0.29886">
        <ele>99.1</ele>
        <time>2014-08-31T08:54:09.000Z</time>
      </trkpt>
      <trkpt lat="46.03809" lon="-0.29892">
        <ele>98.3</ele>
        <time>2014-08-31T08:54:11.000Z</time>
      </trkpt>
      <trkpt lat="46.03818" lon="-0.29901">
        <ele>97.4</ele>
        <time>2014-08-31T08:54:13.000Z</time>
      </trkpt>
      <trkpt lat="46.03821" lon="-0.29914">
        <ele>96.5</ele>
        <time>2014-08-31T08:54:15.000Z</time>
      </trkpt>
      <trkpt lat="46.03825" lon="-0.29929">
        <ele>95.2</ele>
        <time>2014-08-31T08:54:17.000Z</time>
      </trkpt>
      <trkpt lat="46.03828" lon="-0.29946">
        <ele>93.8</ele>
        <time>2014-08-31T08:54:20.000Z</time>
      </trkpt>
      <trkpt lat="46.03826" lon="-0.29962">
        <ele>92.4</ele>
        <time>2014-08-31T08:54:23.000Z</time>
      </trkpt>
      <trkpt lat="46.03822" lon="-0.29976">
        <ele>91.7</ele>
        <time>2014-08-31T08:54:25.000Z</time>
      </trkpt>
      <trkpt lat="46.0382" lon="-0.2999">
        <ele>90.9</ele>
        <time>2014-08-31T08:54:27.000Z</time>
      </trkpt>
      <trkpt lat="46.03816" lon="-0.30004">
        <ele>90</ele>
        <time>2014-08-31T08:54:29.000Z</time>
      </trkpt>
      <trkpt lat="46.03809" lon="-0.30018">
        <ele>89.2</ele>
        <time>2014-08-31T08:54:31.000Z</time>
      </trkpt>
      <trkpt lat="46.03801" lon="-0.30025">
        <ele>87.8</ele>
        <time>2014-08-31T08:54:33.000Z</time>
      </trkpt>
      <trkpt lat="46.03798" lon="-0.30037">
        <ele>86.6</ele>
        <time>2014-08-31T08:54:36.000Z</time>
      </trkpt>
      <trkpt lat="46.03807" lon="-0.30065">
        <ele>84.2</ele>
        <time>2014-08-31T08:54:40.000Z</time>
      </trkpt>
      <trkpt lat="46.03816" lon="-0.30074">
        <ele>84.1</ele>
        <time>2014-08-31T08:54:42.000Z</time>
      </trkpt>
      <trkpt lat="46.03823" lon="-0.30085">
        <ele>83.5</ele>
        <time>2014-08-31T08:54:44.000Z</time>
      </trkpt>
      <trkpt lat="46.03833" lon="-0.30095">
        <ele>83.2</ele>
        <time>2014-08-31T08:54:46.000Z</time>
      </trkpt>
      <trkpt lat="46.03842" lon="-0.30108">
        <ele>82.9</ele>
        <time>2014-08-31T08:54:48.000Z</time>
      </trkpt>
      <trkpt lat="46.03847" lon="-0.30122">
        <ele>82.1</ele>
        <time>2014-08-31T08:54:50.000Z</time>
      </trkpt>
      <trkpt lat="46.03841" lon="-0.3014">
        <ele>81.6</ele>
        <time>2014-08-31T08:54:52.000Z</time>
      </trkpt>
      <trkpt lat="46.03831" lon="-0.30153">
        <ele>82</ele>
        <time>2014-08-31T08:54:54.000Z</time>
      </trkpt>
      <trkpt lat="46.03819" lon="-0.30166">
        <ele>82.8</ele>
        <time>2014-08-31T08:54:56.000Z</time>
      </trkpt>
      <trkpt lat="46.03808" lon="-0.3018">
        <ele>83</ele>
        <time>2014-08-31T08:54:58.000Z</time>
      </trkpt>
      <trkpt lat="46.03798" lon="-0.30193">
        <ele>82.9</ele>
        <time>2014-08-31T08:55:00.000Z</time>
      </trkpt>
      <trkpt lat="46.03792" lon="-0.30209">
        <ele>82.3</ele>
        <time>2014-08-31T08:55:02.000Z</time>
      </trkpt>
      <trkpt lat="46.03785" lon="-0.30223">
        <ele>82</ele>
        <time>2014-08-31T08:55:04.000Z</time>
      </trkpt>
      <trkpt lat="46.03774" lon="-0.30234">
        <ele>81.9</ele>
        <time>2014-08-31T08:55:06.000Z</time>
      </trkpt>
      <trkpt lat="46.03765" lon="-0.30246">
        <ele>81.9</ele>
        <time>2014-08-31T08:55:08.000Z</time>
      </trkpt>
      <trkpt lat="46.03756" lon="-0.30258">
        <ele>82</ele>
        <time>2014-08-31T08:55:10.000Z</time>
      </trkpt>
      <trkpt lat="46.03746" lon="-0.30271">
        <ele>81.9</ele>
        <time>2014-08-31T08:55:12.000Z</time>
      </trkpt>
      <trkpt lat="46.03736" lon="-0.30284">
        <ele>81.8</ele>
        <time>2014-08-31T08:55:14.000Z</time>
      </trkpt>
      <trkpt lat="46.03727" lon="-0.30299">
        <ele>81.5</ele>
        <time>2014-08-31T08:55:16.000Z</time>
      </trkpt>
      <trkpt lat="46.03718" lon="-0.30316">
        <ele>81.3</ele>
        <time>2014-08-31T08:55:18.000Z</time>
      </trkpt>
      <trkpt lat="46.03707" lon="-0.30331">
        <ele>80.9</ele>
        <time>2014-08-31T08:55:20.000Z</time>
      </trkpt>
      <trkpt lat="46.03695" lon="-0.30346">
        <ele>80.7</ele>
        <time>2014-08-31T08:55:22.000Z</time>
      </trkpt>
      <trkpt lat="46.03684" lon="-0.30361">
        <ele>80.6</ele>
        <time>2014-08-31T08:55:24.000Z</time>
      </trkpt>
      <trkpt lat="46.03672" lon="-0.30374">
        <ele>80.2</ele>
        <time>2014-08-31T08:55:26.000Z</time>
      </trkpt>
      <trkpt lat="46.0366" lon="-0.30388">
        <ele>80.1</ele>
        <time>2014-08-31T08:55:28.000Z</time>
      </trkpt>
      <trkpt lat="46.03649" lon="-0.30403">
        <ele>79.8</ele>
        <time>2014-08-31T08:55:30.000Z</time>
      </trkpt>
      <trkpt lat="46.03639" lon="-0.30419">
        <ele>79.7</ele>
        <time>2014-08-31T08:55:32.000Z</time>
      </trkpt>
      <trkpt lat="46.03628" lon="-0.30436">
        <ele>79.9</ele>
        <time>2014-08-31T08:55:34.000Z</time>
      </trkpt>
      <trkpt lat="46.03618" lon="-0.30453">
        <ele>79.9</ele>
        <time>2014-08-31T08:55:36.000Z</time>
      </trkpt>
      <trkpt lat="46.03609" lon="-0.30472">
        <ele>79.9</ele>
        <time>2014-08-31T08:55:38.000Z</time>
      </trkpt>
      <trkpt lat="46.03594" lon="-0.30505">
        <ele>79.5</ele>
        <time>2014-08-31T08:55:42.000Z</time>
      </trkpt>
      <trkpt lat="46.03589" lon="-0.30521">
        <ele>79.4</ele>
        <time>2014-08-31T08:55:44.000Z</time>
      </trkpt>
      <trkpt lat="46.03587" lon="-0.30539">
        <ele>79.3</ele>
        <time>2014-08-31T08:55:46.000Z</time>
      </trkpt>
      <trkpt lat="46.03587" lon="-0.30557">
        <ele>78.9</ele>
        <time>2014-08-31T08:55:48.000Z</time>
      </trkpt>
      <trkpt lat="46.03586" lon="-0.30578">
        <ele>78.4</ele>
        <time>2014-08-31T08:55:50.000Z</time>
      </trkpt>
      <trkpt lat="46.03583" lon="-0.306">
        <ele>77.6</ele>
        <time>2014-08-31T08:55:52.000Z</time>
      </trkpt>
      <trkpt lat="46.03579" lon="-0.30626">
        <ele>76.9</ele>
        <time>2014-08-31T08:55:54.000Z</time>
      </trkpt>
      <trkpt lat="46.03574" lon="-0.30651">
        <ele>76</ele>
        <time>2014-08-31T08:55:56.000Z</time>
      </trkpt>
      <trkpt lat="46.0357" lon="-0.30674">
        <ele>75.1</ele>
        <time>2014-08-31T08:55:58.000Z</time>
      </trkpt>
      <trkpt lat="46.03563" lon="-0.30698">
        <ele>74.2</ele>
        <time>2014-08-31T08:56:00.000Z</time>
      </trkpt>
      <trkpt lat="46.03559" lon="-0.30711">
        <ele>74.6</ele>
        <time>2014-08-31T08:56:01.000Z</time>
      </trkpt>
      <trkpt lat="46.03551" lon="-0.30733">
        <ele>74</ele>
        <time>2014-08-31T08:56:03.000Z</time>
      </trkpt>
      <trkpt lat="46.03541" lon="-0.30753">
        <ele>75.6</ele>
        <time>2014-08-31T08:56:05.000Z</time>
      </trkpt>
      <trkpt lat="46.0353" lon="-0.30771">
        <ele>76.1</ele>
        <time>2014-08-31T08:56:07.000Z</time>
      </trkpt>
      <trkpt lat="46.03521" lon="-0.30788">
        <ele>75.9</ele>
        <time>2014-08-31T08:56:09.000Z</time>
      </trkpt>
      <trkpt lat="46.03513" lon="-0.30808">
        <ele>74.2</ele>
        <time>2014-08-31T08:56:11.000Z</time>
      </trkpt>
      <trkpt lat="46.03507" lon="-0.3083">
        <ele>72.4</ele>
        <time>2014-08-31T08:56:13.000Z</time>
      </trkpt>
      <trkpt lat="46.03503" lon="-0.30853">
        <ele>70.7</ele>
        <time>2014-08-31T08:56:15.000Z</time>
      </trkpt>
      <trkpt lat="46.03498" lon="-0.30876">
        <ele>68.8</ele>
        <time>2014-08-31T08:56:17.000Z</time>
      </trkpt>
      <trkpt lat="46.03493" lon="-0.309">
        <ele>67.5</ele>
        <time>2014-08-31T08:56:19.000Z</time>
      </trkpt>
      <trkpt lat="46.03491" lon="-0.30924">
        <ele>66.3</ele>
        <time>2014-08-31T08:56:21.000Z</time>
      </trkpt>
      <trkpt lat="46.0349" lon="-0.30946">
        <ele>64.8</ele>
        <time>2014-08-31T08:56:23.000Z</time>
      </trkpt>
      <trkpt lat="46.03487" lon="-0.3097">
        <ele>63.2</ele>
        <time>2014-08-31T08:56:25.000Z</time>
      </trkpt>
      <trkpt lat="46.03483" lon="-0.3099">
        <ele>61.8</ele>
        <time>2014-08-31T08:56:27.000Z</time>
      </trkpt>
      <trkpt lat="46.03477" lon="-0.31">
        <ele>60.2</ele>
        <time>2014-08-31T08:56:29.000Z</time>
      </trkpt>
      <trkpt lat="46.03467" lon="-0.31006">
        <ele>58.5</ele>
        <time>2014-08-31T08:56:32.000Z</time>
      </trkpt>
      <trkpt lat="46.03458" lon="-0.31012">
        <ele>57.4</ele>
        <time>2014-08-31T08:56:34.000Z</time>
      </trkpt>
      <trkpt lat="46.03452" lon="-0.3103">
        <ele>57</ele>
        <time>2014-08-31T08:56:37.000Z</time>
      </trkpt>
      <trkpt lat="46.03447" lon="-0.31042">
        <ele>57.9</ele>
        <time>2014-08-31T08:56:39.000Z</time>
      </trkpt>
      <trkpt lat="46.03435" lon="-0.31066">
        <ele>59.3</ele>
        <time>2014-08-31T08:56:43.000Z</time>
      </trkpt>
      <trkpt lat="46.03431" lon="-0.31078">
        <ele>59.9</ele>
        <time>2014-08-31T08:56:45.000Z</time>
      </trkpt>
      <trkpt lat="46.03427" lon="-0.31091">
        <ele>60.6</ele>
        <time>2014-08-31T08:56:47.000Z</time>
      </trkpt>
      <trkpt lat="46.03424" lon="-0.31103">
        <ele>61.2</ele>
        <time>2014-08-31T08:56:49.000Z</time>
      </trkpt>
      <trkpt lat="46.03421" lon="-0.31116">
        <ele>61.9</ele>
        <time>2014-08-31T08:56:51.000Z</time>
      </trkpt>
      <trkpt lat="46.03417" lon="-0.31133">
        <ele>62.3</ele>
        <time>2014-08-31T08:56:54.000Z</time>
      </trkpt>
      <trkpt lat="46.03411" lon="-0.3115">
        <ele>63.2</ele>
        <time>2014-08-31T08:56:57.000Z</time>
      </trkpt>
      <trkpt lat="46.03407" lon="-0.31165">
        <ele>64.5</ele>
        <time>2014-08-31T08:57:00.000Z</time>
      </trkpt>
      <trkpt lat="46.03402" lon="-0.3118">
        <ele>65.6</ele>
        <time>2014-08-31T08:57:03.000Z</time>
      </trkpt>
      <trkpt lat="46.034" lon="-0.31195">
        <ele>66.7</ele>
        <time>2014-08-31T08:57:06.000Z</time>
      </trkpt>
      <trkpt lat="46.034" lon="-0.31209">
        <ele>67</ele>
        <time>2014-08-31T08:57:09.000Z</time>
      </trkpt>
      <trkpt lat="46.03397" lon="-0.31226">
        <ele>67.9</ele>
        <time>2014-08-31T08:57:12.000Z</time>
      </trkpt>
      <trkpt lat="46.03395" lon="-0.31242">
        <ele>68.5</ele>
        <time>2014-08-31T08:57:15.000Z</time>
      </trkpt>
      <trkpt lat="46.03394" lon="-0.31259">
        <ele>69.4</ele>
        <time>2014-08-31T08:57:18.000Z</time>
      </trkpt>
      <trkpt lat="46.03394" lon="-0.31276">
        <ele>70.1</ele>
        <time>2014-08-31T08:57:21.000Z</time>
      </trkpt>
      <trkpt lat="46.03393" lon="-0.31292">
        <ele>71.1</ele>
        <time>2014-08-31T08:57:24.000Z</time>
      </trkpt>
      <trkpt lat="46.0339" lon="-0.31308">
        <ele>72</ele>
        <time>2014-08-31T08:57:27.000Z</time>
      </trkpt>
      <trkpt lat="46.03388" lon="-0.31322">
        <ele>73.1</ele>
        <time>2014-08-31T08:57:30.000Z</time>
      </trkpt>
      <trkpt lat="46.03384" lon="-0.31336">
        <ele>73.5</ele>
        <time>2014-08-31T08:57:33.000Z</time>
      </trkpt>
      <trkpt lat="46.03381" lon="-0.31352">
        <ele>74.3</ele>
        <time>2014-08-31T08:57:36.000Z</time>
      </trkpt>
      <trkpt lat="46.03377" lon="-0.31368">
        <ele>74.9</ele>
        <time>2014-08-31T08:57:39.000Z</time>
      </trkpt>
      <trkpt lat="46.03372" lon="-0.31382">
        <ele>75.1</ele>
        <time>2014-08-31T08:57:42.000Z</time>
      </trkpt>
      <trkpt lat="46.03365" lon="-0.31409">
        <ele>76.3</ele>
        <time>2014-08-31T08:57:48.000Z</time>
      </trkpt>
      <trkpt lat="46.03362" lon="-0.31424">
        <ele>76.6</ele>
        <time>2014-08-31T08:57:51.000Z</time>
      </trkpt>
      <trkpt lat="46.0336" lon="-0.31443">
        <ele>76.7</ele>
        <time>2014-08-31T08:57:54.000Z</time>
      </trkpt>
      <trkpt lat="46.03359" lon="-0.31456">
        <ele>76.3</ele>
        <time>2014-08-31T08:57:56.000Z</time>
      </trkpt>
      <trkpt lat="46.03359" lon="-0.3147">
        <ele>75.9</ele>
        <time>2014-08-31T08:57:58.000Z</time>
      </trkpt>
      <trkpt lat="46.03358" lon="-0.31484">
        <ele>75.8</ele>
        <time>2014-08-31T08:58:00.000Z</time>
      </trkpt>
      <trkpt lat="46.03356" lon="-0.31498">
        <ele>75.8</ele>
        <time>2014-08-31T08:58:02.000Z</time>
      </trkpt>
      <trkpt lat="46.03354" lon="-0.31515">
        <ele>76.6</ele>
        <time>2014-08-31T08:58:05.000Z</time>
      </trkpt>
      <trkpt lat="46.03352" lon="-0.3153">
        <ele>76.5</ele>
        <time>2014-08-31T08:58:07.000Z</time>
      </trkpt>
      <trkpt lat="46.03351" lon="-0.31545">
        <ele>76.4</ele>
        <time>2014-08-31T08:58:09.000Z</time>
      </trkpt>
      <trkpt lat="46.0335" lon="-0.31561">
        <ele>76.8</ele>
        <time>2014-08-31T08:58:11.000Z</time>
      </trkpt>
      <trkpt lat="46.03349" lon="-0.31575">
        <ele>77.3</ele>
        <time>2014-08-31T08:58:13.000Z</time>
      </trkpt>
      <trkpt lat="46.03348" lon="-0.3159">
        <ele>78</ele>
        <time>2014-08-31T08:58:15.000Z</time>
      </trkpt>
      <trkpt lat="46.03346" lon="-0.31604">
        <ele>79</ele>
        <time>2014-08-31T08:58:17.000Z</time>
      </trkpt>
      <trkpt lat="46.03345" lon="-0.31618">
        <ele>79.5</ele>
        <time>2014-08-31T08:58:19.000Z</time>
      </trkpt>
      <trkpt lat="46.03344" lon="-0.31632">
        <ele>80</ele>
        <time>2014-08-31T08:58:21.000Z</time>
      </trkpt>
      <trkpt lat="46.03343" lon="-0.31648">
        <ele>80.3</ele>
        <time>2014-08-31T08:58:23.000Z</time>
      </trkpt>
      <trkpt lat="46.03342" lon="-0.31663">
        <ele>81.1</ele>
        <time>2014-08-31T08:58:25.000Z</time>
      </trkpt>
      <trkpt lat="46.0334" lon="-0.31679">
        <ele>82</ele>
        <time>2014-08-31T08:58:27.000Z</time>
      </trkpt>
      <trkpt lat="46.03338" lon="-0.31695">
        <ele>83.2</ele>
        <time>2014-08-31T08:58:29.000Z</time>
      </trkpt>
      <trkpt lat="46.03337" lon="-0.3171">
        <ele>84.4</ele>
        <time>2014-08-31T08:58:31.000Z</time>
      </trkpt>
      <trkpt lat="46.03336" lon="-0.31724">
        <ele>85.6</ele>
        <time>2014-08-31T08:58:33.000Z</time>
      </trkpt>
      <trkpt lat="46.03335" lon="-0.31739">
        <ele>86.4</ele>
        <time>2014-08-31T08:58:35.000Z</time>
      </trkpt>
      <trkpt lat="46.03333" lon="-0.31754">
        <ele>87.6</ele>
        <time>2014-08-31T08:58:37.000Z</time>
      </trkpt>
      <trkpt lat="46.03331" lon="-0.31771">
        <ele>88.4</ele>
        <time>2014-08-31T08:58:39.000Z</time>
      </trkpt>
      <trkpt lat="46.0333" lon="-0.31787">
        <ele>89.3</ele>
        <time>2014-08-31T08:58:41.000Z</time>
      </trkpt>
      <trkpt lat="46.03328" lon="-0.31803">
        <ele>89.8</ele>
        <time>2014-08-31T08:58:43.000Z</time>
      </trkpt>
      <trkpt lat="46.03322" lon="-0.31833">
        <ele>90.3</ele>
        <time>2014-08-31T08:58:47.000Z</time>
      </trkpt>
      <trkpt lat="46.03318" lon="-0.31847">
        <ele>90.5</ele>
        <time>2014-08-31T08:58:49.000Z</time>
      </trkpt>
      <trkpt lat="46.03313" lon="-0.3186">
        <ele>90.7</ele>
        <time>2014-08-31T08:58:51.000Z</time>
      </trkpt>
      <trkpt lat="46.03309" lon="-0.31874">
        <ele>91.3</ele>
        <time>2014-08-31T08:58:53.000Z</time>
      </trkpt>
      <trkpt lat="46.03305" lon="-0.31887">
        <ele>91.7</ele>
        <time>2014-08-31T08:58:55.000Z</time>
      </trkpt>
      <trkpt lat="46.033" lon="-0.31899">
        <ele>92</ele>
        <time>2014-08-31T08:58:57.000Z</time>
      </trkpt>
      <trkpt lat="46.03293" lon="-0.31908">
        <ele>92.5</ele>
        <time>2014-08-31T08:58:59.000Z</time>
      </trkpt>
      <trkpt lat="46.03283" lon="-0.31911">
        <ele>93.2</ele>
        <time>2014-08-31T08:59:01.000Z</time>
      </trkpt>
      <trkpt lat="46.03274" lon="-0.31911">
        <ele>93.9</ele>
        <time>2014-08-31T08:59:03.000Z</time>
      </trkpt>
      <trkpt lat="46.03265" lon="-0.31913">
        <ele>94.4</ele>
        <time>2014-08-31T08:59:05.000Z</time>
      </trkpt>
      <trkpt lat="46.03256" lon="-0.31916">
        <ele>94.8</ele>
        <time>2014-08-31T08:59:07.000Z</time>
      </trkpt>
      <trkpt lat="46.03246" lon="-0.31919">
        <ele>94.8</ele>
        <time>2014-08-31T08:59:09.000Z</time>
      </trkpt>
      <trkpt lat="46.03236" lon="-0.31922">
        <ele>95.1</ele>
        <time>2014-08-31T08:59:11.000Z</time>
      </trkpt>
      <trkpt lat="46.03226" lon="-0.31925">
        <ele>95.3</ele>
        <time>2014-08-31T08:59:13.000Z</time>
      </trkpt>
      <trkpt lat="46.03215" lon="-0.31928">
        <ele>95.5</ele>
        <time>2014-08-31T08:59:15.000Z</time>
      </trkpt>
      <trkpt lat="46.03204" lon="-0.31932">
        <ele>95.7</ele>
        <time>2014-08-31T08:59:17.000Z</time>
      </trkpt>
      <trkpt lat="46.03193" lon="-0.31937">
        <ele>96.1</ele>
        <time>2014-08-31T08:59:19.000Z</time>
      </trkpt>
      <trkpt lat="46.03183" lon="-0.31944">
        <ele>96</ele>
        <time>2014-08-31T08:59:21.000Z</time>
      </trkpt>
      <trkpt lat="46.03173" lon="-0.31953">
        <ele>96</ele>
        <time>2014-08-31T08:59:23.000Z</time>
      </trkpt>
      <trkpt lat="46.03162" lon="-0.31963">
        <ele>95.8</ele>
        <time>2014-08-31T08:59:25.000Z</time>
      </trkpt>
      <trkpt lat="46.03152" lon="-0.31973">
        <ele>95.6</ele>
        <time>2014-08-31T08:59:27.000Z</time>
      </trkpt>
      <trkpt lat="46.03141" lon="-0.31983">
        <ele>95.4</ele>
        <time>2014-08-31T08:59:29.000Z</time>
      </trkpt>
      <trkpt lat="46.0313" lon="-0.31994">
        <ele>95.2</ele>
        <time>2014-08-31T08:59:31.000Z</time>
      </trkpt>
      <trkpt lat="46.03119" lon="-0.32004">
        <ele>94.8</ele>
        <time>2014-08-31T08:59:33.000Z</time>
      </trkpt>
      <trkpt lat="46.03107" lon="-0.32015">
        <ele>94.3</ele>
        <time>2014-08-31T08:59:35.000Z</time>
      </trkpt>
      <trkpt lat="46.03093" lon="-0.32025">
        <ele>93.7</ele>
        <time>2014-08-31T08:59:37.000Z</time>
      </trkpt>
      <trkpt lat="46.03079" lon="-0.32036">
        <ele>93</ele>
        <time>2014-08-31T08:59:39.000Z</time>
      </trkpt>
      <trkpt lat="46.03064" lon="-0.32047">
        <ele>92</ele>
        <time>2014-08-31T08:59:41.000Z</time>
      </trkpt>
      <trkpt lat="46.03048" lon="-0.32057">
        <ele>90.9</ele>
        <time>2014-08-31T08:59:43.000Z</time>
      </trkpt>
      <trkpt lat="46.03032" lon="-0.32067">
        <ele>89.8</ele>
        <time>2014-08-31T08:59:45.000Z</time>
      </trkpt>
      <trkpt lat="46.02999" lon="-0.32086">
        <ele>87.1</ele>
        <time>2014-08-31T08:59:49.000Z</time>
      </trkpt>
      <trkpt lat="46.02984" lon="-0.32093">
        <ele>85.8</ele>
        <time>2014-08-31T08:59:51.000Z</time>
      </trkpt>
      <trkpt lat="46.02969" lon="-0.32101">
        <ele>85.1</ele>
        <time>2014-08-31T08:59:53.000Z</time>
      </trkpt>
      <trkpt lat="46.02954" lon="-0.3211">
        <ele>83.9</ele>
        <time>2014-08-31T08:59:55.000Z</time>
      </trkpt>
      <trkpt lat="46.02937" lon="-0.32118">
        <ele>82.5</ele>
        <time>2014-08-31T08:59:57.000Z</time>
      </trkpt>
      <trkpt lat="46.02922" lon="-0.32124">
        <ele>81.2</ele>
        <time>2014-08-31T08:59:59.000Z</time>
      </trkpt>
      <trkpt lat="46.02909" lon="-0.32129">
        <ele>79.8</ele>
        <time>2014-08-31T09:00:01.000Z</time>
      </trkpt>
      <trkpt lat="46.029" lon="-0.32129">
        <ele>78.4</ele>
        <time>2014-08-31T09:00:03.000Z</time>
      </trkpt>
      <trkpt lat="46.02898" lon="-0.32112">
        <ele>76.9</ele>
        <time>2014-08-31T09:00:06.000Z</time>
      </trkpt>
      <trkpt lat="46.02903" lon="-0.32095">
        <ele>75.8</ele>
        <time>2014-08-31T09:00:09.000Z</time>
      </trkpt>
      <trkpt lat="46.02907" lon="-0.32079">
        <ele>75.3</ele>
        <time>2014-08-31T09:00:12.000Z</time>
      </trkpt>
      <trkpt lat="46.02911" lon="-0.32062">
        <ele>75.6</ele>
        <time>2014-08-31T09:00:15.000Z</time>
      </trkpt>
      <trkpt lat="46.02913" lon="-0.32046">
        <ele>75.3</ele>
        <time>2014-08-31T09:00:18.000Z</time>
      </trkpt>
      <trkpt lat="46.02916" lon="-0.32031">
        <ele>75.4</ele>
        <time>2014-08-31T09:00:21.000Z</time>
      </trkpt>
      <trkpt lat="46.0292" lon="-0.32016">
        <ele>75.5</ele>
        <time>2014-08-31T09:00:24.000Z</time>
      </trkpt>
      <trkpt lat="46.02923" lon="-0.32001">
        <ele>75.8</ele>
        <time>2014-08-31T09:00:27.000Z</time>
      </trkpt>
      <trkpt lat="46.02927" lon="-0.31986">
        <ele>75.8</ele>
        <time>2014-08-31T09:00:30.000Z</time>
      </trkpt>
      <trkpt lat="46.02929" lon="-0.3197">
        <ele>75.7</ele>
        <time>2014-08-31T09:00:33.000Z</time>
      </trkpt>
      <trkpt lat="46.02931" lon="-0.31956">
        <ele>75.5</ele>
        <time>2014-08-31T09:00:36.000Z</time>
      </trkpt>
      <trkpt lat="46.02935" lon="-0.31942">
        <ele>75.4</ele>
        <time>2014-08-31T09:00:39.000Z</time>
      </trkpt>
      <trkpt lat="46.02939" lon="-0.31926">
        <ele>76</ele>
        <time>2014-08-31T09:00:42.000Z</time>
      </trkpt>
      <trkpt lat="46.02942" lon="-0.3191">
        <ele>77</ele>
        <time>2014-08-31T09:00:45.000Z</time>
      </trkpt>
      <trkpt lat="46.02946" lon="-0.31896">
        <ele>77.8</ele>
        <time>2014-08-31T09:00:48.000Z</time>
      </trkpt>
      <trkpt lat="46.02951" lon="-0.31869">
        <ele>79.7</ele>
        <time>2014-08-31T09:00:54.000Z</time>
      </trkpt>
      <trkpt lat="46.02954" lon="-0.31855">
        <ele>80.3</ele>
        <time>2014-08-31T09:00:57.000Z</time>
      </trkpt>
      <trkpt lat="46.02957" lon="-0.31841">
        <ele>81.1</ele>
        <time>2014-08-31T09:01:00.000Z</time>
      </trkpt>
      <trkpt lat="46.0296" lon="-0.31827">
        <ele>81.6</ele>
        <time>2014-08-31T09:01:03.000Z</time>
      </trkpt>
      <trkpt lat="46.02963" lon="-0.31812">
        <ele>81.7</ele>
        <time>2014-08-31T09:01:06.000Z</time>
      </trkpt>
      <trkpt lat="46.02967" lon="-0.31796">
        <ele>82.1</ele>
        <time>2014-08-31T09:01:09.000Z</time>
      </trkpt>
      <trkpt lat="46.02971" lon="-0.31782">
        <ele>82.3</ele>
        <time>2014-08-31T09:01:12.000Z</time>
      </trkpt>
      <trkpt lat="46.02976" lon="-0.31767">
        <ele>82.6</ele>
        <time>2014-08-31T09:01:15.000Z</time>
      </trkpt>
      <trkpt lat="46.02981" lon="-0.31753">
        <ele>82.9</ele>
        <time>2014-08-31T09:01:18.000Z</time>
      </trkpt>
      <trkpt lat="46.02987" lon="-0.31739">
        <ele>83.1</ele>
        <time>2014-08-31T09:01:21.000Z</time>
      </trkpt>
      <trkpt lat="46.02993" lon="-0.31725">
        <ele>83.2</ele>
        <time>2014-08-31T09:01:24.000Z</time>
      </trkpt>
      <trkpt lat="46.02999" lon="-0.31709">
        <ele>83</ele>
        <time>2014-08-31T09:01:27.000Z</time>
      </trkpt>
      <trkpt lat="46.03005" lon="-0.31693">
        <ele>83.3</ele>
        <time>2014-08-31T09:01:30.000Z</time>
      </trkpt>
      <trkpt lat="46.03012" lon="-0.31676">
        <ele>83.6</ele>
        <time>2014-08-31T09:01:33.000Z</time>
      </trkpt>
      <trkpt lat="46.03016" lon="-0.31664">
        <ele>83.8</ele>
        <time>2014-08-31T09:01:35.000Z</time>
      </trkpt>
      <trkpt lat="46.03021" lon="-0.31646">
        <ele>84.2</ele>
        <time>2014-08-31T09:01:38.000Z</time>
      </trkpt>
      <trkpt lat="46.03025" lon="-0.31629">
        <ele>84.4</ele>
        <time>2014-08-31T09:01:41.000Z</time>
      </trkpt>
      <trkpt lat="46.0303" lon="-0.31612">
        <ele>84.9</ele>
        <time>2014-08-31T09:01:44.000Z</time>
      </trkpt>
      <trkpt lat="46.03035" lon="-0.31595">
        <ele>85.4</ele>
        <time>2014-08-31T09:01:47.000Z</time>
      </trkpt>
      <trkpt lat="46.0304" lon="-0.31577">
        <ele>85.6</ele>
        <time>2014-08-31T09:01:50.000Z</time>
      </trkpt>
      <trkpt lat="46.03046" lon="-0.31546">
        <ele>85.8</ele>
        <time>2014-08-31T09:01:55.000Z</time>
      </trkpt>
      <trkpt lat="46.03048" lon="-0.31533">
        <ele>86</ele>
        <time>2014-08-31T09:01:57.000Z</time>
      </trkpt>
      <trkpt lat="46.0305" lon="-0.3152">
        <ele>86.4</ele>
        <time>2014-08-31T09:01:59.000Z</time>
      </trkpt>
      <trkpt lat="46.03052" lon="-0.31507">
        <ele>86.9</ele>
        <time>2014-08-31T09:02:01.000Z</time>
      </trkpt>
      <trkpt lat="46.03054" lon="-0.31493">
        <ele>87.2</ele>
        <time>2014-08-31T09:02:03.000Z</time>
      </trkpt>
      <trkpt lat="46.03057" lon="-0.3148">
        <ele>87.3</ele>
        <time>2014-08-31T09:02:05.000Z</time>
      </trkpt>
      <trkpt lat="46.03059" lon="-0.31466">
        <ele>87.4</ele>
        <time>2014-08-31T09:02:07.000Z</time>
      </trkpt>
      <trkpt lat="46.03061" lon="-0.31453">
        <ele>87.5</ele>
        <time>2014-08-31T09:02:09.000Z</time>
      </trkpt>
      <trkpt lat="46.03063" lon="-0.31439">
        <ele>87.7</ele>
        <time>2014-08-31T09:02:11.000Z</time>
      </trkpt>
      <trkpt lat="46.03066" lon="-0.31425">
        <ele>88.1</ele>
        <time>2014-08-31T09:02:13.000Z</time>
      </trkpt>
      <trkpt lat="46.03069" lon="-0.31411">
        <ele>88.3</ele>
        <time>2014-08-31T09:02:15.000Z</time>
      </trkpt>
      <trkpt lat="46.03072" lon="-0.31397">
        <ele>88.4</ele>
        <time>2014-08-31T09:02:17.000Z</time>
      </trkpt>
      <trkpt lat="46.03074" lon="-0.31383">
        <ele>88.5</ele>
        <time>2014-08-31T09:02:19.000Z</time>
      </trkpt>
      <trkpt lat="46.03077" lon="-0.31369">
        <ele>88.9</ele>
        <time>2014-08-31T09:02:21.000Z</time>
      </trkpt>
      <trkpt lat="46.03079" lon="-0.31355">
        <ele>89.3</ele>
        <time>2014-08-31T09:02:23.000Z</time>
      </trkpt>
      <trkpt lat="46.03082" lon="-0.31341">
        <ele>89.6</ele>
        <time>2014-08-31T09:02:25.000Z</time>
      </trkpt>
      <trkpt lat="46.03085" lon="-0.31327">
        <ele>89.9</ele>
        <time>2014-08-31T09:02:27.000Z</time>
      </trkpt>
      <trkpt lat="46.03088" lon="-0.31314">
        <ele>90</ele>
        <time>2014-08-31T09:02:29.000Z</time>
      </trkpt>
      <trkpt lat="46.03091" lon="-0.313">
        <ele>89.9</ele>
        <time>2014-08-31T09:02:31.000Z</time>
      </trkpt>
      <trkpt lat="46.03094" lon="-0.31286">
        <ele>89.7</ele>
        <time>2014-08-31T09:02:33.000Z</time>
      </trkpt>
      <trkpt lat="46.03098" lon="-0.31272">
        <ele>89.6</ele>
        <time>2014-08-31T09:02:35.000Z</time>
      </trkpt>
      <trkpt lat="46.03101" lon="-0.31257">
        <ele>89.4</ele>
        <time>2014-08-31T09:02:37.000Z</time>
      </trkpt>
      <trkpt lat="46.03105" lon="-0.31242">
        <ele>89.2</ele>
        <time>2014-08-31T09:02:39.000Z</time>
      </trkpt>
      <trkpt lat="46.03108" lon="-0.31228">
        <ele>89.1</ele>
        <time>2014-08-31T09:02:41.000Z</time>
      </trkpt>
      <trkpt lat="46.03112" lon="-0.31214">
        <ele>89.3</ele>
        <time>2014-08-31T09:02:43.000Z</time>
      </trkpt>
      <trkpt lat="46.03115" lon="-0.31199">
        <ele>89.3</ele>
        <time>2014-08-31T09:02:45.000Z</time>
      </trkpt>
      <trkpt lat="46.03119" lon="-0.31184">
        <ele>89.2</ele>
        <time>2014-08-31T09:02:47.000Z</time>
      </trkpt>
      <trkpt lat="46.03122" lon="-0.31168">
        <ele>89.3</ele>
        <time>2014-08-31T09:02:49.000Z</time>
      </trkpt>
      <trkpt lat="46.03123" lon="-0.31152">
        <ele>89.2</ele>
        <time>2014-08-31T09:02:51.000Z</time>
      </trkpt>
      <trkpt lat="46.03125" lon="-0.31119">
        <ele>90.1</ele>
        <time>2014-08-31T09:02:55.000Z</time>
      </trkpt>
      <trkpt lat="46.03125" lon="-0.31102">
        <ele>90.5</ele>
        <time>2014-08-31T09:02:57.000Z</time>
      </trkpt>
      <trkpt lat="46.03124" lon="-0.31085">
        <ele>90.8</ele>
        <time>2014-08-31T09:02:59.000Z</time>
      </trkpt>
      <trkpt lat="46.03125" lon="-0.31068">
        <ele>91.5</ele>
        <time>2014-08-31T09:03:01.000Z</time>
      </trkpt>
      <trkpt lat="46.03125" lon="-0.31051">
        <ele>91.7</ele>
        <time>2014-08-31T09:03:03.000Z</time>
      </trkpt>
      <trkpt lat="46.03125" lon="-0.31034">
        <ele>92</ele>
        <time>2014-08-31T09:03:05.000Z</time>
      </trkpt>
      <trkpt lat="46.03125" lon="-0.31017">
        <ele>92</ele>
        <time>2014-08-31T09:03:07.000Z</time>
      </trkpt>
      <trkpt lat="46.03125" lon="-0.31">
        <ele>92</ele>
        <time>2014-08-31T09:03:09.000Z</time>
      </trkpt>
      <trkpt lat="46.03124" lon="-0.30984">
        <ele>92.3</ele>
        <time>2014-08-31T09:03:11.000Z</time>
      </trkpt>
      <trkpt lat="46.03123" lon="-0.30967">
        <ele>92.2</ele>
        <time>2014-08-31T09:03:13.000Z</time>
      </trkpt>
      <trkpt lat="46.03124" lon="-0.30951">
        <ele>92.1</ele>
        <time>2014-08-31T09:03:15.000Z</time>
      </trkpt>
      <trkpt lat="46.03124" lon="-0.30935">
        <ele>91.7</ele>
        <time>2014-08-31T09:03:17.000Z</time>
      </trkpt>
      <trkpt lat="46.03124" lon="-0.30919">
        <ele>91.9</ele>
        <time>2014-08-31T09:03:19.000Z</time>
      </trkpt>
      <trkpt lat="46.03125" lon="-0.30903">
        <ele>92.5</ele>
        <time>2014-08-31T09:03:21.000Z</time>
      </trkpt>
      <trkpt lat="46.03125" lon="-0.30887">
        <ele>92.6</ele>
        <time>2014-08-31T09:03:23.000Z</time>
      </trkpt>
      <trkpt lat="46.03125" lon="-0.30871">
        <ele>92.6</ele>
        <time>2014-08-31T09:03:25.000Z</time>
      </trkpt>
      <trkpt lat="46.03125" lon="-0.30855">
        <ele>93</ele>
        <time>2014-08-31T09:03:27.000Z</time>
      </trkpt>
      <trkpt lat="46.03124" lon="-0.30838">
        <ele>93.5</ele>
        <time>2014-08-31T09:03:29.000Z</time>
      </trkpt>
      <trkpt lat="46.03122" lon="-0.30821">
        <ele>94</ele>
        <time>2014-08-31T09:03:31.000Z</time>
      </trkpt>
      <trkpt lat="46.03119" lon="-0.30804">
        <ele>94.1</ele>
        <time>2014-08-31T09:03:33.000Z</time>
      </trkpt>
      <trkpt lat="46.03116" lon="-0.30788">
        <ele>94.1</ele>
        <time>2014-08-31T09:03:35.000Z</time>
      </trkpt>
      <trkpt lat="46.03113" lon="-0.30772">
        <ele>93.9</ele>
        <time>2014-08-31T09:03:37.000Z</time>
      </trkpt>
      <trkpt lat="46.0311" lon="-0.30756">
        <ele>93.7</ele>
        <time>2014-08-31T09:03:39.000Z</time>
      </trkpt>
      <trkpt lat="46.03108" lon="-0.30739">
        <ele>93.3</ele>
        <time>2014-08-31T09:03:41.000Z</time>
      </trkpt>
      <trkpt lat="46.03107" lon="-0.30722">
        <ele>92.7</ele>
        <time>2014-08-31T09:03:43.000Z</time>
      </trkpt>
      <trkpt lat="46.03107" lon="-0.30705">
        <ele>92.2</ele>
        <time>2014-08-31T09:03:45.000Z</time>
      </trkpt>
      <trkpt lat="46.03108" lon="-0.30687">
        <ele>91.7</ele>
        <time>2014-08-31T09:03:47.000Z</time>
      </trkpt>
      <trkpt lat="46.0311" lon="-0.30668">
        <ele>91.2</ele>
        <time>2014-08-31T09:03:49.000Z</time>
      </trkpt>
      <trkpt lat="46.03111" lon="-0.30649">
        <ele>90.6</ele>
        <time>2014-08-31T09:03:51.000Z</time>
      </trkpt>
      <trkpt lat="46.03114" lon="-0.3063">
        <ele>90.7</ele>
        <time>2014-08-31T09:03:53.000Z</time>
      </trkpt>
      <trkpt lat="46.03119" lon="-0.30591">
        <ele>90.5</ele>
        <time>2014-08-31T09:03:57.000Z</time>
      </trkpt>
      <trkpt lat="46.03121" lon="-0.30572">
        <ele>90.2</ele>
        <time>2014-08-31T09:03:59.000Z</time>
      </trkpt>
      <trkpt lat="46.03125" lon="-0.30552">
        <ele>90.7</ele>
        <time>2014-08-31T09:04:01.000Z</time>
      </trkpt>
      <trkpt lat="46.03127" lon="-0.30533">
        <ele>90.4</ele>
        <time>2014-08-31T09:04:03.000Z</time>
      </trkpt>
      <trkpt lat="46.03127" lon="-0.30515">
        <ele>90.9</ele>
        <time>2014-08-31T09:04:05.000Z</time>
      </trkpt>
      <trkpt lat="46.03121" lon="-0.30501">
        <ele>91.5</ele>
        <time>2014-08-31T09:04:07.000Z</time>
      </trkpt>
      <trkpt lat="46.03112" lon="-0.30496">
        <ele>92</ele>
        <time>2014-08-31T09:04:09.000Z</time>
      </trkpt>
      <trkpt lat="46.03101" lon="-0.30491">
        <ele>92.2</ele>
        <time>2014-08-31T09:04:11.000Z</time>
      </trkpt>
      <trkpt lat="46.03091" lon="-0.30487">
        <ele>93.2</ele>
        <time>2014-08-31T09:04:13.000Z</time>
      </trkpt>
      <trkpt lat="46.03081" lon="-0.30484">
        <ele>93.6</ele>
        <time>2014-08-31T09:04:15.000Z</time>
      </trkpt>
      <trkpt lat="46.03071" lon="-0.30478">
        <ele>94</ele>
        <time>2014-08-31T09:04:17.000Z</time>
      </trkpt>
      <trkpt lat="46.03061" lon="-0.30472">
        <ele>94.7</ele>
        <time>2014-08-31T09:04:19.000Z</time>
      </trkpt>
      <trkpt lat="46.03051" lon="-0.30467">
        <ele>94.9</ele>
        <time>2014-08-31T09:04:21.000Z</time>
      </trkpt>
      <trkpt lat="46.03041" lon="-0.30463">
        <ele>95.2</ele>
        <time>2014-08-31T09:04:23.000Z</time>
      </trkpt>
      <trkpt lat="46.03031" lon="-0.30459">
        <ele>95.3</ele>
        <time>2014-08-31T09:04:25.000Z</time>
      </trkpt>
      <trkpt lat="46.0302" lon="-0.30456">
        <ele>95.4</ele>
        <time>2014-08-31T09:04:27.000Z</time>
      </trkpt>
      <trkpt lat="46.0301" lon="-0.30448">
        <ele>95.2</ele>
        <time>2014-08-31T09:04:29.000Z</time>
      </trkpt>
      <trkpt lat="46.03007" lon="-0.30433">
        <ele>94.9</ele>
        <time>2014-08-31T09:04:31.000Z</time>
      </trkpt>
      <trkpt lat="46.03007" lon="-0.30414">
        <ele>94.5</ele>
        <time>2014-08-31T09:04:33.000Z</time>
      </trkpt>
      <trkpt lat="46.03007" lon="-0.30394">
        <ele>94.1</ele>
        <time>2014-08-31T09:04:35.000Z</time>
      </trkpt>
      <trkpt lat="46.03007" lon="-0.30374">
        <ele>93.8</ele>
        <time>2014-08-31T09:04:37.000Z</time>
      </trkpt>
      <trkpt lat="46.03006" lon="-0.30354">
        <ele>93.8</ele>
        <time>2014-08-31T09:04:39.000Z</time>
      </trkpt>
      <trkpt lat="46.03006" lon="-0.30334">
        <ele>93.7</ele>
        <time>2014-08-31T09:04:41.000Z</time>
      </trkpt>
      <trkpt lat="46.03005" lon="-0.30314">
        <ele>93.4</ele>
        <time>2014-08-31T09:04:43.000Z</time>
      </trkpt>
      <trkpt lat="46.03005" lon="-0.30294">
        <ele>93.5</ele>
        <time>2014-08-31T09:04:45.000Z</time>
      </trkpt>
      <trkpt lat="46.03004" lon="-0.30275">
        <ele>93.7</ele>
        <time>2014-08-31T09:04:47.000Z</time>
      </trkpt>
      <trkpt lat="46.03003" lon="-0.30255">
        <ele>93.8</ele>
        <time>2014-08-31T09:04:49.000Z</time>
      </trkpt>
      <trkpt lat="46.03002" lon="-0.30236">
        <ele>94.3</ele>
        <time>2014-08-31T09:04:51.000Z</time>
      </trkpt>
      <trkpt lat="46.03002" lon="-0.30217">
        <ele>94.2</ele>
        <time>2014-08-31T09:04:53.000Z</time>
      </trkpt>
      <trkpt lat="46.03001" lon="-0.30197">
        <ele>94.5</ele>
        <time>2014-08-31T09:04:55.000Z</time>
      </trkpt>
      <trkpt lat="46.03" lon="-0.30156">
        <ele>94.4</ele>
        <time>2014-08-31T09:04:59.000Z</time>
      </trkpt>
      <trkpt lat="46.02999" lon="-0.30133">
        <ele>94.3</ele>
        <time>2014-08-31T09:05:01.000Z</time>
      </trkpt>
      <trkpt lat="46.02998" lon="-0.30111">
        <ele>94.4</ele>
        <time>2014-08-31T09:05:03.000Z</time>
      </trkpt>
      <trkpt lat="46.02997" lon="-0.30089">
        <ele>94.6</ele>
        <time>2014-08-31T09:05:05.000Z</time>
      </trkpt>
      <trkpt lat="46.02995" lon="-0.30068">
        <ele>94.4</ele>
        <time>2014-08-31T09:05:07.000Z</time>
      </trkpt>
      <trkpt lat="46.02994" lon="-0.30048">
        <ele>94.5</ele>
        <time>2014-08-31T09:05:09.000Z</time>
      </trkpt>
      <trkpt lat="46.02993" lon="-0.30029">
        <ele>94.4</ele>
        <time>2014-08-31T09:05:11.000Z</time>
      </trkpt>
      <trkpt lat="46.02989" lon="-0.30014">
        <ele>92.9</ele>
        <time>2014-08-31T09:05:13.000Z</time>
      </trkpt>
      <trkpt lat="46.02979" lon="-0.3001">
        <ele>92.2</ele>
        <time>2014-08-31T09:05:15.000Z</time>
      </trkpt>
      <trkpt lat="46.02967" lon="-0.30014">
        <ele>91.5</ele>
        <time>2014-08-31T09:05:17.000Z</time>
      </trkpt>
      <trkpt lat="46.02954" lon="-0.30021">
        <ele>90.6</ele>
        <time>2014-08-31T09:05:19.000Z</time>
      </trkpt>
      <trkpt lat="46.0294" lon="-0.30026">
        <ele>90.5</ele>
        <time>2014-08-31T09:05:21.000Z</time>
      </trkpt>
      <trkpt lat="46.02926" lon="-0.30033">
        <ele>90.6</ele>
        <time>2014-08-31T09:05:23.000Z</time>
      </trkpt>
      <trkpt lat="46.0291" lon="-0.30039">
        <ele>90.9</ele>
        <time>2014-08-31T09:05:25.000Z</time>
      </trkpt>
      <trkpt lat="46.02893" lon="-0.30045">
        <ele>90.7</ele>
        <time>2014-08-31T09:05:27.000Z</time>
      </trkpt>
      <trkpt lat="46.02876" lon="-0.30052">
        <ele>90.3</ele>
        <time>2014-08-31T09:05:29.000Z</time>
      </trkpt>
      <trkpt lat="46.02867" lon="-0.30056">
        <ele>90</ele>
        <time>2014-08-31T09:05:30.000Z</time>
      </trkpt>
      <trkpt lat="46.02859" lon="-0.3006">
        <ele>89.7</ele>
        <time>2014-08-31T09:05:31.000Z</time>
      </trkpt>
      <trkpt lat="46.0285" lon="-0.30063">
        <ele>89.4</ele>
        <time>2014-08-31T09:05:32.000Z</time>
      </trkpt>
      <trkpt lat="46.02841" lon="-0.30067">
        <ele>89</ele>
        <time>2014-08-31T09:05:33.000Z</time>
      </trkpt>
      <trkpt lat="46.02833" lon="-0.30072">
        <ele>88.8</ele>
        <time>2014-08-31T09:05:34.000Z</time>
      </trkpt>
      <trkpt lat="46.02824" lon="-0.30077">
        <ele>88.8</ele>
        <time>2014-08-31T09:05:35.000Z</time>
      </trkpt>
      <trkpt lat="46.02807" lon="-0.30085">
        <ele>88</ele>
        <time>2014-08-31T09:05:37.000Z</time>
      </trkpt>
      <trkpt lat="46.02791" lon="-0.30093">
        <ele>87.4</ele>
        <time>2014-08-31T09:05:39.000Z</time>
      </trkpt>
      <trkpt lat="46.02774" lon="-0.30101">
        <ele>86.8</ele>
        <time>2014-08-31T09:05:41.000Z</time>
      </trkpt>
      <trkpt lat="46.02765" lon="-0.30104">
        <ele>86.2</ele>
        <time>2014-08-31T09:05:42.000Z</time>
      </trkpt>
      <trkpt lat="46.02756" lon="-0.30108">
        <ele>85.6</ele>
        <time>2014-08-31T09:05:43.000Z</time>
      </trkpt>
      <trkpt lat="46.02748" lon="-0.30112">
        <ele>85.2</ele>
        <time>2014-08-31T09:05:44.000Z</time>
      </trkpt>
      <trkpt lat="46.02739" lon="-0.30116">
        <ele>84.8</ele>
        <time>2014-08-31T09:05:45.000Z</time>
      </trkpt>
      <trkpt lat="46.02722" lon="-0.30122">
        <ele>84.1</ele>
        <time>2014-08-31T09:05:47.000Z</time>
      </trkpt>
      <trkpt lat="46.02706" lon="-0.30129">
        <ele>83.4</ele>
        <time>2014-08-31T09:05:49.000Z</time>
      </trkpt>
      <trkpt lat="46.0269" lon="-0.30136">
        <ele>83.2</ele>
        <time>2014-08-31T09:05:51.000Z</time>
      </trkpt>
      <trkpt lat="46.02675" lon="-0.30143">
        <ele>82.9</ele>
        <time>2014-08-31T09:05:53.000Z</time>
      </trkpt>
      <trkpt lat="46.02659" lon="-0.3015">
        <ele>82.3</ele>
        <time>2014-08-31T09:05:55.000Z</time>
      </trkpt>
      <trkpt lat="46.02644" lon="-0.30158">
        <ele>81.4</ele>
        <time>2014-08-31T09:05:57.000Z</time>
      </trkpt>
      <trkpt lat="46.02618" lon="-0.3017">
        <ele>79.5</ele>
        <time>2014-08-31T09:06:01.000Z</time>
      </trkpt>
      <trkpt lat="46.02607" lon="-0.30175">
        <ele>78.9</ele>
        <time>2014-08-31T09:06:03.000Z</time>
      </trkpt>
      <trkpt lat="46.02597" lon="-0.30181">
        <ele>78.1</ele>
        <time>2014-08-31T09:06:05.000Z</time>
      </trkpt>
      <trkpt lat="46.02588" lon="-0.30188">
        <ele>77.3</ele>
        <time>2014-08-31T09:06:07.000Z</time>
      </trkpt>
      <trkpt lat="46.02579" lon="-0.30197">
        <ele>76.3</ele>
        <time>2014-08-31T09:06:09.000Z</time>
      </trkpt>
      <trkpt lat="46.02573" lon="-0.30207">
        <ele>75.7</ele>
        <time>2014-08-31T09:06:11.000Z</time>
      </trkpt>
      <trkpt lat="46.02566" lon="-0.30219">
        <ele>75</ele>
        <time>2014-08-31T09:06:13.000Z</time>
      </trkpt>
      <trkpt lat="46.02557" lon="-0.30228">
        <ele>74.4</ele>
        <time>2014-08-31T09:06:15.000Z</time>
      </trkpt>
      <trkpt lat="46.02547" lon="-0.30236">
        <ele>73.9</ele>
        <time>2014-08-31T09:06:17.000Z</time>
      </trkpt>
      <trkpt lat="46.02538" lon="-0.30242">
        <ele>73.7</ele>
        <time>2014-08-31T09:06:19.000Z</time>
      </trkpt>
      <trkpt lat="46.02529" lon="-0.30249">
        <ele>73.2</ele>
        <time>2014-08-31T09:06:21.000Z</time>
      </trkpt>
      <trkpt lat="46.02521" lon="-0.30254">
        <ele>72.9</ele>
        <time>2014-08-31T09:06:23.000Z</time>
      </trkpt>
      <trkpt lat="46.02512" lon="-0.30255">
        <ele>72.7</ele>
        <time>2014-08-31T09:06:25.000Z</time>
      </trkpt>
      <trkpt lat="46.02503" lon="-0.30255">
        <ele>72.4</ele>
        <time>2014-08-31T09:06:27.000Z</time>
      </trkpt>
      <trkpt lat="46.02493" lon="-0.30259">
        <ele>71.6</ele>
        <time>2014-08-31T09:06:31.000Z</time>
      </trkpt>
      <trkpt lat="46.02489" lon="-0.30272">
        <ele>70.1</ele>
        <time>2014-08-31T09:06:34.000Z</time>
      </trkpt>
      <trkpt lat="46.02482" lon="-0.30285">
        <ele>69.2</ele>
        <time>2014-08-31T09:06:37.000Z</time>
      </trkpt>
      <trkpt lat="46.0247" lon="-0.30294">
        <ele>68.3</ele>
        <time>2014-08-31T09:06:40.000Z</time>
      </trkpt>
      <trkpt lat="46.02459" lon="-0.30299">
        <ele>67.4</ele>
        <time>2014-08-31T09:06:43.000Z</time>
      </trkpt>
      <trkpt lat="46.0245" lon="-0.30306">
        <ele>66.7</ele>
        <time>2014-08-31T09:06:48.000Z</time>
      </trkpt>
      <trkpt lat="46.02451" lon="-0.30309">
        <ele>65.2</ele>
        <time>2014-08-31T09:07:06.000Z</time>
      </trkpt>
    </trkseg>
  </trk>
</gpx>